<?xml version="1.0" encoding="UTF-8" standalone="no" ?>
<gpx xmlns="http://www.topografix.com/GPX/1/1" xmlns:xsi="http://www.w3.org/2001/XMLSchema-instance" xsi:schemaLocation="http://www.topografix.com/GPX/1/1 http://www.topografix.com/GPX/1/1/gpx.xsd" version="1.1" creator="VisuGPX - https://www.visugpx.com">
  <metadata>
    <name>Ruhr - Day 2: Bochum-Dortmund</name>
  </metadata>
  <trk>
    <name><![CDATA[Ruhrpott-Tour - Tag 2: Bochum-Dortmund]]></name>
    <extensions>
      <line xmlns="http://www.topografix.com/GPX/gpx_style/0/2">
        <color>0000FF</color>
        <width>4</width>
      </line>
    </extensions>
    <trkseg>
      <trkpt lat="51.42712" lon="7.14224">
        <ele>101.312858</ele>
        <time>2023-04-27T07:55:57.844Z</time>
      </trkpt>
      <trkpt lat="51.42709" lon="7.14241">
        <ele>101.312858</ele>
        <time>2023-04-27T07:56:03.853Z</time>
      </trkpt>
      <trkpt lat="51.42713" lon="7.14256">
        <ele>101.312858</ele>
        <time>2023-04-27T07:56:08.821Z</time>
      </trkpt>
      <trkpt lat="51.42717" lon="7.14271">
        <ele>101.312858</ele>
        <time>2023-04-27T07:56:12.831Z</time>
      </trkpt>
      <trkpt lat="51.42717" lon="7.1429">
        <ele>101.312858</ele>
        <time>2023-04-27T07:56:16.810Z</time>
      </trkpt>
      <trkpt lat="51.42718" lon="7.14307">
        <ele>101.312858</ele>
        <time>2023-04-27T07:56:19.840Z</time>
      </trkpt>
      <trkpt lat="51.42717" lon="7.14323">
        <ele>101.312858</ele>
        <time>2023-04-27T07:56:22.830Z</time>
      </trkpt>
      <trkpt lat="51.42712" lon="7.14337">
        <ele>101.312858</ele>
        <time>2023-04-27T07:56:25.814Z</time>
      </trkpt>
      <trkpt lat="51.42715" lon="7.14353">
        <ele>101.312858</ele>
        <time>2023-04-27T07:56:29.835Z</time>
      </trkpt>
      <trkpt lat="51.42726" lon="7.14357">
        <ele>101.334272</ele>
        <time>2023-04-27T07:56:33.819Z</time>
      </trkpt>
      <trkpt lat="51.42736" lon="7.14359">
        <ele>101.371157</ele>
        <time>2023-04-27T07:56:39.813Z</time>
      </trkpt>
      <trkpt lat="51.42736" lon="7.14374">
        <ele>101.40879</ele>
        <time>2023-04-27T07:56:58.814Z</time>
      </trkpt>
      <trkpt lat="51.42741" lon="7.1439">
        <ele>101.451164</ele>
        <time>2023-04-27T07:57:04.828Z</time>
      </trkpt>
      <trkpt lat="51.42744" lon="7.14404">
        <ele>101.4875</ele>
        <time>2023-04-27T07:57:09.817Z</time>
      </trkpt>
      <trkpt lat="51.42745" lon="7.14421">
        <ele>101.528914</ele>
        <time>2023-04-27T07:57:14.816Z</time>
      </trkpt>
      <trkpt lat="51.42747" lon="7.14437">
        <ele>101.568235</ele>
        <time>2023-04-27T07:57:19.806Z</time>
      </trkpt>
      <trkpt lat="51.4275" lon="7.14451">
        <ele>101.606825</ele>
        <time>2023-04-27T07:57:24.821Z</time>
      </trkpt>
      <trkpt lat="51.42753" lon="7.14468">
        <ele>101.648809</ele>
        <time>2023-04-27T07:57:28.817Z</time>
      </trkpt>
      <trkpt lat="51.42756" lon="7.14482">
        <ele>101.684579</ele>
        <time>2023-04-27T07:57:31.837Z</time>
      </trkpt>
      <trkpt lat="51.42759" lon="7.14497">
        <ele>101.723504</ele>
        <time>2023-04-27T07:57:34.836Z</time>
      </trkpt>
      <trkpt lat="51.42762" lon="7.14512">
        <ele>101.762081</ele>
        <time>2023-04-27T07:57:37.814Z</time>
      </trkpt>
      <trkpt lat="51.42765" lon="7.14528">
        <ele>101.802761</ele>
        <time>2023-04-27T07:57:40.816Z</time>
      </trkpt>
      <trkpt lat="51.42768" lon="7.14544">
        <ele>101.843691</ele>
        <time>2023-04-27T07:57:43.819Z</time>
      </trkpt>
      <trkpt lat="51.4277" lon="7.14558">
        <ele>101.879381</ele>
        <time>2023-04-27T07:57:46.821Z</time>
      </trkpt>
      <trkpt lat="51.42773" lon="7.14572">
        <ele>101.916562</ele>
        <time>2023-04-27T07:57:49.810Z</time>
      </trkpt>
      <trkpt lat="51.42776" lon="7.14588">
        <ele>101.955848</ele>
        <time>2023-04-27T07:57:52.813Z</time>
      </trkpt>
      <trkpt lat="51.42779" lon="7.14603">
        <ele>101.995476</ele>
        <time>2023-04-27T07:57:55.802Z</time>
      </trkpt>
      <trkpt lat="51.42781" lon="7.14618">
        <ele>102.056108</ele>
        <time>2023-04-27T07:57:58.829Z</time>
      </trkpt>
      <trkpt lat="51.42785" lon="7.14634">
        <ele>102.172718</ele>
        <time>2023-04-27T07:58:01.815Z</time>
      </trkpt>
      <trkpt lat="51.42788" lon="7.1465">
        <ele>102.281648</ele>
        <time>2023-04-27T07:58:04.818Z</time>
      </trkpt>
      <trkpt lat="51.4279" lon="7.14667">
        <ele>102.399707</ele>
        <time>2023-04-27T07:58:07.814Z</time>
      </trkpt>
      <trkpt lat="51.42794" lon="7.14685">
        <ele>102.526441</ele>
        <time>2023-04-27T07:58:10.819Z</time>
      </trkpt>
      <trkpt lat="51.42797" lon="7.14702">
        <ele>102.642724</ele>
        <time>2023-04-27T07:58:13.814Z</time>
      </trkpt>
      <trkpt lat="51.428" lon="7.14717">
        <ele>102.748312</ele>
        <time>2023-04-27T07:58:16.818Z</time>
      </trkpt>
      <trkpt lat="51.42804" lon="7.14732">
        <ele>102.857956</ele>
        <time>2023-04-27T07:58:19.819Z</time>
      </trkpt>
      <trkpt lat="51.42809" lon="7.14748">
        <ele>102.975556</ele>
        <time>2023-04-27T07:58:22.806Z</time>
      </trkpt>
      <trkpt lat="51.42816" lon="7.14764">
        <ele>103.102352</ele>
        <time>2023-04-27T07:58:25.821Z</time>
      </trkpt>
      <trkpt lat="51.42822" lon="7.14778">
        <ele>103.219035</ele>
        <time>2023-04-27T07:58:28.826Z</time>
      </trkpt>
      <trkpt lat="51.42827" lon="7.14794">
        <ele>103.33448</ele>
        <time>2023-04-27T07:58:31.809Z</time>
      </trkpt>
      <trkpt lat="51.42831" lon="7.14809">
        <ele>103.445664</ele>
        <time>2023-04-27T07:58:34.822Z</time>
      </trkpt>
      <trkpt lat="51.42837" lon="7.14824">
        <ele>103.565262</ele>
        <time>2023-04-27T07:58:37.863Z</time>
      </trkpt>
      <trkpt lat="51.42843" lon="7.14839">
        <ele>103.686963</ele>
        <time>2023-04-27T07:58:40.815Z</time>
      </trkpt>
      <trkpt lat="51.42851" lon="7.14855">
        <ele>103.821261</ele>
        <time>2023-04-27T07:58:43.808Z</time>
      </trkpt>
      <trkpt lat="51.42857" lon="7.14868">
        <ele>103.929601</ele>
        <time>2023-04-27T07:58:46.829Z</time>
      </trkpt>
      <trkpt lat="51.42862" lon="7.14882">
        <ele>104.222364</ele>
        <time>2023-04-27T07:58:49.823Z</time>
      </trkpt>
      <trkpt lat="51.42868" lon="7.14896">
        <ele>104.578998</ele>
        <time>2023-04-27T07:58:53.831Z</time>
      </trkpt>
      <trkpt lat="51.42875" lon="7.14908">
        <ele>104.909348</ele>
        <time>2023-04-27T07:58:57.821Z</time>
      </trkpt>
      <trkpt lat="51.4288" lon="7.1492">
        <ele>105.224625</ele>
        <time>2023-04-27T07:59:02.807Z</time>
      </trkpt>
      <trkpt lat="51.42874" lon="7.14933">
        <ele>105.557668</ele>
        <time>2023-04-27T07:59:07.809Z</time>
      </trkpt>
      <trkpt lat="51.42868" lon="7.14944">
        <ele>105.870248</ele>
        <time>2023-04-27T07:59:10.816Z</time>
      </trkpt>
      <trkpt lat="51.42867" lon="7.14963">
        <ele>106.264445</ele>
        <time>2023-04-27T07:59:14.882Z</time>
      </trkpt>
      <trkpt lat="51.42869" lon="7.14978">
        <ele>106.564967</ele>
        <time>2023-04-27T07:59:17.803Z</time>
      </trkpt>
      <trkpt lat="51.42869" lon="7.14994">
        <ele>106.899607</ele>
        <time>2023-04-27T07:59:21.827Z</time>
      </trkpt>
      <trkpt lat="51.42869" lon="7.15009">
        <ele>107.202744</ele>
        <time>2023-04-27T07:59:25.794Z</time>
      </trkpt>
      <trkpt lat="51.42863" lon="7.15022">
        <ele>107.535538</ele>
        <time>2023-04-27T07:59:30.812Z</time>
      </trkpt>
      <trkpt lat="51.42854" lon="7.15027">
        <ele>107.868105</ele>
        <time>2023-04-27T07:59:35.799Z</time>
      </trkpt>
      <trkpt lat="51.42844" lon="7.15031">
        <ele>108.199344</ele>
        <time>2023-04-27T07:59:40.812Z</time>
      </trkpt>
      <trkpt lat="51.42835" lon="7.15035">
        <ele>108.510864</ele>
        <time>2023-04-27T07:59:45.794Z</time>
      </trkpt>
      <trkpt lat="51.42826" lon="7.1504">
        <ele>108.824543</ele>
        <time>2023-04-27T07:59:50.816Z</time>
      </trkpt>
      <trkpt lat="51.42817" lon="7.15044">
        <ele>109.125627</ele>
        <time>2023-04-27T07:59:55.799Z</time>
      </trkpt>
      <trkpt lat="51.42809" lon="7.1505">
        <ele>109.425176</ele>
        <time>2023-04-27T08:00:00.809Z</time>
      </trkpt>
      <trkpt lat="51.428" lon="7.15058">
        <ele>109.758728</ele>
        <time>2023-04-27T08:00:06.810Z</time>
      </trkpt>
      <trkpt lat="51.42795" lon="7.15071">
        <ele>110.662498</ele>
        <time>2023-04-27T08:00:13.813Z</time>
      </trkpt>
      <trkpt lat="51.42795" lon="7.15086">
        <ele>111.964037</ele>
        <time>2023-04-27T08:00:19.800Z</time>
      </trkpt>
      <trkpt lat="51.42798" lon="7.15101">
        <ele>113.332913</ele>
        <time>2023-04-27T08:00:26.832Z</time>
      </trkpt>
      <trkpt lat="51.42802" lon="7.15115">
        <ele>114.607096</ele>
        <time>2023-04-27T08:00:32.808Z</time>
      </trkpt>
      <trkpt lat="51.42806" lon="7.1513">
        <ele>115.98342</ele>
        <time>2023-04-27T08:00:39.809Z</time>
      </trkpt>
      <trkpt lat="51.42805" lon="7.15145">
        <ele>117.263813</ele>
        <time>2023-04-27T08:00:46.828Z</time>
      </trkpt>
      <trkpt lat="51.42805" lon="7.1516">
        <ele>118.505828</ele>
        <time>2023-04-27T08:00:52.814Z</time>
      </trkpt>
      <trkpt lat="51.42806" lon="7.15174">
        <ele>119.748133</ele>
        <time>2023-04-27T08:01:00.811Z</time>
      </trkpt>
      <trkpt lat="51.42807" lon="7.15189">
        <ele>120.989812</ele>
        <time>2023-04-27T08:01:40.813Z</time>
      </trkpt>
      <trkpt lat="51.42797" lon="7.15195">
        <ele>122.417326</ele>
        <time>2023-04-27T08:01:57.817Z</time>
      </trkpt>
      <trkpt lat="51.42795" lon="7.15209">
        <ele>123.659676</ele>
        <time>2023-04-27T08:02:03.826Z</time>
      </trkpt>
      <trkpt lat="51.42794" lon="7.15223">
        <ele>124.89658</ele>
        <time>2023-04-27T08:02:08.852Z</time>
      </trkpt>
      <trkpt lat="51.42792" lon="7.1524">
        <ele>126.302143</ele>
        <time>2023-04-27T08:02:14.821Z</time>
      </trkpt>
      <trkpt lat="51.42792" lon="7.15255">
        <ele>127.586459</ele>
        <time>2023-04-27T08:02:19.805Z</time>
      </trkpt>
      <trkpt lat="51.4279" lon="7.1527">
        <ele>128.958094</ele>
        <time>2023-04-27T08:02:24.815Z</time>
      </trkpt>
      <trkpt lat="51.42786" lon="7.15285">
        <ele>130.337801</ele>
        <time>2023-04-27T08:02:30.814Z</time>
      </trkpt>
      <trkpt lat="51.42777" lon="7.15294">
        <ele>131.713239</ele>
        <time>2023-04-27T08:02:35.815Z</time>
      </trkpt>
      <trkpt lat="51.42772" lon="7.15306">
        <ele>133.018058</ele>
        <time>2023-04-27T08:02:40.823Z</time>
      </trkpt>
      <trkpt lat="51.42767" lon="7.15321">
        <ele>134.418486</ele>
        <time>2023-04-27T08:02:46.825Z</time>
      </trkpt>
      <trkpt lat="51.42761" lon="7.15332">
        <ele>135.401544</ele>
        <time>2023-04-27T08:02:54.813Z</time>
      </trkpt>
      <trkpt lat="51.42756" lon="7.15346">
        <ele>136.408567</ele>
        <time>2023-04-27T08:03:04.809Z</time>
      </trkpt>
      <trkpt lat="51.42751" lon="7.15359">
        <ele>137.354444</ele>
        <time>2023-04-27T08:03:13.821Z</time>
      </trkpt>
      <trkpt lat="51.42748" lon="7.15373">
        <ele>138.334044</ele>
        <time>2023-04-27T08:03:22.818Z</time>
      </trkpt>
      <trkpt lat="51.42744" lon="7.15386">
        <ele>139.28665</ele>
        <time>2023-04-27T08:03:30.805Z</time>
      </trkpt>
      <trkpt lat="51.42739" lon="7.15398">
        <ele>140.243076</ele>
        <time>2023-04-27T08:03:39.804Z</time>
      </trkpt>
      <trkpt lat="51.42733" lon="7.15412">
        <ele>141.287013</ele>
        <time>2023-04-27T08:03:47.819Z</time>
      </trkpt>
      <trkpt lat="51.4273" lon="7.15427">
        <ele>142.301964</ele>
        <time>2023-04-27T08:03:56.819Z</time>
      </trkpt>
      <trkpt lat="51.42724" lon="7.1544">
        <ele>143.364407</ele>
        <time>2023-04-27T08:04:02.815Z</time>
      </trkpt>
      <trkpt lat="51.42721" lon="7.15456">
        <ele>144.390502</ele>
        <time>2023-04-27T08:04:07.810Z</time>
      </trkpt>
      <trkpt lat="51.4272" lon="7.15471">
        <ele>145.396383</ele>
        <time>2023-04-27T08:04:12.818Z</time>
      </trkpt>
      <trkpt lat="51.42719" lon="7.15487">
        <ele>146.430107</ele>
        <time>2023-04-27T08:04:17.805Z</time>
      </trkpt>
      <trkpt lat="51.42718" lon="7.15503">
        <ele>147.425997</ele>
        <time>2023-04-27T08:04:22.818Z</time>
      </trkpt>
      <trkpt lat="51.42718" lon="7.15519">
        <ele>148.456465</ele>
        <time>2023-04-27T08:04:27.811Z</time>
      </trkpt>
      <trkpt lat="51.42716" lon="7.15534">
        <ele>149.477976</ele>
        <time>2023-04-27T08:04:32.805Z</time>
      </trkpt>
      <trkpt lat="51.42716" lon="7.1555">
        <ele>150.52817</ele>
        <time>2023-04-27T08:04:37.805Z</time>
      </trkpt>
      <trkpt lat="51.42713" lon="7.15565">
        <ele>151.473018</ele>
        <time>2023-04-27T08:04:41.810Z</time>
      </trkpt>
      <trkpt lat="51.42711" lon="7.15581">
        <ele>152.55124</ele>
        <time>2023-04-27T08:04:46.825Z</time>
      </trkpt>
      <trkpt lat="51.42711" lon="7.15596">
        <ele>153.239358</ele>
        <time>2023-04-27T08:04:51.819Z</time>
      </trkpt>
      <trkpt lat="51.4271" lon="7.15613">
        <ele>153.708791</ele>
        <time>2023-04-27T08:04:56.809Z</time>
      </trkpt>
      <trkpt lat="51.4271" lon="7.15629">
        <ele>154.165302</ele>
        <time>2023-04-27T08:05:01.826Z</time>
      </trkpt>
      <trkpt lat="51.4271" lon="7.15647">
        <ele>154.664788</ele>
        <time>2023-04-27T08:05:07.818Z</time>
      </trkpt>
      <trkpt lat="51.42711" lon="7.15663">
        <ele>155.093365</ele>
        <time>2023-04-27T08:05:12.830Z</time>
      </trkpt>
      <trkpt lat="51.42712" lon="7.15678">
        <ele>155.520329</ele>
        <time>2023-04-27T08:05:17.893Z</time>
      </trkpt>
      <trkpt lat="51.42712" lon="7.15692">
        <ele>155.937827</ele>
        <time>2023-04-27T08:05:22.815Z</time>
      </trkpt>
      <trkpt lat="51.42713" lon="7.15709">
        <ele>156.414955</ele>
        <time>2023-04-27T08:05:28.819Z</time>
      </trkpt>
      <trkpt lat="51.42713" lon="7.15724">
        <ele>156.83506</ele>
        <time>2023-04-27T08:05:33.814Z</time>
      </trkpt>
      <trkpt lat="51.42712" lon="7.1574">
        <ele>157.261594</ele>
        <time>2023-04-27T08:05:38.810Z</time>
      </trkpt>
      <trkpt lat="51.4271" lon="7.15754">
        <ele>157.682244</ele>
        <time>2023-04-27T08:05:43.828Z</time>
      </trkpt>
      <trkpt lat="51.42707" lon="7.1577">
        <ele>158.143503</ele>
        <time>2023-04-27T08:05:48.818Z</time>
      </trkpt>
      <trkpt lat="51.427" lon="7.15782">
        <ele>158.606868</ele>
        <time>2023-04-27T08:05:54.811Z</time>
      </trkpt>
      <trkpt lat="51.42695" lon="7.15798">
        <ele>159.093559</ele>
        <time>2023-04-27T08:05:59.803Z</time>
      </trkpt>
      <trkpt lat="51.4269" lon="7.1581">
        <ele>159.500269</ele>
        <time>2023-04-27T08:06:04.825Z</time>
      </trkpt>
      <trkpt lat="51.42691" lon="7.15819">
        <ele>159.750816</ele>
        <time>2023-04-27T08:10:45.050Z</time>
      </trkpt>
      <trkpt lat="51.42687" lon="7.15833">
        <ele>160.21394</ele>
        <time>2023-04-27T08:14:16.819Z</time>
      </trkpt>
      <trkpt lat="51.42682" lon="7.15848">
        <ele>160.667542</ele>
        <time>2023-04-27T08:14:21.837Z</time>
      </trkpt>
      <trkpt lat="51.42675" lon="7.15862">
        <ele>161.083801</ele>
        <time>2023-04-27T08:14:25.815Z</time>
      </trkpt>
      <trkpt lat="51.42671" lon="7.15875">
        <ele>161.085543</ele>
        <time>2023-04-27T08:14:28.821Z</time>
      </trkpt>
      <trkpt lat="51.42666" lon="7.15889">
        <ele>161.087483</ele>
        <time>2023-04-27T08:14:32.832Z</time>
      </trkpt>
      <trkpt lat="51.42661" lon="7.15905">
        <ele>161.089473</ele>
        <time>2023-04-27T08:14:36.823Z</time>
      </trkpt>
      <trkpt lat="51.42655" lon="7.15917">
        <ele>161.091344</ele>
        <time>2023-04-27T08:14:40.823Z</time>
      </trkpt>
      <trkpt lat="51.42651" lon="7.15932">
        <ele>161.093216</ele>
        <time>2023-04-27T08:14:44.815Z</time>
      </trkpt>
      <trkpt lat="51.42645" lon="7.15946">
        <ele>161.095185</ele>
        <time>2023-04-27T08:14:48.839Z</time>
      </trkpt>
      <trkpt lat="51.42641" lon="7.15959">
        <ele>161.097017</ele>
        <time>2023-04-27T08:14:52.835Z</time>
      </trkpt>
      <trkpt lat="51.42635" lon="7.15974">
        <ele>161.099125</ele>
        <time>2023-04-27T08:14:57.826Z</time>
      </trkpt>
      <trkpt lat="51.4263" lon="7.15988">
        <ele>161.100928</ele>
        <time>2023-04-27T08:15:02.907Z</time>
      </trkpt>
      <trkpt lat="51.42625" lon="7.16002">
        <ele>161.102876</ele>
        <time>2023-04-27T08:15:07.814Z</time>
      </trkpt>
      <trkpt lat="51.42617" lon="7.16014">
        <ele>161.104887</ele>
        <time>2023-04-27T08:15:12.813Z</time>
      </trkpt>
      <trkpt lat="51.4261" lon="7.16026">
        <ele>161.106874</ele>
        <time>2023-04-27T08:15:16.805Z</time>
      </trkpt>
      <trkpt lat="51.42601" lon="7.16039">
        <ele>161.109059</ele>
        <time>2023-04-27T08:15:20.827Z</time>
      </trkpt>
      <trkpt lat="51.42596" lon="7.16054">
        <ele>161.111178</ele>
        <time>2023-04-27T08:15:24.809Z</time>
      </trkpt>
      <trkpt lat="51.4259" lon="7.16066">
        <ele>161.11293</ele>
        <time>2023-04-27T08:15:30.811Z</time>
      </trkpt>
      <trkpt lat="51.42581" lon="7.16064">
        <ele>161.114653</ele>
        <time>2023-04-27T08:15:35.809Z</time>
      </trkpt>
      <trkpt lat="51.42574" lon="7.16056">
        <ele>161.116363</ele>
        <time>2023-04-27T08:15:40.803Z</time>
      </trkpt>
      <trkpt lat="51.42567" lon="7.16044">
        <ele>160.982257</ele>
        <time>2023-04-27T08:15:44.814Z</time>
      </trkpt>
      <trkpt lat="51.42557" lon="7.16046">
        <ele>160.670466</ele>
        <time>2023-04-27T08:15:50.817Z</time>
      </trkpt>
      <trkpt lat="51.42548" lon="7.16044">
        <ele>160.390317</ele>
        <time>2023-04-27T08:15:54.800Z</time>
      </trkpt>
      <trkpt lat="51.42539" lon="7.16045">
        <ele>160.105685</ele>
        <time>2023-04-27T08:15:57.820Z</time>
      </trkpt>
      <trkpt lat="51.42528" lon="7.16052">
        <ele>159.743613</ele>
        <time>2023-04-27T08:16:00.800Z</time>
      </trkpt>
      <trkpt lat="51.42516" lon="7.16059">
        <ele>159.378015</ele>
        <time>2023-04-27T08:16:03.814Z</time>
      </trkpt>
      <trkpt lat="51.42506" lon="7.16067">
        <ele>159.010336</ele>
        <time>2023-04-27T08:16:06.814Z</time>
      </trkpt>
      <trkpt lat="51.42494" lon="7.16077">
        <ele>158.617095</ele>
        <time>2023-04-27T08:16:09.814Z</time>
      </trkpt>
      <trkpt lat="51.42483" lon="7.16088">
        <ele>158.217888</ele>
        <time>2023-04-27T08:16:12.820Z</time>
      </trkpt>
      <trkpt lat="51.42474" lon="7.16098">
        <ele>157.87205</ele>
        <time>2023-04-27T08:16:15.803Z</time>
      </trkpt>
      <trkpt lat="51.42464" lon="7.16109">
        <ele>157.500671</ele>
        <time>2023-04-27T08:16:19.822Z</time>
      </trkpt>
      <trkpt lat="51.42455" lon="7.16121">
        <ele>157.158542</ele>
        <time>2023-04-27T08:16:22.805Z</time>
      </trkpt>
      <trkpt lat="51.42445" lon="7.16136">
        <ele>156.730452</ele>
        <time>2023-04-27T08:16:25.807Z</time>
      </trkpt>
      <trkpt lat="51.42438" lon="7.16148">
        <ele>156.420808</ele>
        <time>2023-04-27T08:16:27.811Z</time>
      </trkpt>
      <trkpt lat="51.42431" lon="7.16159">
        <ele>156.121765</ele>
        <time>2023-04-27T08:16:29.812Z</time>
      </trkpt>
      <trkpt lat="51.42425" lon="7.1617">
        <ele>155.838615</ele>
        <time>2023-04-27T08:16:31.831Z</time>
      </trkpt>
      <trkpt lat="51.42417" lon="7.16179">
        <ele>155.593412</ele>
        <time>2023-04-27T08:16:33.817Z</time>
      </trkpt>
      <trkpt lat="51.42408" lon="7.16189">
        <ele>155.428106</ele>
        <time>2023-04-27T08:16:36.801Z</time>
      </trkpt>
      <trkpt lat="51.42389" lon="7.16206">
        <ele>155.101697</ele>
        <time>2023-04-27T08:17:07.820Z</time>
      </trkpt>
      <trkpt lat="51.42379" lon="7.16216">
        <ele>154.932539</ele>
        <time>2023-04-27T08:17:10.816Z</time>
      </trkpt>
      <trkpt lat="51.42371" lon="7.16223">
        <ele>154.797097</ele>
        <time>2023-04-27T08:17:12.806Z</time>
      </trkpt>
      <trkpt lat="51.42361" lon="7.16232">
        <ele>154.624165</ele>
        <time>2023-04-27T08:17:15.816Z</time>
      </trkpt>
      <trkpt lat="51.42351" lon="7.16241">
        <ele>154.462477</ele>
        <time>2023-04-27T08:17:18.829Z</time>
      </trkpt>
      <trkpt lat="51.42341" lon="7.16249">
        <ele>154.294332</ele>
        <time>2023-04-27T08:17:21.805Z</time>
      </trkpt>
      <trkpt lat="51.42329" lon="7.16258">
        <ele>154.099668</ele>
        <time>2023-04-27T08:17:24.813Z</time>
      </trkpt>
      <trkpt lat="51.42319" lon="7.16267">
        <ele>153.92018</ele>
        <time>2023-04-27T08:17:27.815Z</time>
      </trkpt>
      <trkpt lat="51.4231" lon="7.16279">
        <ele>153.748643</ele>
        <time>2023-04-27T08:17:30.803Z</time>
      </trkpt>
      <trkpt lat="51.42298" lon="7.16288">
        <ele>153.560388</ele>
        <time>2023-04-27T08:17:33.800Z</time>
      </trkpt>
      <trkpt lat="51.42289" lon="7.16298">
        <ele>153.394076</ele>
        <time>2023-04-27T08:17:36.818Z</time>
      </trkpt>
      <trkpt lat="51.42279" lon="7.16306">
        <ele>153.22289</ele>
        <time>2023-04-27T08:17:39.820Z</time>
      </trkpt>
      <trkpt lat="51.42269" lon="7.16316">
        <ele>153.048313</ele>
        <time>2023-04-27T08:17:42.831Z</time>
      </trkpt>
      <trkpt lat="51.42258" lon="7.16327">
        <ele>152.913858</ele>
        <time>2023-04-27T08:17:45.797Z</time>
      </trkpt>
      <trkpt lat="51.42247" lon="7.16338">
        <ele>152.812823</ele>
        <time>2023-04-27T08:17:48.812Z</time>
      </trkpt>
      <trkpt lat="51.42236" lon="7.16349">
        <ele>152.714296</ele>
        <time>2023-04-27T08:17:51.812Z</time>
      </trkpt>
      <trkpt lat="51.42224" lon="7.16361">
        <ele>152.605365</ele>
        <time>2023-04-27T08:17:54.812Z</time>
      </trkpt>
      <trkpt lat="51.42216" lon="7.1637">
        <ele>152.530325</ele>
        <time>2023-04-27T08:17:56.819Z</time>
      </trkpt>
      <trkpt lat="51.42206" lon="7.16383">
        <ele>152.433276</ele>
        <time>2023-04-27T08:17:59.814Z</time>
      </trkpt>
      <trkpt lat="51.42196" lon="7.16394">
        <ele>152.34129</ele>
        <time>2023-04-27T08:18:02.819Z</time>
      </trkpt>
      <trkpt lat="51.42187" lon="7.16401">
        <ele>152.263297</ele>
        <time>2023-04-27T08:18:05.816Z</time>
      </trkpt>
      <trkpt lat="51.42179" lon="7.1641">
        <ele>152.186733</ele>
        <time>2023-04-27T08:18:08.813Z</time>
      </trkpt>
      <trkpt lat="51.4217" lon="7.1642">
        <ele>152.105786</ele>
        <time>2023-04-27T08:18:11.825Z</time>
      </trkpt>
      <trkpt lat="51.4216" lon="7.16427">
        <ele>152.0243</ele>
        <time>2023-04-27T08:18:14.814Z</time>
      </trkpt>
      <trkpt lat="51.42151" lon="7.16439">
        <ele>151.934376</ele>
        <time>2023-04-27T08:18:17.818Z</time>
      </trkpt>
      <trkpt lat="51.42142" lon="7.1645">
        <ele>151.846523</ele>
        <time>2023-04-27T08:18:20.819Z</time>
      </trkpt>
      <trkpt lat="51.42131" lon="7.16462">
        <ele>151.746699</ele>
        <time>2023-04-27T08:18:23.816Z</time>
      </trkpt>
      <trkpt lat="51.42124" lon="7.16471">
        <ele>151.674663</ele>
        <time>2023-04-27T08:18:25.795Z</time>
      </trkpt>
      <trkpt lat="51.42113" lon="7.16483">
        <ele>151.614586</ele>
        <time>2023-04-27T08:18:28.815Z</time>
      </trkpt>
      <trkpt lat="51.42104" lon="7.16497">
        <ele>151.728615</ele>
        <time>2023-04-27T08:18:31.816Z</time>
      </trkpt>
      <trkpt lat="51.42096" lon="7.16505">
        <ele>151.81339</ele>
        <time>2023-04-27T08:18:33.812Z</time>
      </trkpt>
      <trkpt lat="51.42085" lon="7.16516">
        <ele>151.928279</ele>
        <time>2023-04-27T08:18:36.814Z</time>
      </trkpt>
      <trkpt lat="51.42074" lon="7.16529">
        <ele>152.048676</ele>
        <time>2023-04-27T08:18:39.812Z</time>
      </trkpt>
      <trkpt lat="51.42066" lon="7.16541">
        <ele>152.153167</ele>
        <time>2023-04-27T08:18:42.817Z</time>
      </trkpt>
      <trkpt lat="51.42056" lon="7.1655">
        <ele>152.255709</ele>
        <time>2023-04-27T08:18:45.799Z</time>
      </trkpt>
      <trkpt lat="51.42046" lon="7.16559">
        <ele>152.364545</ele>
        <time>2023-04-27T08:18:48.796Z</time>
      </trkpt>
      <trkpt lat="51.42037" lon="7.16567">
        <ele>152.452335</ele>
        <time>2023-04-27T08:18:55.809Z</time>
      </trkpt>
      <trkpt lat="51.42027" lon="7.16576">
        <ele>152.556093</ele>
        <time>2023-04-27T08:18:59.801Z</time>
      </trkpt>
      <trkpt lat="51.42018" lon="7.16584">
        <ele>152.648945</ele>
        <time>2023-04-27T08:19:02.809Z</time>
      </trkpt>
      <trkpt lat="51.4201" lon="7.16595">
        <ele>152.748238</ele>
        <time>2023-04-27T08:19:05.818Z</time>
      </trkpt>
      <trkpt lat="51.42002" lon="7.16607">
        <ele>152.847246</ele>
        <time>2023-04-27T08:19:08.816Z</time>
      </trkpt>
      <trkpt lat="51.41992" lon="7.16617">
        <ele>152.951443</ele>
        <time>2023-04-27T08:19:11.808Z</time>
      </trkpt>
      <trkpt lat="51.41982" lon="7.16627">
        <ele>153.06372</ele>
        <time>2023-04-27T08:19:14.827Z</time>
      </trkpt>
      <trkpt lat="51.41973" lon="7.16637">
        <ele>153.161796</ele>
        <time>2023-04-27T08:19:17.813Z</time>
      </trkpt>
      <trkpt lat="51.41961" lon="7.16647">
        <ele>153.4295</ele>
        <time>2023-04-27T08:19:20.826Z</time>
      </trkpt>
      <trkpt lat="51.4195" lon="7.16654">
        <ele>153.83598</ele>
        <time>2023-04-27T08:19:23.813Z</time>
      </trkpt>
      <trkpt lat="51.4194" lon="7.16659">
        <ele>154.202622</ele>
        <time>2023-04-27T08:19:26.813Z</time>
      </trkpt>
      <trkpt lat="51.41929" lon="7.16667">
        <ele>154.604393</ele>
        <time>2023-04-27T08:19:29.823Z</time>
      </trkpt>
      <trkpt lat="51.41919" lon="7.16676">
        <ele>154.987875</ele>
        <time>2023-04-27T08:19:32.815Z</time>
      </trkpt>
      <trkpt lat="51.41908" lon="7.1668">
        <ele>155.370475</ele>
        <time>2023-04-27T08:19:35.810Z</time>
      </trkpt>
      <trkpt lat="51.41897" lon="7.16685">
        <ele>155.768178</ele>
        <time>2023-04-27T08:19:38.835Z</time>
      </trkpt>
      <trkpt lat="51.41886" lon="7.1669">
        <ele>156.166434</ele>
        <time>2023-04-27T08:19:41.819Z</time>
      </trkpt>
      <trkpt lat="51.41874" lon="7.16696">
        <ele>156.572162</ele>
        <time>2023-04-27T08:19:44.814Z</time>
      </trkpt>
      <trkpt lat="51.41864" lon="7.16701">
        <ele>156.94532</ele>
        <time>2023-04-27T08:19:47.818Z</time>
      </trkpt>
      <trkpt lat="51.41854" lon="7.16706">
        <ele>157.304289</ele>
        <time>2023-04-27T08:19:50.819Z</time>
      </trkpt>
      <trkpt lat="51.41843" lon="7.16711">
        <ele>157.688965</ele>
        <time>2023-04-27T08:19:53.818Z</time>
      </trkpt>
      <trkpt lat="51.41832" lon="7.16717">
        <ele>158.074163</ele>
        <time>2023-04-27T08:19:56.819Z</time>
      </trkpt>
      <trkpt lat="51.41821" lon="7.16724">
        <ele>158.48079</ele>
        <time>2023-04-27T08:19:59.814Z</time>
      </trkpt>
      <trkpt lat="51.4181" lon="7.1673">
        <ele>158.849859</ele>
        <time>2023-04-27T08:20:02.816Z</time>
      </trkpt>
      <trkpt lat="51.41799" lon="7.16734">
        <ele>159.257482</ele>
        <time>2023-04-27T08:20:05.797Z</time>
      </trkpt>
      <trkpt lat="51.41786" lon="7.16738">
        <ele>159.087987</ele>
        <time>2023-04-27T08:20:08.803Z</time>
      </trkpt>
      <trkpt lat="51.41778" lon="7.16743">
        <ele>158.89177</ele>
        <time>2023-04-27T08:20:10.825Z</time>
      </trkpt>
      <trkpt lat="51.41767" lon="7.16747">
        <ele>158.654188</ele>
        <time>2023-04-27T08:20:13.807Z</time>
      </trkpt>
      <trkpt lat="51.41755" lon="7.16753">
        <ele>158.407461</ele>
        <time>2023-04-27T08:20:16.825Z</time>
      </trkpt>
      <trkpt lat="51.41743" lon="7.16757">
        <ele>158.147576</ele>
        <time>2023-04-27T08:20:19.817Z</time>
      </trkpt>
      <trkpt lat="51.41732" lon="7.16763">
        <ele>157.904079</ele>
        <time>2023-04-27T08:20:22.813Z</time>
      </trkpt>
      <trkpt lat="51.4172" lon="7.16769">
        <ele>157.643218</ele>
        <time>2023-04-27T08:20:25.813Z</time>
      </trkpt>
      <trkpt lat="51.4171" lon="7.16774">
        <ele>157.404929</ele>
        <time>2023-04-27T08:20:28.815Z</time>
      </trkpt>
      <trkpt lat="51.41698" lon="7.16779">
        <ele>157.153951</ele>
        <time>2023-04-27T08:20:31.819Z</time>
      </trkpt>
      <trkpt lat="51.41686" lon="7.16786">
        <ele>156.875062</ele>
        <time>2023-04-27T08:20:34.821Z</time>
      </trkpt>
      <trkpt lat="51.41674" lon="7.16792">
        <ele>156.620208</ele>
        <time>2023-04-27T08:20:37.812Z</time>
      </trkpt>
      <trkpt lat="51.41662" lon="7.16799">
        <ele>156.345418</ele>
        <time>2023-04-27T08:20:40.823Z</time>
      </trkpt>
      <trkpt lat="51.4165" lon="7.16806">
        <ele>156.076894</ele>
        <time>2023-04-27T08:20:43.815Z</time>
      </trkpt>
      <trkpt lat="51.41638" lon="7.16813">
        <ele>155.810011</ele>
        <time>2023-04-27T08:20:46.817Z</time>
      </trkpt>
      <trkpt lat="51.4163" lon="7.1682">
        <ele>155.614119</ele>
        <time>2023-04-27T08:20:48.814Z</time>
      </trkpt>
      <trkpt lat="51.41622" lon="7.16826">
        <ele>155.346074</ele>
        <time>2023-04-27T08:20:50.817Z</time>
      </trkpt>
      <trkpt lat="51.41613" lon="7.16833">
        <ele>155.010904</ele>
        <time>2023-04-27T08:20:52.824Z</time>
      </trkpt>
      <trkpt lat="51.41605" lon="7.1684">
        <ele>154.670186</ele>
        <time>2023-04-27T08:20:54.826Z</time>
      </trkpt>
      <trkpt lat="51.41597" lon="7.16847">
        <ele>154.320836</ele>
        <time>2023-04-27T08:20:56.833Z</time>
      </trkpt>
      <trkpt lat="51.41587" lon="7.16854">
        <ele>153.929177</ele>
        <time>2023-04-27T08:20:58.821Z</time>
      </trkpt>
      <trkpt lat="51.41577" lon="7.16863">
        <ele>153.515821</ele>
        <time>2023-04-27T08:21:00.830Z</time>
      </trkpt>
      <trkpt lat="51.41568" lon="7.16872">
        <ele>153.108573</ele>
        <time>2023-04-27T08:21:02.833Z</time>
      </trkpt>
      <trkpt lat="51.41556" lon="7.16879">
        <ele>152.662182</ele>
        <time>2023-04-27T08:21:04.836Z</time>
      </trkpt>
      <trkpt lat="51.41546" lon="7.16888">
        <ele>152.230942</ele>
        <time>2023-04-27T08:21:06.801Z</time>
      </trkpt>
      <trkpt lat="51.41536" lon="7.16896">
        <ele>151.823768</ele>
        <time>2023-04-27T08:21:08.820Z</time>
      </trkpt>
      <trkpt lat="51.41525" lon="7.16907">
        <ele>151.344886</ele>
        <time>2023-04-27T08:21:10.821Z</time>
      </trkpt>
      <trkpt lat="51.41514" lon="7.16915">
        <ele>150.907342</ele>
        <time>2023-04-27T08:21:12.821Z</time>
      </trkpt>
      <trkpt lat="51.41503" lon="7.16925">
        <ele>150.459185</ele>
        <time>2023-04-27T08:21:14.819Z</time>
      </trkpt>
      <trkpt lat="51.41493" lon="7.16933">
        <ele>150.023894</ele>
        <time>2023-04-27T08:21:16.831Z</time>
      </trkpt>
      <trkpt lat="51.41482" lon="7.16942">
        <ele>149.57218</ele>
        <time>2023-04-27T08:21:18.833Z</time>
      </trkpt>
      <trkpt lat="51.41471" lon="7.16951">
        <ele>149.135852</ele>
        <time>2023-04-27T08:21:20.827Z</time>
      </trkpt>
      <trkpt lat="51.41462" lon="7.16959">
        <ele>148.757759</ele>
        <time>2023-04-27T08:21:22.824Z</time>
      </trkpt>
      <trkpt lat="51.41451" lon="7.16967">
        <ele>148.396235</ele>
        <time>2023-04-27T08:21:24.822Z</time>
      </trkpt>
      <trkpt lat="51.41442" lon="7.16975">
        <ele>148.041059</ele>
        <time>2023-04-27T08:21:26.820Z</time>
      </trkpt>
      <trkpt lat="51.41432" lon="7.16986">
        <ele>147.662077</ele>
        <time>2023-04-27T08:21:28.813Z</time>
      </trkpt>
      <trkpt lat="51.41424" lon="7.17001">
        <ele>147.2585</ele>
        <time>2023-04-27T08:21:30.816Z</time>
      </trkpt>
      <trkpt lat="51.41419" lon="7.17018">
        <ele>146.888087</ele>
        <time>2023-04-27T08:21:32.798Z</time>
      </trkpt>
      <trkpt lat="51.41412" lon="7.17033">
        <ele>146.521244</ele>
        <time>2023-04-27T08:21:34.837Z</time>
      </trkpt>
      <trkpt lat="51.41406" lon="7.17048">
        <ele>146.170025</ele>
        <time>2023-04-27T08:21:36.818Z</time>
      </trkpt>
      <trkpt lat="51.41402" lon="7.17063">
        <ele>145.824662</ele>
        <time>2023-04-27T08:21:38.820Z</time>
      </trkpt>
      <trkpt lat="51.41397" lon="7.17076">
        <ele>145.519448</ele>
        <time>2023-04-27T08:21:40.824Z</time>
      </trkpt>
      <trkpt lat="51.41392" lon="7.1709">
        <ele>145.198878</ele>
        <time>2023-04-27T08:21:42.820Z</time>
      </trkpt>
      <trkpt lat="51.41385" lon="7.17101">
        <ele>144.881027</ele>
        <time>2023-04-27T08:21:44.822Z</time>
      </trkpt>
      <trkpt lat="51.41376" lon="7.17115">
        <ele>144.491412</ele>
        <time>2023-04-27T08:21:47.831Z</time>
      </trkpt>
      <trkpt lat="51.4137" lon="7.17129">
        <ele>144.138018</ele>
        <time>2023-04-27T08:21:50.835Z</time>
      </trkpt>
      <trkpt lat="51.41366" lon="7.17142">
        <ele>143.844937</ele>
        <time>2023-04-27T08:21:52.823Z</time>
      </trkpt>
      <trkpt lat="51.41359" lon="7.17152">
        <ele>143.552163</ele>
        <time>2023-04-27T08:21:54.818Z</time>
      </trkpt>
      <trkpt lat="51.41352" lon="7.17162">
        <ele>143.242827</ele>
        <time>2023-04-27T08:21:56.810Z</time>
      </trkpt>
      <trkpt lat="51.41345" lon="7.17172">
        <ele>142.97338</ele>
        <time>2023-04-27T08:21:58.804Z</time>
      </trkpt>
      <trkpt lat="51.41337" lon="7.17182">
        <ele>142.698042</ele>
        <time>2023-04-27T08:22:00.817Z</time>
      </trkpt>
      <trkpt lat="51.41328" lon="7.17191">
        <ele>142.424617</ele>
        <time>2023-04-27T08:22:02.801Z</time>
      </trkpt>
      <trkpt lat="51.4132" lon="7.17199">
        <ele>142.154266</ele>
        <time>2023-04-27T08:22:04.794Z</time>
      </trkpt>
      <trkpt lat="51.41311" lon="7.17206">
        <ele>141.899901</ele>
        <time>2023-04-27T08:22:06.821Z</time>
      </trkpt>
      <trkpt lat="51.41302" lon="7.17212">
        <ele>141.639867</ele>
        <time>2023-04-27T08:22:08.812Z</time>
      </trkpt>
      <trkpt lat="51.41293" lon="7.17217">
        <ele>141.37004</ele>
        <time>2023-04-27T08:22:10.833Z</time>
      </trkpt>
      <trkpt lat="51.41283" lon="7.17223">
        <ele>141.094326</ele>
        <time>2023-04-27T08:22:13.811Z</time>
      </trkpt>
      <trkpt lat="51.41272" lon="7.17227">
        <ele>140.793895</ele>
        <time>2023-04-27T08:22:16.819Z</time>
      </trkpt>
      <trkpt lat="51.41264" lon="7.1723">
        <ele>140.550486</ele>
        <time>2023-04-27T08:22:18.814Z</time>
      </trkpt>
      <trkpt lat="51.41255" lon="7.17232">
        <ele>140.304698</ele>
        <time>2023-04-27T08:22:20.817Z</time>
      </trkpt>
      <trkpt lat="51.41244" lon="7.17233">
        <ele>140.021297</ele>
        <time>2023-04-27T08:22:22.821Z</time>
      </trkpt>
      <trkpt lat="51.41233" lon="7.17235">
        <ele>139.725613</ele>
        <time>2023-04-27T08:22:24.810Z</time>
      </trkpt>
      <trkpt lat="51.41222" lon="7.17237">
        <ele>139.432801</ele>
        <time>2023-04-27T08:22:26.817Z</time>
      </trkpt>
      <trkpt lat="51.4121" lon="7.1724">
        <ele>139.108093</ele>
        <time>2023-04-27T08:22:28.817Z</time>
      </trkpt>
      <trkpt lat="51.41198" lon="7.17243">
        <ele>138.761306</ele>
        <time>2023-04-27T08:22:30.832Z</time>
      </trkpt>
      <trkpt lat="51.41184" lon="7.17245">
        <ele>138.401361</ele>
        <time>2023-04-27T08:22:32.827Z</time>
      </trkpt>
      <trkpt lat="51.41172" lon="7.17242">
        <ele>137.844419</ele>
        <time>2023-04-27T08:22:34.809Z</time>
      </trkpt>
      <trkpt lat="51.41159" lon="7.1724">
        <ele>137.167019</ele>
        <time>2023-04-27T08:22:36.808Z</time>
      </trkpt>
      <trkpt lat="51.41145" lon="7.17238">
        <ele>136.45315</ele>
        <time>2023-04-27T08:22:38.817Z</time>
      </trkpt>
      <trkpt lat="51.41132" lon="7.17237">
        <ele>135.735389</ele>
        <time>2023-04-27T08:22:40.831Z</time>
      </trkpt>
      <trkpt lat="51.41118" lon="7.17236">
        <ele>135.007856</ele>
        <time>2023-04-27T08:22:42.815Z</time>
      </trkpt>
      <trkpt lat="51.41105" lon="7.17234">
        <ele>134.336911</ele>
        <time>2023-04-27T08:22:44.818Z</time>
      </trkpt>
      <trkpt lat="51.41092" lon="7.17234">
        <ele>133.667372</ele>
        <time>2023-04-27T08:22:46.814Z</time>
      </trkpt>
      <trkpt lat="51.4108" lon="7.17233">
        <ele>133.065105</ele>
        <time>2023-04-27T08:22:48.815Z</time>
      </trkpt>
      <trkpt lat="51.41068" lon="7.17232">
        <ele>132.414868</ele>
        <time>2023-04-27T08:22:50.821Z</time>
      </trkpt>
      <trkpt lat="51.41055" lon="7.1723">
        <ele>131.774222</ele>
        <time>2023-04-27T08:22:52.819Z</time>
      </trkpt>
      <trkpt lat="51.41043" lon="7.17228">
        <ele>131.152971</ele>
        <time>2023-04-27T08:22:54.819Z</time>
      </trkpt>
      <trkpt lat="51.41031" lon="7.17224">
        <ele>130.50295</ele>
        <time>2023-04-27T08:22:56.816Z</time>
      </trkpt>
      <trkpt lat="51.41019" lon="7.17221">
        <ele>129.842853</ele>
        <time>2023-04-27T08:22:58.821Z</time>
      </trkpt>
      <trkpt lat="51.41006" lon="7.17218">
        <ele>129.166434</ele>
        <time>2023-04-27T08:23:00.834Z</time>
      </trkpt>
      <trkpt lat="51.40992" lon="7.17213">
        <ele>128.231801</ele>
        <time>2023-04-27T08:23:02.821Z</time>
      </trkpt>
      <trkpt lat="51.40979" lon="7.17205">
        <ele>127.205939</ele>
        <time>2023-04-27T08:23:04.811Z</time>
      </trkpt>
      <trkpt lat="51.40966" lon="7.17194">
        <ele>126.18263</ele>
        <time>2023-04-27T08:23:06.815Z</time>
      </trkpt>
      <trkpt lat="51.40955" lon="7.17181">
        <ele>125.19555</ele>
        <time>2023-04-27T08:23:08.824Z</time>
      </trkpt>
      <trkpt lat="51.40943" lon="7.17169">
        <ele>124.195001</ele>
        <time>2023-04-27T08:23:10.827Z</time>
      </trkpt>
      <trkpt lat="51.40932" lon="7.17157">
        <ele>123.21875</ele>
        <time>2023-04-27T08:23:12.817Z</time>
      </trkpt>
      <trkpt lat="51.40921" lon="7.17145">
        <ele>122.276325</ele>
        <time>2023-04-27T08:23:14.830Z</time>
      </trkpt>
      <trkpt lat="51.40911" lon="7.17132">
        <ele>121.358004</ele>
        <time>2023-04-27T08:23:16.833Z</time>
      </trkpt>
      <trkpt lat="51.40901" lon="7.17122">
        <ele>120.497679</ele>
        <time>2023-04-27T08:23:18.819Z</time>
      </trkpt>
      <trkpt lat="51.4089" lon="7.17111">
        <ele>119.592662</ele>
        <time>2023-04-27T08:23:20.824Z</time>
      </trkpt>
      <trkpt lat="51.4088" lon="7.17099">
        <ele>118.659411</ele>
        <time>2023-04-27T08:23:22.812Z</time>
      </trkpt>
      <trkpt lat="51.4087" lon="7.17087">
        <ele>117.7967</ele>
        <time>2023-04-27T08:23:24.815Z</time>
      </trkpt>
      <trkpt lat="51.40862" lon="7.17077">
        <ele>117.056943</ele>
        <time>2023-04-27T08:23:26.806Z</time>
      </trkpt>
      <trkpt lat="51.40852" lon="7.17065">
        <ele>116.127154</ele>
        <time>2023-04-27T08:23:29.818Z</time>
      </trkpt>
      <trkpt lat="51.40842" lon="7.17057">
        <ele>115.748877</ele>
        <time>2023-04-27T08:23:32.808Z</time>
      </trkpt>
      <trkpt lat="51.40833" lon="7.17051">
        <ele>115.44215</ele>
        <time>2023-04-27T08:23:39.814Z</time>
      </trkpt>
      <trkpt lat="51.40823" lon="7.17049">
        <ele>115.136592</ele>
        <time>2023-04-27T08:23:42.812Z</time>
      </trkpt>
      <trkpt lat="51.40813" lon="7.17057">
        <ele>114.789497</ele>
        <time>2023-04-27T08:23:45.791Z</time>
      </trkpt>
      <trkpt lat="51.40803" lon="7.1707">
        <ele>114.385227</ele>
        <time>2023-04-27T08:23:48.813Z</time>
      </trkpt>
      <trkpt lat="51.40796" lon="7.1708">
        <ele>114.094244</ele>
        <time>2023-04-27T08:23:50.815Z</time>
      </trkpt>
      <trkpt lat="51.40787" lon="7.17088">
        <ele>113.77722</ele>
        <time>2023-04-27T08:23:52.815Z</time>
      </trkpt>
      <trkpt lat="51.40778" lon="7.17096">
        <ele>113.465535</ele>
        <time>2023-04-27T08:23:54.813Z</time>
      </trkpt>
      <trkpt lat="51.40768" lon="7.17104">
        <ele>113.112865</ele>
        <time>2023-04-27T08:23:57.813Z</time>
      </trkpt>
      <trkpt lat="51.40758" lon="7.17111">
        <ele>112.787981</ele>
        <time>2023-04-27T08:24:09.829Z</time>
      </trkpt>
      <trkpt lat="51.40749" lon="7.17121">
        <ele>112.430525</ele>
        <time>2023-04-27T08:24:13.813Z</time>
      </trkpt>
      <trkpt lat="51.40741" lon="7.17132">
        <ele>112.111058</ele>
        <time>2023-04-27T08:24:16.813Z</time>
      </trkpt>
      <trkpt lat="51.40732" lon="7.17142">
        <ele>111.764579</ele>
        <time>2023-04-27T08:24:19.812Z</time>
      </trkpt>
      <trkpt lat="51.40721" lon="7.17133">
        <ele>111.387293</ele>
        <time>2023-04-27T08:24:22.851Z</time>
      </trkpt>
      <trkpt lat="51.40716" lon="7.17114">
        <ele>110.969886</ele>
        <time>2023-04-27T08:24:25.804Z</time>
      </trkpt>
      <trkpt lat="51.40709" lon="7.17096">
        <ele>110.569978</ele>
        <time>2023-04-27T08:24:28.810Z</time>
      </trkpt>
      <trkpt lat="51.40701" lon="7.1708">
        <ele>110.389606</ele>
        <time>2023-04-27T08:24:31.804Z</time>
      </trkpt>
      <trkpt lat="51.40693" lon="7.17065">
        <ele>110.283853</ele>
        <time>2023-04-27T08:24:34.832Z</time>
      </trkpt>
      <trkpt lat="51.40684" lon="7.17052">
        <ele>110.185704</ele>
        <time>2023-04-27T08:24:37.804Z</time>
      </trkpt>
      <trkpt lat="51.40676" lon="7.17041">
        <ele>110.092768</ele>
        <time>2023-04-27T08:24:40.820Z</time>
      </trkpt>
      <trkpt lat="51.40667" lon="7.17031">
        <ele>109.999675</ele>
        <time>2023-04-27T08:24:43.800Z</time>
      </trkpt>
      <trkpt lat="51.40657" lon="7.17022">
        <ele>109.908968</ele>
        <time>2023-04-27T08:24:46.821Z</time>
      </trkpt>
      <trkpt lat="51.40649" lon="7.17014">
        <ele>109.824295</ele>
        <time>2023-04-27T08:24:49.815Z</time>
      </trkpt>
      <trkpt lat="51.4064" lon="7.17007">
        <ele>109.736949</ele>
        <time>2023-04-27T08:24:52.819Z</time>
      </trkpt>
      <trkpt lat="51.40629" lon="7.17001">
        <ele>109.643132</ele>
        <time>2023-04-27T08:24:56.813Z</time>
      </trkpt>
      <trkpt lat="51.40626" lon="7.17">
        <ele>109.620384</ele>
        <time>2023-04-27T08:25:56.642Z</time>
      </trkpt>
      <trkpt lat="51.40617" lon="7.17005">
        <ele>109.538257</ele>
        <time>2023-04-27T08:28:54.816Z</time>
      </trkpt>
      <trkpt lat="51.4061" lon="7.17016">
        <ele>109.45465</ele>
        <time>2023-04-27T08:28:58.817Z</time>
      </trkpt>
      <trkpt lat="51.40603" lon="7.1703">
        <ele>109.358046</ele>
        <time>2023-04-27T08:29:03.841Z</time>
      </trkpt>
      <trkpt lat="51.40597" lon="7.17041">
        <ele>109.282028</ele>
        <time>2023-04-27T08:29:06.836Z</time>
      </trkpt>
      <trkpt lat="51.40592" lon="7.17055">
        <ele>109.196878</ele>
        <time>2023-04-27T08:29:16.817Z</time>
      </trkpt>
      <trkpt lat="51.40584" lon="7.1707">
        <ele>109.095559</ele>
        <time>2023-04-27T08:29:20.815Z</time>
      </trkpt>
      <trkpt lat="51.40577" lon="7.17079">
        <ele>109.015436</ele>
        <time>2023-04-27T08:29:23.805Z</time>
      </trkpt>
      <trkpt lat="51.4057" lon="7.17091">
        <ele>108.975453</ele>
        <time>2023-04-27T08:29:26.844Z</time>
      </trkpt>
      <trkpt lat="51.40562" lon="7.17105">
        <ele>109.066934</ele>
        <time>2023-04-27T08:29:30.804Z</time>
      </trkpt>
      <trkpt lat="51.40561" lon="7.17119">
        <ele>109.139424</ele>
        <time>2023-04-27T08:29:33.813Z</time>
      </trkpt>
      <trkpt lat="51.40562" lon="7.17136">
        <ele>109.220708</ele>
        <time>2023-04-27T08:29:36.810Z</time>
      </trkpt>
      <trkpt lat="51.40565" lon="7.17151">
        <ele>109.298011</ele>
        <time>2023-04-27T08:29:39.808Z</time>
      </trkpt>
      <trkpt lat="51.40566" lon="7.17166">
        <ele>109.372429</ele>
        <time>2023-04-27T08:29:42.810Z</time>
      </trkpt>
      <trkpt lat="51.40568" lon="7.17184">
        <ele>109.461844</ele>
        <time>2023-04-27T08:29:45.804Z</time>
      </trkpt>
      <trkpt lat="51.40572" lon="7.17202">
        <ele>109.553554</ele>
        <time>2023-04-27T08:29:48.825Z</time>
      </trkpt>
      <trkpt lat="51.40576" lon="7.17219">
        <ele>109.639827</ele>
        <time>2023-04-27T08:29:51.814Z</time>
      </trkpt>
      <trkpt lat="51.4058" lon="7.17234">
        <ele>109.72091</ele>
        <time>2023-04-27T08:29:54.811Z</time>
      </trkpt>
      <trkpt lat="51.40583" lon="7.17252">
        <ele>109.811659</ele>
        <time>2023-04-27T08:29:57.815Z</time>
      </trkpt>
      <trkpt lat="51.40588" lon="7.17269">
        <ele>109.902305</ele>
        <time>2023-04-27T08:30:00.831Z</time>
      </trkpt>
      <trkpt lat="51.40592" lon="7.17286">
        <ele>109.990246</ele>
        <time>2023-04-27T08:30:03.814Z</time>
      </trkpt>
      <trkpt lat="51.40598" lon="7.17299">
        <ele>110.068687</ele>
        <time>2023-04-27T08:30:06.811Z</time>
      </trkpt>
      <trkpt lat="51.40604" lon="7.17314">
        <ele>110.155975</ele>
        <time>2023-04-27T08:30:10.822Z</time>
      </trkpt>
      <trkpt lat="51.40609" lon="7.17328">
        <ele>110.235007</ele>
        <time>2023-04-27T08:30:14.828Z</time>
      </trkpt>
      <trkpt lat="51.40616" lon="7.1734">
        <ele>110.312266</ele>
        <time>2023-04-27T08:30:19.800Z</time>
      </trkpt>
      <trkpt lat="51.40618" lon="7.17355">
        <ele>110.394128</ele>
        <time>2023-04-27T08:37:49.815Z</time>
      </trkpt>
      <trkpt lat="51.40623" lon="7.17367">
        <ele>110.475848</ele>
        <time>2023-04-27T08:37:56.812Z</time>
      </trkpt>
      <trkpt lat="51.40628" lon="7.1738">
        <ele>110.560738</ele>
        <time>2023-04-27T08:38:01.816Z</time>
      </trkpt>
      <trkpt lat="51.40635" lon="7.17393">
        <ele>110.658377</ele>
        <time>2023-04-27T08:38:06.798Z</time>
      </trkpt>
      <trkpt lat="51.40641" lon="7.17406">
        <ele>110.752096</ele>
        <time>2023-04-27T08:38:10.811Z</time>
      </trkpt>
      <trkpt lat="51.40648" lon="7.17419">
        <ele>110.842185</ele>
        <time>2023-04-27T08:38:14.796Z</time>
      </trkpt>
      <trkpt lat="51.40655" lon="7.17432">
        <ele>110.94227</ele>
        <time>2023-04-27T08:38:18.830Z</time>
      </trkpt>
      <trkpt lat="51.40662" lon="7.17444">
        <ele>111.038949</ele>
        <time>2023-04-27T08:38:22.832Z</time>
      </trkpt>
      <trkpt lat="51.40669" lon="7.17456">
        <ele>111.12732</ele>
        <time>2023-04-27T08:38:26.826Z</time>
      </trkpt>
      <trkpt lat="51.40676" lon="7.1747">
        <ele>111.231615</ele>
        <time>2023-04-27T08:38:30.822Z</time>
      </trkpt>
      <trkpt lat="51.40684" lon="7.17484">
        <ele>111.33677</ele>
        <time>2023-04-27T08:38:34.817Z</time>
      </trkpt>
      <trkpt lat="51.4069" lon="7.17494">
        <ele>111.419514</ele>
        <time>2023-04-27T08:38:37.814Z</time>
      </trkpt>
      <trkpt lat="51.40698" lon="7.17508">
        <ele>111.525984</ele>
        <time>2023-04-27T08:38:41.812Z</time>
      </trkpt>
      <trkpt lat="51.40706" lon="7.17523">
        <ele>111.632587</ele>
        <time>2023-04-27T08:38:45.807Z</time>
      </trkpt>
      <trkpt lat="51.40712" lon="7.17533">
        <ele>111.716365</ele>
        <time>2023-04-27T08:38:48.814Z</time>
      </trkpt>
      <trkpt lat="51.40718" lon="7.17545">
        <ele>111.80008</ele>
        <time>2023-04-27T08:38:51.810Z</time>
      </trkpt>
      <trkpt lat="51.40725" lon="7.17555">
        <ele>111.883683</ele>
        <time>2023-04-27T08:38:54.801Z</time>
      </trkpt>
      <trkpt lat="51.40732" lon="7.17568">
        <ele>111.983757</ele>
        <time>2023-04-27T08:38:58.818Z</time>
      </trkpt>
      <trkpt lat="51.4074" lon="7.17581">
        <ele>112.029105</ele>
        <time>2023-04-27T08:39:02.817Z</time>
      </trkpt>
      <trkpt lat="51.40748" lon="7.17595">
        <ele>112.07165</ele>
        <time>2023-04-27T08:39:06.830Z</time>
      </trkpt>
      <trkpt lat="51.40755" lon="7.17606">
        <ele>112.104615</ele>
        <time>2023-04-27T08:39:09.815Z</time>
      </trkpt>
      <trkpt lat="51.40763" lon="7.17619">
        <ele>112.145723</ele>
        <time>2023-04-27T08:39:13.816Z</time>
      </trkpt>
      <trkpt lat="51.40771" lon="7.17633">
        <ele>112.188424</ele>
        <time>2023-04-27T08:39:17.818Z</time>
      </trkpt>
      <trkpt lat="51.40778" lon="7.17644">
        <ele>112.223111</ele>
        <time>2023-04-27T08:39:20.819Z</time>
      </trkpt>
      <trkpt lat="51.40784" lon="7.17655">
        <ele>112.255178</ele>
        <time>2023-04-27T08:39:23.817Z</time>
      </trkpt>
      <trkpt lat="51.40791" lon="7.17665">
        <ele>112.288167</ele>
        <time>2023-04-27T08:39:26.817Z</time>
      </trkpt>
      <trkpt lat="51.40797" lon="7.17676">
        <ele>112.320809</ele>
        <time>2023-04-27T08:39:29.818Z</time>
      </trkpt>
      <trkpt lat="51.40804" lon="7.17687">
        <ele>112.354677</ele>
        <time>2023-04-27T08:39:32.816Z</time>
      </trkpt>
      <trkpt lat="51.4081" lon="7.17697">
        <ele>112.388331</ele>
        <time>2023-04-27T08:39:35.822Z</time>
      </trkpt>
      <trkpt lat="51.40817" lon="7.17708">
        <ele>112.42214</ele>
        <time>2023-04-27T08:39:38.831Z</time>
      </trkpt>
      <trkpt lat="51.40824" lon="7.17719">
        <ele>112.455917</ele>
        <time>2023-04-27T08:39:41.817Z</time>
      </trkpt>
      <trkpt lat="51.40831" lon="7.1773">
        <ele>112.491644</ele>
        <time>2023-04-27T08:39:44.811Z</time>
      </trkpt>
      <trkpt lat="51.40838" lon="7.17741">
        <ele>112.526429</ele>
        <time>2023-04-27T08:39:47.820Z</time>
      </trkpt>
      <trkpt lat="51.40845" lon="7.17752">
        <ele>112.560773</ele>
        <time>2023-04-27T08:39:50.819Z</time>
      </trkpt>
      <trkpt lat="51.40851" lon="7.17763">
        <ele>112.595303</ele>
        <time>2023-04-27T08:39:53.831Z</time>
      </trkpt>
      <trkpt lat="51.4086" lon="7.17776">
        <ele>112.631038</ele>
        <time>2023-04-27T08:39:57.832Z</time>
      </trkpt>
      <trkpt lat="51.40866" lon="7.17787">
        <ele>112.627201</ele>
        <time>2023-04-27T08:40:00.819Z</time>
      </trkpt>
      <trkpt lat="51.40873" lon="7.17798">
        <ele>112.6233</ele>
        <time>2023-04-27T08:40:03.814Z</time>
      </trkpt>
      <trkpt lat="51.40881" lon="7.17808">
        <ele>112.619292</ele>
        <time>2023-04-27T08:40:06.799Z</time>
      </trkpt>
      <trkpt lat="51.40888" lon="7.1782">
        <ele>112.614957</ele>
        <time>2023-04-27T08:40:09.822Z</time>
      </trkpt>
      <trkpt lat="51.40896" lon="7.17831">
        <ele>112.610856</ele>
        <time>2023-04-27T08:40:12.833Z</time>
      </trkpt>
      <trkpt lat="51.40903" lon="7.17841">
        <ele>112.606954</ele>
        <time>2023-04-27T08:40:15.819Z</time>
      </trkpt>
      <trkpt lat="51.4091" lon="7.17853">
        <ele>112.602848</ele>
        <time>2023-04-27T08:40:18.819Z</time>
      </trkpt>
      <trkpt lat="51.40918" lon="7.17864">
        <ele>112.598624</ele>
        <time>2023-04-27T08:40:21.816Z</time>
      </trkpt>
      <trkpt lat="51.40925" lon="7.17875">
        <ele>112.594355</ele>
        <time>2023-04-27T08:40:24.820Z</time>
      </trkpt>
      <trkpt lat="51.40933" lon="7.17887">
        <ele>112.590006</ele>
        <time>2023-04-27T08:40:27.818Z</time>
      </trkpt>
      <trkpt lat="51.40942" lon="7.17899">
        <ele>112.585575</ele>
        <time>2023-04-27T08:40:30.820Z</time>
      </trkpt>
      <trkpt lat="51.40949" lon="7.1791">
        <ele>112.581293</ele>
        <time>2023-04-27T08:40:33.815Z</time>
      </trkpt>
      <trkpt lat="51.40956" lon="7.17921">
        <ele>112.577274</ele>
        <time>2023-04-27T08:40:36.815Z</time>
      </trkpt>
      <trkpt lat="51.40964" lon="7.17932">
        <ele>112.573194</ele>
        <time>2023-04-27T08:40:39.835Z</time>
      </trkpt>
      <trkpt lat="51.40971" lon="7.17943">
        <ele>112.569084</ele>
        <time>2023-04-27T08:40:42.828Z</time>
      </trkpt>
      <trkpt lat="51.40979" lon="7.17954">
        <ele>112.564802</ele>
        <time>2023-04-27T08:40:45.800Z</time>
      </trkpt>
      <trkpt lat="51.40987" lon="7.17965">
        <ele>112.560585</ele>
        <time>2023-04-27T08:40:48.813Z</time>
      </trkpt>
      <trkpt lat="51.40994" lon="7.17977">
        <ele>112.565017</ele>
        <time>2023-04-27T08:40:51.827Z</time>
      </trkpt>
      <trkpt lat="51.41002" lon="7.17988">
        <ele>112.577176</ele>
        <time>2023-04-27T08:40:54.819Z</time>
      </trkpt>
      <trkpt lat="51.4101" lon="7.18">
        <ele>112.589593</ele>
        <time>2023-04-27T08:40:57.824Z</time>
      </trkpt>
      <trkpt lat="51.41017" lon="7.1801">
        <ele>112.601063</ele>
        <time>2023-04-27T08:41:00.817Z</time>
      </trkpt>
      <trkpt lat="51.41024" lon="7.1802">
        <ele>112.611872</ele>
        <time>2023-04-27T08:41:03.821Z</time>
      </trkpt>
      <trkpt lat="51.41031" lon="7.18032">
        <ele>112.623927</ele>
        <time>2023-04-27T08:41:07.829Z</time>
      </trkpt>
      <trkpt lat="51.41041" lon="7.18047">
        <ele>112.639853</ele>
        <time>2023-04-27T08:41:38.807Z</time>
      </trkpt>
      <trkpt lat="51.41048" lon="7.18057">
        <ele>112.650574</ele>
        <time>2023-04-27T08:41:42.811Z</time>
      </trkpt>
      <trkpt lat="51.41057" lon="7.18066">
        <ele>112.662679</ele>
        <time>2023-04-27T08:41:46.818Z</time>
      </trkpt>
      <trkpt lat="51.41065" lon="7.18078">
        <ele>112.676278</ele>
        <time>2023-04-27T08:41:50.818Z</time>
      </trkpt>
      <trkpt lat="51.41072" lon="7.18088">
        <ele>112.686899</ele>
        <time>2023-04-27T08:41:53.811Z</time>
      </trkpt>
      <trkpt lat="51.4108" lon="7.181">
        <ele>112.699412</ele>
        <time>2023-04-27T08:41:56.825Z</time>
      </trkpt>
      <trkpt lat="51.41087" lon="7.18111">
        <ele>112.711536</ele>
        <time>2023-04-27T08:41:59.819Z</time>
      </trkpt>
      <trkpt lat="51.41095" lon="7.18125">
        <ele>112.724919</ele>
        <time>2023-04-27T08:42:02.825Z</time>
      </trkpt>
      <trkpt lat="51.41104" lon="7.18136">
        <ele>112.73791</ele>
        <time>2023-04-27T08:42:05.801Z</time>
      </trkpt>
      <trkpt lat="51.41112" lon="7.18149">
        <ele>112.751465</ele>
        <time>2023-04-27T08:42:08.816Z</time>
      </trkpt>
      <trkpt lat="51.41122" lon="7.18161">
        <ele>112.76569</ele>
        <time>2023-04-27T08:42:11.827Z</time>
      </trkpt>
      <trkpt lat="51.41132" lon="7.18172">
        <ele>112.76388</ele>
        <time>2023-04-27T08:42:14.826Z</time>
      </trkpt>
      <trkpt lat="51.41142" lon="7.18184">
        <ele>112.757687</ele>
        <time>2023-04-27T08:42:17.794Z</time>
      </trkpt>
      <trkpt lat="51.41152" lon="7.18195">
        <ele>112.751766</ele>
        <time>2023-04-27T08:42:20.822Z</time>
      </trkpt>
      <trkpt lat="51.41162" lon="7.18205">
        <ele>112.74576</ele>
        <time>2023-04-27T08:42:23.820Z</time>
      </trkpt>
      <trkpt lat="51.41172" lon="7.18215">
        <ele>112.739736</ele>
        <time>2023-04-27T08:42:26.816Z</time>
      </trkpt>
      <trkpt lat="51.41182" lon="7.18225">
        <ele>112.733744</ele>
        <time>2023-04-27T08:42:29.819Z</time>
      </trkpt>
      <trkpt lat="51.41193" lon="7.18234">
        <ele>112.727464</ele>
        <time>2023-04-27T08:42:32.828Z</time>
      </trkpt>
      <trkpt lat="51.41204" lon="7.18243">
        <ele>112.72133</ele>
        <time>2023-04-27T08:42:35.803Z</time>
      </trkpt>
      <trkpt lat="51.41216" lon="7.18252">
        <ele>112.714896</ele>
        <time>2023-04-27T08:42:38.817Z</time>
      </trkpt>
      <trkpt lat="51.41228" lon="7.1826">
        <ele>112.708499</ele>
        <time>2023-04-27T08:42:41.823Z</time>
      </trkpt>
      <trkpt lat="51.41239" lon="7.18268">
        <ele>112.70216</ele>
        <time>2023-04-27T08:42:44.824Z</time>
      </trkpt>
      <trkpt lat="51.41251" lon="7.18274">
        <ele>112.69584</ele>
        <time>2023-04-27T08:42:47.821Z</time>
      </trkpt>
      <trkpt lat="51.41263" lon="7.18281">
        <ele>112.689561</ele>
        <time>2023-04-27T08:42:50.817Z</time>
      </trkpt>
      <trkpt lat="51.41276" lon="7.18288">
        <ele>112.682858</ele>
        <time>2023-04-27T08:42:53.832Z</time>
      </trkpt>
      <trkpt lat="51.41289" lon="7.18294">
        <ele>112.722363</ele>
        <time>2023-04-27T08:42:56.817Z</time>
      </trkpt>
      <trkpt lat="51.41297" lon="7.18297">
        <ele>112.799949</ele>
        <time>2023-04-27T08:42:58.817Z</time>
      </trkpt>
      <trkpt lat="51.4131" lon="7.18302">
        <ele>112.906184</ele>
        <time>2023-04-27T08:43:01.810Z</time>
      </trkpt>
      <trkpt lat="51.41322" lon="7.18306">
        <ele>113.010679</ele>
        <time>2023-04-27T08:43:04.800Z</time>
      </trkpt>
      <trkpt lat="51.41334" lon="7.18309">
        <ele>113.114352</ele>
        <time>2023-04-27T08:43:07.808Z</time>
      </trkpt>
      <trkpt lat="51.41345" lon="7.18312">
        <ele>113.213612</ele>
        <time>2023-04-27T08:43:10.822Z</time>
      </trkpt>
      <trkpt lat="51.41354" lon="7.18315">
        <ele>113.296035</ele>
        <time>2023-04-27T08:43:14.815Z</time>
      </trkpt>
      <trkpt lat="51.41366" lon="7.18317">
        <ele>113.393751</ele>
        <time>2023-04-27T08:43:18.806Z</time>
      </trkpt>
      <trkpt lat="51.41376" lon="7.18319">
        <ele>113.485281</ele>
        <time>2023-04-27T08:43:21.815Z</time>
      </trkpt>
      <trkpt lat="51.41387" lon="7.1832">
        <ele>113.579507</ele>
        <time>2023-04-27T08:43:24.822Z</time>
      </trkpt>
      <trkpt lat="51.414" lon="7.18321">
        <ele>113.688023</ele>
        <time>2023-04-27T08:43:27.824Z</time>
      </trkpt>
      <trkpt lat="51.41413" lon="7.18321">
        <ele>113.795697</ele>
        <time>2023-04-27T08:43:30.793Z</time>
      </trkpt>
      <trkpt lat="51.41425" lon="7.18322">
        <ele>113.903497</ele>
        <time>2023-04-27T08:43:33.811Z</time>
      </trkpt>
      <trkpt lat="51.41437" lon="7.18323">
        <ele>114.001857</ele>
        <time>2023-04-27T08:43:36.796Z</time>
      </trkpt>
      <trkpt lat="51.4145" lon="7.18324">
        <ele>114.111363</ele>
        <time>2023-04-27T08:43:39.811Z</time>
      </trkpt>
      <trkpt lat="51.41462" lon="7.18325">
        <ele>114.215243</ele>
        <time>2023-04-27T08:43:42.822Z</time>
      </trkpt>
      <trkpt lat="51.41471" lon="7.18326">
        <ele>114.214177</ele>
        <time>2023-04-27T08:43:44.794Z</time>
      </trkpt>
      <trkpt lat="51.41485" lon="7.18327">
        <ele>114.212676</ele>
        <time>2023-04-27T08:43:47.808Z</time>
      </trkpt>
      <trkpt lat="51.41497" lon="7.18326">
        <ele>114.211279</ele>
        <time>2023-04-27T08:43:50.819Z</time>
      </trkpt>
      <trkpt lat="51.41509" lon="7.18327">
        <ele>114.20988</ele>
        <time>2023-04-27T08:43:53.826Z</time>
      </trkpt>
      <trkpt lat="51.41518" lon="7.1833">
        <ele>114.20884</ele>
        <time>2023-04-27T08:43:55.786Z</time>
      </trkpt>
      <trkpt lat="51.41531" lon="7.18334">
        <ele>114.207331</ele>
        <time>2023-04-27T08:43:58.816Z</time>
      </trkpt>
      <trkpt lat="51.41544" lon="7.18334">
        <ele>114.205784</ele>
        <time>2023-04-27T08:44:01.804Z</time>
      </trkpt>
      <trkpt lat="51.41553" lon="7.18336">
        <ele>114.204734</ele>
        <time>2023-04-27T08:44:03.809Z</time>
      </trkpt>
      <trkpt lat="51.41567" lon="7.1834">
        <ele>114.203183</ele>
        <time>2023-04-27T08:44:06.812Z</time>
      </trkpt>
      <trkpt lat="51.4158" lon="7.18345">
        <ele>114.201635</ele>
        <time>2023-04-27T08:44:09.815Z</time>
      </trkpt>
      <trkpt lat="51.41589" lon="7.18347">
        <ele>114.200556</ele>
        <time>2023-04-27T08:44:11.793Z</time>
      </trkpt>
      <trkpt lat="51.41598" lon="7.18351">
        <ele>114.199471</ele>
        <time>2023-04-27T08:44:13.829Z</time>
      </trkpt>
      <trkpt lat="51.41612" lon="7.18355">
        <ele>114.197942</ele>
        <time>2023-04-27T08:44:16.805Z</time>
      </trkpt>
      <trkpt lat="51.41626" lon="7.18359">
        <ele>114.196317</ele>
        <time>2023-04-27T08:44:19.791Z</time>
      </trkpt>
      <trkpt lat="51.41635" lon="7.18362">
        <ele>114.195187</ele>
        <time>2023-04-27T08:44:21.786Z</time>
      </trkpt>
      <trkpt lat="51.41648" lon="7.18365">
        <ele>114.228385</ele>
        <time>2023-04-27T08:44:24.812Z</time>
      </trkpt>
      <trkpt lat="51.41657" lon="7.18369">
        <ele>114.264502</ele>
        <time>2023-04-27T08:44:26.788Z</time>
      </trkpt>
      <trkpt lat="51.41666" lon="7.18372">
        <ele>114.300748</ele>
        <time>2023-04-27T08:44:28.807Z</time>
      </trkpt>
      <trkpt lat="51.41679" lon="7.18376">
        <ele>114.352246</ele>
        <time>2023-04-27T08:44:31.828Z</time>
      </trkpt>
      <trkpt lat="51.41688" lon="7.18378">
        <ele>114.389117</ele>
        <time>2023-04-27T08:44:33.826Z</time>
      </trkpt>
      <trkpt lat="51.41698" lon="7.18379">
        <ele>114.426529</ele>
        <time>2023-04-27T08:44:35.811Z</time>
      </trkpt>
      <trkpt lat="51.41707" lon="7.1838">
        <ele>114.463514</ele>
        <time>2023-04-27T08:44:37.803Z</time>
      </trkpt>
      <trkpt lat="51.41716" lon="7.18382">
        <ele>114.499091</ele>
        <time>2023-04-27T08:44:39.894Z</time>
      </trkpt>
      <trkpt lat="51.41725" lon="7.18386">
        <ele>114.53487</ele>
        <time>2023-04-27T08:44:41.784Z</time>
      </trkpt>
      <trkpt lat="51.41738" lon="7.18391">
        <ele>114.587793</ele>
        <time>2023-04-27T08:44:44.821Z</time>
      </trkpt>
      <trkpt lat="51.41747" lon="7.18394">
        <ele>114.623653</ele>
        <time>2023-04-27T08:44:46.827Z</time>
      </trkpt>
      <trkpt lat="51.41756" lon="7.18397">
        <ele>114.66001</ele>
        <time>2023-04-27T08:44:48.803Z</time>
      </trkpt>
      <trkpt lat="51.41765" lon="7.18401">
        <ele>114.695789</ele>
        <time>2023-04-27T08:44:50.809Z</time>
      </trkpt>
      <trkpt lat="51.41774" lon="7.18403">
        <ele>114.732851</ele>
        <time>2023-04-27T08:44:52.816Z</time>
      </trkpt>
      <trkpt lat="51.41787" lon="7.18408">
        <ele>114.785447</ele>
        <time>2023-04-27T08:44:55.792Z</time>
      </trkpt>
      <trkpt lat="51.418" lon="7.18411">
        <ele>114.838283</ele>
        <time>2023-04-27T08:44:58.812Z</time>
      </trkpt>
      <trkpt lat="51.41813" lon="7.18413">
        <ele>114.889098</ele>
        <time>2023-04-27T08:45:01.816Z</time>
      </trkpt>
      <trkpt lat="51.41825" lon="7.18411">
        <ele>114.933925</ele>
        <time>2023-04-27T08:45:04.797Z</time>
      </trkpt>
      <trkpt lat="51.41836" lon="7.18405">
        <ele>114.978044</ele>
        <time>2023-04-27T08:45:07.807Z</time>
      </trkpt>
      <trkpt lat="51.41847" lon="7.18401">
        <ele>115.023991</ele>
        <time>2023-04-27T08:45:10.820Z</time>
      </trkpt>
      <trkpt lat="51.41859" lon="7.18409">
        <ele>115.071767</ele>
        <time>2023-04-27T08:45:13.811Z</time>
      </trkpt>
      <trkpt lat="51.41867" lon="7.18414">
        <ele>115.107028</ele>
        <time>2023-04-27T08:45:15.819Z</time>
      </trkpt>
      <trkpt lat="51.41876" lon="7.18419">
        <ele>115.142807</ele>
        <time>2023-04-27T08:45:17.815Z</time>
      </trkpt>
      <trkpt lat="51.41885" lon="7.18421">
        <ele>115.179327</ele>
        <time>2023-04-27T08:45:19.820Z</time>
      </trkpt>
      <trkpt lat="51.41895" lon="7.1842">
        <ele>115.215226</ele>
        <time>2023-04-27T08:45:21.824Z</time>
      </trkpt>
      <trkpt lat="51.41904" lon="7.18422">
        <ele>115.251958</ele>
        <time>2023-04-27T08:45:24.807Z</time>
      </trkpt>
      <trkpt lat="51.41914" lon="7.18422">
        <ele>115.29018</ele>
        <time>2023-04-27T08:45:31.808Z</time>
      </trkpt>
      <trkpt lat="51.41916" lon="7.18437">
        <ele>115.324856</ele>
        <time>2023-04-27T08:45:47.796Z</time>
      </trkpt>
      <trkpt lat="51.41916" lon="7.18452">
        <ele>115.362363</ele>
        <time>2023-04-27T08:45:54.815Z</time>
      </trkpt>
      <trkpt lat="51.41915" lon="7.18469">
        <ele>115.403648</ele>
        <time>2023-04-27T08:45:59.814Z</time>
      </trkpt>
      <trkpt lat="51.41914" lon="7.18487">
        <ele>115.446576</ele>
        <time>2023-04-27T08:46:03.821Z</time>
      </trkpt>
      <trkpt lat="51.41913" lon="7.18503">
        <ele>115.483853</ele>
        <time>2023-04-27T08:46:07.808Z</time>
      </trkpt>
      <trkpt lat="51.41916" lon="7.18519">
        <ele>115.525091</ele>
        <time>2023-04-27T08:46:11.803Z</time>
      </trkpt>
      <trkpt lat="51.41922" lon="7.18531">
        <ele>115.561473</ele>
        <time>2023-04-27T08:46:14.815Z</time>
      </trkpt>
      <trkpt lat="51.41929" lon="7.18546">
        <ele>115.587405</ele>
        <time>2023-04-27T08:46:18.814Z</time>
      </trkpt>
      <trkpt lat="51.41936" lon="7.18558">
        <ele>115.566676</ele>
        <time>2023-04-27T08:46:21.805Z</time>
      </trkpt>
      <trkpt lat="51.41943" lon="7.1857">
        <ele>115.545386</ele>
        <time>2023-04-27T08:46:24.829Z</time>
      </trkpt>
      <trkpt lat="51.4195" lon="7.18584">
        <ele>115.522866</ele>
        <time>2023-04-27T08:46:27.822Z</time>
      </trkpt>
      <trkpt lat="51.41957" lon="7.18598">
        <ele>115.499632</ele>
        <time>2023-04-27T08:46:30.809Z</time>
      </trkpt>
      <trkpt lat="51.41965" lon="7.18616">
        <ele>115.471564</ele>
        <time>2023-04-27T08:46:33.807Z</time>
      </trkpt>
      <trkpt lat="51.41971" lon="7.18628">
        <ele>115.452421</ele>
        <time>2023-04-27T08:46:35.811Z</time>
      </trkpt>
      <trkpt lat="51.41976" lon="7.1864">
        <ele>115.432276</ele>
        <time>2023-04-27T08:46:37.826Z</time>
      </trkpt>
      <trkpt lat="51.41982" lon="7.18652">
        <ele>115.413114</ele>
        <time>2023-04-27T08:46:39.824Z</time>
      </trkpt>
      <trkpt lat="51.41988" lon="7.18665">
        <ele>115.392238</ele>
        <time>2023-04-27T08:46:41.810Z</time>
      </trkpt>
      <trkpt lat="51.41994" lon="7.18678">
        <ele>115.372488</ele>
        <time>2023-04-27T08:46:43.817Z</time>
      </trkpt>
      <trkpt lat="51.41999" lon="7.18692">
        <ele>115.351869</ele>
        <time>2023-04-27T08:46:45.792Z</time>
      </trkpt>
      <trkpt lat="51.42003" lon="7.18708">
        <ele>115.330064</ele>
        <time>2023-04-27T08:46:47.807Z</time>
      </trkpt>
      <trkpt lat="51.42007" lon="7.18724">
        <ele>115.308386</ele>
        <time>2023-04-27T08:46:49.803Z</time>
      </trkpt>
      <trkpt lat="51.42011" lon="7.18738">
        <ele>115.287798</ele>
        <time>2023-04-27T08:46:51.799Z</time>
      </trkpt>
      <trkpt lat="51.42014" lon="7.18753">
        <ele>115.267531</ele>
        <time>2023-04-27T08:46:53.811Z</time>
      </trkpt>
      <trkpt lat="51.4202" lon="7.18767">
        <ele>115.246368</ele>
        <time>2023-04-27T08:46:55.804Z</time>
      </trkpt>
      <trkpt lat="51.42024" lon="7.18784">
        <ele>115.243238</ele>
        <time>2023-04-27T08:46:57.840Z</time>
      </trkpt>
      <trkpt lat="51.42029" lon="7.18798">
        <ele>115.441822</ele>
        <time>2023-04-27T08:46:59.818Z</time>
      </trkpt>
      <trkpt lat="51.42034" lon="7.18813">
        <ele>115.636351</ele>
        <time>2023-04-27T08:47:01.813Z</time>
      </trkpt>
      <trkpt lat="51.42039" lon="7.18827">
        <ele>115.828917</ele>
        <time>2023-04-27T08:47:03.815Z</time>
      </trkpt>
      <trkpt lat="51.42044" lon="7.18839">
        <ele>116.004112</ele>
        <time>2023-04-27T08:47:05.805Z</time>
      </trkpt>
      <trkpt lat="51.42052" lon="7.18856">
        <ele>116.259643</ele>
        <time>2023-04-27T08:47:08.796Z</time>
      </trkpt>
      <trkpt lat="51.42061" lon="7.1887">
        <ele>116.500819</ele>
        <time>2023-04-27T08:47:11.807Z</time>
      </trkpt>
      <trkpt lat="51.42068" lon="7.18886">
        <ele>116.738309</ele>
        <time>2023-04-27T08:47:14.797Z</time>
      </trkpt>
      <trkpt lat="51.42078" lon="7.18903">
        <ele>117.003078</ele>
        <time>2023-04-27T08:47:17.834Z</time>
      </trkpt>
      <trkpt lat="51.42084" lon="7.18915">
        <ele>117.184596</ele>
        <time>2023-04-27T08:47:19.812Z</time>
      </trkpt>
      <trkpt lat="51.4209" lon="7.18927">
        <ele>117.375737</ele>
        <time>2023-04-27T08:47:21.812Z</time>
      </trkpt>
      <trkpt lat="51.42096" lon="7.18939">
        <ele>117.561525</ele>
        <time>2023-04-27T08:47:23.805Z</time>
      </trkpt>
      <trkpt lat="51.42103" lon="7.18949">
        <ele>117.738969</ele>
        <time>2023-04-27T08:47:25.804Z</time>
      </trkpt>
      <trkpt lat="51.42109" lon="7.18961">
        <ele>117.916918</ele>
        <time>2023-04-27T08:47:27.816Z</time>
      </trkpt>
      <trkpt lat="51.42115" lon="7.18974">
        <ele>118.109927</ele>
        <time>2023-04-27T08:47:29.827Z</time>
      </trkpt>
      <trkpt lat="51.42121" lon="7.18987">
        <ele>118.300494</ele>
        <time>2023-04-27T08:47:31.809Z</time>
      </trkpt>
      <trkpt lat="51.42126" lon="7.19001">
        <ele>118.492719</ele>
        <time>2023-04-27T08:47:33.808Z</time>
      </trkpt>
      <trkpt lat="51.4213" lon="7.19014">
        <ele>118.663808</ele>
        <time>2023-04-27T08:47:35.804Z</time>
      </trkpt>
      <trkpt lat="51.42135" lon="7.19027">
        <ele>118.660687</ele>
        <time>2023-04-27T08:47:37.802Z</time>
      </trkpt>
      <trkpt lat="51.4214" lon="7.19039">
        <ele>118.657494</ele>
        <time>2023-04-27T08:47:39.804Z</time>
      </trkpt>
      <trkpt lat="51.42145" lon="7.19052">
        <ele>118.654193</ele>
        <time>2023-04-27T08:47:41.809Z</time>
      </trkpt>
      <trkpt lat="51.42151" lon="7.19065">
        <ele>118.650884</ele>
        <time>2023-04-27T08:47:43.814Z</time>
      </trkpt>
      <trkpt lat="51.42156" lon="7.19079">
        <ele>118.647287</ele>
        <time>2023-04-27T08:47:45.814Z</time>
      </trkpt>
      <trkpt lat="51.42161" lon="7.19092">
        <ele>118.644018</ele>
        <time>2023-04-27T08:47:47.824Z</time>
      </trkpt>
      <trkpt lat="51.42166" lon="7.19104">
        <ele>118.640827</ele>
        <time>2023-04-27T08:47:49.789Z</time>
      </trkpt>
      <trkpt lat="51.42174" lon="7.19122">
        <ele>118.636078</ele>
        <time>2023-04-27T08:47:52.803Z</time>
      </trkpt>
      <trkpt lat="51.42179" lon="7.19136">
        <ele>118.632823</ele>
        <time>2023-04-27T08:47:54.808Z</time>
      </trkpt>
      <trkpt lat="51.42183" lon="7.19149">
        <ele>118.629666</ele>
        <time>2023-04-27T08:47:56.816Z</time>
      </trkpt>
      <trkpt lat="51.42189" lon="7.19163">
        <ele>118.625981</ele>
        <time>2023-04-27T08:47:58.820Z</time>
      </trkpt>
      <trkpt lat="51.42194" lon="7.19174">
        <ele>118.622862</ele>
        <time>2023-04-27T08:48:00.801Z</time>
      </trkpt>
      <trkpt lat="51.42201" lon="7.19186">
        <ele>118.619594</ele>
        <time>2023-04-27T08:48:02.823Z</time>
      </trkpt>
      <trkpt lat="51.42205" lon="7.19198">
        <ele>118.616475</ele>
        <time>2023-04-27T08:48:04.805Z</time>
      </trkpt>
      <trkpt lat="51.4221" lon="7.19212">
        <ele>118.613058</ele>
        <time>2023-04-27T08:48:06.808Z</time>
      </trkpt>
      <trkpt lat="51.42218" lon="7.1923">
        <ele>118.608367</ele>
        <time>2023-04-27T08:48:09.808Z</time>
      </trkpt>
      <trkpt lat="51.42222" lon="7.19243">
        <ele>118.60523</ele>
        <time>2023-04-27T08:48:11.811Z</time>
      </trkpt>
      <trkpt lat="51.42229" lon="7.19261">
        <ele>118.663247</ele>
        <time>2023-04-27T08:48:14.809Z</time>
      </trkpt>
      <trkpt lat="51.42236" lon="7.19279">
        <ele>118.874456</ele>
        <time>2023-04-27T08:48:17.803Z</time>
      </trkpt>
      <trkpt lat="51.42242" lon="7.19291">
        <ele>119.026083</ele>
        <time>2023-04-27T08:48:19.803Z</time>
      </trkpt>
      <trkpt lat="51.42247" lon="7.19304">
        <ele>119.177495</ele>
        <time>2023-04-27T08:48:21.788Z</time>
      </trkpt>
      <trkpt lat="51.42251" lon="7.19318">
        <ele>119.326138</ele>
        <time>2023-04-27T08:48:23.806Z</time>
      </trkpt>
      <trkpt lat="51.42258" lon="7.19335">
        <ele>119.533867</ele>
        <time>2023-04-27T08:48:26.828Z</time>
      </trkpt>
      <trkpt lat="51.42264" lon="7.19347">
        <ele>119.686314</ele>
        <time>2023-04-27T08:48:28.802Z</time>
      </trkpt>
      <trkpt lat="51.42271" lon="7.19365">
        <ele>119.899958</ele>
        <time>2023-04-27T08:48:31.799Z</time>
      </trkpt>
      <trkpt lat="51.42278" lon="7.19377">
        <ele>120.053169</ele>
        <time>2023-04-27T08:48:33.801Z</time>
      </trkpt>
      <trkpt lat="51.42283" lon="7.1939">
        <ele>120.207074</ele>
        <time>2023-04-27T08:48:35.783Z</time>
      </trkpt>
      <trkpt lat="51.42287" lon="7.19405">
        <ele>120.364943</ele>
        <time>2023-04-27T08:48:37.795Z</time>
      </trkpt>
      <trkpt lat="51.42293" lon="7.19418">
        <ele>120.526471</ele>
        <time>2023-04-27T08:48:39.811Z</time>
      </trkpt>
      <trkpt lat="51.42298" lon="7.19432">
        <ele>120.6838</ele>
        <time>2023-04-27T08:48:41.803Z</time>
      </trkpt>
      <trkpt lat="51.42302" lon="7.19447">
        <ele>120.84762</ele>
        <time>2023-04-27T08:48:43.797Z</time>
      </trkpt>
      <trkpt lat="51.42306" lon="7.19464">
        <ele>121.028851</ele>
        <time>2023-04-27T08:48:45.802Z</time>
      </trkpt>
      <trkpt lat="51.42309" lon="7.19478">
        <ele>121.180533</ele>
        <time>2023-04-27T08:48:47.795Z</time>
      </trkpt>
      <trkpt lat="51.42313" lon="7.19493">
        <ele>121.341041</ele>
        <time>2023-04-27T08:48:49.804Z</time>
      </trkpt>
      <trkpt lat="51.42317" lon="7.19509">
        <ele>121.478542</ele>
        <time>2023-04-27T08:48:51.811Z</time>
      </trkpt>
      <trkpt lat="51.4232" lon="7.19523">
        <ele>121.536691</ele>
        <time>2023-04-27T08:48:53.825Z</time>
      </trkpt>
      <trkpt lat="51.42324" lon="7.19537">
        <ele>121.595374</ele>
        <time>2023-04-27T08:48:55.786Z</time>
      </trkpt>
      <trkpt lat="51.4233" lon="7.19556">
        <ele>121.680487</ele>
        <time>2023-04-27T08:48:58.821Z</time>
      </trkpt>
      <trkpt lat="51.42334" lon="7.19569">
        <ele>121.737495</ele>
        <time>2023-04-27T08:49:00.803Z</time>
      </trkpt>
      <trkpt lat="51.42337" lon="7.19583">
        <ele>121.799087</ele>
        <time>2023-04-27T08:49:02.801Z</time>
      </trkpt>
      <trkpt lat="51.42341" lon="7.19598">
        <ele>121.862987</ele>
        <time>2023-04-27T08:49:04.805Z</time>
      </trkpt>
      <trkpt lat="51.42344" lon="7.19613">
        <ele>121.922686</ele>
        <time>2023-04-27T08:49:06.807Z</time>
      </trkpt>
      <trkpt lat="51.42346" lon="7.19627">
        <ele>121.98136</ele>
        <time>2023-04-27T08:49:08.805Z</time>
      </trkpt>
      <trkpt lat="51.42351" lon="7.19647">
        <ele>122.0649</ele>
        <time>2023-04-27T08:49:11.792Z</time>
      </trkpt>
      <trkpt lat="51.42354" lon="7.19661">
        <ele>122.121885</ele>
        <time>2023-04-27T08:49:13.808Z</time>
      </trkpt>
      <trkpt lat="51.42359" lon="7.19681">
        <ele>122.206667</ele>
        <time>2023-04-27T08:49:16.807Z</time>
      </trkpt>
      <trkpt lat="51.42362" lon="7.19694">
        <ele>122.265591</ele>
        <time>2023-04-27T08:49:18.813Z</time>
      </trkpt>
      <trkpt lat="51.42366" lon="7.19708">
        <ele>122.324639</ele>
        <time>2023-04-27T08:49:20.812Z</time>
      </trkpt>
      <trkpt lat="51.42368" lon="7.19722">
        <ele>122.382048</ele>
        <time>2023-04-27T08:49:22.808Z</time>
      </trkpt>
      <trkpt lat="51.42373" lon="7.19743">
        <ele>122.466975</ele>
        <time>2023-04-27T08:49:25.788Z</time>
      </trkpt>
      <trkpt lat="51.42376" lon="7.19761">
        <ele>122.542945</ele>
        <time>2023-04-27T08:49:28.812Z</time>
      </trkpt>
      <trkpt lat="51.4238" lon="7.19775">
        <ele>122.588586</ele>
        <time>2023-04-27T08:49:30.811Z</time>
      </trkpt>
      <trkpt lat="51.42384" lon="7.19789">
        <ele>122.495374</ele>
        <time>2023-04-27T08:49:32.810Z</time>
      </trkpt>
      <trkpt lat="51.42386" lon="7.19804">
        <ele>122.399756</ele>
        <time>2023-04-27T08:49:34.809Z</time>
      </trkpt>
      <trkpt lat="51.4239" lon="7.19818">
        <ele>122.3072</ele>
        <time>2023-04-27T08:49:36.803Z</time>
      </trkpt>
      <trkpt lat="51.42393" lon="7.19833">
        <ele>122.209467</ele>
        <time>2023-04-27T08:49:38.812Z</time>
      </trkpt>
      <trkpt lat="51.42396" lon="7.19848">
        <ele>122.112665</ele>
        <time>2023-04-27T08:49:40.813Z</time>
      </trkpt>
      <trkpt lat="51.42398" lon="7.19863">
        <ele>122.018746</ele>
        <time>2023-04-27T08:49:42.803Z</time>
      </trkpt>
      <trkpt lat="51.42401" lon="7.19877">
        <ele>121.926345</ele>
        <time>2023-04-27T08:49:44.803Z</time>
      </trkpt>
      <trkpt lat="51.42402" lon="7.19893">
        <ele>121.830157</ele>
        <time>2023-04-27T08:49:46.806Z</time>
      </trkpt>
      <trkpt lat="51.42403" lon="7.19909">
        <ele>121.729928</ele>
        <time>2023-04-27T08:49:48.801Z</time>
      </trkpt>
      <trkpt lat="51.42405" lon="7.19923">
        <ele>121.638716</ele>
        <time>2023-04-27T08:49:50.812Z</time>
      </trkpt>
      <trkpt lat="51.42409" lon="7.19945">
        <ele>121.500879</ele>
        <time>2023-04-27T08:49:53.799Z</time>
      </trkpt>
      <trkpt lat="51.42412" lon="7.1996">
        <ele>121.406011</ele>
        <time>2023-04-27T08:49:55.816Z</time>
      </trkpt>
      <trkpt lat="51.42414" lon="7.19976">
        <ele>121.306365</ele>
        <time>2023-04-27T08:49:57.834Z</time>
      </trkpt>
      <trkpt lat="51.42416" lon="7.1999">
        <ele>121.213634</ele>
        <time>2023-04-27T08:49:59.808Z</time>
      </trkpt>
      <trkpt lat="51.4242" lon="7.20007">
        <ele>121.108382</ele>
        <time>2023-04-27T08:50:01.806Z</time>
      </trkpt>
      <trkpt lat="51.42421" lon="7.20022">
        <ele>121.010978</ele>
        <time>2023-04-27T08:50:03.801Z</time>
      </trkpt>
      <trkpt lat="51.42421" lon="7.20038">
        <ele>120.917007</ele>
        <time>2023-04-27T08:50:05.814Z</time>
      </trkpt>
      <trkpt lat="51.4242" lon="7.20054">
        <ele>120.803931</ele>
        <time>2023-04-27T08:50:07.794Z</time>
      </trkpt>
      <trkpt lat="51.42418" lon="7.20069">
        <ele>120.520306</ele>
        <time>2023-04-27T08:50:09.795Z</time>
      </trkpt>
      <trkpt lat="51.42417" lon="7.20084">
        <ele>120.248513</ele>
        <time>2023-04-27T08:50:11.804Z</time>
      </trkpt>
      <trkpt lat="51.42416" lon="7.20102">
        <ele>119.91176</ele>
        <time>2023-04-27T08:50:14.815Z</time>
      </trkpt>
      <trkpt lat="51.42416" lon="7.20121">
        <ele>119.557371</ele>
        <time>2023-04-27T08:50:17.830Z</time>
      </trkpt>
      <trkpt lat="51.42413" lon="7.20141">
        <ele>119.190896</ele>
        <time>2023-04-27T08:50:20.815Z</time>
      </trkpt>
      <trkpt lat="51.42412" lon="7.2016">
        <ele>118.834105</ele>
        <time>2023-04-27T08:50:23.798Z</time>
      </trkpt>
      <trkpt lat="51.42409" lon="7.2018">
        <ele>118.468097</ele>
        <time>2023-04-27T08:50:26.806Z</time>
      </trkpt>
      <trkpt lat="51.42406" lon="7.202">
        <ele>118.082969</ele>
        <time>2023-04-27T08:50:29.807Z</time>
      </trkpt>
      <trkpt lat="51.42403" lon="7.20221">
        <ele>117.69139</ele>
        <time>2023-04-27T08:50:32.811Z</time>
      </trkpt>
      <trkpt lat="51.42402" lon="7.20242">
        <ele>117.316184</ele>
        <time>2023-04-27T08:50:35.812Z</time>
      </trkpt>
      <trkpt lat="51.424" lon="7.20261">
        <ele>116.957179</ele>
        <time>2023-04-27T08:50:38.815Z</time>
      </trkpt>
      <trkpt lat="51.42398" lon="7.20281">
        <ele>116.592288</ele>
        <time>2023-04-27T08:50:41.798Z</time>
      </trkpt>
      <trkpt lat="51.42397" lon="7.20295">
        <ele>116.328337</ele>
        <time>2023-04-27T08:50:44.798Z</time>
      </trkpt>
      <trkpt lat="51.42395" lon="7.20313">
        <ele>115.995025</ele>
        <time>2023-04-27T08:50:48.811Z</time>
      </trkpt>
      <trkpt lat="51.42393" lon="7.20333">
        <ele>115.633344</ele>
        <time>2023-04-27T08:50:52.823Z</time>
      </trkpt>
      <trkpt lat="51.42391" lon="7.2035">
        <ele>115.359631</ele>
        <time>2023-04-27T08:50:55.806Z</time>
      </trkpt>
      <trkpt lat="51.42387" lon="7.20369">
        <ele>115.082734</ele>
        <time>2023-04-27T08:50:58.799Z</time>
      </trkpt>
      <trkpt lat="51.42383" lon="7.20388">
        <ele>114.796974</ele>
        <time>2023-04-27T08:51:01.810Z</time>
      </trkpt>
      <trkpt lat="51.4238" lon="7.20406">
        <ele>114.528559</ele>
        <time>2023-04-27T08:51:04.823Z</time>
      </trkpt>
      <trkpt lat="51.42378" lon="7.20423">
        <ele>114.283377</ele>
        <time>2023-04-27T08:51:07.805Z</time>
      </trkpt>
      <trkpt lat="51.42375" lon="7.20442">
        <ele>114.00561</ele>
        <time>2023-04-27T08:51:10.811Z</time>
      </trkpt>
      <trkpt lat="51.42373" lon="7.20466">
        <ele>113.661588</ele>
        <time>2023-04-27T08:51:13.824Z</time>
      </trkpt>
      <trkpt lat="51.42371" lon="7.20481">
        <ele>113.437376</ele>
        <time>2023-04-27T08:51:15.794Z</time>
      </trkpt>
      <trkpt lat="51.42369" lon="7.20495">
        <ele>113.227976</ele>
        <time>2023-04-27T08:51:17.824Z</time>
      </trkpt>
      <trkpt lat="51.42366" lon="7.20515">
        <ele>112.939982</ele>
        <time>2023-04-27T08:51:20.821Z</time>
      </trkpt>
      <trkpt lat="51.42363" lon="7.20534">
        <ele>112.662214</ele>
        <time>2023-04-27T08:51:23.808Z</time>
      </trkpt>
      <trkpt lat="51.4236" lon="7.20554">
        <ele>112.366763</ele>
        <time>2023-04-27T08:51:26.812Z</time>
      </trkpt>
      <trkpt lat="51.42358" lon="7.20576">
        <ele>112.054809</ele>
        <time>2023-04-27T08:51:29.814Z</time>
      </trkpt>
      <trkpt lat="51.42356" lon="7.20597">
        <ele>111.747023</ele>
        <time>2023-04-27T08:51:32.809Z</time>
      </trkpt>
      <trkpt lat="51.42355" lon="7.20612">
        <ele>111.52693</ele>
        <time>2023-04-27T08:51:34.813Z</time>
      </trkpt>
      <trkpt lat="51.42353" lon="7.20627">
        <ele>111.500213</ele>
        <time>2023-04-27T08:51:36.812Z</time>
      </trkpt>
      <trkpt lat="51.42352" lon="7.20647">
        <ele>111.617771</ele>
        <time>2023-04-27T08:51:39.808Z</time>
      </trkpt>
      <trkpt lat="51.42352" lon="7.20663">
        <ele>111.707171</ele>
        <time>2023-04-27T08:51:41.806Z</time>
      </trkpt>
      <trkpt lat="51.42349" lon="7.20679">
        <ele>111.798375</ele>
        <time>2023-04-27T08:51:43.804Z</time>
      </trkpt>
      <trkpt lat="51.42347" lon="7.20693">
        <ele>111.882867</ele>
        <time>2023-04-27T08:51:45.788Z</time>
      </trkpt>
      <trkpt lat="51.42347" lon="7.20708">
        <ele>111.966179</ele>
        <time>2023-04-27T08:51:47.806Z</time>
      </trkpt>
      <trkpt lat="51.42345" lon="7.20723">
        <ele>112.052895</ele>
        <time>2023-04-27T08:51:49.810Z</time>
      </trkpt>
      <trkpt lat="51.42342" lon="7.20738">
        <ele>112.141979</ele>
        <time>2023-04-27T08:51:51.804Z</time>
      </trkpt>
      <trkpt lat="51.42338" lon="7.20757">
        <ele>112.257673</ele>
        <time>2023-04-27T08:51:54.820Z</time>
      </trkpt>
      <trkpt lat="51.42334" lon="7.20776">
        <ele>112.371744</ele>
        <time>2023-04-27T08:51:57.814Z</time>
      </trkpt>
      <trkpt lat="51.4233" lon="7.20794">
        <ele>112.480699</ele>
        <time>2023-04-27T08:52:00.815Z</time>
      </trkpt>
      <trkpt lat="51.42327" lon="7.20812">
        <ele>112.589072</ele>
        <time>2023-04-27T08:52:03.812Z</time>
      </trkpt>
      <trkpt lat="51.42323" lon="7.2083">
        <ele>112.693517</ele>
        <time>2023-04-27T08:52:06.809Z</time>
      </trkpt>
      <trkpt lat="51.42318" lon="7.20849">
        <ele>112.808518</ele>
        <time>2023-04-27T08:52:09.821Z</time>
      </trkpt>
      <trkpt lat="51.42315" lon="7.20867">
        <ele>112.919091</ele>
        <time>2023-04-27T08:52:12.807Z</time>
      </trkpt>
      <trkpt lat="51.42312" lon="7.20887">
        <ele>113.03226</ele>
        <time>2023-04-27T08:52:15.798Z</time>
      </trkpt>
      <trkpt lat="51.4231" lon="7.20906">
        <ele>113.189423</ele>
        <time>2023-04-27T08:52:18.803Z</time>
      </trkpt>
      <trkpt lat="51.4231" lon="7.20924">
        <ele>113.381191</ele>
        <time>2023-04-27T08:52:21.809Z</time>
      </trkpt>
      <trkpt lat="51.42307" lon="7.20943">
        <ele>113.58877</ele>
        <time>2023-04-27T08:52:24.811Z</time>
      </trkpt>
      <trkpt lat="51.42304" lon="7.2096">
        <ele>113.778023</ele>
        <time>2023-04-27T08:52:27.829Z</time>
      </trkpt>
      <trkpt lat="51.423" lon="7.20978">
        <ele>113.986609</ele>
        <time>2023-04-27T08:52:30.805Z</time>
      </trkpt>
      <trkpt lat="51.42293" lon="7.20994">
        <ele>114.191141</ele>
        <time>2023-04-27T08:52:33.810Z</time>
      </trkpt>
      <trkpt lat="51.42286" lon="7.21009">
        <ele>114.388717</ele>
        <time>2023-04-27T08:52:36.823Z</time>
      </trkpt>
      <trkpt lat="51.42282" lon="7.21024">
        <ele>114.56872</ele>
        <time>2023-04-27T08:52:39.817Z</time>
      </trkpt>
      <trkpt lat="51.42279" lon="7.2104">
        <ele>114.740321</ele>
        <time>2023-04-27T08:52:42.805Z</time>
      </trkpt>
      <trkpt lat="51.42276" lon="7.21058">
        <ele>114.942736</ele>
        <time>2023-04-27T08:53:07.818Z</time>
      </trkpt>
      <trkpt lat="51.42264" lon="7.21056">
        <ele>115.145155</ele>
        <time>2023-04-27T08:53:12.805Z</time>
      </trkpt>
      <trkpt lat="51.42254" lon="7.21053">
        <ele>115.321928</ele>
        <time>2023-04-27T08:53:15.801Z</time>
      </trkpt>
      <trkpt lat="51.42242" lon="7.21051">
        <ele>115.522464</ele>
        <time>2023-04-27T08:53:18.811Z</time>
      </trkpt>
      <trkpt lat="51.42229" lon="7.21047">
        <ele>115.744232</ele>
        <time>2023-04-27T08:53:21.821Z</time>
      </trkpt>
      <trkpt lat="51.42217" lon="7.21044">
        <ele>115.964414</ele>
        <time>2023-04-27T08:53:24.831Z</time>
      </trkpt>
      <trkpt lat="51.42204" lon="7.21042">
        <ele>116.163548</ele>
        <time>2023-04-27T08:53:27.810Z</time>
      </trkpt>
      <trkpt lat="51.42193" lon="7.21039">
        <ele>116.191835</ele>
        <time>2023-04-27T08:53:30.811Z</time>
      </trkpt>
      <trkpt lat="51.42182" lon="7.21035">
        <ele>116.221228</ele>
        <time>2023-04-27T08:53:33.800Z</time>
      </trkpt>
      <trkpt lat="51.42171" lon="7.21035">
        <ele>116.24897</ele>
        <time>2023-04-27T08:53:36.830Z</time>
      </trkpt>
      <trkpt lat="51.4216" lon="7.21036">
        <ele>116.277778</ele>
        <time>2023-04-27T08:53:39.812Z</time>
      </trkpt>
      <trkpt lat="51.42151" lon="7.2103">
        <ele>116.302003</ele>
        <time>2023-04-27T08:53:43.827Z</time>
      </trkpt>
      <trkpt lat="51.42144" lon="7.21018">
        <ele>116.328014</ele>
        <time>2023-04-27T08:53:47.799Z</time>
      </trkpt>
      <trkpt lat="51.42135" lon="7.21009">
        <ele>116.354555</ele>
        <time>2023-04-27T08:53:51.806Z</time>
      </trkpt>
      <trkpt lat="51.42126" lon="7.21005">
        <ele>116.378433</ele>
        <time>2023-04-27T08:53:55.800Z</time>
      </trkpt>
      <trkpt lat="51.42115" lon="7.21002">
        <ele>116.405079</ele>
        <time>2023-04-27T08:53:59.851Z</time>
      </trkpt>
      <trkpt lat="51.42105" lon="7.21004">
        <ele>116.432617</ele>
        <time>2023-04-27T08:54:03.806Z</time>
      </trkpt>
      <trkpt lat="51.42095" lon="7.21009">
        <ele>116.459175</ele>
        <time>2023-04-27T08:54:06.789Z</time>
      </trkpt>
      <trkpt lat="51.42087" lon="7.21016">
        <ele>116.481933</ele>
        <time>2023-04-27T08:54:08.809Z</time>
      </trkpt>
      <trkpt lat="51.42077" lon="7.21015">
        <ele>116.504906</ele>
        <time>2023-04-27T08:54:10.805Z</time>
      </trkpt>
      <trkpt lat="51.42068" lon="7.21012">
        <ele>116.528891</ele>
        <time>2023-04-27T08:54:12.813Z</time>
      </trkpt>
      <trkpt lat="51.42057" lon="7.21001">
        <ele>116.561415</ele>
        <time>2023-04-27T08:54:15.797Z</time>
      </trkpt>
      <trkpt lat="51.42048" lon="7.20991">
        <ele>116.589411</ele>
        <time>2023-04-27T08:54:18.808Z</time>
      </trkpt>
      <trkpt lat="51.42039" lon="7.20986">
        <ele>116.614643</ele>
        <time>2023-04-27T08:54:21.803Z</time>
      </trkpt>
      <trkpt lat="51.42029" lon="7.20982">
        <ele>116.472731</ele>
        <time>2023-04-27T08:54:24.817Z</time>
      </trkpt>
      <trkpt lat="51.42018" lon="7.20977">
        <ele>116.316221</ele>
        <time>2023-04-27T08:54:28.817Z</time>
      </trkpt>
      <trkpt lat="51.42008" lon="7.20975">
        <ele>116.172275</ele>
        <time>2023-04-27T08:54:32.815Z</time>
      </trkpt>
      <trkpt lat="51.41997" lon="7.20976">
        <ele>116.019168</ele>
        <time>2023-04-27T08:54:38.811Z</time>
      </trkpt>
      <trkpt lat="51.41987" lon="7.20973">
        <ele>115.869935</ele>
        <time>2023-04-27T08:54:44.807Z</time>
      </trkpt>
      <trkpt lat="51.41977" lon="7.20971">
        <ele>115.733125</ele>
        <time>2023-04-27T08:54:51.800Z</time>
      </trkpt>
      <trkpt lat="51.41968" lon="7.20966">
        <ele>115.592274</ele>
        <time>2023-04-27T08:55:02.822Z</time>
      </trkpt>
      <trkpt lat="51.41958" lon="7.20963">
        <ele>115.445906</ele>
        <time>2023-04-27T08:55:08.805Z</time>
      </trkpt>
      <trkpt lat="51.41948" lon="7.20961">
        <ele>115.316134</ele>
        <time>2023-04-27T08:55:13.802Z</time>
      </trkpt>
      <trkpt lat="51.4194" lon="7.20956">
        <ele>115.184616</ele>
        <time>2023-04-27T08:55:18.824Z</time>
      </trkpt>
      <trkpt lat="51.41933" lon="7.20946">
        <ele>115.053324</ele>
        <time>2023-04-27T08:55:26.807Z</time>
      </trkpt>
      <trkpt lat="51.41925" lon="7.20936">
        <ele>114.91516</ele>
        <time>2023-04-27T08:55:32.829Z</time>
      </trkpt>
      <trkpt lat="51.41919" lon="7.20925">
        <ele>114.785789</ele>
        <time>2023-04-27T08:55:38.806Z</time>
      </trkpt>
      <trkpt lat="51.41915" lon="7.20909">
        <ele>114.634759</ele>
        <time>2023-04-27T08:55:43.807Z</time>
      </trkpt>
      <trkpt lat="51.41906" lon="7.20906">
        <ele>114.503785</ele>
        <time>2023-04-27T08:55:51.798Z</time>
      </trkpt>
      <trkpt lat="51.41898" lon="7.209">
        <ele>114.376476</ele>
        <time>2023-04-27T08:56:14.806Z</time>
      </trkpt>
      <trkpt lat="51.4189" lon="7.20893">
        <ele>114.249038</ele>
        <time>2023-04-27T08:56:22.810Z</time>
      </trkpt>
      <trkpt lat="51.41881" lon="7.2089">
        <ele>114.118263</ele>
        <time>2023-04-27T08:56:29.793Z</time>
      </trkpt>
      <trkpt lat="51.41871" lon="7.20885">
        <ele>114.103994</ele>
        <time>2023-04-27T08:56:36.808Z</time>
      </trkpt>
      <trkpt lat="51.41862" lon="7.20881">
        <ele>114.159131</ele>
        <time>2023-04-27T08:56:41.820Z</time>
      </trkpt>
      <trkpt lat="51.41853" lon="7.20879">
        <ele>114.211187</ele>
        <time>2023-04-27T08:56:46.805Z</time>
      </trkpt>
      <trkpt lat="51.41844" lon="7.20876">
        <ele>114.264376</ele>
        <time>2023-04-27T08:56:52.798Z</time>
      </trkpt>
      <trkpt lat="51.41835" lon="7.20873">
        <ele>114.316463</ele>
        <time>2023-04-27T08:56:57.807Z</time>
      </trkpt>
      <trkpt lat="51.41825" lon="7.2087">
        <ele>114.374576</ele>
        <time>2023-04-27T08:57:02.814Z</time>
      </trkpt>
      <trkpt lat="51.41816" lon="7.20867">
        <ele>114.430158</ele>
        <time>2023-04-27T08:57:07.800Z</time>
      </trkpt>
      <trkpt lat="51.41807" lon="7.20864">
        <ele>114.481927</ele>
        <time>2023-04-27T08:57:12.790Z</time>
      </trkpt>
      <trkpt lat="51.41798" lon="7.20859">
        <ele>114.537171</ele>
        <time>2023-04-27T08:57:18.809Z</time>
      </trkpt>
      <trkpt lat="51.41788" lon="7.20854">
        <ele>114.596742</ele>
        <time>2023-04-27T08:57:24.810Z</time>
      </trkpt>
      <trkpt lat="51.41777" lon="7.20853">
        <ele>114.658398</ele>
        <time>2023-04-27T08:57:31.800Z</time>
      </trkpt>
      <trkpt lat="51.41765" lon="7.20859">
        <ele>114.733904</ele>
        <time>2023-04-27T08:58:15.809Z</time>
      </trkpt>
      <trkpt lat="51.41759" lon="7.20871">
        <ele>114.789943</ele>
        <time>2023-04-27T08:58:22.810Z</time>
      </trkpt>
      <trkpt lat="51.41754" lon="7.20885">
        <ele>114.845667</ele>
        <time>2023-04-27T08:58:27.818Z</time>
      </trkpt>
      <trkpt lat="51.41759" lon="7.20872">
        <ele>114.902366</ele>
        <time>2023-04-27T08:58:39.806Z</time>
      </trkpt>
      <trkpt lat="51.41766" lon="7.20859">
        <ele>114.960244</ele>
        <time>2023-04-27T08:58:43.797Z</time>
      </trkpt>
      <trkpt lat="51.41775" lon="7.20853">
        <ele>115.021134</ele>
        <time>2023-04-27T08:58:47.799Z</time>
      </trkpt>
      <trkpt lat="51.41785" lon="7.20854">
        <ele>115.076603</ele>
        <time>2023-04-27T08:58:52.817Z</time>
      </trkpt>
      <trkpt lat="51.41786" lon="7.20854">
        <ele>115.083591</ele>
        <time>2023-04-27T08:59:35.325Z</time>
      </trkpt>
      <trkpt lat="51.41796" lon="7.20857">
        <ele>115.175404</ele>
        <time>2023-04-27T09:03:34.812Z</time>
      </trkpt>
      <trkpt lat="51.41806" lon="7.20861">
        <ele>115.287476</ele>
        <time>2023-04-27T09:03:41.797Z</time>
      </trkpt>
      <trkpt lat="51.41815" lon="7.20864">
        <ele>115.395303</ele>
        <time>2023-04-27T09:03:47.799Z</time>
      </trkpt>
      <trkpt lat="51.41825" lon="7.20867">
        <ele>115.505588</ele>
        <time>2023-04-27T09:03:53.798Z</time>
      </trkpt>
      <trkpt lat="51.41834" lon="7.2087">
        <ele>115.612446</ele>
        <time>2023-04-27T09:03:59.798Z</time>
      </trkpt>
      <trkpt lat="51.41844" lon="7.20874">
        <ele>115.727589</ele>
        <time>2023-04-27T09:04:05.800Z</time>
      </trkpt>
      <trkpt lat="51.41854" lon="7.20878">
        <ele>115.84344</ele>
        <time>2023-04-27T09:04:12.862Z</time>
      </trkpt>
      <trkpt lat="51.41864" lon="7.20882">
        <ele>115.959688</ele>
        <time>2023-04-27T09:04:18.795Z</time>
      </trkpt>
      <trkpt lat="51.41874" lon="7.20887">
        <ele>116.073378</ele>
        <time>2023-04-27T09:04:24.801Z</time>
      </trkpt>
      <trkpt lat="51.41883" lon="7.20892">
        <ele>116.181954</ele>
        <time>2023-04-27T09:04:30.806Z</time>
      </trkpt>
      <trkpt lat="51.41892" lon="7.20895">
        <ele>116.285509</ele>
        <time>2023-04-27T09:04:36.797Z</time>
      </trkpt>
      <trkpt lat="51.41901" lon="7.20899">
        <ele>116.386954</ele>
        <time>2023-04-27T09:04:41.799Z</time>
      </trkpt>
      <trkpt lat="51.41909" lon="7.20907">
        <ele>116.500493</ele>
        <time>2023-04-27T09:04:50.800Z</time>
      </trkpt>
      <trkpt lat="51.41918" lon="7.2092">
        <ele>116.626483</ele>
        <time>2023-04-27T09:04:56.810Z</time>
      </trkpt>
      <trkpt lat="51.41924" lon="7.20932">
        <ele>116.739179</ele>
        <time>2023-04-27T09:05:02.787Z</time>
      </trkpt>
      <trkpt lat="51.41931" lon="7.20944">
        <ele>116.847726</ele>
        <time>2023-04-27T09:05:07.791Z</time>
      </trkpt>
      <trkpt lat="51.41939" lon="7.20954">
        <ele>116.961657</ele>
        <time>2023-04-27T09:05:12.806Z</time>
      </trkpt>
      <trkpt lat="51.41948" lon="7.20959">
        <ele>117.072334</ele>
        <time>2023-04-27T09:05:18.801Z</time>
      </trkpt>
      <trkpt lat="51.41957" lon="7.20963">
        <ele>117.066966</ele>
        <time>2023-04-27T09:05:23.797Z</time>
      </trkpt>
      <trkpt lat="51.41966" lon="7.20967">
        <ele>116.979368</ele>
        <time>2023-04-27T09:05:28.806Z</time>
      </trkpt>
      <trkpt lat="51.41976" lon="7.20967">
        <ele>116.886128</ele>
        <time>2023-04-27T09:05:34.794Z</time>
      </trkpt>
      <trkpt lat="51.41986" lon="7.20971">
        <ele>116.79131</ele>
        <time>2023-04-27T09:05:40.806Z</time>
      </trkpt>
      <trkpt lat="51.41995" lon="7.20974">
        <ele>116.706239</ele>
        <time>2023-04-27T09:05:45.799Z</time>
      </trkpt>
      <trkpt lat="51.42005" lon="7.20976">
        <ele>116.616534</ele>
        <time>2023-04-27T09:05:50.806Z</time>
      </trkpt>
      <trkpt lat="51.42014" lon="7.20977">
        <ele>116.529246</ele>
        <time>2023-04-27T09:05:54.800Z</time>
      </trkpt>
      <trkpt lat="51.42025" lon="7.20981">
        <ele>116.430803</ele>
        <time>2023-04-27T09:05:58.797Z</time>
      </trkpt>
      <trkpt lat="51.42036" lon="7.20984">
        <ele>116.320733</ele>
        <time>2023-04-27T09:06:02.822Z</time>
      </trkpt>
      <trkpt lat="51.42045" lon="7.20988">
        <ele>116.237592</ele>
        <time>2023-04-27T09:06:05.785Z</time>
      </trkpt>
      <trkpt lat="51.42054" lon="7.20997">
        <ele>116.141485</ele>
        <time>2023-04-27T09:06:09.798Z</time>
      </trkpt>
      <trkpt lat="51.42064" lon="7.21007">
        <ele>116.033723</ele>
        <time>2023-04-27T09:06:13.788Z</time>
      </trkpt>
      <trkpt lat="51.42072" lon="7.21012">
        <ele>115.949376</ele>
        <time>2023-04-27T09:06:16.805Z</time>
      </trkpt>
      <trkpt lat="51.42084" lon="7.21013">
        <ele>115.844614</ele>
        <time>2023-04-27T09:06:20.793Z</time>
      </trkpt>
      <trkpt lat="51.42095" lon="7.2101">
        <ele>115.742115</ele>
        <time>2023-04-27T09:06:24.812Z</time>
      </trkpt>
      <trkpt lat="51.42104" lon="7.21005">
        <ele>115.650779</ele>
        <time>2023-04-27T09:06:28.804Z</time>
      </trkpt>
      <trkpt lat="51.42113" lon="7.21003">
        <ele>115.565342</ele>
        <time>2023-04-27T09:06:32.813Z</time>
      </trkpt>
      <trkpt lat="51.42123" lon="7.21005">
        <ele>115.475013</ele>
        <time>2023-04-27T09:06:37.787Z</time>
      </trkpt>
      <trkpt lat="51.42133" lon="7.2101">
        <ele>115.620077</ele>
        <time>2023-04-27T09:06:43.788Z</time>
      </trkpt>
      <trkpt lat="51.42141" lon="7.21017">
        <ele>115.813734</ele>
        <time>2023-04-27T09:06:49.801Z</time>
      </trkpt>
      <trkpt lat="51.42148" lon="7.21028">
        <ele>115.996152</ele>
        <time>2023-04-27T09:06:56.803Z</time>
      </trkpt>
      <trkpt lat="51.42148" lon="7.21043">
        <ele>116.181879</ele>
        <time>2023-04-27T09:07:14.806Z</time>
      </trkpt>
      <trkpt lat="51.42146" lon="7.2106">
        <ele>116.391466</ele>
        <time>2023-04-27T09:08:27.791Z</time>
      </trkpt>
      <trkpt lat="51.42145" lon="7.21075">
        <ele>116.57914</ele>
        <time>2023-04-27T09:08:31.800Z</time>
      </trkpt>
      <trkpt lat="51.42145" lon="7.21093">
        <ele>116.801688</ele>
        <time>2023-04-27T09:08:35.806Z</time>
      </trkpt>
      <trkpt lat="51.42144" lon="7.21109">
        <ele>117.002161</ele>
        <time>2023-04-27T09:08:38.823Z</time>
      </trkpt>
      <trkpt lat="51.42144" lon="7.21124">
        <ele>117.184117</ele>
        <time>2023-04-27T09:08:41.807Z</time>
      </trkpt>
      <trkpt lat="51.42143" lon="7.21138">
        <ele>117.364478</ele>
        <time>2023-04-27T09:08:44.788Z</time>
      </trkpt>
      <trkpt lat="51.42143" lon="7.21154">
        <ele>117.557649</ele>
        <time>2023-04-27T09:08:47.799Z</time>
      </trkpt>
      <trkpt lat="51.42142" lon="7.21171">
        <ele>117.760962</ele>
        <time>2023-04-27T09:08:50.815Z</time>
      </trkpt>
      <trkpt lat="51.42141" lon="7.21187">
        <ele>117.96703</ele>
        <time>2023-04-27T09:08:53.805Z</time>
      </trkpt>
      <trkpt lat="51.42139" lon="7.21205">
        <ele>118.183709</ele>
        <time>2023-04-27T09:08:56.794Z</time>
      </trkpt>
      <trkpt lat="51.42135" lon="7.21222">
        <ele>118.410357</ele>
        <time>2023-04-27T09:08:59.802Z</time>
      </trkpt>
      <trkpt lat="51.42132" lon="7.2124">
        <ele>118.638067</ele>
        <time>2023-04-27T09:09:02.796Z</time>
      </trkpt>
      <trkpt lat="51.42128" lon="7.21257">
        <ele>118.859323</ele>
        <time>2023-04-27T09:09:05.792Z</time>
      </trkpt>
      <trkpt lat="51.42124" lon="7.21272">
        <ele>119.00455</ele>
        <time>2023-04-27T09:09:08.814Z</time>
      </trkpt>
      <trkpt lat="51.42121" lon="7.21288">
        <ele>119.010198</ele>
        <time>2023-04-27T09:09:11.806Z</time>
      </trkpt>
      <trkpt lat="51.42118" lon="7.21304">
        <ele>119.015763</ele>
        <time>2023-04-27T09:09:14.812Z</time>
      </trkpt>
      <trkpt lat="51.42118" lon="7.21321">
        <ele>119.021436</ele>
        <time>2023-04-27T09:09:17.812Z</time>
      </trkpt>
      <trkpt lat="51.42116" lon="7.21338">
        <ele>119.027443</ele>
        <time>2023-04-27T09:09:20.807Z</time>
      </trkpt>
      <trkpt lat="51.42112" lon="7.21355">
        <ele>119.033305</ele>
        <time>2023-04-27T09:09:23.790Z</time>
      </trkpt>
      <trkpt lat="51.42106" lon="7.21368">
        <ele>119.03902</ele>
        <time>2023-04-27T09:09:26.798Z</time>
      </trkpt>
      <trkpt lat="51.42099" lon="7.2138">
        <ele>119.044537</ele>
        <time>2023-04-27T09:09:29.805Z</time>
      </trkpt>
      <trkpt lat="51.42091" lon="7.21392">
        <ele>119.050366</ele>
        <time>2023-04-27T09:09:32.816Z</time>
      </trkpt>
      <trkpt lat="51.42084" lon="7.21407">
        <ele>119.056887</ele>
        <time>2023-04-27T09:09:35.792Z</time>
      </trkpt>
      <trkpt lat="51.42077" lon="7.21423">
        <ele>119.063427</ele>
        <time>2023-04-27T09:09:38.817Z</time>
      </trkpt>
      <trkpt lat="51.4207" lon="7.2144">
        <ele>119.070246</ele>
        <time>2023-04-27T09:09:41.799Z</time>
      </trkpt>
      <trkpt lat="51.42064" lon="7.21458">
        <ele>119.077137</ele>
        <time>2023-04-27T09:09:44.802Z</time>
      </trkpt>
      <trkpt lat="51.42059" lon="7.21477">
        <ele>119.08408</ele>
        <time>2023-04-27T09:09:47.806Z</time>
      </trkpt>
      <trkpt lat="51.42053" lon="7.21496">
        <ele>119.091199</ele>
        <time>2023-04-27T09:09:50.810Z</time>
      </trkpt>
      <trkpt lat="51.42048" lon="7.21515">
        <ele>119.098182</ele>
        <time>2023-04-27T09:09:53.803Z</time>
      </trkpt>
      <trkpt lat="51.42041" lon="7.21533">
        <ele>119.115169</ele>
        <time>2023-04-27T09:09:56.796Z</time>
      </trkpt>
      <trkpt lat="51.42037" lon="7.21552">
        <ele>119.135097</ele>
        <time>2023-04-27T09:09:59.805Z</time>
      </trkpt>
      <trkpt lat="51.42034" lon="7.21566">
        <ele>119.149166</ele>
        <time>2023-04-27T09:10:01.803Z</time>
      </trkpt>
      <trkpt lat="51.4203" lon="7.21586">
        <ele>119.169758</ele>
        <time>2023-04-27T09:10:04.791Z</time>
      </trkpt>
      <trkpt lat="51.42026" lon="7.21606">
        <ele>119.1903</ele>
        <time>2023-04-27T09:10:07.820Z</time>
      </trkpt>
      <trkpt lat="51.42023" lon="7.21626">
        <ele>119.210611</ele>
        <time>2023-04-27T09:10:10.788Z</time>
      </trkpt>
      <trkpt lat="51.42022" lon="7.21641">
        <ele>119.225222</ele>
        <time>2023-04-27T09:10:12.820Z</time>
      </trkpt>
      <trkpt lat="51.42019" lon="7.21662">
        <ele>119.245819</ele>
        <time>2023-04-27T09:10:15.793Z</time>
      </trkpt>
      <trkpt lat="51.42016" lon="7.21683">
        <ele>119.266929</ele>
        <time>2023-04-27T09:10:18.817Z</time>
      </trkpt>
      <trkpt lat="51.42015" lon="7.21697">
        <ele>119.281143</ele>
        <time>2023-04-27T09:10:20.824Z</time>
      </trkpt>
      <trkpt lat="51.42015" lon="7.21712">
        <ele>119.295581</ele>
        <time>2023-04-27T09:10:22.796Z</time>
      </trkpt>
      <trkpt lat="51.42015" lon="7.21728">
        <ele>119.310906</ele>
        <time>2023-04-27T09:10:24.787Z</time>
      </trkpt>
      <trkpt lat="51.42016" lon="7.21743">
        <ele>119.325459</ele>
        <time>2023-04-27T09:10:26.790Z</time>
      </trkpt>
      <trkpt lat="51.42015" lon="7.21758">
        <ele>119.340628</ele>
        <time>2023-04-27T09:10:28.790Z</time>
      </trkpt>
      <trkpt lat="51.42014" lon="7.21774">
        <ele>119.355571</ele>
        <time>2023-04-27T09:10:30.802Z</time>
      </trkpt>
      <trkpt lat="51.42012" lon="7.21788">
        <ele>119.369926</ele>
        <time>2023-04-27T09:10:32.803Z</time>
      </trkpt>
      <trkpt lat="51.4201" lon="7.21803">
        <ele>119.372313</ele>
        <time>2023-04-27T09:10:34.808Z</time>
      </trkpt>
      <trkpt lat="51.42008" lon="7.21818">
        <ele>119.333498</ele>
        <time>2023-04-27T09:10:36.801Z</time>
      </trkpt>
      <trkpt lat="51.42006" lon="7.21834">
        <ele>119.293395</ele>
        <time>2023-04-27T09:10:38.791Z</time>
      </trkpt>
      <trkpt lat="51.42003" lon="7.21849">
        <ele>119.254051</ele>
        <time>2023-04-27T09:10:40.812Z</time>
      </trkpt>
      <trkpt lat="51.42" lon="7.21864">
        <ele>119.214424</ele>
        <time>2023-04-27T09:10:42.809Z</time>
      </trkpt>
      <trkpt lat="51.41996" lon="7.21879">
        <ele>119.1755</ele>
        <time>2023-04-27T09:10:44.800Z</time>
      </trkpt>
      <trkpt lat="51.41993" lon="7.21894">
        <ele>119.135733</ele>
        <time>2023-04-27T09:10:46.828Z</time>
      </trkpt>
      <trkpt lat="51.41989" lon="7.21908">
        <ele>119.095677</ele>
        <time>2023-04-27T09:10:48.808Z</time>
      </trkpt>
      <trkpt lat="51.41985" lon="7.21924">
        <ele>119.053758</ele>
        <time>2023-04-27T09:10:50.804Z</time>
      </trkpt>
      <trkpt lat="51.41982" lon="7.2194">
        <ele>119.013088</ele>
        <time>2023-04-27T09:10:52.823Z</time>
      </trkpt>
      <trkpt lat="51.41979" lon="7.21955">
        <ele>118.972521</ele>
        <time>2023-04-27T09:10:54.808Z</time>
      </trkpt>
      <trkpt lat="51.41976" lon="7.2197">
        <ele>118.932689</ele>
        <time>2023-04-27T09:10:56.812Z</time>
      </trkpt>
      <trkpt lat="51.41974" lon="7.21986">
        <ele>118.89123</ele>
        <time>2023-04-27T09:10:58.794Z</time>
      </trkpt>
      <trkpt lat="51.41973" lon="7.22003">
        <ele>118.849493</ele>
        <time>2023-04-27T09:11:00.792Z</time>
      </trkpt>
      <trkpt lat="51.41971" lon="7.2202">
        <ele>118.806862</ele>
        <time>2023-04-27T09:11:02.808Z</time>
      </trkpt>
      <trkpt lat="51.41968" lon="7.22037">
        <ele>118.762927</ele>
        <time>2023-04-27T09:11:04.806Z</time>
      </trkpt>
      <trkpt lat="51.41965" lon="7.22053">
        <ele>118.719887</ele>
        <time>2023-04-27T09:11:06.785Z</time>
      </trkpt>
      <trkpt lat="51.41961" lon="7.2207">
        <ele>118.675672</ele>
        <time>2023-04-27T09:11:08.807Z</time>
      </trkpt>
      <trkpt lat="51.41956" lon="7.22085">
        <ele>118.703158</ele>
        <time>2023-04-27T09:11:10.799Z</time>
      </trkpt>
      <trkpt lat="51.41952" lon="7.22099">
        <ele>118.766019</ele>
        <time>2023-04-27T09:11:12.790Z</time>
      </trkpt>
      <trkpt lat="51.41946" lon="7.22112">
        <ele>118.82745</ele>
        <time>2023-04-27T09:11:14.823Z</time>
      </trkpt>
      <trkpt lat="51.41941" lon="7.22126">
        <ele>118.890553</ele>
        <time>2023-04-27T09:11:16.806Z</time>
      </trkpt>
      <trkpt lat="51.41936" lon="7.2214">
        <ele>118.954063</ele>
        <time>2023-04-27T09:11:18.818Z</time>
      </trkpt>
      <trkpt lat="51.41932" lon="7.22153">
        <ele>119.014346</ele>
        <time>2023-04-27T09:11:20.819Z</time>
      </trkpt>
      <trkpt lat="51.41927" lon="7.22167">
        <ele>119.075566</ele>
        <time>2023-04-27T09:11:22.804Z</time>
      </trkpt>
      <trkpt lat="51.41923" lon="7.22181">
        <ele>119.136199</ele>
        <time>2023-04-27T09:11:24.808Z</time>
      </trkpt>
      <trkpt lat="51.41919" lon="7.22195">
        <ele>119.197609</ele>
        <time>2023-04-27T09:11:26.810Z</time>
      </trkpt>
      <trkpt lat="51.41915" lon="7.22209">
        <ele>119.256964</ele>
        <time>2023-04-27T09:11:28.808Z</time>
      </trkpt>
      <trkpt lat="51.41911" lon="7.22228">
        <ele>119.338036</ele>
        <time>2023-04-27T09:11:31.803Z</time>
      </trkpt>
      <trkpt lat="51.41906" lon="7.22247">
        <ele>119.417934</ele>
        <time>2023-04-27T09:11:34.820Z</time>
      </trkpt>
      <trkpt lat="51.41902" lon="7.22264">
        <ele>119.490126</ele>
        <time>2023-04-27T09:11:37.807Z</time>
      </trkpt>
      <trkpt lat="51.41899" lon="7.22278">
        <ele>119.547424</ele>
        <time>2023-04-27T09:11:40.803Z</time>
      </trkpt>
      <trkpt lat="51.41896" lon="7.22292">
        <ele>119.606215</ele>
        <time>2023-04-27T09:11:43.815Z</time>
      </trkpt>
      <trkpt lat="51.41893" lon="7.22306">
        <ele>119.664514</ele>
        <time>2023-04-27T09:11:46.810Z</time>
      </trkpt>
      <trkpt lat="51.41889" lon="7.2232">
        <ele>119.726083</ele>
        <time>2023-04-27T09:11:49.801Z</time>
      </trkpt>
      <trkpt lat="51.41885" lon="7.22335">
        <ele>119.786816</ele>
        <time>2023-04-27T09:11:52.801Z</time>
      </trkpt>
      <trkpt lat="51.41881" lon="7.22349">
        <ele>119.633625</ele>
        <time>2023-04-27T09:11:56.819Z</time>
      </trkpt>
      <trkpt lat="51.41877" lon="7.22364">
        <ele>119.43445</ele>
        <time>2023-04-27T09:13:25.798Z</time>
      </trkpt>
      <trkpt lat="51.41867" lon="7.22366">
        <ele>119.243349</ele>
        <time>2023-04-27T09:13:29.803Z</time>
      </trkpt>
      <trkpt lat="51.41857" lon="7.22368">
        <ele>119.043215</ele>
        <time>2023-04-27T09:13:32.814Z</time>
      </trkpt>
      <trkpt lat="51.41846" lon="7.22371">
        <ele>118.820467</ele>
        <time>2023-04-27T09:13:35.798Z</time>
      </trkpt>
      <trkpt lat="51.41833" lon="7.22372">
        <ele>118.570164</ele>
        <time>2023-04-27T09:13:38.801Z</time>
      </trkpt>
      <trkpt lat="51.41821" lon="7.22366">
        <ele>118.333086</ele>
        <time>2023-04-27T09:13:41.804Z</time>
      </trkpt>
      <trkpt lat="51.41808" lon="7.2236">
        <ele>118.077578</ele>
        <time>2023-04-27T09:13:44.818Z</time>
      </trkpt>
      <trkpt lat="51.418" lon="7.22356">
        <ele>117.90245</ele>
        <time>2023-04-27T09:13:46.807Z</time>
      </trkpt>
      <trkpt lat="51.4179" lon="7.22351">
        <ele>117.713681</ele>
        <time>2023-04-27T09:13:48.808Z</time>
      </trkpt>
      <trkpt lat="51.41781" lon="7.22346">
        <ele>117.526662</ele>
        <time>2023-04-27T09:13:50.813Z</time>
      </trkpt>
      <trkpt lat="51.41772" lon="7.22339">
        <ele>117.330215</ele>
        <time>2023-04-27T09:13:52.797Z</time>
      </trkpt>
      <trkpt lat="51.41763" lon="7.22332">
        <ele>117.125751</ele>
        <time>2023-04-27T09:13:54.821Z</time>
      </trkpt>
      <trkpt lat="51.41752" lon="7.22326">
        <ele>116.915834</ele>
        <time>2023-04-27T09:13:56.805Z</time>
      </trkpt>
      <trkpt lat="51.41742" lon="7.22321">
        <ele>116.696827</ele>
        <time>2023-04-27T09:13:58.870Z</time>
      </trkpt>
      <trkpt lat="51.41731" lon="7.22314">
        <ele>116.475318</ele>
        <time>2023-04-27T09:14:00.808Z</time>
      </trkpt>
      <trkpt lat="51.4172" lon="7.22307">
        <ele>116.288353</ele>
        <time>2023-04-27T09:14:02.812Z</time>
      </trkpt>
      <trkpt lat="51.41708" lon="7.22301">
        <ele>116.201572</ele>
        <time>2023-04-27T09:14:04.812Z</time>
      </trkpt>
      <trkpt lat="51.41697" lon="7.22296">
        <ele>116.114232</ele>
        <time>2023-04-27T09:14:06.809Z</time>
      </trkpt>
      <trkpt lat="51.41686" lon="7.22292">
        <ele>116.033011</ele>
        <time>2023-04-27T09:14:08.805Z</time>
      </trkpt>
      <trkpt lat="51.41675" lon="7.22287">
        <ele>115.954181</ele>
        <time>2023-04-27T09:14:10.819Z</time>
      </trkpt>
      <trkpt lat="51.41664" lon="7.22285">
        <ele>115.874367</ele>
        <time>2023-04-27T09:14:12.808Z</time>
      </trkpt>
      <trkpt lat="51.41654" lon="7.22283">
        <ele>115.798678</ele>
        <time>2023-04-27T09:14:14.803Z</time>
      </trkpt>
      <trkpt lat="51.41644" lon="7.22281">
        <ele>115.724592</ele>
        <time>2023-04-27T09:14:16.799Z</time>
      </trkpt>
      <trkpt lat="51.41634" lon="7.22279">
        <ele>115.652337</ele>
        <time>2023-04-27T09:14:18.786Z</time>
      </trkpt>
      <trkpt lat="51.41623" lon="7.22277">
        <ele>115.577093</ele>
        <time>2023-04-27T09:14:20.813Z</time>
      </trkpt>
      <trkpt lat="51.41613" lon="7.22275">
        <ele>115.503414</ele>
        <time>2023-04-27T09:14:22.804Z</time>
      </trkpt>
      <trkpt lat="51.41603" lon="7.22272">
        <ele>115.43194</ele>
        <time>2023-04-27T09:14:24.798Z</time>
      </trkpt>
      <trkpt lat="51.41593" lon="7.2227">
        <ele>115.35954</ele>
        <time>2023-04-27T09:14:26.815Z</time>
      </trkpt>
      <trkpt lat="51.41584" lon="7.22267">
        <ele>115.286983</ele>
        <time>2023-04-27T09:14:28.799Z</time>
      </trkpt>
      <trkpt lat="51.41574" lon="7.22264">
        <ele>115.215675</ele>
        <time>2023-04-27T09:14:30.801Z</time>
      </trkpt>
      <trkpt lat="51.41564" lon="7.22261">
        <ele>115.144132</ele>
        <time>2023-04-27T09:14:32.807Z</time>
      </trkpt>
      <trkpt lat="51.41555" lon="7.22259">
        <ele>115.075508</ele>
        <time>2023-04-27T09:14:34.799Z</time>
      </trkpt>
      <trkpt lat="51.41545" lon="7.22256">
        <ele>115.026606</ele>
        <time>2023-04-27T09:14:36.813Z</time>
      </trkpt>
      <trkpt lat="51.41535" lon="7.22253">
        <ele>115.078855</ele>
        <time>2023-04-27T09:14:38.816Z</time>
      </trkpt>
      <trkpt lat="51.41525" lon="7.22251">
        <ele>115.129581</ele>
        <time>2023-04-27T09:14:40.815Z</time>
      </trkpt>
      <trkpt lat="51.41516" lon="7.22248">
        <ele>115.179714</ele>
        <time>2023-04-27T09:14:42.812Z</time>
      </trkpt>
      <trkpt lat="51.41503" lon="7.22244">
        <ele>115.250837</ele>
        <time>2023-04-27T09:14:45.810Z</time>
      </trkpt>
      <trkpt lat="51.41493" lon="7.2224">
        <ele>115.301288</ele>
        <time>2023-04-27T09:14:47.799Z</time>
      </trkpt>
      <trkpt lat="51.41481" lon="7.22234">
        <ele>115.370523</ele>
        <time>2023-04-27T09:14:50.811Z</time>
      </trkpt>
      <trkpt lat="51.41469" lon="7.22223">
        <ele>115.440118</ele>
        <time>2023-04-27T09:14:53.799Z</time>
      </trkpt>
      <trkpt lat="51.4146" lon="7.22208">
        <ele>115.510091</ele>
        <time>2023-04-27T09:14:56.792Z</time>
      </trkpt>
      <trkpt lat="51.41453" lon="7.22196">
        <ele>115.560861</ele>
        <time>2023-04-27T09:14:58.798Z</time>
      </trkpt>
      <trkpt lat="51.41447" lon="7.22185">
        <ele>115.609692</ele>
        <time>2023-04-27T09:15:00.796Z</time>
      </trkpt>
      <trkpt lat="51.41442" lon="7.22172">
        <ele>115.659865</ele>
        <time>2023-04-27T09:15:02.797Z</time>
      </trkpt>
      <trkpt lat="51.41437" lon="7.22159">
        <ele>115.711906</ele>
        <time>2023-04-27T09:15:04.812Z</time>
      </trkpt>
      <trkpt lat="51.41431" lon="7.22145">
        <ele>115.763987</ele>
        <time>2023-04-27T09:15:06.792Z</time>
      </trkpt>
      <trkpt lat="51.41425" lon="7.22133">
        <ele>115.815562</ele>
        <time>2023-04-27T09:15:08.810Z</time>
      </trkpt>
      <trkpt lat="51.41419" lon="7.22119">
        <ele>115.867972</ele>
        <time>2023-04-27T09:15:10.824Z</time>
      </trkpt>
      <trkpt lat="51.41415" lon="7.22107">
        <ele>115.916691</ele>
        <time>2023-04-27T09:15:12.809Z</time>
      </trkpt>
      <trkpt lat="51.41409" lon="7.22093">
        <ele>115.971519</ele>
        <time>2023-04-27T09:15:14.824Z</time>
      </trkpt>
      <trkpt lat="51.41403" lon="7.2208">
        <ele>116.03188</ele>
        <time>2023-04-27T09:15:16.802Z</time>
      </trkpt>
      <trkpt lat="51.41398" lon="7.22067">
        <ele>116.092179</ele>
        <time>2023-04-27T09:15:18.799Z</time>
      </trkpt>
      <trkpt lat="51.41393" lon="7.22054">
        <ele>116.148622</ele>
        <time>2023-04-27T09:15:20.820Z</time>
      </trkpt>
      <trkpt lat="51.41388" lon="7.22042">
        <ele>116.204063</ele>
        <time>2023-04-27T09:15:22.808Z</time>
      </trkpt>
      <trkpt lat="51.4138" lon="7.22027">
        <ele>116.280115</ele>
        <time>2023-04-27T09:15:25.806Z</time>
      </trkpt>
      <trkpt lat="51.4137" lon="7.22017">
        <ele>116.352107</ele>
        <time>2023-04-27T09:15:28.795Z</time>
      </trkpt>
      <trkpt lat="51.41363" lon="7.22028">
        <ele>116.410569</ele>
        <time>2023-04-27T09:15:31.796Z</time>
      </trkpt>
      <trkpt lat="51.41357" lon="7.22043">
        <ele>116.475996</ele>
        <time>2023-04-27T09:15:34.813Z</time>
      </trkpt>
      <trkpt lat="51.41355" lon="7.22061">
        <ele>116.545672</ele>
        <time>2023-04-27T09:15:37.794Z</time>
      </trkpt>
      <trkpt lat="51.41355" lon="7.22081">
        <ele>116.623164</ele>
        <time>2023-04-27T09:15:40.800Z</time>
      </trkpt>
      <trkpt lat="51.41356" lon="7.22101">
        <ele>116.7003</ele>
        <time>2023-04-27T09:15:43.809Z</time>
      </trkpt>
      <trkpt lat="51.41357" lon="7.22116">
        <ele>116.756696</ele>
        <time>2023-04-27T09:15:45.787Z</time>
      </trkpt>
      <trkpt lat="51.41358" lon="7.22131">
        <ele>116.813686</ele>
        <time>2023-04-27T09:15:47.805Z</time>
      </trkpt>
      <trkpt lat="51.41357" lon="7.22146">
        <ele>116.871056</ele>
        <time>2023-04-27T09:15:49.812Z</time>
      </trkpt>
      <trkpt lat="51.41357" lon="7.22162">
        <ele>116.930692</ele>
        <time>2023-04-27T09:15:51.811Z</time>
      </trkpt>
      <trkpt lat="51.41357" lon="7.22176">
        <ele>116.986543</ele>
        <time>2023-04-27T09:15:53.802Z</time>
      </trkpt>
      <trkpt lat="51.41358" lon="7.22192">
        <ele>117.045849</ele>
        <time>2023-04-27T09:15:55.797Z</time>
      </trkpt>
      <trkpt lat="51.41357" lon="7.22207">
        <ele>117.048172</ele>
        <time>2023-04-27T09:15:57.807Z</time>
      </trkpt>
      <trkpt lat="51.41357" lon="7.22224">
        <ele>117.04188</ele>
        <time>2023-04-27T09:15:59.801Z</time>
      </trkpt>
      <trkpt lat="51.41356" lon="7.22239">
        <ele>117.036034</ele>
        <time>2023-04-27T09:16:01.817Z</time>
      </trkpt>
      <trkpt lat="51.41355" lon="7.22254">
        <ele>117.030093</ele>
        <time>2023-04-27T09:16:03.805Z</time>
      </trkpt>
      <trkpt lat="51.41353" lon="7.22269">
        <ele>117.024212</ele>
        <time>2023-04-27T09:16:05.785Z</time>
      </trkpt>
      <trkpt lat="51.41352" lon="7.22284">
        <ele>117.01834</ele>
        <time>2023-04-27T09:16:07.805Z</time>
      </trkpt>
      <trkpt lat="51.4135" lon="7.223">
        <ele>117.012334</ele>
        <time>2023-04-27T09:16:09.823Z</time>
      </trkpt>
      <trkpt lat="51.41349" lon="7.22315">
        <ele>117.006328</ele>
        <time>2023-04-27T09:16:11.820Z</time>
      </trkpt>
      <trkpt lat="51.41347" lon="7.2233">
        <ele>117.000223</ele>
        <time>2023-04-27T09:16:13.819Z</time>
      </trkpt>
      <trkpt lat="51.41345" lon="7.22345">
        <ele>116.994457</ele>
        <time>2023-04-27T09:16:15.788Z</time>
      </trkpt>
      <trkpt lat="51.41343" lon="7.2236">
        <ele>116.988564</ele>
        <time>2023-04-27T09:16:17.812Z</time>
      </trkpt>
      <trkpt lat="51.41341" lon="7.22374">
        <ele>116.982823</ele>
        <time>2023-04-27T09:16:19.816Z</time>
      </trkpt>
      <trkpt lat="51.41338" lon="7.22394">
        <ele>116.974896</ele>
        <time>2023-04-27T09:16:22.795Z</time>
      </trkpt>
      <trkpt lat="51.41335" lon="7.22414">
        <ele>116.967116</ele>
        <time>2023-04-27T09:16:25.790Z</time>
      </trkpt>
      <trkpt lat="51.41333" lon="7.22435">
        <ele>116.958892</ele>
        <time>2023-04-27T09:16:28.796Z</time>
      </trkpt>
      <trkpt lat="51.41336" lon="7.22456">
        <ele>116.950591</ele>
        <time>2023-04-27T09:16:31.797Z</time>
      </trkpt>
      <trkpt lat="51.41341" lon="7.2247">
        <ele>116.944715</ele>
        <time>2023-04-27T09:16:33.798Z</time>
      </trkpt>
      <trkpt lat="51.41344" lon="7.22484">
        <ele>116.936813</ele>
        <time>2023-04-27T09:16:35.813Z</time>
      </trkpt>
      <trkpt lat="51.41346" lon="7.225">
        <ele>116.927845</ele>
        <time>2023-04-27T09:16:37.804Z</time>
      </trkpt>
      <trkpt lat="51.41345" lon="7.22516">
        <ele>116.91852</ele>
        <time>2023-04-27T09:16:39.795Z</time>
      </trkpt>
      <trkpt lat="51.41342" lon="7.22531">
        <ele>116.90949</ele>
        <time>2023-04-27T09:16:41.793Z</time>
      </trkpt>
      <trkpt lat="51.4134" lon="7.22546">
        <ele>116.900449</ele>
        <time>2023-04-27T09:16:43.797Z</time>
      </trkpt>
      <trkpt lat="51.41337" lon="7.22561">
        <ele>116.891887</ele>
        <time>2023-04-27T09:16:45.786Z</time>
      </trkpt>
      <trkpt lat="51.41334" lon="7.22579">
        <ele>116.881097</ele>
        <time>2023-04-27T09:16:48.808Z</time>
      </trkpt>
      <trkpt lat="51.41331" lon="7.22598">
        <ele>116.869712</ele>
        <time>2023-04-27T09:16:51.822Z</time>
      </trkpt>
      <trkpt lat="51.41327" lon="7.22615">
        <ele>116.859145</ele>
        <time>2023-04-27T09:16:54.795Z</time>
      </trkpt>
      <trkpt lat="51.41325" lon="7.22634">
        <ele>116.847991</ele>
        <time>2023-04-27T09:16:57.796Z</time>
      </trkpt>
      <trkpt lat="51.41322" lon="7.22653">
        <ele>116.83671</ele>
        <time>2023-04-27T09:17:00.808Z</time>
      </trkpt>
      <trkpt lat="51.41318" lon="7.22673">
        <ele>116.824974</ele>
        <time>2023-04-27T09:17:03.822Z</time>
      </trkpt>
      <trkpt lat="51.41314" lon="7.22692">
        <ele>116.813208</ele>
        <time>2023-04-27T09:17:06.807Z</time>
      </trkpt>
      <trkpt lat="51.41311" lon="7.22706">
        <ele>116.804872</ele>
        <time>2023-04-27T09:17:08.809Z</time>
      </trkpt>
      <trkpt lat="51.41309" lon="7.2272">
        <ele>116.796586</ele>
        <time>2023-04-27T09:17:10.807Z</time>
      </trkpt>
      <trkpt lat="51.41306" lon="7.22734">
        <ele>116.788191</ele>
        <time>2023-04-27T09:17:12.810Z</time>
      </trkpt>
      <trkpt lat="51.41303" lon="7.22755">
        <ele>116.781822</ele>
        <time>2023-04-27T09:17:15.803Z</time>
      </trkpt>
      <trkpt lat="51.413" lon="7.22776">
        <ele>116.88284</ele>
        <time>2023-04-27T09:17:18.805Z</time>
      </trkpt>
      <trkpt lat="51.41298" lon="7.2279">
        <ele>116.951903</ele>
        <time>2023-04-27T09:17:20.805Z</time>
      </trkpt>
      <trkpt lat="51.41294" lon="7.22811">
        <ele>117.05345</ele>
        <time>2023-04-27T09:17:23.806Z</time>
      </trkpt>
      <trkpt lat="51.41291" lon="7.22832">
        <ele>117.152931</ele>
        <time>2023-04-27T09:17:26.833Z</time>
      </trkpt>
      <trkpt lat="51.4129" lon="7.22847">
        <ele>117.223636</ele>
        <time>2023-04-27T09:17:28.802Z</time>
      </trkpt>
      <trkpt lat="51.41287" lon="7.22867">
        <ele>117.321288</ele>
        <time>2023-04-27T09:17:31.814Z</time>
      </trkpt>
      <trkpt lat="51.41284" lon="7.22888">
        <ele>117.423975</ele>
        <time>2023-04-27T09:17:34.797Z</time>
      </trkpt>
      <trkpt lat="51.41281" lon="7.22909">
        <ele>117.523138</ele>
        <time>2023-04-27T09:17:37.817Z</time>
      </trkpt>
      <trkpt lat="51.41279" lon="7.2293">
        <ele>117.625369</ele>
        <time>2023-04-27T09:17:40.820Z</time>
      </trkpt>
      <trkpt lat="51.41276" lon="7.22951">
        <ele>117.725478</ele>
        <time>2023-04-27T09:17:43.811Z</time>
      </trkpt>
      <trkpt lat="51.41274" lon="7.22966">
        <ele>117.79682</ele>
        <time>2023-04-27T09:17:45.783Z</time>
      </trkpt>
      <trkpt lat="51.41272" lon="7.22981">
        <ele>117.865225</ele>
        <time>2023-04-27T09:17:47.825Z</time>
      </trkpt>
      <trkpt lat="51.41269" lon="7.23002">
        <ele>117.966225</ele>
        <time>2023-04-27T09:17:50.816Z</time>
      </trkpt>
      <trkpt lat="51.41268" lon="7.23016">
        <ele>118.036159</ele>
        <time>2023-04-27T09:17:52.808Z</time>
      </trkpt>
      <trkpt lat="51.41266" lon="7.23031">
        <ele>118.105802</ele>
        <time>2023-04-27T09:17:54.811Z</time>
      </trkpt>
      <trkpt lat="51.41264" lon="7.23045">
        <ele>118.166519</ele>
        <time>2023-04-27T09:17:56.811Z</time>
      </trkpt>
      <trkpt lat="51.41261" lon="7.23066">
        <ele>118.249754</ele>
        <time>2023-04-27T09:17:59.821Z</time>
      </trkpt>
      <trkpt lat="51.41258" lon="7.23086">
        <ele>118.330117</ele>
        <time>2023-04-27T09:18:02.800Z</time>
      </trkpt>
      <trkpt lat="51.41256" lon="7.231">
        <ele>118.387404</ele>
        <time>2023-04-27T09:18:04.801Z</time>
      </trkpt>
      <trkpt lat="51.41254" lon="7.2312">
        <ele>118.465014</ele>
        <time>2023-04-27T09:18:07.801Z</time>
      </trkpt>
      <trkpt lat="51.41251" lon="7.2314">
        <ele>118.544554</ele>
        <time>2023-04-27T09:18:10.799Z</time>
      </trkpt>
      <trkpt lat="51.41247" lon="7.23159">
        <ele>118.624449</ele>
        <time>2023-04-27T09:18:13.802Z</time>
      </trkpt>
      <trkpt lat="51.41242" lon="7.23178">
        <ele>118.704365</ele>
        <time>2023-04-27T09:18:16.805Z</time>
      </trkpt>
      <trkpt lat="51.41238" lon="7.23192">
        <ele>118.760438</ele>
        <time>2023-04-27T09:18:18.801Z</time>
      </trkpt>
      <trkpt lat="51.41234" lon="7.23211">
        <ele>118.84049</ele>
        <time>2023-04-27T09:18:21.813Z</time>
      </trkpt>
      <trkpt lat="51.41229" lon="7.2323">
        <ele>118.920277</ele>
        <time>2023-04-27T09:18:24.805Z</time>
      </trkpt>
      <trkpt lat="51.41226" lon="7.23244">
        <ele>118.979622</ele>
        <time>2023-04-27T09:18:26.809Z</time>
      </trkpt>
      <trkpt lat="51.41222" lon="7.23258">
        <ele>119.037145</ele>
        <time>2023-04-27T09:18:28.812Z</time>
      </trkpt>
      <trkpt lat="51.41218" lon="7.23277">
        <ele>119.116211</ele>
        <time>2023-04-27T09:18:31.824Z</time>
      </trkpt>
      <trkpt lat="51.41214" lon="7.23296">
        <ele>119.195603</ele>
        <time>2023-04-27T09:18:34.791Z</time>
      </trkpt>
      <trkpt lat="51.41215" lon="7.23311">
        <ele>119.250614</ele>
        <time>2023-04-27T09:18:36.781Z</time>
      </trkpt>
      <trkpt lat="51.41218" lon="7.2333">
        <ele>119.2386</ele>
        <time>2023-04-27T09:18:39.788Z</time>
      </trkpt>
      <trkpt lat="51.4122" lon="7.23347">
        <ele>119.227428</ele>
        <time>2023-04-27T09:18:42.817Z</time>
      </trkpt>
      <trkpt lat="51.41223" lon="7.23362">
        <ele>119.217371</ele>
        <time>2023-04-27T09:18:45.784Z</time>
      </trkpt>
      <trkpt lat="51.41225" lon="7.23378">
        <ele>119.207175</ele>
        <time>2023-04-27T09:18:48.809Z</time>
      </trkpt>
      <trkpt lat="51.41227" lon="7.23396">
        <ele>119.195622</ele>
        <time>2023-04-27T09:18:51.803Z</time>
      </trkpt>
      <trkpt lat="51.41229" lon="7.23413">
        <ele>119.184508</ele>
        <time>2023-04-27T09:18:54.804Z</time>
      </trkpt>
      <trkpt lat="51.41232" lon="7.2343">
        <ele>119.173315</ele>
        <time>2023-04-27T09:18:57.801Z</time>
      </trkpt>
      <trkpt lat="51.41234" lon="7.23448">
        <ele>119.161457</ele>
        <time>2023-04-27T09:19:00.803Z</time>
      </trkpt>
      <trkpt lat="51.41238" lon="7.23467">
        <ele>119.148938</ele>
        <time>2023-04-27T09:19:03.796Z</time>
      </trkpt>
      <trkpt lat="51.41243" lon="7.23484">
        <ele>119.136776</ele>
        <time>2023-04-27T09:19:06.799Z</time>
      </trkpt>
      <trkpt lat="51.41248" lon="7.235">
        <ele>119.125695</ele>
        <time>2023-04-27T09:19:09.817Z</time>
      </trkpt>
      <trkpt lat="51.41251" lon="7.23517">
        <ele>119.114238</ele>
        <time>2023-04-27T09:19:12.808Z</time>
      </trkpt>
      <trkpt lat="51.41254" lon="7.23535">
        <ele>119.102153</ele>
        <time>2023-04-27T09:19:15.790Z</time>
      </trkpt>
      <trkpt lat="51.41256" lon="7.23555">
        <ele>119.089588</ele>
        <time>2023-04-27T09:19:18.803Z</time>
      </trkpt>
      <trkpt lat="51.41258" lon="7.23576">
        <ele>119.076071</ele>
        <time>2023-04-27T09:19:21.817Z</time>
      </trkpt>
      <trkpt lat="51.41255" lon="7.23596">
        <ele>119.051985</ele>
        <time>2023-04-27T09:19:24.797Z</time>
      </trkpt>
      <trkpt lat="51.41253" lon="7.23611">
        <ele>119.020926</ele>
        <time>2023-04-27T09:19:26.802Z</time>
      </trkpt>
      <trkpt lat="51.41254" lon="7.23627">
        <ele>118.987036</ele>
        <time>2023-04-27T09:19:28.806Z</time>
      </trkpt>
      <trkpt lat="51.41255" lon="7.23642">
        <ele>118.955555</ele>
        <time>2023-04-27T09:19:30.798Z</time>
      </trkpt>
      <trkpt lat="51.41256" lon="7.23657">
        <ele>118.924721</ele>
        <time>2023-04-27T09:19:32.806Z</time>
      </trkpt>
      <trkpt lat="51.41257" lon="7.23672">
        <ele>118.892825</ele>
        <time>2023-04-27T09:19:34.811Z</time>
      </trkpt>
      <trkpt lat="51.41257" lon="7.23687">
        <ele>118.861457</ele>
        <time>2023-04-27T09:19:36.828Z</time>
      </trkpt>
      <trkpt lat="51.41257" lon="7.23709">
        <ele>118.816376</ele>
        <time>2023-04-27T09:19:39.796Z</time>
      </trkpt>
      <trkpt lat="51.41257" lon="7.23724">
        <ele>118.785208</ele>
        <time>2023-04-27T09:19:41.821Z</time>
      </trkpt>
      <trkpt lat="51.41257" lon="7.23739">
        <ele>118.753983</ele>
        <time>2023-04-27T09:19:43.819Z</time>
      </trkpt>
      <trkpt lat="51.41258" lon="7.23754">
        <ele>118.722985</ele>
        <time>2023-04-27T09:19:45.781Z</time>
      </trkpt>
      <trkpt lat="51.41258" lon="7.23769">
        <ele>118.690355</ele>
        <time>2023-04-27T09:19:47.819Z</time>
      </trkpt>
      <trkpt lat="51.41258" lon="7.23785">
        <ele>118.658543</ele>
        <time>2023-04-27T09:19:49.813Z</time>
      </trkpt>
      <trkpt lat="51.41258" lon="7.23801">
        <ele>118.625095</ele>
        <time>2023-04-27T09:19:51.807Z</time>
      </trkpt>
      <trkpt lat="51.41259" lon="7.23816">
        <ele>118.593871</ele>
        <time>2023-04-27T09:19:53.804Z</time>
      </trkpt>
      <trkpt lat="51.41258" lon="7.23832">
        <ele>118.56124</ele>
        <time>2023-04-27T09:19:55.789Z</time>
      </trkpt>
      <trkpt lat="51.41258" lon="7.23847">
        <ele>118.528998</ele>
        <time>2023-04-27T09:19:57.827Z</time>
      </trkpt>
      <trkpt lat="51.41258" lon="7.23862">
        <ele>118.49783</ele>
        <time>2023-04-27T09:19:59.802Z</time>
      </trkpt>
      <trkpt lat="51.41258" lon="7.23877">
        <ele>118.46992</ele>
        <time>2023-04-27T09:20:01.815Z</time>
      </trkpt>
      <trkpt lat="51.41257" lon="7.23893">
        <ele>118.500548</ele>
        <time>2023-04-27T09:20:03.800Z</time>
      </trkpt>
      <trkpt lat="51.41256" lon="7.23908">
        <ele>118.530043</ele>
        <time>2023-04-27T09:20:05.789Z</time>
      </trkpt>
      <trkpt lat="51.41255" lon="7.23923">
        <ele>118.560093</ele>
        <time>2023-04-27T09:20:07.805Z</time>
      </trkpt>
      <trkpt lat="51.41255" lon="7.23939">
        <ele>118.589736</ele>
        <time>2023-04-27T09:20:09.788Z</time>
      </trkpt>
      <trkpt lat="51.41254" lon="7.23954">
        <ele>118.619097</ele>
        <time>2023-04-27T09:20:11.813Z</time>
      </trkpt>
      <trkpt lat="51.41253" lon="7.2397">
        <ele>118.649749</ele>
        <time>2023-04-27T09:20:13.805Z</time>
      </trkpt>
      <trkpt lat="51.41252" lon="7.23985">
        <ele>118.679111</ele>
        <time>2023-04-27T09:20:15.782Z</time>
      </trkpt>
      <trkpt lat="51.4125" lon="7.24">
        <ele>118.709681</ele>
        <time>2023-04-27T09:20:17.796Z</time>
      </trkpt>
      <trkpt lat="51.4125" lon="7.24016">
        <ele>118.739754</ele>
        <time>2023-04-27T09:20:19.821Z</time>
      </trkpt>
      <trkpt lat="51.41249" lon="7.24031">
        <ele>118.769693</ele>
        <time>2023-04-27T09:20:21.802Z</time>
      </trkpt>
      <trkpt lat="51.41247" lon="7.24047">
        <ele>118.800214</ele>
        <time>2023-04-27T09:20:23.819Z</time>
      </trkpt>
      <trkpt lat="51.41246" lon="7.24063">
        <ele>118.831308</ele>
        <time>2023-04-27T09:20:25.806Z</time>
      </trkpt>
      <trkpt lat="51.41244" lon="7.24078">
        <ele>118.861549</ele>
        <time>2023-04-27T09:20:27.816Z</time>
      </trkpt>
      <trkpt lat="51.41242" lon="7.24093">
        <ele>118.891218</ele>
        <time>2023-04-27T09:20:29.807Z</time>
      </trkpt>
      <trkpt lat="51.41241" lon="7.24109">
        <ele>118.921788</ele>
        <time>2023-04-27T09:20:31.805Z</time>
      </trkpt>
      <trkpt lat="51.41239" lon="7.24123">
        <ele>118.950455</ele>
        <time>2023-04-27T09:20:33.827Z</time>
      </trkpt>
      <trkpt lat="51.41238" lon="7.24139">
        <ele>118.980427</ele>
        <time>2023-04-27T09:20:35.795Z</time>
      </trkpt>
      <trkpt lat="51.41237" lon="7.24155">
        <ele>119.010886</ele>
        <time>2023-04-27T09:20:37.801Z</time>
      </trkpt>
      <trkpt lat="51.41236" lon="7.2417">
        <ele>119.045864</ele>
        <time>2023-04-27T09:20:39.808Z</time>
      </trkpt>
      <trkpt lat="51.41235" lon="7.24185">
        <ele>119.085779</ele>
        <time>2023-04-27T09:20:41.819Z</time>
      </trkpt>
      <trkpt lat="51.41233" lon="7.24206">
        <ele>119.141988</ele>
        <time>2023-04-27T09:20:44.798Z</time>
      </trkpt>
      <trkpt lat="51.41231" lon="7.24226">
        <ele>119.194929</ele>
        <time>2023-04-27T09:20:47.790Z</time>
      </trkpt>
      <trkpt lat="51.41229" lon="7.24246">
        <ele>119.249284</ele>
        <time>2023-04-27T09:20:50.811Z</time>
      </trkpt>
      <trkpt lat="51.41226" lon="7.24267">
        <ele>119.306653</ele>
        <time>2023-04-27T09:20:53.812Z</time>
      </trkpt>
      <trkpt lat="51.41222" lon="7.24287">
        <ele>119.360717</ele>
        <time>2023-04-27T09:20:56.808Z</time>
      </trkpt>
      <trkpt lat="51.41219" lon="7.24306">
        <ele>119.413884</ele>
        <time>2023-04-27T09:20:59.806Z</time>
      </trkpt>
      <trkpt lat="51.41214" lon="7.24325">
        <ele>119.467342</ele>
        <time>2023-04-27T09:21:02.810Z</time>
      </trkpt>
      <trkpt lat="51.41209" lon="7.24344">
        <ele>119.521211</ele>
        <time>2023-04-27T09:21:05.821Z</time>
      </trkpt>
      <trkpt lat="51.41204" lon="7.24363">
        <ele>119.575641</ele>
        <time>2023-04-27T09:21:08.793Z</time>
      </trkpt>
      <trkpt lat="51.412" lon="7.24382">
        <ele>119.628066</ele>
        <time>2023-04-27T09:21:11.789Z</time>
      </trkpt>
      <trkpt lat="51.41197" lon="7.24401">
        <ele>119.680721</ele>
        <time>2023-04-27T09:21:14.818Z</time>
      </trkpt>
      <trkpt lat="51.41194" lon="7.24421">
        <ele>119.736425</ele>
        <time>2023-04-27T09:21:17.803Z</time>
      </trkpt>
      <trkpt lat="51.41192" lon="7.24441">
        <ele>119.786783</ele>
        <time>2023-04-27T09:21:20.820Z</time>
      </trkpt>
      <trkpt lat="51.41189" lon="7.24462">
        <ele>119.776172</ele>
        <time>2023-04-27T09:21:23.798Z</time>
      </trkpt>
      <trkpt lat="51.41187" lon="7.24477">
        <ele>119.768918</ele>
        <time>2023-04-27T09:21:25.804Z</time>
      </trkpt>
      <trkpt lat="51.41186" lon="7.24492">
        <ele>119.761457</ele>
        <time>2023-04-27T09:21:27.800Z</time>
      </trkpt>
      <trkpt lat="51.41183" lon="7.24513">
        <ele>119.751064</ele>
        <time>2023-04-27T09:21:30.832Z</time>
      </trkpt>
      <trkpt lat="51.41182" lon="7.24534">
        <ele>119.740473</ele>
        <time>2023-04-27T09:21:33.804Z</time>
      </trkpt>
      <trkpt lat="51.41181" lon="7.24554">
        <ele>119.730705</ele>
        <time>2023-04-27T09:21:36.823Z</time>
      </trkpt>
      <trkpt lat="51.41179" lon="7.24574">
        <ele>119.720751</ele>
        <time>2023-04-27T09:21:39.812Z</time>
      </trkpt>
      <trkpt lat="51.41178" lon="7.24595">
        <ele>119.710314</ele>
        <time>2023-04-27T09:21:42.809Z</time>
      </trkpt>
      <trkpt lat="51.41177" lon="7.24616">
        <ele>119.699729</ele>
        <time>2023-04-27T09:21:45.788Z</time>
      </trkpt>
      <trkpt lat="51.41176" lon="7.24637">
        <ele>119.689325</ele>
        <time>2023-04-27T09:21:48.800Z</time>
      </trkpt>
      <trkpt lat="51.41175" lon="7.24658">
        <ele>119.679098</ele>
        <time>2023-04-27T09:21:51.823Z</time>
      </trkpt>
      <trkpt lat="51.41173" lon="7.24678">
        <ele>119.669109</ele>
        <time>2023-04-27T09:21:54.818Z</time>
      </trkpt>
      <trkpt lat="51.41174" lon="7.24699">
        <ele>119.658813</ele>
        <time>2023-04-27T09:21:57.794Z</time>
      </trkpt>
      <trkpt lat="51.41174" lon="7.2472">
        <ele>119.648658</ele>
        <time>2023-04-27T09:22:00.801Z</time>
      </trkpt>
      <trkpt lat="51.41175" lon="7.24735">
        <ele>119.634802</ele>
        <time>2023-04-27T09:22:02.809Z</time>
      </trkpt>
      <trkpt lat="51.41178" lon="7.24751">
        <ele>119.612721</ele>
        <time>2023-04-27T09:22:04.799Z</time>
      </trkpt>
      <trkpt lat="51.41181" lon="7.24766">
        <ele>119.592489</ele>
        <time>2023-04-27T09:22:06.823Z</time>
      </trkpt>
      <trkpt lat="51.41183" lon="7.24781">
        <ele>119.572241</ele>
        <time>2023-04-27T09:22:08.802Z</time>
      </trkpt>
      <trkpt lat="51.41186" lon="7.24796">
        <ele>119.551949</ele>
        <time>2023-04-27T09:22:10.813Z</time>
      </trkpt>
      <trkpt lat="51.41189" lon="7.24811">
        <ele>119.531782</ele>
        <time>2023-04-27T09:22:12.813Z</time>
      </trkpt>
      <trkpt lat="51.41191" lon="7.24826">
        <ele>119.512831</ele>
        <time>2023-04-27T09:22:14.820Z</time>
      </trkpt>
      <trkpt lat="51.41193" lon="7.2484">
        <ele>119.493368</ele>
        <time>2023-04-27T09:22:16.794Z</time>
      </trkpt>
      <trkpt lat="51.41196" lon="7.24855">
        <ele>119.474169</ele>
        <time>2023-04-27T09:22:18.800Z</time>
      </trkpt>
      <trkpt lat="51.41198" lon="7.24869">
        <ele>119.455094</ele>
        <time>2023-04-27T09:22:20.806Z</time>
      </trkpt>
      <trkpt lat="51.412" lon="7.24883">
        <ele>119.436373</ele>
        <time>2023-04-27T09:22:22.807Z</time>
      </trkpt>
      <trkpt lat="51.41202" lon="7.24897">
        <ele>119.4177</ele>
        <time>2023-04-27T09:22:24.813Z</time>
      </trkpt>
      <trkpt lat="51.41205" lon="7.24911">
        <ele>119.399008</ele>
        <time>2023-04-27T09:22:26.806Z</time>
      </trkpt>
      <trkpt lat="51.41208" lon="7.24925">
        <ele>119.380251</ele>
        <time>2023-04-27T09:22:28.807Z</time>
      </trkpt>
      <trkpt lat="51.41213" lon="7.24944">
        <ele>119.353488</ele>
        <time>2023-04-27T09:22:31.791Z</time>
      </trkpt>
      <trkpt lat="51.41218" lon="7.24962">
        <ele>119.327232</ele>
        <time>2023-04-27T09:22:34.814Z</time>
      </trkpt>
      <trkpt lat="51.41225" lon="7.2498">
        <ele>119.300455</ele>
        <time>2023-04-27T09:22:37.798Z</time>
      </trkpt>
      <trkpt lat="51.41234" lon="7.24996">
        <ele>119.275243</ele>
        <time>2023-04-27T09:22:40.805Z</time>
      </trkpt>
      <trkpt lat="51.41242" lon="7.25012">
        <ele>119.509434</ele>
        <time>2023-04-27T09:22:43.792Z</time>
      </trkpt>
      <trkpt lat="51.41249" lon="7.25029">
        <ele>119.747926</ele>
        <time>2023-04-27T09:22:46.826Z</time>
      </trkpt>
      <trkpt lat="51.41256" lon="7.25046">
        <ele>119.979503</ele>
        <time>2023-04-27T09:22:49.802Z</time>
      </trkpt>
      <trkpt lat="51.41266" lon="7.25058">
        <ele>120.20947</ele>
        <time>2023-04-27T09:22:52.801Z</time>
      </trkpt>
      <trkpt lat="51.41277" lon="7.25071">
        <ele>120.45178</ele>
        <time>2023-04-27T09:22:55.789Z</time>
      </trkpt>
      <trkpt lat="51.41287" lon="7.25082">
        <ele>120.679258</ele>
        <time>2023-04-27T09:22:58.819Z</time>
      </trkpt>
      <trkpt lat="51.41298" lon="7.25093">
        <ele>120.921254</ele>
        <time>2023-04-27T09:23:01.788Z</time>
      </trkpt>
      <trkpt lat="51.41311" lon="7.251">
        <ele>121.167272</ele>
        <time>2023-04-27T09:23:04.821Z</time>
      </trkpt>
      <trkpt lat="51.41324" lon="7.25105">
        <ele>121.41102</ele>
        <time>2023-04-27T09:23:07.794Z</time>
      </trkpt>
      <trkpt lat="51.41336" lon="7.25106">
        <ele>121.631961</ele>
        <time>2023-04-27T09:23:10.807Z</time>
      </trkpt>
      <trkpt lat="51.41347" lon="7.25108">
        <ele>121.84325</ele>
        <time>2023-04-27T09:23:14.815Z</time>
      </trkpt>
      <trkpt lat="51.41353" lon="7.2512">
        <ele>122.01996</ele>
        <time>2023-04-27T09:23:20.785Z</time>
      </trkpt>
      <trkpt lat="51.41354" lon="7.25136">
        <ele>122.198089</ele>
        <time>2023-04-27T09:23:24.800Z</time>
      </trkpt>
      <trkpt lat="51.41358" lon="7.25149">
        <ele>122.370681</ele>
        <time>2023-04-27T09:23:28.809Z</time>
      </trkpt>
      <trkpt lat="51.41364" lon="7.25161">
        <ele>122.545264</ele>
        <time>2023-04-27T09:23:32.802Z</time>
      </trkpt>
      <trkpt lat="51.41365" lon="7.2518">
        <ele>122.650564</ele>
        <time>2023-04-27T09:23:37.791Z</time>
      </trkpt>
      <trkpt lat="51.41361" lon="7.25194">
        <ele>122.725229</ele>
        <time>2023-04-27T09:23:41.788Z</time>
      </trkpt>
      <trkpt lat="51.41355" lon="7.25206">
        <ele>122.794549</ele>
        <time>2023-04-27T09:23:45.795Z</time>
      </trkpt>
      <trkpt lat="51.4135" lon="7.25218">
        <ele>122.866348</ele>
        <time>2023-04-27T09:23:49.805Z</time>
      </trkpt>
      <trkpt lat="51.41344" lon="7.25232">
        <ele>122.944442</ele>
        <time>2023-04-27T09:23:53.816Z</time>
      </trkpt>
      <trkpt lat="51.41339" lon="7.25245">
        <ele>123.017361</ele>
        <time>2023-04-27T09:23:57.797Z</time>
      </trkpt>
      <trkpt lat="51.41333" lon="7.25258">
        <ele>123.093323</ele>
        <time>2023-04-27T09:24:01.795Z</time>
      </trkpt>
      <trkpt lat="51.41326" lon="7.25272">
        <ele>123.178037</ele>
        <time>2023-04-27T09:24:05.791Z</time>
      </trkpt>
      <trkpt lat="51.4132" lon="7.25287">
        <ele>123.26435</ele>
        <time>2023-04-27T09:24:09.804Z</time>
      </trkpt>
      <trkpt lat="51.41314" lon="7.25298">
        <ele>123.334336</ele>
        <time>2023-04-27T09:24:12.855Z</time>
      </trkpt>
      <trkpt lat="51.41308" lon="7.2531">
        <ele>123.405618</ele>
        <time>2023-04-27T09:24:16.807Z</time>
      </trkpt>
      <trkpt lat="51.41302" lon="7.25325">
        <ele>123.48863</ele>
        <time>2023-04-27T09:24:20.787Z</time>
      </trkpt>
      <trkpt lat="51.41296" lon="7.25337">
        <ele>123.564214</ele>
        <time>2023-04-27T09:24:23.799Z</time>
      </trkpt>
      <trkpt lat="51.41292" lon="7.25351">
        <ele>123.637194</ele>
        <time>2023-04-27T09:24:26.785Z</time>
      </trkpt>
      <trkpt lat="51.41285" lon="7.25365">
        <ele>123.717112</ele>
        <time>2023-04-27T09:24:29.828Z</time>
      </trkpt>
      <trkpt lat="51.41278" lon="7.25379">
        <ele>123.807472</ele>
        <time>2023-04-27T09:24:32.803Z</time>
      </trkpt>
      <trkpt lat="51.41282" lon="7.25394">
        <ele>123.879467</ele>
        <time>2023-04-27T09:24:36.794Z</time>
      </trkpt>
      <trkpt lat="51.4129" lon="7.25387">
        <ele>123.940054</ele>
        <time>2023-04-27T09:24:40.803Z</time>
      </trkpt>
      <trkpt lat="51.41281" lon="7.25396">
        <ele>123.859884</ele>
        <time>2023-04-27T09:24:54.802Z</time>
      </trkpt>
      <trkpt lat="51.41274" lon="7.25409">
        <ele>123.774282</ele>
        <time>2023-04-27T09:24:57.799Z</time>
      </trkpt>
      <trkpt lat="51.41276" lon="7.25424">
        <ele>123.698581</ele>
        <time>2023-04-27T09:25:00.799Z</time>
      </trkpt>
      <trkpt lat="51.41285" lon="7.25434">
        <ele>123.608948</ele>
        <time>2023-04-27T09:25:04.800Z</time>
      </trkpt>
      <trkpt lat="51.41294" lon="7.25445">
        <ele>123.517804</ele>
        <time>2023-04-27T09:25:08.796Z</time>
      </trkpt>
      <trkpt lat="51.41302" lon="7.25453">
        <ele>123.444862</ele>
        <time>2023-04-27T09:25:11.791Z</time>
      </trkpt>
      <trkpt lat="51.4131" lon="7.2546">
        <ele>123.369444</ele>
        <time>2023-04-27T09:25:14.785Z</time>
      </trkpt>
      <trkpt lat="51.4132" lon="7.25465">
        <ele>123.287371</ele>
        <time>2023-04-27T09:25:17.784Z</time>
      </trkpt>
      <trkpt lat="51.41332" lon="7.25466">
        <ele>123.193828</ele>
        <time>2023-04-27T09:25:20.801Z</time>
      </trkpt>
      <trkpt lat="51.41344" lon="7.25468">
        <ele>123.098605</ele>
        <time>2023-04-27T09:25:23.805Z</time>
      </trkpt>
      <trkpt lat="51.41353" lon="7.25471">
        <ele>123.022289</ele>
        <time>2023-04-27T09:25:26.818Z</time>
      </trkpt>
      <trkpt lat="51.41357" lon="7.25457">
        <ele>122.944129</ele>
        <time>2023-04-27T09:25:40.799Z</time>
      </trkpt>
      <trkpt lat="51.4136" lon="7.25442">
        <ele>122.86519</ele>
        <time>2023-04-27T09:25:54.800Z</time>
      </trkpt>
      <trkpt lat="51.41361" lon="7.25441">
        <ele>122.855806</ele>
        <time>2023-04-27T09:26:10.132Z</time>
      </trkpt>
      <trkpt lat="51.41367" lon="7.25455">
        <ele>122.769668</ele>
        <time>2023-04-27T09:43:50.824Z</time>
      </trkpt>
      <trkpt lat="51.41375" lon="7.25465">
        <ele>122.688268</ele>
        <time>2023-04-27T09:43:57.806Z</time>
      </trkpt>
      <trkpt lat="51.41379" lon="7.2548">
        <ele>122.608622</ele>
        <time>2023-04-27T09:44:03.838Z</time>
      </trkpt>
      <trkpt lat="51.41388" lon="7.25487">
        <ele>122.530671</ele>
        <time>2023-04-27T09:44:07.811Z</time>
      </trkpt>
      <trkpt lat="51.41395" lon="7.25496">
        <ele>122.443156</ele>
        <time>2023-04-27T09:44:11.832Z</time>
      </trkpt>
      <trkpt lat="51.41402" lon="7.25508">
        <ele>122.337306</ele>
        <time>2023-04-27T09:44:16.818Z</time>
      </trkpt>
      <trkpt lat="51.41405" lon="7.25523">
        <ele>122.237575</ele>
        <time>2023-04-27T09:44:21.809Z</time>
      </trkpt>
      <trkpt lat="51.41412" lon="7.25535">
        <ele>122.128008</ele>
        <time>2023-04-27T09:44:25.788Z</time>
      </trkpt>
      <trkpt lat="51.41418" lon="7.2555">
        <ele>122.013256</ele>
        <time>2023-04-27T09:44:29.825Z</time>
      </trkpt>
      <trkpt lat="51.41422" lon="7.25563">
        <ele>121.917685</ele>
        <time>2023-04-27T09:44:32.818Z</time>
      </trkpt>
      <trkpt lat="51.41425" lon="7.25579">
        <ele>121.809719</ele>
        <time>2023-04-27T09:44:35.795Z</time>
      </trkpt>
      <trkpt lat="51.41429" lon="7.25598">
        <ele>121.685769</ele>
        <time>2023-04-27T09:44:38.816Z</time>
      </trkpt>
      <trkpt lat="51.41431" lon="7.25614">
        <ele>121.579488</ele>
        <time>2023-04-27T09:44:40.816Z</time>
      </trkpt>
      <trkpt lat="51.41432" lon="7.25632">
        <ele>121.463754</ele>
        <time>2023-04-27T09:44:42.815Z</time>
      </trkpt>
      <trkpt lat="51.41431" lon="7.25647">
        <ele>121.365465</ele>
        <time>2023-04-27T09:44:44.838Z</time>
      </trkpt>
      <trkpt lat="51.4143" lon="7.25664">
        <ele>121.253018</ele>
        <time>2023-04-27T09:44:47.829Z</time>
      </trkpt>
      <trkpt lat="51.41429" lon="7.25679">
        <ele>121.157865</ele>
        <time>2023-04-27T09:44:50.817Z</time>
      </trkpt>
      <trkpt lat="51.41435" lon="7.25692">
        <ele>121.057056</ele>
        <time>2023-04-27T09:44:53.805Z</time>
      </trkpt>
      <trkpt lat="51.41442" lon="7.25704">
        <ele>120.954287</ele>
        <time>2023-04-27T09:44:56.821Z</time>
      </trkpt>
      <trkpt lat="51.41448" lon="7.25717">
        <ele>120.844954</ele>
        <time>2023-04-27T09:44:59.813Z</time>
      </trkpt>
      <trkpt lat="51.41456" lon="7.25731">
        <ele>120.725328</ele>
        <time>2023-04-27T09:45:02.817Z</time>
      </trkpt>
      <trkpt lat="51.41465" lon="7.25747">
        <ele>120.642311</ele>
        <time>2023-04-27T09:45:05.787Z</time>
      </trkpt>
      <trkpt lat="51.4147" lon="7.2576">
        <ele>120.6172</ele>
        <time>2023-04-27T09:45:07.794Z</time>
      </trkpt>
      <trkpt lat="51.41477" lon="7.25774">
        <ele>120.590744</ele>
        <time>2023-04-27T09:45:09.810Z</time>
      </trkpt>
      <trkpt lat="51.41484" lon="7.25788">
        <ele>120.563324</ele>
        <time>2023-04-27T09:45:11.811Z</time>
      </trkpt>
      <trkpt lat="51.4149" lon="7.25802">
        <ele>120.535044</ele>
        <time>2023-04-27T09:45:13.816Z</time>
      </trkpt>
      <trkpt lat="51.41497" lon="7.25818">
        <ele>120.504757</ele>
        <time>2023-04-27T09:45:15.800Z</time>
      </trkpt>
      <trkpt lat="51.41503" lon="7.25835">
        <ele>120.474764</ele>
        <time>2023-04-27T09:45:17.827Z</time>
      </trkpt>
      <trkpt lat="51.41508" lon="7.25852">
        <ele>120.445305</ele>
        <time>2023-04-27T09:45:19.815Z</time>
      </trkpt>
      <trkpt lat="51.4151" lon="7.25871">
        <ele>120.414691</ele>
        <time>2023-04-27T09:45:21.823Z</time>
      </trkpt>
      <trkpt lat="51.41512" lon="7.25888">
        <ele>120.38672</ele>
        <time>2023-04-27T09:45:23.825Z</time>
      </trkpt>
      <trkpt lat="51.41512" lon="7.25905">
        <ele>120.360269</ele>
        <time>2023-04-27T09:45:25.788Z</time>
      </trkpt>
      <trkpt lat="51.41511" lon="7.25921">
        <ele>120.335353</ele>
        <time>2023-04-27T09:45:27.820Z</time>
      </trkpt>
      <trkpt lat="51.41509" lon="7.25935">
        <ele>120.312761</ele>
        <time>2023-04-27T09:45:29.824Z</time>
      </trkpt>
      <trkpt lat="51.41506" lon="7.25954">
        <ele>120.282355</ele>
        <time>2023-04-27T09:45:32.814Z</time>
      </trkpt>
      <trkpt lat="51.41505" lon="7.25969">
        <ele>120.257941</ele>
        <time>2023-04-27T09:45:35.811Z</time>
      </trkpt>
      <trkpt lat="51.41507" lon="7.25985">
        <ele>120.232408</ele>
        <time>2023-04-27T09:45:38.814Z</time>
      </trkpt>
      <trkpt lat="51.41514" lon="7.25999">
        <ele>120.223471</ele>
        <time>2023-04-27T09:45:41.830Z</time>
      </trkpt>
      <trkpt lat="51.41521" lon="7.26015">
        <ele>120.403266</ele>
        <time>2023-04-27T09:45:44.829Z</time>
      </trkpt>
      <trkpt lat="51.41528" lon="7.26033">
        <ele>120.590701</ele>
        <time>2023-04-27T09:45:47.807Z</time>
      </trkpt>
      <trkpt lat="51.41535" lon="7.26049">
        <ele>120.77548</ele>
        <time>2023-04-27T09:45:50.815Z</time>
      </trkpt>
      <trkpt lat="51.41542" lon="7.26065">
        <ele>120.9577</ele>
        <time>2023-04-27T09:45:53.819Z</time>
      </trkpt>
      <trkpt lat="51.4155" lon="7.26082">
        <ele>121.142264</ele>
        <time>2023-04-27T09:45:56.810Z</time>
      </trkpt>
      <trkpt lat="51.41556" lon="7.26093">
        <ele>121.278035</ele>
        <time>2023-04-27T09:45:58.812Z</time>
      </trkpt>
      <trkpt lat="51.41564" lon="7.2611">
        <ele>121.46958</ele>
        <time>2023-04-27T09:46:01.808Z</time>
      </trkpt>
      <trkpt lat="51.4157" lon="7.26121">
        <ele>121.609595</ele>
        <time>2023-04-27T09:46:03.810Z</time>
      </trkpt>
      <trkpt lat="51.41577" lon="7.26133">
        <ele>121.755565</ele>
        <time>2023-04-27T09:46:05.802Z</time>
      </trkpt>
      <trkpt lat="51.41584" lon="7.26144">
        <ele>121.900504</ele>
        <time>2023-04-27T09:46:07.809Z</time>
      </trkpt>
      <trkpt lat="51.41591" lon="7.26153">
        <ele>122.035272</ele>
        <time>2023-04-27T09:46:09.828Z</time>
      </trkpt>
      <trkpt lat="51.41601" lon="7.26166">
        <ele>122.230362</ele>
        <time>2023-04-27T09:46:12.808Z</time>
      </trkpt>
      <trkpt lat="51.41612" lon="7.26176">
        <ele>122.419288</ele>
        <time>2023-04-27T09:46:15.803Z</time>
      </trkpt>
      <trkpt lat="51.41624" lon="7.26186">
        <ele>122.612428</ele>
        <time>2023-04-27T09:46:18.811Z</time>
      </trkpt>
      <trkpt lat="51.41635" lon="7.26195">
        <ele>122.793445</ele>
        <time>2023-04-27T09:46:21.812Z</time>
      </trkpt>
      <trkpt lat="51.41645" lon="7.26205">
        <ele>122.987434</ele>
        <time>2023-04-27T09:46:24.816Z</time>
      </trkpt>
      <trkpt lat="51.41655" lon="7.26216">
        <ele>123.183632</ele>
        <time>2023-04-27T09:46:27.815Z</time>
      </trkpt>
      <trkpt lat="51.41665" lon="7.26228">
        <ele>123.3971</ele>
        <time>2023-04-27T09:46:30.811Z</time>
      </trkpt>
      <trkpt lat="51.41674" lon="7.26243">
        <ele>123.611651</ele>
        <time>2023-04-27T09:46:33.805Z</time>
      </trkpt>
      <trkpt lat="51.41683" lon="7.26258">
        <ele>123.826418</ele>
        <time>2023-04-27T09:46:36.820Z</time>
      </trkpt>
      <trkpt lat="51.41693" lon="7.26271">
        <ele>124.050326</ele>
        <time>2023-04-27T09:46:39.843Z</time>
      </trkpt>
      <trkpt lat="51.41702" lon="7.26284">
        <ele>124.2568</ele>
        <time>2023-04-27T09:46:42.808Z</time>
      </trkpt>
      <trkpt lat="51.41713" lon="7.26295">
        <ele>124.465874</ele>
        <time>2023-04-27T09:46:45.791Z</time>
      </trkpt>
      <trkpt lat="51.41722" lon="7.26305">
        <ele>124.649803</ele>
        <time>2023-04-27T09:46:48.825Z</time>
      </trkpt>
      <trkpt lat="51.41732" lon="7.26312">
        <ele>124.831582</ele>
        <time>2023-04-27T09:46:51.818Z</time>
      </trkpt>
      <trkpt lat="51.41742" lon="7.26319">
        <ele>125.017359</ele>
        <time>2023-04-27T09:46:54.821Z</time>
      </trkpt>
      <trkpt lat="51.41753" lon="7.26325">
        <ele>125.213729</ele>
        <time>2023-04-27T09:46:57.808Z</time>
      </trkpt>
      <trkpt lat="51.41763" lon="7.26335">
        <ele>125.402491</ele>
        <time>2023-04-27T09:47:00.810Z</time>
      </trkpt>
      <trkpt lat="51.41772" lon="7.26343">
        <ele>125.581101</ele>
        <time>2023-04-27T09:47:03.810Z</time>
      </trkpt>
      <trkpt lat="51.41781" lon="7.26351">
        <ele>125.759687</ele>
        <time>2023-04-27T09:47:06.809Z</time>
      </trkpt>
      <trkpt lat="51.41792" lon="7.26358">
        <ele>125.893804</ele>
        <time>2023-04-27T09:47:09.817Z</time>
      </trkpt>
      <trkpt lat="51.418" lon="7.26368">
        <ele>125.955926</ele>
        <time>2023-04-27T09:47:12.812Z</time>
      </trkpt>
      <trkpt lat="51.41808" lon="7.2638">
        <ele>126.017824</ele>
        <time>2023-04-27T09:47:15.796Z</time>
      </trkpt>
      <trkpt lat="51.41817" lon="7.26391">
        <ele>126.081968</ele>
        <time>2023-04-27T09:47:18.829Z</time>
      </trkpt>
      <trkpt lat="51.41827" lon="7.26403">
        <ele>126.148986</ele>
        <time>2023-04-27T09:47:21.810Z</time>
      </trkpt>
      <trkpt lat="51.41836" lon="7.26414">
        <ele>126.212652</ele>
        <time>2023-04-27T09:47:24.822Z</time>
      </trkpt>
      <trkpt lat="51.41845" lon="7.26421">
        <ele>126.273513</ele>
        <time>2023-04-27T09:47:27.811Z</time>
      </trkpt>
      <trkpt lat="51.41855" lon="7.26426">
        <ele>126.329851</ele>
        <time>2023-04-27T09:47:30.807Z</time>
      </trkpt>
      <trkpt lat="51.41864" lon="7.26429">
        <ele>126.38278</ele>
        <time>2023-04-27T09:47:33.827Z</time>
      </trkpt>
      <trkpt lat="51.41874" lon="7.26434">
        <ele>126.443008</ele>
        <time>2023-04-27T09:47:37.806Z</time>
      </trkpt>
      <trkpt lat="51.41884" lon="7.26441">
        <ele>126.50586</ele>
        <time>2023-04-27T09:47:41.808Z</time>
      </trkpt>
      <trkpt lat="51.41893" lon="7.26449">
        <ele>126.563656</ele>
        <time>2023-04-27T09:47:44.826Z</time>
      </trkpt>
      <trkpt lat="51.419" lon="7.26459">
        <ele>126.617597</ele>
        <time>2023-04-27T09:47:46.813Z</time>
      </trkpt>
      <trkpt lat="51.41908" lon="7.26469">
        <ele>126.674435</ele>
        <time>2023-04-27T09:47:48.815Z</time>
      </trkpt>
      <trkpt lat="51.41915" lon="7.26479">
        <ele>126.728403</ele>
        <time>2023-04-27T09:47:50.810Z</time>
      </trkpt>
      <trkpt lat="51.41925" lon="7.26493">
        <ele>126.800372</ele>
        <time>2023-04-27T09:47:53.809Z</time>
      </trkpt>
      <trkpt lat="51.41934" lon="7.26505">
        <ele>126.869552</ele>
        <time>2023-04-27T09:47:56.828Z</time>
      </trkpt>
      <trkpt lat="51.41944" lon="7.26517">
        <ele>126.886018</ele>
        <time>2023-04-27T09:47:59.820Z</time>
      </trkpt>
      <trkpt lat="51.41955" lon="7.26528">
        <ele>126.883543</ele>
        <time>2023-04-27T09:48:02.817Z</time>
      </trkpt>
      <trkpt lat="51.41965" lon="7.26539">
        <ele>126.881195</ele>
        <time>2023-04-27T09:48:05.801Z</time>
      </trkpt>
      <trkpt lat="51.41977" lon="7.26547">
        <ele>126.878759</ele>
        <time>2023-04-27T09:48:08.820Z</time>
      </trkpt>
      <trkpt lat="51.41989" lon="7.26552">
        <ele>126.876285</ele>
        <time>2023-04-27T09:48:11.825Z</time>
      </trkpt>
      <trkpt lat="51.42002" lon="7.26558">
        <ele>126.873715</ele>
        <time>2023-04-27T09:48:14.812Z</time>
      </trkpt>
      <trkpt lat="51.42014" lon="7.26567">
        <ele>126.871274</ele>
        <time>2023-04-27T09:48:17.811Z</time>
      </trkpt>
      <trkpt lat="51.42022" lon="7.26581">
        <ele>126.868835</ele>
        <time>2023-04-27T09:48:20.796Z</time>
      </trkpt>
      <trkpt lat="51.42029" lon="7.26601">
        <ele>126.866243</ele>
        <time>2023-04-27T09:48:23.810Z</time>
      </trkpt>
      <trkpt lat="51.42032" lon="7.26622">
        <ele>126.863657</ele>
        <time>2023-04-27T09:48:26.814Z</time>
      </trkpt>
      <trkpt lat="51.42035" lon="7.26636">
        <ele>126.861898</ele>
        <time>2023-04-27T09:48:28.839Z</time>
      </trkpt>
      <trkpt lat="51.42039" lon="7.26648">
        <ele>126.860168</ele>
        <time>2023-04-27T09:48:30.811Z</time>
      </trkpt>
      <trkpt lat="51.42045" lon="7.2666">
        <ele>126.858352</ele>
        <time>2023-04-27T09:48:32.832Z</time>
      </trkpt>
      <trkpt lat="51.42053" lon="7.26672">
        <ele>126.856262</ele>
        <time>2023-04-27T09:48:34.811Z</time>
      </trkpt>
      <trkpt lat="51.42061" lon="7.26683">
        <ele>126.854338</ele>
        <time>2023-04-27T09:48:36.825Z</time>
      </trkpt>
      <trkpt lat="51.42069" lon="7.26692">
        <ele>126.822861</ele>
        <time>2023-04-27T09:48:38.821Z</time>
      </trkpt>
      <trkpt lat="51.42077" lon="7.267">
        <ele>126.758026</ele>
        <time>2023-04-27T09:48:40.822Z</time>
      </trkpt>
      <trkpt lat="51.42088" lon="7.2671">
        <ele>126.66557</ele>
        <time>2023-04-27T09:48:43.810Z</time>
      </trkpt>
      <trkpt lat="51.42096" lon="7.26718">
        <ele>126.602953</ele>
        <time>2023-04-27T09:48:45.816Z</time>
      </trkpt>
      <trkpt lat="51.42103" lon="7.26728">
        <ele>126.540257</ele>
        <time>2023-04-27T09:48:47.829Z</time>
      </trkpt>
      <trkpt lat="51.42109" lon="7.26738">
        <ele>126.475684</ele>
        <time>2023-04-27T09:48:49.812Z</time>
      </trkpt>
      <trkpt lat="51.42115" lon="7.26751">
        <ele>126.40957</ele>
        <time>2023-04-27T09:48:51.817Z</time>
      </trkpt>
      <trkpt lat="51.42121" lon="7.26764">
        <ele>126.340656</ele>
        <time>2023-04-27T09:48:53.820Z</time>
      </trkpt>
      <trkpt lat="51.42127" lon="7.26777">
        <ele>126.267052</ele>
        <time>2023-04-27T09:48:55.799Z</time>
      </trkpt>
      <trkpt lat="51.42136" lon="7.26789">
        <ele>126.189149</ele>
        <time>2023-04-27T09:48:57.810Z</time>
      </trkpt>
      <trkpt lat="51.42143" lon="7.268">
        <ele>126.117589</ele>
        <time>2023-04-27T09:48:59.829Z</time>
      </trkpt>
      <trkpt lat="51.42151" lon="7.26813">
        <ele>126.041639</ele>
        <time>2023-04-27T09:49:01.804Z</time>
      </trkpt>
      <trkpt lat="51.42159" lon="7.26824">
        <ele>125.967679</ele>
        <time>2023-04-27T09:49:03.817Z</time>
      </trkpt>
      <trkpt lat="51.42167" lon="7.26835">
        <ele>125.897072</ele>
        <time>2023-04-27T09:49:05.804Z</time>
      </trkpt>
      <trkpt lat="51.42174" lon="7.26847">
        <ele>125.824915</ele>
        <time>2023-04-27T09:49:07.818Z</time>
      </trkpt>
      <trkpt lat="51.42183" lon="7.26858">
        <ele>125.748178</ele>
        <time>2023-04-27T09:49:09.829Z</time>
      </trkpt>
      <trkpt lat="51.42191" lon="7.26869">
        <ele>125.670562</ele>
        <time>2023-04-27T09:49:11.812Z</time>
      </trkpt>
      <trkpt lat="51.422" lon="7.26881">
        <ele>125.630394</ele>
        <time>2023-04-27T09:49:13.810Z</time>
      </trkpt>
      <trkpt lat="51.42208" lon="7.26892">
        <ele>125.729243</ele>
        <time>2023-04-27T09:49:15.801Z</time>
      </trkpt>
      <trkpt lat="51.42216" lon="7.26903">
        <ele>125.825925</ele>
        <time>2023-04-27T09:49:17.818Z</time>
      </trkpt>
      <trkpt lat="51.42225" lon="7.26914">
        <ele>125.927296</ele>
        <time>2023-04-27T09:49:19.811Z</time>
      </trkpt>
      <trkpt lat="51.42232" lon="7.26925">
        <ele>126.022016</ele>
        <time>2023-04-27T09:49:21.821Z</time>
      </trkpt>
      <trkpt lat="51.4224" lon="7.26935">
        <ele>126.114037</ele>
        <time>2023-04-27T09:49:23.810Z</time>
      </trkpt>
      <trkpt lat="51.42248" lon="7.26946">
        <ele>126.207813</ele>
        <time>2023-04-27T09:49:25.797Z</time>
      </trkpt>
      <trkpt lat="51.42255" lon="7.26956">
        <ele>126.295513</ele>
        <time>2023-04-27T09:49:27.811Z</time>
      </trkpt>
      <trkpt lat="51.42263" lon="7.26966">
        <ele>126.390368</ele>
        <time>2023-04-27T09:49:29.813Z</time>
      </trkpt>
      <trkpt lat="51.42271" lon="7.26974">
        <ele>126.479433</ele>
        <time>2023-04-27T09:49:31.834Z</time>
      </trkpt>
      <trkpt lat="51.42279" lon="7.26982">
        <ele>126.56712</ele>
        <time>2023-04-27T09:49:33.830Z</time>
      </trkpt>
      <trkpt lat="51.4229" lon="7.26991">
        <ele>126.683455</ele>
        <time>2023-04-27T09:49:36.828Z</time>
      </trkpt>
      <trkpt lat="51.423" lon="7.27">
        <ele>126.791327</ele>
        <time>2023-04-27T09:49:39.811Z</time>
      </trkpt>
      <trkpt lat="51.42309" lon="7.27015">
        <ele>126.911451</ele>
        <time>2023-04-27T09:49:42.824Z</time>
      </trkpt>
      <trkpt lat="51.42317" lon="7.27031">
        <ele>127.029151</ele>
        <time>2023-04-27T09:49:45.801Z</time>
      </trkpt>
      <trkpt lat="51.42324" lon="7.27044">
        <ele>127.131664</ele>
        <time>2023-04-27T09:49:48.832Z</time>
      </trkpt>
      <trkpt lat="51.42332" lon="7.27056">
        <ele>127.23198</ele>
        <time>2023-04-27T09:49:51.807Z</time>
      </trkpt>
      <trkpt lat="51.42339" lon="7.27067">
        <ele>127.375371</ele>
        <time>2023-04-27T09:49:54.814Z</time>
      </trkpt>
      <trkpt lat="51.42346" lon="7.27078">
        <ele>127.57064</ele>
        <time>2023-04-27T09:49:57.811Z</time>
      </trkpt>
      <trkpt lat="51.42354" lon="7.27089">
        <ele>127.778513</ele>
        <time>2023-04-27T09:50:00.808Z</time>
      </trkpt>
      <trkpt lat="51.42363" lon="7.27099">
        <ele>127.992962</ele>
        <time>2023-04-27T09:50:03.807Z</time>
      </trkpt>
      <trkpt lat="51.4237" lon="7.27112">
        <ele>128.210533</ele>
        <time>2023-04-27T09:50:06.828Z</time>
      </trkpt>
      <trkpt lat="51.42378" lon="7.27124">
        <ele>128.436022</ele>
        <time>2023-04-27T09:50:09.806Z</time>
      </trkpt>
      <trkpt lat="51.42387" lon="7.27135">
        <ele>128.664483</ele>
        <time>2023-04-27T09:50:12.833Z</time>
      </trkpt>
      <trkpt lat="51.42397" lon="7.27146">
        <ele>128.910401</ele>
        <time>2023-04-27T09:50:15.797Z</time>
      </trkpt>
      <trkpt lat="51.42407" lon="7.27156">
        <ele>129.14733</ele>
        <time>2023-04-27T09:50:18.808Z</time>
      </trkpt>
      <trkpt lat="51.42417" lon="7.27167">
        <ele>129.391362</ele>
        <time>2023-04-27T09:50:21.807Z</time>
      </trkpt>
      <trkpt lat="51.42429" lon="7.27174">
        <ele>129.64096</ele>
        <time>2023-04-27T09:50:24.811Z</time>
      </trkpt>
      <trkpt lat="51.4244" lon="7.2718">
        <ele>129.882564</ele>
        <time>2023-04-27T09:50:27.808Z</time>
      </trkpt>
      <trkpt lat="51.4245" lon="7.27185">
        <ele>130.092765</ele>
        <time>2023-04-27T09:50:30.815Z</time>
      </trkpt>
      <trkpt lat="51.4246" lon="7.2719">
        <ele>130.306814</ele>
        <time>2023-04-27T09:50:33.808Z</time>
      </trkpt>
      <trkpt lat="51.4247" lon="7.27196">
        <ele>130.505573</ele>
        <time>2023-04-27T09:50:36.806Z</time>
      </trkpt>
      <trkpt lat="51.42478" lon="7.27203">
        <ele>130.701179</ele>
        <time>2023-04-27T09:50:39.809Z</time>
      </trkpt>
      <trkpt lat="51.42487" lon="7.27212">
        <ele>130.899485</ele>
        <time>2023-04-27T09:50:42.816Z</time>
      </trkpt>
      <trkpt lat="51.42493" lon="7.27226">
        <ele>131.006316</ele>
        <time>2023-04-27T09:50:45.793Z</time>
      </trkpt>
      <trkpt lat="51.42498" lon="7.27242">
        <ele>131.11602</ele>
        <time>2023-04-27T09:50:48.816Z</time>
      </trkpt>
      <trkpt lat="51.42502" lon="7.2726">
        <ele>131.235636</ele>
        <time>2023-04-27T09:50:51.811Z</time>
      </trkpt>
      <trkpt lat="51.42506" lon="7.27277">
        <ele>131.35117</ele>
        <time>2023-04-27T09:50:54.830Z</time>
      </trkpt>
      <trkpt lat="51.42509" lon="7.27296">
        <ele>131.472777</ele>
        <time>2023-04-27T09:50:57.808Z</time>
      </trkpt>
      <trkpt lat="51.42512" lon="7.27314">
        <ele>131.588541</ele>
        <time>2023-04-27T09:51:00.819Z</time>
      </trkpt>
      <trkpt lat="51.42516" lon="7.27328">
        <ele>131.68575</ele>
        <time>2023-04-27T09:51:02.812Z</time>
      </trkpt>
      <trkpt lat="51.42522" lon="7.27341">
        <ele>131.779929</ele>
        <time>2023-04-27T09:51:04.816Z</time>
      </trkpt>
      <trkpt lat="51.42529" lon="7.2735">
        <ele>131.872921</ele>
        <time>2023-04-27T09:51:06.811Z</time>
      </trkpt>
      <trkpt lat="51.42536" lon="7.2736">
        <ele>131.962498</ele>
        <time>2023-04-27T09:51:08.842Z</time>
      </trkpt>
      <trkpt lat="51.42545" lon="7.27372">
        <ele>132.082714</ele>
        <time>2023-04-27T09:51:11.808Z</time>
      </trkpt>
      <trkpt lat="51.42553" lon="7.27379">
        <ele>132.174791</ele>
        <time>2023-04-27T09:51:13.810Z</time>
      </trkpt>
      <trkpt lat="51.42566" lon="7.27388">
        <ele>132.310159</ele>
        <time>2023-04-27T09:51:16.822Z</time>
      </trkpt>
      <trkpt lat="51.42575" lon="7.27394">
        <ele>132.407575</ele>
        <time>2023-04-27T09:51:18.808Z</time>
      </trkpt>
      <trkpt lat="51.42583" lon="7.274">
        <ele>132.504433</ele>
        <time>2023-04-27T09:51:20.814Z</time>
      </trkpt>
      <trkpt lat="51.42591" lon="7.27409">
        <ele>132.598107</ele>
        <time>2023-04-27T09:51:22.825Z</time>
      </trkpt>
      <trkpt lat="51.42599" lon="7.27417">
        <ele>132.680764</ele>
        <time>2023-04-27T09:51:24.827Z</time>
      </trkpt>
      <trkpt lat="51.42607" lon="7.27425">
        <ele>132.584563</ele>
        <time>2023-04-27T09:51:26.810Z</time>
      </trkpt>
      <trkpt lat="51.42617" lon="7.27437">
        <ele>132.450859</ele>
        <time>2023-04-27T09:51:29.794Z</time>
      </trkpt>
      <trkpt lat="51.42626" lon="7.27451">
        <ele>132.317369</ele>
        <time>2023-04-27T09:51:32.819Z</time>
      </trkpt>
      <trkpt lat="51.42632" lon="7.27463">
        <ele>132.219519</ele>
        <time>2023-04-27T09:51:34.813Z</time>
      </trkpt>
      <trkpt lat="51.42639" lon="7.27481">
        <ele>132.081086</ele>
        <time>2023-04-27T09:51:37.805Z</time>
      </trkpt>
      <trkpt lat="51.42645" lon="7.27492">
        <ele>131.985471</ele>
        <time>2023-04-27T09:51:39.816Z</time>
      </trkpt>
      <trkpt lat="51.42652" lon="7.27511">
        <ele>131.843599</ele>
        <time>2023-04-27T09:51:42.806Z</time>
      </trkpt>
      <trkpt lat="51.42657" lon="7.27531">
        <ele>131.703653</ele>
        <time>2023-04-27T09:51:45.806Z</time>
      </trkpt>
      <trkpt lat="51.42664" lon="7.27549">
        <ele>131.563552</ele>
        <time>2023-04-27T09:51:48.832Z</time>
      </trkpt>
      <trkpt lat="51.42673" lon="7.27565">
        <ele>131.424216</ele>
        <time>2023-04-27T09:51:51.811Z</time>
      </trkpt>
      <trkpt lat="51.4268" lon="7.27576">
        <ele>131.318939</ele>
        <time>2023-04-27T09:51:53.806Z</time>
      </trkpt>
      <trkpt lat="51.42688" lon="7.27587">
        <ele>131.214999</ele>
        <time>2023-04-27T09:51:55.803Z</time>
      </trkpt>
      <trkpt lat="51.42696" lon="7.27597">
        <ele>131.105565</ele>
        <time>2023-04-27T09:51:57.808Z</time>
      </trkpt>
      <trkpt lat="51.42703" lon="7.27608">
        <ele>130.999971</ele>
        <time>2023-04-27T09:51:59.820Z</time>
      </trkpt>
      <trkpt lat="51.42711" lon="7.27619">
        <ele>130.891269</ele>
        <time>2023-04-27T09:52:01.828Z</time>
      </trkpt>
      <trkpt lat="51.42719" lon="7.27628">
        <ele>130.791965</ele>
        <time>2023-04-27T09:52:03.815Z</time>
      </trkpt>
      <trkpt lat="51.42726" lon="7.27636">
        <ele>130.689978</ele>
        <time>2023-04-27T09:52:05.805Z</time>
      </trkpt>
      <trkpt lat="51.42733" lon="7.27645">
        <ele>130.586822</ele>
        <time>2023-04-27T09:52:07.831Z</time>
      </trkpt>
      <trkpt lat="51.42741" lon="7.27653">
        <ele>130.486198</ele>
        <time>2023-04-27T09:52:09.815Z</time>
      </trkpt>
      <trkpt lat="51.42751" lon="7.27661">
        <ele>130.35888</ele>
        <time>2023-04-27T09:52:12.825Z</time>
      </trkpt>
      <trkpt lat="51.42761" lon="7.27668">
        <ele>130.236691</ele>
        <time>2023-04-27T09:52:15.797Z</time>
      </trkpt>
      <trkpt lat="51.42773" lon="7.27674">
        <ele>130.094427</ele>
        <time>2023-04-27T09:52:18.808Z</time>
      </trkpt>
      <trkpt lat="51.42782" lon="7.27678">
        <ele>129.98701</ele>
        <time>2023-04-27T09:52:20.821Z</time>
      </trkpt>
      <trkpt lat="51.42791" lon="7.27683">
        <ele>129.879024</ele>
        <time>2023-04-27T09:52:22.816Z</time>
      </trkpt>
      <trkpt lat="51.42801" lon="7.27689">
        <ele>129.767298</ele>
        <time>2023-04-27T09:52:24.843Z</time>
      </trkpt>
      <trkpt lat="51.4281" lon="7.27696">
        <ele>129.650112</ele>
        <time>2023-04-27T09:52:26.858Z</time>
      </trkpt>
      <trkpt lat="51.4282" lon="7.27706">
        <ele>129.519445</ele>
        <time>2023-04-27T09:52:28.820Z</time>
      </trkpt>
      <trkpt lat="51.4283" lon="7.27719">
        <ele>129.375509</ele>
        <time>2023-04-27T09:52:30.810Z</time>
      </trkpt>
      <trkpt lat="51.4284" lon="7.27732">
        <ele>129.232341</ele>
        <time>2023-04-27T09:52:32.818Z</time>
      </trkpt>
      <trkpt lat="51.42847" lon="7.27746">
        <ele>129.10297</ele>
        <time>2023-04-27T09:52:34.808Z</time>
      </trkpt>
      <trkpt lat="51.42854" lon="7.27757">
        <ele>128.992061</ele>
        <time>2023-04-27T09:52:36.816Z</time>
      </trkpt>
      <trkpt lat="51.4286" lon="7.2777">
        <ele>128.881734</ele>
        <time>2023-04-27T09:52:38.817Z</time>
      </trkpt>
      <trkpt lat="51.42861" lon="7.27793">
        <ele>128.605672</ele>
        <time>2023-04-27T09:52:41.812Z</time>
      </trkpt>
      <trkpt lat="51.4286" lon="7.2781">
        <ele>128.242906</ele>
        <time>2023-04-27T09:52:43.792Z</time>
      </trkpt>
      <trkpt lat="51.42856" lon="7.27827">
        <ele>127.882043</ele>
        <time>2023-04-27T09:52:46.811Z</time>
      </trkpt>
      <trkpt lat="51.42858" lon="7.27846">
        <ele>127.478152</ele>
        <time>2023-04-27T09:52:49.810Z</time>
      </trkpt>
      <trkpt lat="51.42867" lon="7.27861">
        <ele>127.061604</ele>
        <time>2023-04-27T09:52:52.806Z</time>
      </trkpt>
      <trkpt lat="51.42875" lon="7.27874">
        <ele>126.671389</ele>
        <time>2023-04-27T09:52:55.824Z</time>
      </trkpt>
      <trkpt lat="51.42877" lon="7.27898">
        <ele>126.186282</ele>
        <time>2023-04-27T09:52:58.803Z</time>
      </trkpt>
      <trkpt lat="51.42874" lon="7.27917">
        <ele>125.775671</ele>
        <time>2023-04-27T09:53:00.809Z</time>
      </trkpt>
      <trkpt lat="51.42867" lon="7.27931">
        <ele>125.399763</ele>
        <time>2023-04-27T09:53:02.809Z</time>
      </trkpt>
      <trkpt lat="51.42863" lon="7.2795">
        <ele>124.993297</ele>
        <time>2023-04-27T09:53:05.782Z</time>
      </trkpt>
      <trkpt lat="51.42864" lon="7.27968">
        <ele>124.617113</ele>
        <time>2023-04-27T09:53:09.812Z</time>
      </trkpt>
      <trkpt lat="51.42864" lon="7.27983">
        <ele>124.295355</ele>
        <time>2023-04-27T09:53:13.801Z</time>
      </trkpt>
      <trkpt lat="51.42861" lon="7.27999">
        <ele>123.952709</ele>
        <time>2023-04-27T09:53:17.801Z</time>
      </trkpt>
      <trkpt lat="51.42858" lon="7.28013">
        <ele>123.649028</ele>
        <time>2023-04-27T09:53:20.822Z</time>
      </trkpt>
      <trkpt lat="51.42854" lon="7.28028">
        <ele>123.315082</ele>
        <time>2023-04-27T09:53:23.829Z</time>
      </trkpt>
      <trkpt lat="51.42849" lon="7.28042">
        <ele>122.977194</ele>
        <time>2023-04-27T09:53:27.810Z</time>
      </trkpt>
      <trkpt lat="51.42846" lon="7.28056">
        <ele>122.837026</ele>
        <time>2023-04-27T09:53:36.817Z</time>
      </trkpt>
      <trkpt lat="51.42846" lon="7.28056">
        <ele>122.837118</ele>
        <time>2023-04-27T09:53:43.502Z</time>
      </trkpt>
      <trkpt lat="51.42835" lon="7.2806">
        <ele>122.853429</ele>
        <time>2023-04-27T09:55:03.804Z</time>
      </trkpt>
      <trkpt lat="51.42825" lon="7.28068">
        <ele>122.870565</ele>
        <time>2023-04-27T09:55:06.834Z</time>
      </trkpt>
      <trkpt lat="51.42816" lon="7.28072">
        <ele>122.884625</ele>
        <time>2023-04-27T09:55:08.807Z</time>
      </trkpt>
      <trkpt lat="51.42807" lon="7.28077">
        <ele>122.898995</ele>
        <time>2023-04-27T09:55:10.816Z</time>
      </trkpt>
      <trkpt lat="51.42796" lon="7.28084">
        <ele>122.915943</ele>
        <time>2023-04-27T09:55:12.825Z</time>
      </trkpt>
      <trkpt lat="51.42785" lon="7.28091">
        <ele>122.933863</ele>
        <time>2023-04-27T09:55:14.830Z</time>
      </trkpt>
      <trkpt lat="51.42773" lon="7.28096">
        <ele>122.951662</ele>
        <time>2023-04-27T09:55:16.813Z</time>
      </trkpt>
      <trkpt lat="51.42762" lon="7.28102">
        <ele>122.969198</ele>
        <time>2023-04-27T09:55:18.817Z</time>
      </trkpt>
      <trkpt lat="51.42751" lon="7.28108">
        <ele>122.986112</ele>
        <time>2023-04-27T09:55:20.817Z</time>
      </trkpt>
      <trkpt lat="51.42741" lon="7.28114">
        <ele>123.002273</ele>
        <time>2023-04-27T09:55:22.797Z</time>
      </trkpt>
      <trkpt lat="51.42731" lon="7.28121">
        <ele>123.018095</ele>
        <time>2023-04-27T09:55:24.808Z</time>
      </trkpt>
      <trkpt lat="51.42722" lon="7.28127">
        <ele>123.0327</ele>
        <time>2023-04-27T09:55:26.831Z</time>
      </trkpt>
      <trkpt lat="51.42714" lon="7.28131">
        <ele>123.046088</ele>
        <time>2023-04-27T09:55:28.814Z</time>
      </trkpt>
      <trkpt lat="51.42702" lon="7.28136">
        <ele>123.063879</ele>
        <time>2023-04-27T09:55:31.785Z</time>
      </trkpt>
      <trkpt lat="51.42693" lon="7.28141">
        <ele>123.078017</ele>
        <time>2023-04-27T09:55:34.815Z</time>
      </trkpt>
      <trkpt lat="51.42682" lon="7.28148">
        <ele>123.095242</ele>
        <time>2023-04-27T09:55:38.786Z</time>
      </trkpt>
      <trkpt lat="51.42671" lon="7.28153">
        <ele>123.258515</ele>
        <time>2023-04-27T09:55:42.820Z</time>
      </trkpt>
      <trkpt lat="51.42662" lon="7.28159">
        <ele>123.407533</ele>
        <time>2023-04-27T09:55:45.797Z</time>
      </trkpt>
      <trkpt lat="51.42652" lon="7.28164">
        <ele>123.568846</ele>
        <time>2023-04-27T09:55:48.818Z</time>
      </trkpt>
      <trkpt lat="51.42641" lon="7.2817">
        <ele>123.740187</ele>
        <time>2023-04-27T09:55:51.808Z</time>
      </trkpt>
      <trkpt lat="51.42632" lon="7.28174">
        <ele>123.890208</ele>
        <time>2023-04-27T09:55:54.812Z</time>
      </trkpt>
      <trkpt lat="51.42622" lon="7.28176">
        <ele>124.043443</ele>
        <time>2023-04-27T09:55:57.814Z</time>
      </trkpt>
      <trkpt lat="51.42612" lon="7.28177">
        <ele>124.190126</ele>
        <time>2023-04-27T09:56:00.812Z</time>
      </trkpt>
      <trkpt lat="51.42603" lon="7.28177">
        <ele>124.330282</ele>
        <time>2023-04-27T09:56:03.831Z</time>
      </trkpt>
      <trkpt lat="51.42593" lon="7.28175">
        <ele>124.483616</ele>
        <time>2023-04-27T09:56:07.812Z</time>
      </trkpt>
      <trkpt lat="51.42583" lon="7.28176">
        <ele>124.647201</ele>
        <time>2023-04-27T09:56:11.821Z</time>
      </trkpt>
      <trkpt lat="51.42574" lon="7.28178">
        <ele>124.785473</ele>
        <time>2023-04-27T09:56:14.826Z</time>
      </trkpt>
      <trkpt lat="51.42566" lon="7.28187">
        <ele>124.932731</ele>
        <time>2023-04-27T09:56:17.805Z</time>
      </trkpt>
      <trkpt lat="51.42565" lon="7.28207">
        <ele>125.12488</ele>
        <time>2023-04-27T09:56:21.799Z</time>
      </trkpt>
      <trkpt lat="51.42565" lon="7.28224">
        <ele>125.296876</ele>
        <time>2023-04-27T09:56:24.821Z</time>
      </trkpt>
      <trkpt lat="51.42564" lon="7.28243">
        <ele>125.471118</ele>
        <time>2023-04-27T09:56:27.811Z</time>
      </trkpt>
      <trkpt lat="51.42564" lon="7.2826">
        <ele>125.63821</ele>
        <time>2023-04-27T09:56:30.832Z</time>
      </trkpt>
      <trkpt lat="51.42563" lon="7.28279">
        <ele>125.823502</ele>
        <time>2023-04-27T09:56:33.818Z</time>
      </trkpt>
      <trkpt lat="51.42561" lon="7.28295">
        <ele>125.962846</ele>
        <time>2023-04-27T09:56:35.792Z</time>
      </trkpt>
      <trkpt lat="51.42559" lon="7.28309">
        <ele>126.092544</ele>
        <time>2023-04-27T09:56:37.828Z</time>
      </trkpt>
      <trkpt lat="51.42559" lon="7.28327">
        <ele>126.244417</ele>
        <time>2023-04-27T09:56:40.829Z</time>
      </trkpt>
      <trkpt lat="51.42557" lon="7.28345">
        <ele>126.402856</ele>
        <time>2023-04-27T09:56:43.807Z</time>
      </trkpt>
      <trkpt lat="51.42554" lon="7.28365">
        <ele>126.5807</ele>
        <time>2023-04-27T09:56:46.817Z</time>
      </trkpt>
      <trkpt lat="51.42553" lon="7.28383">
        <ele>126.736144</ele>
        <time>2023-04-27T09:56:49.826Z</time>
      </trkpt>
      <trkpt lat="51.42549" lon="7.28404">
        <ele>126.920195</ele>
        <time>2023-04-27T09:56:52.814Z</time>
      </trkpt>
      <trkpt lat="51.42546" lon="7.28419">
        <ele>127.063394</ele>
        <time>2023-04-27T09:56:55.799Z</time>
      </trkpt>
      <trkpt lat="51.42542" lon="7.28435">
        <ele>127.209869</ele>
        <time>2023-04-27T09:56:58.801Z</time>
      </trkpt>
      <trkpt lat="51.42538" lon="7.28449">
        <ele>127.343074</ele>
        <time>2023-04-27T09:57:01.805Z</time>
      </trkpt>
      <trkpt lat="51.42535" lon="7.28463">
        <ele>127.471456</ele>
        <time>2023-04-27T09:57:04.804Z</time>
      </trkpt>
      <trkpt lat="51.42531" lon="7.28481">
        <ele>127.633579</ele>
        <time>2023-04-27T09:57:08.811Z</time>
      </trkpt>
      <trkpt lat="51.42524" lon="7.28495">
        <ele>127.784616</ele>
        <time>2023-04-27T09:57:11.821Z</time>
      </trkpt>
      <trkpt lat="51.42517" lon="7.28507">
        <ele>127.928664</ele>
        <time>2023-04-27T09:57:14.815Z</time>
      </trkpt>
      <trkpt lat="51.42509" lon="7.28519">
        <ele>128.074151</ele>
        <time>2023-04-27T09:57:17.814Z</time>
      </trkpt>
      <trkpt lat="51.42501" lon="7.28532">
        <ele>128.242714</ele>
        <time>2023-04-27T09:57:20.847Z</time>
      </trkpt>
      <trkpt lat="51.42493" lon="7.28546">
        <ele>128.254838</ele>
        <time>2023-04-27T09:57:23.813Z</time>
      </trkpt>
      <trkpt lat="51.42487" lon="7.28559">
        <ele>128.015529</ele>
        <time>2023-04-27T09:57:25.841Z</time>
      </trkpt>
      <trkpt lat="51.42482" lon="7.28572">
        <ele>127.772692</ele>
        <time>2023-04-27T09:57:27.824Z</time>
      </trkpt>
      <trkpt lat="51.42476" lon="7.28584">
        <ele>127.526569</ele>
        <time>2023-04-27T09:57:29.826Z</time>
      </trkpt>
      <trkpt lat="51.42468" lon="7.286">
        <ele>127.202764</ele>
        <time>2023-04-27T09:57:32.824Z</time>
      </trkpt>
      <trkpt lat="51.42463" lon="7.28612">
        <ele>126.972062</ele>
        <time>2023-04-27T09:57:34.815Z</time>
      </trkpt>
      <trkpt lat="51.42457" lon="7.28623">
        <ele>126.739798</ele>
        <time>2023-04-27T09:57:36.820Z</time>
      </trkpt>
      <trkpt lat="51.42453" lon="7.28642">
        <ele>126.41674</ele>
        <time>2023-04-27T09:57:39.791Z</time>
      </trkpt>
      <trkpt lat="51.42453" lon="7.28661">
        <ele>126.127357</ele>
        <time>2023-04-27T09:57:42.810Z</time>
      </trkpt>
      <trkpt lat="51.42458" lon="7.28681">
        <ele>125.781316</ele>
        <time>2023-04-27T09:57:45.807Z</time>
      </trkpt>
      <trkpt lat="51.42462" lon="7.28696">
        <ele>125.520379</ele>
        <time>2023-04-27T09:57:47.789Z</time>
      </trkpt>
      <trkpt lat="51.42463" lon="7.28714">
        <ele>125.228125</ele>
        <time>2023-04-27T09:57:49.797Z</time>
      </trkpt>
      <trkpt lat="51.42463" lon="7.28732">
        <ele>124.943428</ele>
        <time>2023-04-27T09:57:51.809Z</time>
      </trkpt>
      <trkpt lat="51.42463" lon="7.28751">
        <ele>124.647722</ele>
        <time>2023-04-27T09:57:53.811Z</time>
      </trkpt>
      <trkpt lat="51.42465" lon="7.28769">
        <ele>124.35988</ele>
        <time>2023-04-27T09:57:55.791Z</time>
      </trkpt>
      <trkpt lat="51.42467" lon="7.28787">
        <ele>124.068792</ele>
        <time>2023-04-27T09:57:57.809Z</time>
      </trkpt>
      <trkpt lat="51.42468" lon="7.28804">
        <ele>123.802376</ele>
        <time>2023-04-27T09:57:59.812Z</time>
      </trkpt>
      <trkpt lat="51.42469" lon="7.28819">
        <ele>123.822453</ele>
        <time>2023-04-27T09:58:01.834Z</time>
      </trkpt>
      <trkpt lat="51.42471" lon="7.28835">
        <ele>123.855013</ele>
        <time>2023-04-27T09:58:03.809Z</time>
      </trkpt>
      <trkpt lat="51.42472" lon="7.28852">
        <ele>123.889064</ele>
        <time>2023-04-27T09:58:05.811Z</time>
      </trkpt>
      <trkpt lat="51.42479" lon="7.28869">
        <ele>123.927884</ele>
        <time>2023-04-27T09:58:08.806Z</time>
      </trkpt>
      <trkpt lat="51.42483" lon="7.28887">
        <ele>123.964424</ele>
        <time>2023-04-27T09:58:11.804Z</time>
      </trkpt>
      <trkpt lat="51.42483" lon="7.28904">
        <ele>123.999417</ele>
        <time>2023-04-27T09:58:14.808Z</time>
      </trkpt>
      <trkpt lat="51.42488" lon="7.28918">
        <ele>124.029519</ele>
        <time>2023-04-27T09:58:17.793Z</time>
      </trkpt>
      <trkpt lat="51.42494" lon="7.2893">
        <ele>124.061997</ele>
        <time>2023-04-27T09:58:21.810Z</time>
      </trkpt>
      <trkpt lat="51.42497" lon="7.28946">
        <ele>124.094791</ele>
        <time>2023-04-27T09:58:26.804Z</time>
      </trkpt>
      <trkpt lat="51.425" lon="7.2896">
        <ele>124.123317</ele>
        <time>2023-04-27T09:58:30.804Z</time>
      </trkpt>
      <trkpt lat="51.42506" lon="7.28974">
        <ele>124.157286</ele>
        <time>2023-04-27T09:58:34.791Z</time>
      </trkpt>
      <trkpt lat="51.42511" lon="7.28989">
        <ele>124.190098</ele>
        <time>2023-04-27T09:58:38.820Z</time>
      </trkpt>
      <trkpt lat="51.42517" lon="7.29002">
        <ele>124.221387</ele>
        <time>2023-04-27T09:58:42.813Z</time>
      </trkpt>
      <trkpt lat="51.42521" lon="7.29017">
        <ele>124.25354</ele>
        <time>2023-04-27T09:58:46.818Z</time>
      </trkpt>
      <trkpt lat="51.42526" lon="7.29033">
        <ele>124.290523</ele>
        <time>2023-04-27T09:58:50.823Z</time>
      </trkpt>
      <trkpt lat="51.42531" lon="7.29047">
        <ele>124.320707</ele>
        <time>2023-04-27T09:58:53.810Z</time>
      </trkpt>
      <trkpt lat="51.42535" lon="7.29061">
        <ele>124.352368</ele>
        <time>2023-04-27T09:58:56.827Z</time>
      </trkpt>
      <trkpt lat="51.42539" lon="7.29077">
        <ele>124.1812</ele>
        <time>2023-04-27T09:58:59.804Z</time>
      </trkpt>
      <trkpt lat="51.42544" lon="7.29091">
        <ele>123.905737</ele>
        <time>2023-04-27T09:59:03.798Z</time>
      </trkpt>
      <trkpt lat="51.4255" lon="7.29104">
        <ele>123.645513</ele>
        <time>2023-04-27T09:59:07.804Z</time>
      </trkpt>
      <trkpt lat="51.42555" lon="7.29117">
        <ele>123.390791</ele>
        <time>2023-04-27T09:59:13.810Z</time>
      </trkpt>
      <trkpt lat="51.42547" lon="7.29128">
        <ele>123.10952</ele>
        <time>2023-04-27T09:59:17.814Z</time>
      </trkpt>
      <trkpt lat="51.42537" lon="7.29136">
        <ele>122.814498</ele>
        <time>2023-04-27T09:59:20.799Z</time>
      </trkpt>
      <trkpt lat="51.42531" lon="7.29148">
        <ele>122.571476</ele>
        <time>2023-04-27T09:59:23.807Z</time>
      </trkpt>
      <trkpt lat="51.42533" lon="7.29163">
        <ele>122.310929</ele>
        <time>2023-04-27T09:59:26.815Z</time>
      </trkpt>
      <trkpt lat="51.42536" lon="7.29177">
        <ele>122.072238</ele>
        <time>2023-04-27T09:59:29.812Z</time>
      </trkpt>
      <trkpt lat="51.42542" lon="7.29194">
        <ele>121.759413</ele>
        <time>2023-04-27T09:59:33.798Z</time>
      </trkpt>
      <trkpt lat="51.42538" lon="7.29207">
        <ele>121.508921</ele>
        <time>2023-04-27T09:59:38.818Z</time>
      </trkpt>
      <trkpt lat="51.42529" lon="7.29211">
        <ele>121.26076</ele>
        <time>2023-04-27T09:59:42.814Z</time>
      </trkpt>
      <trkpt lat="51.4252" lon="7.29216">
        <ele>121.022468</ele>
        <time>2023-04-27T09:59:46.828Z</time>
      </trkpt>
      <trkpt lat="51.42511" lon="7.29221">
        <ele>120.765156</ele>
        <time>2023-04-27T09:59:50.807Z</time>
      </trkpt>
      <trkpt lat="51.42502" lon="7.29224">
        <ele>120.518523</ele>
        <time>2023-04-27T09:59:54.809Z</time>
      </trkpt>
      <trkpt lat="51.42492" lon="7.29219">
        <ele>120.261211</ele>
        <time>2023-04-27T09:59:58.795Z</time>
      </trkpt>
      <trkpt lat="51.42482" lon="7.29214">
        <ele>119.968636</ele>
        <time>2023-04-27T10:00:02.808Z</time>
      </trkpt>
      <trkpt lat="51.42472" lon="7.29203">
        <ele>119.669357</ele>
        <time>2023-04-27T10:00:06.799Z</time>
      </trkpt>
      <trkpt lat="51.42465" lon="7.2919">
        <ele>119.728517</ele>
        <time>2023-04-27T10:00:10.829Z</time>
      </trkpt>
      <trkpt lat="51.42457" lon="7.29176">
        <ele>119.800469</ele>
        <time>2023-04-27T10:00:14.806Z</time>
      </trkpt>
      <trkpt lat="51.42445" lon="7.29168">
        <ele>119.877278</ele>
        <time>2023-04-27T10:00:17.805Z</time>
      </trkpt>
      <trkpt lat="51.42435" lon="7.29169">
        <ele>119.936584</ele>
        <time>2023-04-27T10:00:20.805Z</time>
      </trkpt>
      <trkpt lat="51.42425" lon="7.29174">
        <ele>119.999281</ele>
        <time>2023-04-27T10:00:23.792Z</time>
      </trkpt>
      <trkpt lat="51.42416" lon="7.29184">
        <ele>120.066526</ele>
        <time>2023-04-27T10:00:26.810Z</time>
      </trkpt>
      <trkpt lat="51.42405" lon="7.29192">
        <ele>120.142674</ele>
        <time>2023-04-27T10:00:29.809Z</time>
      </trkpt>
      <trkpt lat="51.42395" lon="7.29201">
        <ele>120.212241</ele>
        <time>2023-04-27T10:00:32.812Z</time>
      </trkpt>
      <trkpt lat="51.42385" lon="7.29212">
        <ele>120.283947</ele>
        <time>2023-04-27T10:00:35.811Z</time>
      </trkpt>
      <trkpt lat="51.42374" lon="7.29221">
        <ele>120.356516</ele>
        <time>2023-04-27T10:00:38.824Z</time>
      </trkpt>
      <trkpt lat="51.42363" lon="7.2923">
        <ele>120.430171</ele>
        <time>2023-04-27T10:00:41.811Z</time>
      </trkpt>
      <trkpt lat="51.42354" lon="7.29239">
        <ele>120.495464</ele>
        <time>2023-04-27T10:00:44.807Z</time>
      </trkpt>
      <trkpt lat="51.42344" lon="7.29248">
        <ele>120.566966</ele>
        <time>2023-04-27T10:00:47.817Z</time>
      </trkpt>
      <trkpt lat="51.42333" lon="7.29258">
        <ele>120.64152</ele>
        <time>2023-04-27T10:00:50.830Z</time>
      </trkpt>
      <trkpt lat="51.42321" lon="7.29268">
        <ele>120.722988</ele>
        <time>2023-04-27T10:00:53.809Z</time>
      </trkpt>
      <trkpt lat="51.42313" lon="7.29275">
        <ele>120.764575</ele>
        <time>2023-04-27T10:00:55.790Z</time>
      </trkpt>
      <trkpt lat="51.42305" lon="7.29282">
        <ele>120.791173</ele>
        <time>2023-04-27T10:00:57.809Z</time>
      </trkpt>
      <trkpt lat="51.42295" lon="7.29295">
        <ele>120.830214</ele>
        <time>2023-04-27T10:01:00.815Z</time>
      </trkpt>
      <trkpt lat="51.42284" lon="7.29307">
        <ele>120.869924</ele>
        <time>2023-04-27T10:01:03.816Z</time>
      </trkpt>
      <trkpt lat="51.42277" lon="7.29316">
        <ele>120.896671</ele>
        <time>2023-04-27T10:01:05.807Z</time>
      </trkpt>
      <trkpt lat="51.42269" lon="7.29326">
        <ele>120.924456</ele>
        <time>2023-04-27T10:01:07.813Z</time>
      </trkpt>
      <trkpt lat="51.42262" lon="7.29335">
        <ele>120.952934</ele>
        <time>2023-04-27T10:01:09.807Z</time>
      </trkpt>
      <trkpt lat="51.42251" lon="7.29347">
        <ele>120.990798</ele>
        <time>2023-04-27T10:01:12.809Z</time>
      </trkpt>
      <trkpt lat="51.42244" lon="7.29355">
        <ele>121.018115</ele>
        <time>2023-04-27T10:01:14.825Z</time>
      </trkpt>
      <trkpt lat="51.42236" lon="7.29364">
        <ele>121.046333</ele>
        <time>2023-04-27T10:01:16.813Z</time>
      </trkpt>
      <trkpt lat="51.42228" lon="7.29373">
        <ele>121.074413</ele>
        <time>2023-04-27T10:01:18.816Z</time>
      </trkpt>
      <trkpt lat="51.42221" lon="7.29383">
        <ele>121.102241</ele>
        <time>2023-04-27T10:01:20.818Z</time>
      </trkpt>
      <trkpt lat="51.42211" lon="7.29397">
        <ele>121.141648</ele>
        <time>2023-04-27T10:01:23.812Z</time>
      </trkpt>
      <trkpt lat="51.42204" lon="7.29407">
        <ele>121.169203</ele>
        <time>2023-04-27T10:01:25.811Z</time>
      </trkpt>
      <trkpt lat="51.42197" lon="7.29416">
        <ele>121.196531</ele>
        <time>2023-04-27T10:01:27.810Z</time>
      </trkpt>
      <trkpt lat="51.4219" lon="7.29426">
        <ele>121.223207</ele>
        <time>2023-04-27T10:01:29.817Z</time>
      </trkpt>
      <trkpt lat="51.42184" lon="7.29437">
        <ele>121.250424</ele>
        <time>2023-04-27T10:01:31.793Z</time>
      </trkpt>
      <trkpt lat="51.42176" lon="7.29452">
        <ele>121.293521</ele>
        <time>2023-04-27T10:01:34.812Z</time>
      </trkpt>
      <trkpt lat="51.42168" lon="7.29468">
        <ele>121.371018</ele>
        <time>2023-04-27T10:01:37.813Z</time>
      </trkpt>
      <trkpt lat="51.42161" lon="7.29484">
        <ele>121.450535</ele>
        <time>2023-04-27T10:01:40.805Z</time>
      </trkpt>
      <trkpt lat="51.42155" lon="7.29502">
        <ele>121.529252</ele>
        <time>2023-04-27T10:01:43.806Z</time>
      </trkpt>
      <trkpt lat="51.42148" lon="7.29521">
        <ele>121.613141</ele>
        <time>2023-04-27T10:01:46.810Z</time>
      </trkpt>
      <trkpt lat="51.42143" lon="7.2954">
        <ele>121.696345</ele>
        <time>2023-04-27T10:01:49.811Z</time>
      </trkpt>
      <trkpt lat="51.42139" lon="7.2956">
        <ele>121.778606</ele>
        <time>2023-04-27T10:01:52.807Z</time>
      </trkpt>
      <trkpt lat="51.42136" lon="7.2958">
        <ele>121.85879</ele>
        <time>2023-04-27T10:01:55.803Z</time>
      </trkpt>
      <trkpt lat="51.42133" lon="7.29601">
        <ele>121.941491</ele>
        <time>2023-04-27T10:01:58.836Z</time>
      </trkpt>
      <trkpt lat="51.4213" lon="7.29621">
        <ele>122.023275</ele>
        <time>2023-04-27T10:02:01.809Z</time>
      </trkpt>
      <trkpt lat="51.42127" lon="7.29635">
        <ele>122.080355</ele>
        <time>2023-04-27T10:02:03.814Z</time>
      </trkpt>
      <trkpt lat="51.42122" lon="7.29647">
        <ele>122.137257</ele>
        <time>2023-04-27T10:02:05.795Z</time>
      </trkpt>
      <trkpt lat="51.42119" lon="7.29668">
        <ele>122.220825</ele>
        <time>2023-04-27T10:02:08.811Z</time>
      </trkpt>
      <trkpt lat="51.42118" lon="7.29682">
        <ele>122.277837</ele>
        <time>2023-04-27T10:02:10.806Z</time>
      </trkpt>
      <trkpt lat="51.42117" lon="7.29704">
        <ele>122.36171</ele>
        <time>2023-04-27T10:02:13.807Z</time>
      </trkpt>
      <trkpt lat="51.42119" lon="7.29725">
        <ele>122.493769</ele>
        <time>2023-04-27T10:02:16.806Z</time>
      </trkpt>
      <trkpt lat="51.4212" lon="7.2974">
        <ele>122.62541</ele>
        <time>2023-04-27T10:02:18.799Z</time>
      </trkpt>
      <trkpt lat="51.42122" lon="7.29761">
        <ele>122.816642</ele>
        <time>2023-04-27T10:02:21.807Z</time>
      </trkpt>
      <trkpt lat="51.42124" lon="7.29782">
        <ele>123.007021</ele>
        <time>2023-04-27T10:02:24.806Z</time>
      </trkpt>
      <trkpt lat="51.42129" lon="7.29801">
        <ele>123.194539</ele>
        <time>2023-04-27T10:02:27.795Z</time>
      </trkpt>
      <trkpt lat="51.42136" lon="7.29819">
        <ele>123.384235</ele>
        <time>2023-04-27T10:02:30.811Z</time>
      </trkpt>
      <trkpt lat="51.42144" lon="7.29837">
        <ele>123.582096</ele>
        <time>2023-04-27T10:02:33.797Z</time>
      </trkpt>
      <trkpt lat="51.42151" lon="7.29856">
        <ele>123.778657</ele>
        <time>2023-04-27T10:02:36.807Z</time>
      </trkpt>
      <trkpt lat="51.42157" lon="7.29872">
        <ele>123.958366</ele>
        <time>2023-04-27T10:02:39.810Z</time>
      </trkpt>
      <trkpt lat="51.42165" lon="7.29888">
        <ele>124.142289</ele>
        <time>2023-04-27T10:02:42.804Z</time>
      </trkpt>
      <trkpt lat="51.42171" lon="7.29904">
        <ele>124.310529</ele>
        <time>2023-04-27T10:02:45.816Z</time>
      </trkpt>
      <trkpt lat="51.42177" lon="7.2992">
        <ele>124.474211</ele>
        <time>2023-04-27T10:02:48.798Z</time>
      </trkpt>
      <trkpt lat="51.42184" lon="7.29936">
        <ele>124.644798</ele>
        <time>2023-04-27T10:02:51.813Z</time>
      </trkpt>
      <trkpt lat="51.4219" lon="7.29952">
        <ele>124.816095</ele>
        <time>2023-04-27T10:02:54.805Z</time>
      </trkpt>
      <trkpt lat="51.42196" lon="7.29969">
        <ele>124.996863</ele>
        <time>2023-04-27T10:02:57.823Z</time>
      </trkpt>
      <trkpt lat="51.42203" lon="7.29986">
        <ele>125.024129</ele>
        <time>2023-04-27T10:03:00.809Z</time>
      </trkpt>
      <trkpt lat="51.42208" lon="7.29999">
        <ele>125.033942</ele>
        <time>2023-04-27T10:03:02.802Z</time>
      </trkpt>
      <trkpt lat="51.42217" lon="7.30015">
        <ele>125.048233</ele>
        <time>2023-04-27T10:03:05.796Z</time>
      </trkpt>
      <trkpt lat="51.42225" lon="7.30029">
        <ele>125.060923</ele>
        <time>2023-04-27T10:03:08.799Z</time>
      </trkpt>
      <trkpt lat="51.42233" lon="7.30046">
        <ele>125.074619</ele>
        <time>2023-04-27T10:03:11.803Z</time>
      </trkpt>
      <trkpt lat="51.4224" lon="7.30064">
        <ele>125.088645</ele>
        <time>2023-04-27T10:03:14.804Z</time>
      </trkpt>
      <trkpt lat="51.42245" lon="7.30077">
        <ele>125.098298</ele>
        <time>2023-04-27T10:03:16.823Z</time>
      </trkpt>
      <trkpt lat="51.42251" lon="7.30088">
        <ele>125.10826</ele>
        <time>2023-04-27T10:03:18.809Z</time>
      </trkpt>
      <trkpt lat="51.42258" lon="7.301">
        <ele>125.118768</ele>
        <time>2023-04-27T10:03:20.798Z</time>
      </trkpt>
      <trkpt lat="51.42265" lon="7.30109">
        <ele>125.128224</ele>
        <time>2023-04-27T10:03:22.797Z</time>
      </trkpt>
      <trkpt lat="51.42273" lon="7.30122">
        <ele>125.139842</ele>
        <time>2023-04-27T10:03:25.828Z</time>
      </trkpt>
      <trkpt lat="51.4227" lon="7.30137">
        <ele>125.149851</ele>
        <time>2023-04-27T10:03:30.812Z</time>
      </trkpt>
      <trkpt lat="51.42263" lon="7.30147">
        <ele>125.160102</ele>
        <time>2023-04-27T10:03:37.807Z</time>
      </trkpt>
      <trkpt lat="51.42256" lon="7.30161">
        <ele>125.17118</ele>
        <time>2023-04-27T10:04:04.817Z</time>
      </trkpt>
      <trkpt lat="51.4225" lon="7.30171">
        <ele>125.181024</ele>
        <time>2023-04-27T10:04:16.822Z</time>
      </trkpt>
      <trkpt lat="51.42241" lon="7.30179">
        <ele>125.191202</ele>
        <time>2023-04-27T10:04:28.808Z</time>
      </trkpt>
      <trkpt lat="51.42241" lon="7.30194">
        <ele>125.206105</ele>
        <time>2023-04-27T10:05:07.818Z</time>
      </trkpt>
      <trkpt lat="51.42247" lon="7.30207">
        <ele>125.389817</ele>
        <time>2023-04-27T10:05:20.799Z</time>
      </trkpt>
      <trkpt lat="51.42249" lon="7.30222">
        <ele>125.558961</ele>
        <time>2023-04-27T10:05:31.799Z</time>
      </trkpt>
      <trkpt lat="51.42251" lon="7.30237">
        <ele>125.738934</ele>
        <time>2023-04-27T10:05:41.814Z</time>
      </trkpt>
      <trkpt lat="51.42252" lon="7.30253">
        <ele>125.921667</ele>
        <time>2023-04-27T10:05:51.796Z</time>
      </trkpt>
      <trkpt lat="51.42252" lon="7.30275">
        <ele>126.179516</ele>
        <time>2023-04-27T10:06:17.805Z</time>
      </trkpt>
      <trkpt lat="51.4225" lon="7.3029">
        <ele>126.350568</ele>
        <time>2023-04-27T10:06:25.795Z</time>
      </trkpt>
      <trkpt lat="51.42241" lon="7.30307">
        <ele>126.614287</ele>
        <time>2023-04-27T10:07:54.796Z</time>
      </trkpt>
      <trkpt lat="51.42244" lon="7.30322">
        <ele>126.800839</ele>
        <time>2023-04-27T10:07:59.804Z</time>
      </trkpt>
      <trkpt lat="51.42251" lon="7.30333">
        <ele>126.982843</ele>
        <time>2023-04-27T10:08:03.813Z</time>
      </trkpt>
      <trkpt lat="51.42257" lon="7.30345">
        <ele>127.152429</ele>
        <time>2023-04-27T10:08:07.807Z</time>
      </trkpt>
      <trkpt lat="51.42265" lon="7.30355">
        <ele>127.346681</ele>
        <time>2023-04-27T10:08:12.824Z</time>
      </trkpt>
      <trkpt lat="51.42271" lon="7.30366">
        <ele>127.520624</ele>
        <time>2023-04-27T10:08:16.803Z</time>
      </trkpt>
      <trkpt lat="51.42279" lon="7.30377">
        <ele>127.703187</ele>
        <time>2023-04-27T10:08:20.802Z</time>
      </trkpt>
      <trkpt lat="51.42287" lon="7.30386">
        <ele>127.892932</ele>
        <time>2023-04-27T10:08:24.810Z</time>
      </trkpt>
      <trkpt lat="51.42296" lon="7.30395">
        <ele>128.085001</ele>
        <time>2023-04-27T10:08:28.813Z</time>
      </trkpt>
      <trkpt lat="51.42302" lon="7.30406">
        <ele>128.256806</ele>
        <time>2023-04-27T10:08:31.830Z</time>
      </trkpt>
      <trkpt lat="51.42311" lon="7.30415">
        <ele>128.44627</ele>
        <time>2023-04-27T10:08:34.797Z</time>
      </trkpt>
      <trkpt lat="51.42319" lon="7.30425">
        <ele>128.669136</ele>
        <time>2023-04-27T10:08:37.822Z</time>
      </trkpt>
      <trkpt lat="51.42328" lon="7.30434">
        <ele>128.924157</ele>
        <time>2023-04-27T10:08:40.821Z</time>
      </trkpt>
      <trkpt lat="51.42338" lon="7.30445">
        <ele>129.202509</ele>
        <time>2023-04-27T10:08:43.815Z</time>
      </trkpt>
      <trkpt lat="51.42347" lon="7.30455">
        <ele>129.462863</ele>
        <time>2023-04-27T10:08:46.812Z</time>
      </trkpt>
      <trkpt lat="51.42356" lon="7.30465">
        <ele>129.727799</ele>
        <time>2023-04-27T10:08:49.809Z</time>
      </trkpt>
      <trkpt lat="51.42367" lon="7.30475">
        <ele>130.025423</ele>
        <time>2023-04-27T10:08:52.811Z</time>
      </trkpt>
      <trkpt lat="51.42376" lon="7.30487">
        <ele>130.299588</ele>
        <time>2023-04-27T10:08:55.802Z</time>
      </trkpt>
      <trkpt lat="51.42385" lon="7.30498">
        <ele>130.577739</ele>
        <time>2023-04-27T10:08:58.817Z</time>
      </trkpt>
      <trkpt lat="51.42395" lon="7.30511">
        <ele>130.870367</ele>
        <time>2023-04-27T10:09:01.827Z</time>
      </trkpt>
      <trkpt lat="51.42405" lon="7.30522">
        <ele>131.153821</ele>
        <time>2023-04-27T10:09:04.821Z</time>
      </trkpt>
      <trkpt lat="51.42414" lon="7.30534">
        <ele>131.442059</ele>
        <time>2023-04-27T10:09:07.821Z</time>
      </trkpt>
      <trkpt lat="51.42425" lon="7.30546">
        <ele>131.745737</ele>
        <time>2023-04-27T10:09:10.812Z</time>
      </trkpt>
      <trkpt lat="51.42435" lon="7.30558">
        <ele>132.055969</ele>
        <time>2023-04-27T10:09:13.810Z</time>
      </trkpt>
      <trkpt lat="51.42446" lon="7.30571">
        <ele>132.373761</ele>
        <time>2023-04-27T10:09:16.813Z</time>
      </trkpt>
      <trkpt lat="51.42456" lon="7.30583">
        <ele>132.669468</ele>
        <time>2023-04-27T10:09:19.809Z</time>
      </trkpt>
      <trkpt lat="51.42466" lon="7.30595">
        <ele>132.670685</ele>
        <time>2023-04-27T10:09:22.801Z</time>
      </trkpt>
      <trkpt lat="51.42476" lon="7.30605">
        <ele>132.465876</ele>
        <time>2023-04-27T10:09:25.784Z</time>
      </trkpt>
      <trkpt lat="51.42487" lon="7.30616">
        <ele>132.249443</ele>
        <time>2023-04-27T10:09:28.807Z</time>
      </trkpt>
      <trkpt lat="51.42497" lon="7.30629">
        <ele>132.025282</ele>
        <time>2023-04-27T10:09:31.808Z</time>
      </trkpt>
      <trkpt lat="51.42505" lon="7.30637">
        <ele>131.872535</ele>
        <time>2023-04-27T10:09:33.822Z</time>
      </trkpt>
      <trkpt lat="51.42515" lon="7.30649">
        <ele>131.656102</ele>
        <time>2023-04-27T10:09:36.810Z</time>
      </trkpt>
      <trkpt lat="51.42526" lon="7.3066">
        <ele>131.436855</ele>
        <time>2023-04-27T10:09:39.801Z</time>
      </trkpt>
      <trkpt lat="51.42536" lon="7.30673">
        <ele>131.214259</ele>
        <time>2023-04-27T10:09:42.789Z</time>
      </trkpt>
      <trkpt lat="51.42545" lon="7.30686">
        <ele>131.004991</ele>
        <time>2023-04-27T10:09:45.794Z</time>
      </trkpt>
      <trkpt lat="51.42556" lon="7.30698">
        <ele>130.777097</ele>
        <time>2023-04-27T10:09:48.805Z</time>
      </trkpt>
      <trkpt lat="51.42564" lon="7.30707">
        <ele>130.611041</ele>
        <time>2023-04-27T10:09:50.812Z</time>
      </trkpt>
      <trkpt lat="51.42574" lon="7.30721">
        <ele>130.381737</ele>
        <time>2023-04-27T10:09:53.836Z</time>
      </trkpt>
      <trkpt lat="51.42582" lon="7.3073">
        <ele>130.224343</ele>
        <time>2023-04-27T10:09:55.789Z</time>
      </trkpt>
      <trkpt lat="51.42589" lon="7.30739">
        <ele>130.069724</ele>
        <time>2023-04-27T10:09:57.807Z</time>
      </trkpt>
      <trkpt lat="51.42597" lon="7.30747">
        <ele>129.908006</ele>
        <time>2023-04-27T10:09:59.812Z</time>
      </trkpt>
      <trkpt lat="51.42604" lon="7.30756">
        <ele>129.750311</ele>
        <time>2023-04-27T10:10:01.808Z</time>
      </trkpt>
      <trkpt lat="51.42615" lon="7.30767">
        <ele>129.745648</ele>
        <time>2023-04-27T10:10:04.813Z</time>
      </trkpt>
      <trkpt lat="51.42625" lon="7.3078">
        <ele>129.778251</ele>
        <time>2023-04-27T10:10:07.813Z</time>
      </trkpt>
      <trkpt lat="51.42635" lon="7.30792">
        <ele>129.809583</ele>
        <time>2023-04-27T10:10:10.813Z</time>
      </trkpt>
      <trkpt lat="51.42646" lon="7.30805">
        <ele>129.842479</ele>
        <time>2023-04-27T10:10:13.810Z</time>
      </trkpt>
      <trkpt lat="51.42657" lon="7.30817">
        <ele>129.875299</ele>
        <time>2023-04-27T10:10:16.819Z</time>
      </trkpt>
      <trkpt lat="51.42667" lon="7.3083">
        <ele>129.907996</ele>
        <time>2023-04-27T10:10:19.811Z</time>
      </trkpt>
      <trkpt lat="51.42678" lon="7.30842">
        <ele>129.940401</ele>
        <time>2023-04-27T10:10:22.814Z</time>
      </trkpt>
      <trkpt lat="51.42685" lon="7.30851">
        <ele>129.962648</ele>
        <time>2023-04-27T10:10:24.830Z</time>
      </trkpt>
      <trkpt lat="51.42696" lon="7.30862">
        <ele>129.995125</ele>
        <time>2023-04-27T10:10:27.808Z</time>
      </trkpt>
      <trkpt lat="51.42707" lon="7.30874">
        <ele>130.027968</ele>
        <time>2023-04-27T10:10:30.809Z</time>
      </trkpt>
      <trkpt lat="51.42717" lon="7.30888">
        <ele>130.061426</ele>
        <time>2023-04-27T10:10:33.830Z</time>
      </trkpt>
      <trkpt lat="51.42724" lon="7.30897">
        <ele>130.084121</ele>
        <time>2023-04-27T10:10:35.800Z</time>
      </trkpt>
      <trkpt lat="51.42732" lon="7.30905">
        <ele>130.106733</ele>
        <time>2023-04-27T10:10:37.817Z</time>
      </trkpt>
      <trkpt lat="51.42739" lon="7.30915">
        <ele>130.129524</ele>
        <time>2023-04-27T10:10:39.822Z</time>
      </trkpt>
      <trkpt lat="51.42746" lon="7.30922">
        <ele>130.151956</ele>
        <time>2023-04-27T10:10:41.821Z</time>
      </trkpt>
      <trkpt lat="51.42757" lon="7.30935">
        <ele>130.150231</ele>
        <time>2023-04-27T10:10:44.822Z</time>
      </trkpt>
      <trkpt lat="51.42768" lon="7.30948">
        <ele>130.123391</ele>
        <time>2023-04-27T10:10:47.814Z</time>
      </trkpt>
      <trkpt lat="51.42775" lon="7.30956">
        <ele>130.105149</ele>
        <time>2023-04-27T10:10:49.815Z</time>
      </trkpt>
      <trkpt lat="51.42782" lon="7.30966">
        <ele>130.086585</ele>
        <time>2023-04-27T10:10:51.783Z</time>
      </trkpt>
      <trkpt lat="51.42793" lon="7.30979">
        <ele>130.060071</ele>
        <time>2023-04-27T10:10:54.815Z</time>
      </trkpt>
      <trkpt lat="51.42801" lon="7.30984">
        <ele>130.042192</ele>
        <time>2023-04-27T10:10:56.810Z</time>
      </trkpt>
      <trkpt lat="51.42813" lon="7.30993">
        <ele>130.016448</ele>
        <time>2023-04-27T10:10:59.828Z</time>
      </trkpt>
      <trkpt lat="51.42821" lon="7.31">
        <ele>129.9984</ele>
        <time>2023-04-27T10:11:01.807Z</time>
      </trkpt>
      <trkpt lat="51.42831" lon="7.31013">
        <ele>129.97301</ele>
        <time>2023-04-27T10:11:04.798Z</time>
      </trkpt>
      <trkpt lat="51.42839" lon="7.31027">
        <ele>129.948737</ele>
        <time>2023-04-27T10:11:07.804Z</time>
      </trkpt>
      <trkpt lat="51.42847" lon="7.31042">
        <ele>129.923869</ele>
        <time>2023-04-27T10:11:10.832Z</time>
      </trkpt>
      <trkpt lat="51.42854" lon="7.31057">
        <ele>129.90025</ele>
        <time>2023-04-27T10:11:13.810Z</time>
      </trkpt>
      <trkpt lat="51.42863" lon="7.31072">
        <ele>129.875479</ele>
        <time>2023-04-27T10:11:16.812Z</time>
      </trkpt>
      <trkpt lat="51.42871" lon="7.31087">
        <ele>129.851419</ele>
        <time>2023-04-27T10:11:19.820Z</time>
      </trkpt>
      <trkpt lat="51.42879" lon="7.311">
        <ele>129.827998</ele>
        <time>2023-04-27T10:11:22.817Z</time>
      </trkpt>
      <trkpt lat="51.42885" lon="7.31116">
        <ele>129.792979</ele>
        <time>2023-04-27T10:11:25.810Z</time>
      </trkpt>
      <trkpt lat="51.42893" lon="7.31132">
        <ele>129.667616</ele>
        <time>2023-04-27T10:11:28.817Z</time>
      </trkpt>
      <trkpt lat="51.429" lon="7.31149">
        <ele>129.541466</ele>
        <time>2023-04-27T10:11:31.807Z</time>
      </trkpt>
      <trkpt lat="51.42906" lon="7.31166">
        <ele>129.41698</ele>
        <time>2023-04-27T10:11:34.817Z</time>
      </trkpt>
      <trkpt lat="51.42912" lon="7.31181">
        <ele>129.300011</ele>
        <time>2023-04-27T10:11:37.806Z</time>
      </trkpt>
      <trkpt lat="51.42918" lon="7.31197">
        <ele>129.186636</ele>
        <time>2023-04-27T10:11:40.806Z</time>
      </trkpt>
      <trkpt lat="51.42923" lon="7.3121">
        <ele>129.086775</ele>
        <time>2023-04-27T10:11:43.815Z</time>
      </trkpt>
      <trkpt lat="51.42929" lon="7.31226">
        <ele>128.970806</ele>
        <time>2023-04-27T10:11:47.806Z</time>
      </trkpt>
      <trkpt lat="51.42934" lon="7.31241">
        <ele>128.862379</ele>
        <time>2023-04-27T10:11:51.809Z</time>
      </trkpt>
      <trkpt lat="51.4294" lon="7.31256">
        <ele>128.749159</ele>
        <time>2023-04-27T10:11:56.816Z</time>
      </trkpt>
      <trkpt lat="51.42947" lon="7.31271">
        <ele>128.631952</ele>
        <time>2023-04-27T10:12:00.828Z</time>
      </trkpt>
      <trkpt lat="51.4295" lon="7.31285">
        <ele>128.538946</ele>
        <time>2023-04-27T10:12:03.808Z</time>
      </trkpt>
      <trkpt lat="51.42954" lon="7.313">
        <ele>128.431707</ele>
        <time>2023-04-27T10:12:06.804Z</time>
      </trkpt>
      <trkpt lat="51.42957" lon="7.31317">
        <ele>128.321818</ele>
        <time>2023-04-27T10:12:09.816Z</time>
      </trkpt>
      <trkpt lat="51.42959" lon="7.31337">
        <ele>128.196831</ele>
        <time>2023-04-27T10:12:12.822Z</time>
      </trkpt>
      <trkpt lat="51.42962" lon="7.31356">
        <ele>128.067378</ele>
        <time>2023-04-27T10:12:15.807Z</time>
      </trkpt>
      <trkpt lat="51.42964" lon="7.31371">
        <ele>127.985911</ele>
        <time>2023-04-27T10:12:17.823Z</time>
      </trkpt>
      <trkpt lat="51.42968" lon="7.31391">
        <ele>128.037021</ele>
        <time>2023-04-27T10:12:20.817Z</time>
      </trkpt>
      <trkpt lat="51.42971" lon="7.31405">
        <ele>128.071989</ele>
        <time>2023-04-27T10:12:22.813Z</time>
      </trkpt>
      <trkpt lat="51.42974" lon="7.31419">
        <ele>128.107802</ele>
        <time>2023-04-27T10:12:24.810Z</time>
      </trkpt>
      <trkpt lat="51.42977" lon="7.31433">
        <ele>128.145186</ele>
        <time>2023-04-27T10:12:26.815Z</time>
      </trkpt>
      <trkpt lat="51.42982" lon="7.31452">
        <ele>128.194287</ele>
        <time>2023-04-27T10:12:29.803Z</time>
      </trkpt>
      <trkpt lat="51.42986" lon="7.31471">
        <ele>128.241645</ele>
        <time>2023-04-27T10:12:32.812Z</time>
      </trkpt>
      <trkpt lat="51.4299" lon="7.31484">
        <ele>128.277801</ele>
        <time>2023-04-27T10:12:34.808Z</time>
      </trkpt>
      <trkpt lat="51.42994" lon="7.31504">
        <ele>128.328391</ele>
        <time>2023-04-27T10:12:37.806Z</time>
      </trkpt>
      <trkpt lat="51.43" lon="7.31521">
        <ele>128.374681</ele>
        <time>2023-04-27T10:12:40.801Z</time>
      </trkpt>
      <trkpt lat="51.43008" lon="7.31529">
        <ele>128.412927</ele>
        <time>2023-04-27T10:12:43.808Z</time>
      </trkpt>
      <trkpt lat="51.43019" lon="7.31529">
        <ele>128.454413</ele>
        <time>2023-04-27T10:12:46.816Z</time>
      </trkpt>
      <trkpt lat="51.43031" lon="7.31533">
        <ele>128.501652</ele>
        <time>2023-04-27T10:12:49.808Z</time>
      </trkpt>
      <trkpt lat="51.43043" lon="7.31534">
        <ele>128.546786</ele>
        <time>2023-04-27T10:12:52.813Z</time>
      </trkpt>
      <trkpt lat="51.43055" lon="7.31535">
        <ele>128.595691</ele>
        <time>2023-04-27T10:12:55.785Z</time>
      </trkpt>
      <trkpt lat="51.43069" lon="7.31538">
        <ele>128.64843</ele>
        <time>2023-04-27T10:12:58.810Z</time>
      </trkpt>
      <trkpt lat="51.43078" lon="7.3154">
        <ele>128.672514</ele>
        <time>2023-04-27T10:13:00.812Z</time>
      </trkpt>
      <trkpt lat="51.43088" lon="7.31541">
        <ele>128.625208</ele>
        <time>2023-04-27T10:13:02.813Z</time>
      </trkpt>
      <trkpt lat="51.431" lon="7.31544">
        <ele>128.561923</ele>
        <time>2023-04-27T10:13:05.796Z</time>
      </trkpt>
      <trkpt lat="51.43112" lon="7.31545">
        <ele>128.505835</ele>
        <time>2023-04-27T10:13:08.821Z</time>
      </trkpt>
      <trkpt lat="51.43124" lon="7.31547">
        <ele>128.446588</ele>
        <time>2023-04-27T10:13:11.821Z</time>
      </trkpt>
      <trkpt lat="51.43134" lon="7.31551">
        <ele>128.394123</ele>
        <time>2023-04-27T10:13:14.819Z</time>
      </trkpt>
      <trkpt lat="51.43144" lon="7.31552">
        <ele>128.346389</ele>
        <time>2023-04-27T10:13:17.807Z</time>
      </trkpt>
      <trkpt lat="51.43154" lon="7.31554">
        <ele>128.294024</ele>
        <time>2023-04-27T10:13:21.812Z</time>
      </trkpt>
      <trkpt lat="51.43166" lon="7.31556">
        <ele>128.23435</ele>
        <time>2023-04-27T10:13:25.795Z</time>
      </trkpt>
      <trkpt lat="51.43176" lon="7.31558">
        <ele>128.186267</ele>
        <time>2023-04-27T10:13:28.803Z</time>
      </trkpt>
      <trkpt lat="51.43187" lon="7.31561">
        <ele>128.131937</ele>
        <time>2023-04-27T10:13:31.802Z</time>
      </trkpt>
      <trkpt lat="51.43197" lon="7.3156">
        <ele>128.082909</ele>
        <time>2023-04-27T10:13:34.838Z</time>
      </trkpt>
      <trkpt lat="51.43206" lon="7.31562">
        <ele>128.03727</ele>
        <time>2023-04-27T10:13:37.811Z</time>
      </trkpt>
      <trkpt lat="51.43215" lon="7.31565">
        <ele>127.9886</ele>
        <time>2023-04-27T10:13:40.815Z</time>
      </trkpt>
      <trkpt lat="51.43227" lon="7.31567">
        <ele>127.932681</ele>
        <time>2023-04-27T10:13:44.820Z</time>
      </trkpt>
      <trkpt lat="51.43235" lon="7.31568">
        <ele>127.888506</ele>
        <time>2023-04-27T10:13:47.824Z</time>
      </trkpt>
      <trkpt lat="51.43246" lon="7.3157">
        <ele>127.837399</ele>
        <time>2023-04-27T10:13:50.830Z</time>
      </trkpt>
      <trkpt lat="51.43256" lon="7.31572">
        <ele>127.788736</ele>
        <time>2023-04-27T10:13:53.811Z</time>
      </trkpt>
      <trkpt lat="51.43267" lon="7.31574">
        <ele>127.764428</ele>
        <time>2023-04-27T10:13:56.817Z</time>
      </trkpt>
      <trkpt lat="51.4328" lon="7.31575">
        <ele>127.737241</ele>
        <time>2023-04-27T10:13:59.812Z</time>
      </trkpt>
      <trkpt lat="51.43291" lon="7.31575">
        <ele>127.71391</ele>
        <time>2023-04-27T10:14:01.835Z</time>
      </trkpt>
      <trkpt lat="51.43302" lon="7.31575">
        <ele>127.68868</ele>
        <time>2023-04-27T10:14:03.827Z</time>
      </trkpt>
      <trkpt lat="51.43314" lon="7.31575">
        <ele>127.664299</ele>
        <time>2023-04-27T10:14:05.811Z</time>
      </trkpt>
      <trkpt lat="51.43327" lon="7.31576">
        <ele>127.636258</ele>
        <time>2023-04-27T10:14:07.816Z</time>
      </trkpt>
      <trkpt lat="51.43339" lon="7.31585">
        <ele>127.60849</ele>
        <time>2023-04-27T10:14:09.800Z</time>
      </trkpt>
      <trkpt lat="51.43347" lon="7.316">
        <ele>127.581734</ele>
        <time>2023-04-27T10:14:11.808Z</time>
      </trkpt>
      <trkpt lat="51.4335" lon="7.31618">
        <ele>127.556213</ele>
        <time>2023-04-27T10:14:13.830Z</time>
      </trkpt>
      <trkpt lat="51.43355" lon="7.31636">
        <ele>127.530131</ele>
        <time>2023-04-27T10:14:15.824Z</time>
      </trkpt>
      <trkpt lat="51.43363" lon="7.31651">
        <ele>127.504024</ele>
        <time>2023-04-27T10:14:17.817Z</time>
      </trkpt>
      <trkpt lat="51.4337" lon="7.31662">
        <ele>127.483236</ele>
        <time>2023-04-27T10:14:19.798Z</time>
      </trkpt>
      <trkpt lat="51.43377" lon="7.31673">
        <ele>127.461671</ele>
        <time>2023-04-27T10:14:21.793Z</time>
      </trkpt>
      <trkpt lat="51.43385" lon="7.31684">
        <ele>127.439984</ele>
        <time>2023-04-27T10:14:23.803Z</time>
      </trkpt>
      <trkpt lat="51.43393" lon="7.31694">
        <ele>127.418796</ele>
        <time>2023-04-27T10:14:25.790Z</time>
      </trkpt>
      <trkpt lat="51.434" lon="7.31704">
        <ele>127.456839</ele>
        <time>2023-04-27T10:14:27.824Z</time>
      </trkpt>
      <trkpt lat="51.4341" lon="7.31719">
        <ele>127.66683</ele>
        <time>2023-04-27T10:14:30.811Z</time>
      </trkpt>
      <trkpt lat="51.43418" lon="7.31731">
        <ele>127.845961</ele>
        <time>2023-04-27T10:14:33.831Z</time>
      </trkpt>
      <trkpt lat="51.43424" lon="7.31745">
        <ele>128.019435</ele>
        <time>2023-04-27T10:14:36.816Z</time>
      </trkpt>
      <trkpt lat="51.43431" lon="7.31758">
        <ele>128.188565</ele>
        <time>2023-04-27T10:14:40.818Z</time>
      </trkpt>
      <trkpt lat="51.43428" lon="7.31774">
        <ele>128.355096</ele>
        <time>2023-04-27T10:14:44.811Z</time>
      </trkpt>
      <trkpt lat="51.43419" lon="7.31783">
        <ele>128.527684</ele>
        <time>2023-04-27T10:14:48.810Z</time>
      </trkpt>
      <trkpt lat="51.43412" lon="7.31793">
        <ele>128.680166</ele>
        <time>2023-04-27T10:14:51.865Z</time>
      </trkpt>
      <trkpt lat="51.43404" lon="7.31804">
        <ele>128.844158</ele>
        <time>2023-04-27T10:14:54.826Z</time>
      </trkpt>
      <trkpt lat="51.43396" lon="7.31815">
        <ele>129.014653</ele>
        <time>2023-04-27T10:14:57.809Z</time>
      </trkpt>
      <trkpt lat="51.43385" lon="7.31826">
        <ele>129.211264</ele>
        <time>2023-04-27T10:15:00.810Z</time>
      </trkpt>
      <trkpt lat="51.43376" lon="7.31836">
        <ele>129.394787</ele>
        <time>2023-04-27T10:15:03.796Z</time>
      </trkpt>
      <trkpt lat="51.43367" lon="7.31849">
        <ele>129.588863</ele>
        <time>2023-04-27T10:15:06.808Z</time>
      </trkpt>
      <trkpt lat="51.43357" lon="7.31861">
        <ele>129.784119</ele>
        <time>2023-04-27T10:15:09.809Z</time>
      </trkpt>
      <trkpt lat="51.43347" lon="7.31872">
        <ele>129.981095</ele>
        <time>2023-04-27T10:15:12.817Z</time>
      </trkpt>
      <trkpt lat="51.43337" lon="7.31884">
        <ele>130.173944</ele>
        <time>2023-04-27T10:15:15.794Z</time>
      </trkpt>
      <trkpt lat="51.4333" lon="7.31893">
        <ele>130.244403</ele>
        <time>2023-04-27T10:15:17.816Z</time>
      </trkpt>
      <trkpt lat="51.43321" lon="7.31907">
        <ele>130.174308</ele>
        <time>2023-04-27T10:15:20.812Z</time>
      </trkpt>
      <trkpt lat="51.43311" lon="7.31921">
        <ele>130.103555</ele>
        <time>2023-04-27T10:15:23.810Z</time>
      </trkpt>
      <trkpt lat="51.433" lon="7.31932">
        <ele>130.034173</ele>
        <time>2023-04-27T10:15:26.819Z</time>
      </trkpt>
      <trkpt lat="51.43291" lon="7.31944">
        <ele>129.968731</ele>
        <time>2023-04-27T10:15:29.815Z</time>
      </trkpt>
      <trkpt lat="51.4328" lon="7.31958">
        <ele>129.896285</ele>
        <time>2023-04-27T10:15:32.812Z</time>
      </trkpt>
      <trkpt lat="51.43271" lon="7.31972">
        <ele>129.826035</ele>
        <time>2023-04-27T10:15:35.794Z</time>
      </trkpt>
      <trkpt lat="51.43261" lon="7.31988">
        <ele>129.751701</ele>
        <time>2023-04-27T10:15:38.830Z</time>
      </trkpt>
      <trkpt lat="51.43255" lon="7.32">
        <ele>129.697728</ele>
        <time>2023-04-27T10:15:40.836Z</time>
      </trkpt>
      <trkpt lat="51.4325" lon="7.32012">
        <ele>129.64775</ele>
        <time>2023-04-27T10:15:42.827Z</time>
      </trkpt>
      <trkpt lat="51.43244" lon="7.32025">
        <ele>129.592972</ele>
        <time>2023-04-27T10:15:44.821Z</time>
      </trkpt>
      <trkpt lat="51.43239" lon="7.32038">
        <ele>129.540811</ele>
        <time>2023-04-27T10:15:46.824Z</time>
      </trkpt>
      <trkpt lat="51.43235" lon="7.32052">
        <ele>129.48998</ele>
        <time>2023-04-27T10:15:48.804Z</time>
      </trkpt>
      <trkpt lat="51.4323" lon="7.32072">
        <ele>129.416812</ele>
        <time>2023-04-27T10:15:51.814Z</time>
      </trkpt>
      <trkpt lat="51.43226" lon="7.32086">
        <ele>129.365703</ele>
        <time>2023-04-27T10:15:53.810Z</time>
      </trkpt>
      <trkpt lat="51.43223" lon="7.32101">
        <ele>129.310752</ele>
        <time>2023-04-27T10:15:55.801Z</time>
      </trkpt>
      <trkpt lat="51.43219" lon="7.32117">
        <ele>129.249623</ele>
        <time>2023-04-27T10:15:57.831Z</time>
      </trkpt>
      <trkpt lat="51.43217" lon="7.32132">
        <ele>129.18735</ele>
        <time>2023-04-27T10:15:59.816Z</time>
      </trkpt>
      <trkpt lat="51.43214" lon="7.32148">
        <ele>129.121213</ele>
        <time>2023-04-27T10:16:01.818Z</time>
      </trkpt>
      <trkpt lat="51.43211" lon="7.32164">
        <ele>129.057718</ele>
        <time>2023-04-27T10:16:03.807Z</time>
      </trkpt>
      <trkpt lat="51.43208" lon="7.32178">
        <ele>128.999263</ele>
        <time>2023-04-27T10:16:05.801Z</time>
      </trkpt>
      <trkpt lat="51.43205" lon="7.32192">
        <ele>128.940904</ele>
        <time>2023-04-27T10:16:07.794Z</time>
      </trkpt>
      <trkpt lat="51.43202" lon="7.32207">
        <ele>128.879654</ele>
        <time>2023-04-27T10:16:09.809Z</time>
      </trkpt>
      <trkpt lat="51.432" lon="7.32222">
        <ele>128.819163</ele>
        <time>2023-04-27T10:16:11.809Z</time>
      </trkpt>
      <trkpt lat="51.43197" lon="7.32237">
        <ele>128.760504</ele>
        <time>2023-04-27T10:16:13.818Z</time>
      </trkpt>
      <trkpt lat="51.43194" lon="7.32251">
        <ele>128.699425</ele>
        <time>2023-04-27T10:16:15.808Z</time>
      </trkpt>
      <trkpt lat="51.43191" lon="7.32267">
        <ele>128.637817</ele>
        <time>2023-04-27T10:16:17.812Z</time>
      </trkpt>
      <trkpt lat="51.43188" lon="7.32282">
        <ele>128.574478</ele>
        <time>2023-04-27T10:16:19.823Z</time>
      </trkpt>
      <trkpt lat="51.43185" lon="7.32298">
        <ele>128.510814</ele>
        <time>2023-04-27T10:16:21.813Z</time>
      </trkpt>
      <trkpt lat="51.43182" lon="7.32313">
        <ele>128.447847</ele>
        <time>2023-04-27T10:16:23.816Z</time>
      </trkpt>
      <trkpt lat="51.43179" lon="7.32328">
        <ele>128.387142</ele>
        <time>2023-04-27T10:16:25.792Z</time>
      </trkpt>
      <trkpt lat="51.43176" lon="7.32343">
        <ele>128.325341</ele>
        <time>2023-04-27T10:16:27.809Z</time>
      </trkpt>
      <trkpt lat="51.43173" lon="7.32358">
        <ele>128.26389</ele>
        <time>2023-04-27T10:16:29.809Z</time>
      </trkpt>
      <trkpt lat="51.43169" lon="7.32373">
        <ele>128.200596</ele>
        <time>2023-04-27T10:16:31.815Z</time>
      </trkpt>
      <trkpt lat="51.43167" lon="7.32389">
        <ele>128.160656</ele>
        <time>2023-04-27T10:16:33.820Z</time>
      </trkpt>
      <trkpt lat="51.43164" lon="7.32403">
        <ele>128.166801</ele>
        <time>2023-04-27T10:16:35.798Z</time>
      </trkpt>
      <trkpt lat="51.43162" lon="7.32418">
        <ele>128.173018</ele>
        <time>2023-04-27T10:16:37.814Z</time>
      </trkpt>
      <trkpt lat="51.43159" lon="7.32432">
        <ele>128.178913</ele>
        <time>2023-04-27T10:16:39.811Z</time>
      </trkpt>
      <trkpt lat="51.43156" lon="7.32447">
        <ele>128.185096</ele>
        <time>2023-04-27T10:16:41.825Z</time>
      </trkpt>
      <trkpt lat="51.43153" lon="7.32461">
        <ele>128.191278</ele>
        <time>2023-04-27T10:16:43.808Z</time>
      </trkpt>
      <trkpt lat="51.4315" lon="7.32477">
        <ele>128.197651</ele>
        <time>2023-04-27T10:16:45.787Z</time>
      </trkpt>
      <trkpt lat="51.43147" lon="7.32491">
        <ele>128.203891</ele>
        <time>2023-04-27T10:16:47.820Z</time>
      </trkpt>
      <trkpt lat="51.43144" lon="7.32506">
        <ele>128.210015</ele>
        <time>2023-04-27T10:16:49.811Z</time>
      </trkpt>
      <trkpt lat="51.43141" lon="7.32521">
        <ele>128.216124</ele>
        <time>2023-04-27T10:16:51.815Z</time>
      </trkpt>
      <trkpt lat="51.43138" lon="7.32536">
        <ele>128.222535</ele>
        <time>2023-04-27T10:16:53.817Z</time>
      </trkpt>
      <trkpt lat="51.43135" lon="7.32551">
        <ele>128.22904</ele>
        <time>2023-04-27T10:16:55.799Z</time>
      </trkpt>
      <trkpt lat="51.43132" lon="7.32566">
        <ele>128.235374</ele>
        <time>2023-04-27T10:16:57.814Z</time>
      </trkpt>
      <trkpt lat="51.43128" lon="7.32581">
        <ele>128.241731</ele>
        <time>2023-04-27T10:16:59.809Z</time>
      </trkpt>
      <trkpt lat="51.43126" lon="7.32597">
        <ele>128.248211</ele>
        <time>2023-04-27T10:17:01.808Z</time>
      </trkpt>
      <trkpt lat="51.43123" lon="7.32612">
        <ele>128.254431</ele>
        <time>2023-04-27T10:17:03.806Z</time>
      </trkpt>
      <trkpt lat="51.4312" lon="7.32626">
        <ele>128.260651</ele>
        <time>2023-04-27T10:17:05.820Z</time>
      </trkpt>
      <trkpt lat="51.43117" lon="7.32642">
        <ele>128.267197</ele>
        <time>2023-04-27T10:17:07.812Z</time>
      </trkpt>
      <trkpt lat="51.43114" lon="7.32656">
        <ele>128.273348</ele>
        <time>2023-04-27T10:17:09.823Z</time>
      </trkpt>
      <trkpt lat="51.43111" lon="7.32671">
        <ele>128.266752</ele>
        <time>2023-04-27T10:17:11.809Z</time>
      </trkpt>
      <trkpt lat="51.43108" lon="7.32686">
        <ele>128.257975</ele>
        <time>2023-04-27T10:17:13.811Z</time>
      </trkpt>
      <trkpt lat="51.43105" lon="7.32701">
        <ele>128.249224</ele>
        <time>2023-04-27T10:17:15.797Z</time>
      </trkpt>
      <trkpt lat="51.43102" lon="7.32717">
        <ele>128.239826</ele>
        <time>2023-04-27T10:17:17.814Z</time>
      </trkpt>
      <trkpt lat="51.43099" lon="7.32732">
        <ele>128.230645</ele>
        <time>2023-04-27T10:17:19.833Z</time>
      </trkpt>
      <trkpt lat="51.43096" lon="7.32748">
        <ele>128.221383</ele>
        <time>2023-04-27T10:17:21.806Z</time>
      </trkpt>
      <trkpt lat="51.43093" lon="7.32763">
        <ele>128.212606</ele>
        <time>2023-04-27T10:17:23.803Z</time>
      </trkpt>
      <trkpt lat="51.4309" lon="7.32778">
        <ele>128.203479</ele>
        <time>2023-04-27T10:17:25.797Z</time>
      </trkpt>
      <trkpt lat="51.43087" lon="7.32794">
        <ele>128.194217</ele>
        <time>2023-04-27T10:17:27.812Z</time>
      </trkpt>
      <trkpt lat="51.43084" lon="7.32809">
        <ele>128.185411</ele>
        <time>2023-04-27T10:17:29.822Z</time>
      </trkpt>
      <trkpt lat="51.43081" lon="7.32825">
        <ele>128.176067</ele>
        <time>2023-04-27T10:17:31.807Z</time>
      </trkpt>
      <trkpt lat="51.43078" lon="7.3284">
        <ele>128.166875</ele>
        <time>2023-04-27T10:17:33.809Z</time>
      </trkpt>
      <trkpt lat="51.43075" lon="7.32855">
        <ele>128.157985</ele>
        <time>2023-04-27T10:17:35.790Z</time>
      </trkpt>
      <trkpt lat="51.43072" lon="7.32871">
        <ele>128.148682</ele>
        <time>2023-04-27T10:17:37.816Z</time>
      </trkpt>
      <trkpt lat="51.43069" lon="7.32886">
        <ele>128.139359</ele>
        <time>2023-04-27T10:17:39.829Z</time>
      </trkpt>
      <trkpt lat="51.43065" lon="7.32902">
        <ele>128.129856</ele>
        <time>2023-04-27T10:17:41.807Z</time>
      </trkpt>
      <trkpt lat="51.43062" lon="7.32918">
        <ele>128.12035</ele>
        <time>2023-04-27T10:17:43.819Z</time>
      </trkpt>
      <trkpt lat="51.43059" lon="7.32934">
        <ele>128.111588</ele>
        <time>2023-04-27T10:17:45.791Z</time>
      </trkpt>
      <trkpt lat="51.43055" lon="7.32951">
        <ele>128.112585</ele>
        <time>2023-04-27T10:17:47.809Z</time>
      </trkpt>
      <trkpt lat="51.43052" lon="7.32967">
        <ele>128.113553</ele>
        <time>2023-04-27T10:17:49.806Z</time>
      </trkpt>
      <trkpt lat="51.43049" lon="7.32983">
        <ele>128.11448</ele>
        <time>2023-04-27T10:17:51.809Z</time>
      </trkpt>
      <trkpt lat="51.43046" lon="7.32999">
        <ele>128.115439</ele>
        <time>2023-04-27T10:17:53.805Z</time>
      </trkpt>
      <trkpt lat="51.43043" lon="7.33016">
        <ele>128.116425</ele>
        <time>2023-04-27T10:17:55.790Z</time>
      </trkpt>
      <trkpt lat="51.43039" lon="7.33031">
        <ele>128.117359</ele>
        <time>2023-04-27T10:17:57.822Z</time>
      </trkpt>
      <trkpt lat="51.43035" lon="7.33046">
        <ele>128.118278</ele>
        <time>2023-04-27T10:17:59.830Z</time>
      </trkpt>
      <trkpt lat="51.43031" lon="7.33062">
        <ele>128.119244</ele>
        <time>2023-04-27T10:18:01.807Z</time>
      </trkpt>
      <trkpt lat="51.43028" lon="7.33079">
        <ele>128.120236</ele>
        <time>2023-04-27T10:18:03.814Z</time>
      </trkpt>
      <trkpt lat="51.43024" lon="7.33096">
        <ele>128.12125</ele>
        <time>2023-04-27T10:18:05.788Z</time>
      </trkpt>
      <trkpt lat="51.4302" lon="7.33112">
        <ele>128.122231</ele>
        <time>2023-04-27T10:18:07.807Z</time>
      </trkpt>
      <trkpt lat="51.43016" lon="7.33128">
        <ele>128.123184</ele>
        <time>2023-04-27T10:18:09.802Z</time>
      </trkpt>
      <trkpt lat="51.43013" lon="7.33143">
        <ele>128.124103</ele>
        <time>2023-04-27T10:18:11.815Z</time>
      </trkpt>
      <trkpt lat="51.43009" lon="7.33157">
        <ele>128.124942</ele>
        <time>2023-04-27T10:18:13.808Z</time>
      </trkpt>
      <trkpt lat="51.43006" lon="7.33171">
        <ele>128.125802</ele>
        <time>2023-04-27T10:18:15.795Z</time>
      </trkpt>
      <trkpt lat="51.43002" lon="7.33185">
        <ele>128.126671</ele>
        <time>2023-04-27T10:18:17.823Z</time>
      </trkpt>
      <trkpt lat="51.42999" lon="7.33199">
        <ele>128.127488</ele>
        <time>2023-04-27T10:18:19.821Z</time>
      </trkpt>
      <trkpt lat="51.42995" lon="7.33218">
        <ele>128.226697</ele>
        <time>2023-04-27T10:18:22.808Z</time>
      </trkpt>
      <trkpt lat="51.42988" lon="7.33237">
        <ele>128.369151</ele>
        <time>2023-04-27T10:18:25.799Z</time>
      </trkpt>
      <trkpt lat="51.42985" lon="7.33251">
        <ele>128.468114</ele>
        <time>2023-04-27T10:18:27.814Z</time>
      </trkpt>
      <trkpt lat="51.42982" lon="7.33264">
        <ele>128.566487</ele>
        <time>2023-04-27T10:18:29.798Z</time>
      </trkpt>
      <trkpt lat="51.42978" lon="7.33278">
        <ele>128.665485</ele>
        <time>2023-04-27T10:18:31.823Z</time>
      </trkpt>
      <trkpt lat="51.42974" lon="7.33298">
        <ele>128.810528</ele>
        <time>2023-04-27T10:18:34.811Z</time>
      </trkpt>
      <trkpt lat="51.42968" lon="7.33318">
        <ele>128.952397</ele>
        <time>2023-04-27T10:18:37.814Z</time>
      </trkpt>
      <trkpt lat="51.42965" lon="7.33331">
        <ele>129.050541</ele>
        <time>2023-04-27T10:18:39.809Z</time>
      </trkpt>
      <trkpt lat="51.4296" lon="7.33351">
        <ele>129.194084</ele>
        <time>2023-04-27T10:18:42.813Z</time>
      </trkpt>
      <trkpt lat="51.42956" lon="7.3337">
        <ele>129.325871</ele>
        <time>2023-04-27T10:18:45.793Z</time>
      </trkpt>
      <trkpt lat="51.42951" lon="7.33387">
        <ele>129.452378</ele>
        <time>2023-04-27T10:18:48.804Z</time>
      </trkpt>
      <trkpt lat="51.42948" lon="7.33404">
        <ele>129.568857</ele>
        <time>2023-04-27T10:18:51.809Z</time>
      </trkpt>
      <trkpt lat="51.42945" lon="7.3342">
        <ele>129.684327</ele>
        <time>2023-04-27T10:18:54.813Z</time>
      </trkpt>
      <trkpt lat="51.42942" lon="7.33436">
        <ele>129.795117</ele>
        <time>2023-04-27T10:18:57.809Z</time>
      </trkpt>
      <trkpt lat="51.42937" lon="7.3345">
        <ele>129.899794</ele>
        <time>2023-04-27T10:19:01.797Z</time>
      </trkpt>
      <trkpt lat="51.42935" lon="7.33469">
        <ele>130.034145</ele>
        <time>2023-04-27T10:19:40.812Z</time>
      </trkpt>
      <trkpt lat="51.4293" lon="7.33482">
        <ele>130.113644</ele>
        <time>2023-04-27T10:19:44.814Z</time>
      </trkpt>
      <trkpt lat="51.42925" lon="7.33495">
        <ele>130.191977</ele>
        <time>2023-04-27T10:19:48.800Z</time>
      </trkpt>
      <trkpt lat="51.4292" lon="7.33511">
        <ele>130.284901</ele>
        <time>2023-04-27T10:19:52.811Z</time>
      </trkpt>
      <trkpt lat="51.42917" lon="7.33527">
        <ele>130.368738</ele>
        <time>2023-04-27T10:19:56.828Z</time>
      </trkpt>
      <trkpt lat="51.42916" lon="7.33541">
        <ele>130.442377</ele>
        <time>2023-04-27T10:19:59.820Z</time>
      </trkpt>
      <trkpt lat="51.42911" lon="7.3356">
        <ele>130.541354</ele>
        <time>2023-04-27T10:20:03.795Z</time>
      </trkpt>
      <trkpt lat="51.42907" lon="7.33574">
        <ele>130.62013</ele>
        <time>2023-04-27T10:20:06.829Z</time>
      </trkpt>
      <trkpt lat="51.429" lon="7.33584">
        <ele>130.693966</ele>
        <time>2023-04-27T10:20:09.800Z</time>
      </trkpt>
      <trkpt lat="51.42891" lon="7.33588">
        <ele>130.77156</ele>
        <time>2023-04-27T10:20:12.803Z</time>
      </trkpt>
      <trkpt lat="51.42881" lon="7.33588">
        <ele>130.85777</ele>
        <time>2023-04-27T10:20:15.803Z</time>
      </trkpt>
      <trkpt lat="51.4287" lon="7.33586">
        <ele>130.94836</ele>
        <time>2023-04-27T10:20:18.817Z</time>
      </trkpt>
      <trkpt lat="51.42857" lon="7.33585">
        <ele>131.04957</ele>
        <time>2023-04-27T10:20:21.812Z</time>
      </trkpt>
      <trkpt lat="51.42844" lon="7.33583">
        <ele>131.153095</ele>
        <time>2023-04-27T10:20:24.812Z</time>
      </trkpt>
      <trkpt lat="51.42832" lon="7.3358">
        <ele>131.255959</ele>
        <time>2023-04-27T10:20:27.807Z</time>
      </trkpt>
      <trkpt lat="51.4282" lon="7.33576">
        <ele>131.352225</ele>
        <time>2023-04-27T10:20:30.798Z</time>
      </trkpt>
      <trkpt lat="51.42811" lon="7.33568">
        <ele>131.439362</ele>
        <time>2023-04-27T10:20:33.804Z</time>
      </trkpt>
      <trkpt lat="51.42802" lon="7.33563">
        <ele>131.513901</ele>
        <time>2023-04-27T10:20:36.827Z</time>
      </trkpt>
      <trkpt lat="51.42792" lon="7.33557">
        <ele>131.545356</ele>
        <time>2023-04-27T10:20:40.812Z</time>
      </trkpt>
      <trkpt lat="51.42784" lon="7.33551">
        <ele>131.566085</ele>
        <time>2023-04-27T10:20:43.813Z</time>
      </trkpt>
      <trkpt lat="51.42774" lon="7.33546">
        <ele>131.589114</ele>
        <time>2023-04-27T10:20:46.814Z</time>
      </trkpt>
      <trkpt lat="51.42764" lon="7.3354">
        <ele>131.612213</ele>
        <time>2023-04-27T10:20:50.810Z</time>
      </trkpt>
      <trkpt lat="51.42755" lon="7.33532">
        <ele>131.637344</ele>
        <time>2023-04-27T10:20:55.784Z</time>
      </trkpt>
      <trkpt lat="51.42746" lon="7.33528">
        <ele>131.658423</ele>
        <time>2023-04-27T10:20:59.810Z</time>
      </trkpt>
      <trkpt lat="51.42736" lon="7.33522">
        <ele>131.682475</ele>
        <time>2023-04-27T10:21:05.800Z</time>
      </trkpt>
      <trkpt lat="51.42726" lon="7.33517">
        <ele>131.705199</ele>
        <time>2023-04-27T10:21:11.801Z</time>
      </trkpt>
      <trkpt lat="51.42717" lon="7.3351">
        <ele>131.7293</ele>
        <time>2023-04-27T10:21:15.801Z</time>
      </trkpt>
      <trkpt lat="51.42706" lon="7.33503">
        <ele>131.755008</ele>
        <time>2023-04-27T10:21:19.818Z</time>
      </trkpt>
      <trkpt lat="51.42698" lon="7.33497">
        <ele>131.776103</ele>
        <time>2023-04-27T10:21:22.823Z</time>
      </trkpt>
      <trkpt lat="51.42687" lon="7.33491">
        <ele>131.801369</ele>
        <time>2023-04-27T10:21:25.803Z</time>
      </trkpt>
      <trkpt lat="51.42676" lon="7.33485">
        <ele>131.82825</ele>
        <time>2023-04-27T10:21:28.828Z</time>
      </trkpt>
      <trkpt lat="51.42664" lon="7.33478">
        <ele>131.856821</ele>
        <time>2023-04-27T10:21:31.811Z</time>
      </trkpt>
      <trkpt lat="51.42653" lon="7.33471">
        <ele>131.884826</ele>
        <time>2023-04-27T10:21:34.811Z</time>
      </trkpt>
      <trkpt lat="51.42641" lon="7.33468">
        <ele>131.912674</ele>
        <time>2023-04-27T10:21:37.802Z</time>
      </trkpt>
      <trkpt lat="51.42628" lon="7.33468">
        <ele>132.031676</ele>
        <time>2023-04-27T10:21:40.793Z</time>
      </trkpt>
      <trkpt lat="51.42617" lon="7.33472">
        <ele>132.313336</ele>
        <time>2023-04-27T10:21:43.808Z</time>
      </trkpt>
      <trkpt lat="51.42607" lon="7.3348">
        <ele>132.603575</ele>
        <time>2023-04-27T10:21:46.804Z</time>
      </trkpt>
      <trkpt lat="51.42599" lon="7.33494">
        <ele>132.899809</ele>
        <time>2023-04-27T10:21:49.821Z</time>
      </trkpt>
      <trkpt lat="51.42594" lon="7.3351">
        <ele>133.181328</ele>
        <time>2023-04-27T10:21:52.798Z</time>
      </trkpt>
      <trkpt lat="51.4259" lon="7.33525">
        <ele>133.443989</ele>
        <time>2023-04-27T10:21:55.798Z</time>
      </trkpt>
      <trkpt lat="51.42587" lon="7.33541">
        <ele>133.702058</ele>
        <time>2023-04-27T10:21:58.814Z</time>
      </trkpt>
      <trkpt lat="51.42583" lon="7.33556">
        <ele>133.957499</ele>
        <time>2023-04-27T10:22:01.811Z</time>
      </trkpt>
      <trkpt lat="51.4258" lon="7.3357">
        <ele>134.201765</ele>
        <time>2023-04-27T10:22:04.828Z</time>
      </trkpt>
      <trkpt lat="51.42575" lon="7.33584">
        <ele>134.437897</ele>
        <time>2023-04-27T10:22:07.812Z</time>
      </trkpt>
      <trkpt lat="51.4257" lon="7.336">
        <ele>134.723372</ele>
        <time>2023-04-27T10:22:11.818Z</time>
      </trkpt>
      <trkpt lat="51.42565" lon="7.33612">
        <ele>134.951832</ele>
        <time>2023-04-27T10:22:15.803Z</time>
      </trkpt>
      <trkpt lat="51.42563" lon="7.33629">
        <ele>135.228796</ele>
        <time>2023-04-27T10:25:24.780Z</time>
      </trkpt>
      <trkpt lat="51.42561" lon="7.33646">
        <ele>135.488331</ele>
        <time>2023-04-27T10:25:29.773Z</time>
      </trkpt>
      <trkpt lat="51.42559" lon="7.33661">
        <ele>135.745613</ele>
        <time>2023-04-27T10:25:33.789Z</time>
      </trkpt>
      <trkpt lat="51.42555" lon="7.33679">
        <ele>136.041824</ele>
        <time>2023-04-27T10:25:36.781Z</time>
      </trkpt>
      <trkpt lat="51.42551" lon="7.33692">
        <ele>136.277061</ele>
        <time>2023-04-27T10:25:38.795Z</time>
      </trkpt>
      <trkpt lat="51.42545" lon="7.33707">
        <ele>136.423378</ele>
        <time>2023-04-27T10:25:40.783Z</time>
      </trkpt>
      <trkpt lat="51.4254" lon="7.33723">
        <ele>136.214841</ele>
        <time>2023-04-27T10:25:42.802Z</time>
      </trkpt>
      <trkpt lat="51.42536" lon="7.33739">
        <ele>136.021379</ele>
        <time>2023-04-27T10:25:44.806Z</time>
      </trkpt>
      <trkpt lat="51.42533" lon="7.33753">
        <ele>135.852004</ele>
        <time>2023-04-27T10:25:46.823Z</time>
      </trkpt>
      <trkpt lat="51.42533" lon="7.33768">
        <ele>135.688432</ele>
        <time>2023-04-27T10:25:48.803Z</time>
      </trkpt>
      <trkpt lat="51.4253" lon="7.33782">
        <ele>135.516842</ele>
        <time>2023-04-27T10:25:51.808Z</time>
      </trkpt>
      <trkpt lat="51.42521" lon="7.33792">
        <ele>135.320082</ele>
        <time>2023-04-27T10:25:55.808Z</time>
      </trkpt>
      <trkpt lat="51.42517" lon="7.33807">
        <ele>135.132078</ele>
        <time>2023-04-27T10:25:58.824Z</time>
      </trkpt>
      <trkpt lat="51.42514" lon="7.33821">
        <ele>134.964863</ele>
        <time>2023-04-27T10:26:01.799Z</time>
      </trkpt>
      <trkpt lat="51.4251" lon="7.33838">
        <ele>134.76651</ele>
        <time>2023-04-27T10:26:05.788Z</time>
      </trkpt>
      <trkpt lat="51.42506" lon="7.33852">
        <ele>134.583787</ele>
        <time>2023-04-27T10:26:09.803Z</time>
      </trkpt>
      <trkpt lat="51.42502" lon="7.33868">
        <ele>134.399163</ele>
        <time>2023-04-27T10:26:12.825Z</time>
      </trkpt>
      <trkpt lat="51.425" lon="7.33883">
        <ele>134.224956</ele>
        <time>2023-04-27T10:26:15.791Z</time>
      </trkpt>
      <trkpt lat="51.42497" lon="7.339">
        <ele>134.021125</ele>
        <time>2023-04-27T10:26:18.824Z</time>
      </trkpt>
      <trkpt lat="51.42492" lon="7.33918">
        <ele>133.80028</ele>
        <time>2023-04-27T10:26:21.809Z</time>
      </trkpt>
      <trkpt lat="51.42488" lon="7.33938">
        <ele>133.568368</ele>
        <time>2023-04-27T10:26:24.813Z</time>
      </trkpt>
      <trkpt lat="51.42483" lon="7.33957">
        <ele>133.329084</ele>
        <time>2023-04-27T10:26:27.816Z</time>
      </trkpt>
      <trkpt lat="51.42479" lon="7.33978">
        <ele>133.220013</ele>
        <time>2023-04-27T10:26:30.796Z</time>
      </trkpt>
      <trkpt lat="51.42476" lon="7.33992">
        <ele>133.214739</ele>
        <time>2023-04-27T10:26:32.827Z</time>
      </trkpt>
      <trkpt lat="51.42473" lon="7.34006">
        <ele>133.209356</ele>
        <time>2023-04-27T10:26:34.814Z</time>
      </trkpt>
      <trkpt lat="51.4247" lon="7.3402">
        <ele>133.204045</ele>
        <time>2023-04-27T10:26:36.815Z</time>
      </trkpt>
      <trkpt lat="51.42467" lon="7.34035">
        <ele>133.198606</ele>
        <time>2023-04-27T10:26:38.813Z</time>
      </trkpt>
      <trkpt lat="51.42466" lon="7.34049">
        <ele>133.193493</ele>
        <time>2023-04-27T10:26:40.817Z</time>
      </trkpt>
      <trkpt lat="51.42461" lon="7.34063">
        <ele>133.18807</ele>
        <time>2023-04-27T10:26:42.809Z</time>
      </trkpt>
      <trkpt lat="51.42459" lon="7.34076">
        <ele>133.18293</ele>
        <time>2023-04-27T10:26:44.819Z</time>
      </trkpt>
      <trkpt lat="51.42456" lon="7.3409">
        <ele>133.177787</ele>
        <time>2023-04-27T10:26:46.817Z</time>
      </trkpt>
      <trkpt lat="51.42453" lon="7.34105">
        <ele>133.172446</ele>
        <time>2023-04-27T10:26:48.819Z</time>
      </trkpt>
      <trkpt lat="51.42451" lon="7.34119">
        <ele>133.167256</ele>
        <time>2023-04-27T10:26:50.814Z</time>
      </trkpt>
      <trkpt lat="51.42448" lon="7.34133">
        <ele>133.161893</ele>
        <time>2023-04-27T10:26:52.819Z</time>
      </trkpt>
      <trkpt lat="51.42444" lon="7.34147">
        <ele>133.156543</ele>
        <time>2023-04-27T10:26:54.809Z</time>
      </trkpt>
      <trkpt lat="51.42441" lon="7.34162">
        <ele>133.150998</ele>
        <time>2023-04-27T10:26:56.828Z</time>
      </trkpt>
      <trkpt lat="51.42438" lon="7.34177">
        <ele>133.145385</ele>
        <time>2023-04-27T10:26:58.810Z</time>
      </trkpt>
      <trkpt lat="51.42435" lon="7.34191">
        <ele>133.139955</ele>
        <time>2023-04-27T10:27:00.816Z</time>
      </trkpt>
      <trkpt lat="51.42431" lon="7.34207">
        <ele>133.133906</ele>
        <time>2023-04-27T10:27:02.802Z</time>
      </trkpt>
      <trkpt lat="51.42428" lon="7.34223">
        <ele>133.128174</ele>
        <time>2023-04-27T10:27:04.820Z</time>
      </trkpt>
      <trkpt lat="51.42426" lon="7.34238">
        <ele>133.122628</ele>
        <time>2023-04-27T10:27:06.829Z</time>
      </trkpt>
      <trkpt lat="51.42422" lon="7.34253">
        <ele>133.084613</ele>
        <time>2023-04-27T10:27:08.804Z</time>
      </trkpt>
      <trkpt lat="51.42419" lon="7.34268">
        <ele>133.042639</ele>
        <time>2023-04-27T10:27:10.821Z</time>
      </trkpt>
      <trkpt lat="51.42414" lon="7.34287">
        <ele>132.985792</ele>
        <time>2023-04-27T10:27:13.825Z</time>
      </trkpt>
      <trkpt lat="51.4241" lon="7.34301">
        <ele>132.945807</ele>
        <time>2023-04-27T10:27:15.840Z</time>
      </trkpt>
      <trkpt lat="51.42407" lon="7.34315">
        <ele>132.903012</ele>
        <time>2023-04-27T10:27:17.806Z</time>
      </trkpt>
      <trkpt lat="51.42403" lon="7.3433">
        <ele>132.859523</ele>
        <time>2023-04-27T10:27:19.824Z</time>
      </trkpt>
      <trkpt lat="51.424" lon="7.34344">
        <ele>132.818641</ele>
        <time>2023-04-27T10:27:21.811Z</time>
      </trkpt>
      <trkpt lat="51.42396" lon="7.34358">
        <ele>132.779172</ele>
        <time>2023-04-27T10:27:23.827Z</time>
      </trkpt>
      <trkpt lat="51.42392" lon="7.34371">
        <ele>132.738728</ele>
        <time>2023-04-27T10:27:25.800Z</time>
      </trkpt>
      <trkpt lat="51.42387" lon="7.34385">
        <ele>132.697459</ele>
        <time>2023-04-27T10:27:27.814Z</time>
      </trkpt>
      <trkpt lat="51.42383" lon="7.34398">
        <ele>132.656813</ele>
        <time>2023-04-27T10:27:29.815Z</time>
      </trkpt>
      <trkpt lat="51.42378" lon="7.34411">
        <ele>132.617145</ele>
        <time>2023-04-27T10:27:31.819Z</time>
      </trkpt>
      <trkpt lat="51.42373" lon="7.34423">
        <ele>132.577284</ele>
        <time>2023-04-27T10:27:33.806Z</time>
      </trkpt>
      <trkpt lat="51.42369" lon="7.34437">
        <ele>132.536261</ele>
        <time>2023-04-27T10:27:35.801Z</time>
      </trkpt>
      <trkpt lat="51.42363" lon="7.34456">
        <ele>132.477782</ele>
        <time>2023-04-27T10:27:38.814Z</time>
      </trkpt>
      <trkpt lat="51.42358" lon="7.34469">
        <ele>132.438113</ele>
        <time>2023-04-27T10:27:40.810Z</time>
      </trkpt>
      <trkpt lat="51.42354" lon="7.34481">
        <ele>132.39893</ele>
        <time>2023-04-27T10:27:42.821Z</time>
      </trkpt>
      <trkpt lat="51.42349" lon="7.34494">
        <ele>132.359069</ele>
        <time>2023-04-27T10:27:44.820Z</time>
      </trkpt>
      <trkpt lat="51.42345" lon="7.34507">
        <ele>132.318526</ele>
        <time>2023-04-27T10:27:46.816Z</time>
      </trkpt>
      <trkpt lat="51.4234" lon="7.3452">
        <ele>132.274932</ele>
        <time>2023-04-27T10:27:48.810Z</time>
      </trkpt>
      <trkpt lat="51.42335" lon="7.34533">
        <ele>132.232438</ele>
        <time>2023-04-27T10:27:50.808Z</time>
      </trkpt>
      <trkpt lat="51.4233" lon="7.34545">
        <ele>132.190332</ele>
        <time>2023-04-27T10:27:52.829Z</time>
      </trkpt>
      <trkpt lat="51.42325" lon="7.34557">
        <ele>132.147814</ele>
        <time>2023-04-27T10:27:54.834Z</time>
      </trkpt>
      <trkpt lat="51.42319" lon="7.3457">
        <ele>132.104595</ele>
        <time>2023-04-27T10:27:56.829Z</time>
      </trkpt>
      <trkpt lat="51.42314" lon="7.34583">
        <ele>132.060889</ele>
        <time>2023-04-27T10:27:58.822Z</time>
      </trkpt>
      <trkpt lat="51.4231" lon="7.34596">
        <ele>132.018085</ele>
        <time>2023-04-27T10:28:00.820Z</time>
      </trkpt>
      <trkpt lat="51.42302" lon="7.34613">
        <ele>131.957342</ele>
        <time>2023-04-27T10:28:03.800Z</time>
      </trkpt>
      <trkpt lat="51.42296" lon="7.34627">
        <ele>131.911221</ele>
        <time>2023-04-27T10:28:05.844Z</time>
      </trkpt>
      <trkpt lat="51.4229" lon="7.3464">
        <ele>131.865383</ele>
        <time>2023-04-27T10:28:07.790Z</time>
      </trkpt>
      <trkpt lat="51.42284" lon="7.34653">
        <ele>131.817832</ele>
        <time>2023-04-27T10:28:09.809Z</time>
      </trkpt>
      <trkpt lat="51.42277" lon="7.34665">
        <ele>131.770793</ele>
        <time>2023-04-27T10:28:11.807Z</time>
      </trkpt>
      <trkpt lat="51.42271" lon="7.34678">
        <ele>131.726536</ele>
        <time>2023-04-27T10:28:13.829Z</time>
      </trkpt>
      <trkpt lat="51.42266" lon="7.3469">
        <ele>131.684229</ele>
        <time>2023-04-27T10:28:15.804Z</time>
      </trkpt>
      <trkpt lat="51.42261" lon="7.34702">
        <ele>131.642083</ele>
        <time>2023-04-27T10:28:17.808Z</time>
      </trkpt>
      <trkpt lat="51.42255" lon="7.34714">
        <ele>131.599125</ele>
        <time>2023-04-27T10:28:19.811Z</time>
      </trkpt>
      <trkpt lat="51.42248" lon="7.34723">
        <ele>131.556726</ele>
        <time>2023-04-27T10:28:21.792Z</time>
      </trkpt>
      <trkpt lat="51.4224" lon="7.34733">
        <ele>131.516504</ele>
        <time>2023-04-27T10:28:23.807Z</time>
      </trkpt>
      <trkpt lat="51.42234" lon="7.34744">
        <ele>131.486061</ele>
        <time>2023-04-27T10:28:25.802Z</time>
      </trkpt>
      <trkpt lat="51.42227" lon="7.34755">
        <ele>131.455929</ele>
        <time>2023-04-27T10:28:27.814Z</time>
      </trkpt>
      <trkpt lat="51.42219" lon="7.34765">
        <ele>131.424504</ele>
        <time>2023-04-27T10:28:29.825Z</time>
      </trkpt>
      <trkpt lat="51.42212" lon="7.34774">
        <ele>131.394941</ele>
        <time>2023-04-27T10:28:31.825Z</time>
      </trkpt>
      <trkpt lat="51.42202" lon="7.34788">
        <ele>131.352307</ele>
        <time>2023-04-27T10:28:34.819Z</time>
      </trkpt>
      <trkpt lat="51.42192" lon="7.34801">
        <ele>131.309924</ele>
        <time>2023-04-27T10:28:37.812Z</time>
      </trkpt>
      <trkpt lat="51.42181" lon="7.34814">
        <ele>131.267363</ele>
        <time>2023-04-27T10:28:40.819Z</time>
      </trkpt>
      <trkpt lat="51.42173" lon="7.34822">
        <ele>131.236851</ele>
        <time>2023-04-27T10:28:42.809Z</time>
      </trkpt>
      <trkpt lat="51.42165" lon="7.3483">
        <ele>131.207047</ele>
        <time>2023-04-27T10:28:44.801Z</time>
      </trkpt>
      <trkpt lat="51.42157" lon="7.3484">
        <ele>131.174756</ele>
        <time>2023-04-27T10:28:46.817Z</time>
      </trkpt>
      <trkpt lat="51.42149" lon="7.34849">
        <ele>131.143979</ele>
        <time>2023-04-27T10:28:48.810Z</time>
      </trkpt>
      <trkpt lat="51.42141" lon="7.34857">
        <ele>131.112931</ele>
        <time>2023-04-27T10:28:50.815Z</time>
      </trkpt>
      <trkpt lat="51.42132" lon="7.34863">
        <ele>131.083254</ele>
        <time>2023-04-27T10:28:52.809Z</time>
      </trkpt>
      <trkpt lat="51.42124" lon="7.34868">
        <ele>131.05422</ele>
        <time>2023-04-27T10:28:54.811Z</time>
      </trkpt>
      <trkpt lat="51.42115" lon="7.34874">
        <ele>131.024297</ele>
        <time>2023-04-27T10:28:56.832Z</time>
      </trkpt>
      <trkpt lat="51.42104" lon="7.34883">
        <ele>130.985478</ele>
        <time>2023-04-27T10:28:59.811Z</time>
      </trkpt>
      <trkpt lat="51.42093" lon="7.34892">
        <ele>130.95223</ele>
        <time>2023-04-27T10:29:02.800Z</time>
      </trkpt>
      <trkpt lat="51.42081" lon="7.34899">
        <ele>130.993319</ele>
        <time>2023-04-27T10:29:05.816Z</time>
      </trkpt>
      <trkpt lat="51.42071" lon="7.34904">
        <ele>131.02894</ele>
        <time>2023-04-27T10:29:08.817Z</time>
      </trkpt>
      <trkpt lat="51.42059" lon="7.34907">
        <ele>131.070449</ele>
        <time>2023-04-27T10:29:11.806Z</time>
      </trkpt>
      <trkpt lat="51.42047" lon="7.34912">
        <ele>131.110872</ele>
        <time>2023-04-27T10:29:14.811Z</time>
      </trkpt>
      <trkpt lat="51.42035" lon="7.34916">
        <ele>131.153785</ele>
        <time>2023-04-27T10:29:17.808Z</time>
      </trkpt>
      <trkpt lat="51.42022" lon="7.3492">
        <ele>131.197855</ele>
        <time>2023-04-27T10:29:20.815Z</time>
      </trkpt>
      <trkpt lat="51.42009" lon="7.34925">
        <ele>131.242958</ele>
        <time>2023-04-27T10:29:23.823Z</time>
      </trkpt>
      <trkpt lat="51.41995" lon="7.34927">
        <ele>131.288685</ele>
        <time>2023-04-27T10:29:26.827Z</time>
      </trkpt>
      <trkpt lat="51.41983" lon="7.34929">
        <ele>131.332003</ele>
        <time>2023-04-27T10:29:29.800Z</time>
      </trkpt>
      <trkpt lat="51.4197" lon="7.34931">
        <ele>131.373624</ele>
        <time>2023-04-27T10:29:32.810Z</time>
      </trkpt>
      <trkpt lat="51.41961" lon="7.34932">
        <ele>131.404765</ele>
        <time>2023-04-27T10:29:34.815Z</time>
      </trkpt>
      <trkpt lat="51.41948" lon="7.34932">
        <ele>131.448574</ele>
        <time>2023-04-27T10:29:37.810Z</time>
      </trkpt>
      <trkpt lat="51.41936" lon="7.34935">
        <ele>131.490409</ele>
        <time>2023-04-27T10:29:40.817Z</time>
      </trkpt>
      <trkpt lat="51.41922" lon="7.34934">
        <ele>131.535299</ele>
        <time>2023-04-27T10:29:43.810Z</time>
      </trkpt>
      <trkpt lat="51.4191" lon="7.34933">
        <ele>131.560876</ele>
        <time>2023-04-27T10:29:46.809Z</time>
      </trkpt>
      <trkpt lat="51.41897" lon="7.3493">
        <ele>131.57399</ele>
        <time>2023-04-27T10:29:49.808Z</time>
      </trkpt>
      <trkpt lat="51.41887" lon="7.34927">
        <ele>131.584793</ele>
        <time>2023-04-27T10:29:52.813Z</time>
      </trkpt>
      <trkpt lat="51.41877" lon="7.34925">
        <ele>131.594497</ele>
        <time>2023-04-27T10:29:55.801Z</time>
      </trkpt>
      <trkpt lat="51.41867" lon="7.34922">
        <ele>131.604705</ele>
        <time>2023-04-27T10:29:59.818Z</time>
      </trkpt>
      <trkpt lat="51.41858" lon="7.34921">
        <ele>131.614822</ele>
        <time>2023-04-27T10:30:03.812Z</time>
      </trkpt>
      <trkpt lat="51.41848" lon="7.34916">
        <ele>131.624948</ele>
        <time>2023-04-27T10:30:06.788Z</time>
      </trkpt>
      <trkpt lat="51.4184" lon="7.34911">
        <ele>131.634169</ele>
        <time>2023-04-27T10:30:08.813Z</time>
      </trkpt>
      <trkpt lat="51.41831" lon="7.34906">
        <ele>131.643411</ele>
        <time>2023-04-27T10:30:10.806Z</time>
      </trkpt>
      <trkpt lat="51.41819" lon="7.34899">
        <ele>131.656416</ele>
        <time>2023-04-27T10:30:13.812Z</time>
      </trkpt>
      <trkpt lat="51.41807" lon="7.34893">
        <ele>131.669145</ele>
        <time>2023-04-27T10:30:16.813Z</time>
      </trkpt>
      <trkpt lat="51.41796" lon="7.34885">
        <ele>131.681582</ele>
        <time>2023-04-27T10:30:19.790Z</time>
      </trkpt>
      <trkpt lat="51.41786" lon="7.34878">
        <ele>131.692577</ele>
        <time>2023-04-27T10:30:22.797Z</time>
      </trkpt>
      <trkpt lat="51.41776" lon="7.34872">
        <ele>131.70371</ele>
        <time>2023-04-27T10:30:25.802Z</time>
      </trkpt>
      <trkpt lat="51.41766" lon="7.34864">
        <ele>131.71524</ele>
        <time>2023-04-27T10:30:28.815Z</time>
      </trkpt>
      <trkpt lat="51.41757" lon="7.34857">
        <ele>131.724648</ele>
        <time>2023-04-27T10:30:30.815Z</time>
      </trkpt>
      <trkpt lat="51.41747" lon="7.34847">
        <ele>131.734545</ele>
        <time>2023-04-27T10:30:33.822Z</time>
      </trkpt>
      <trkpt lat="51.41735" lon="7.34838">
        <ele>131.621309</ele>
        <time>2023-04-27T10:30:36.810Z</time>
      </trkpt>
      <trkpt lat="51.41727" lon="7.34833">
        <ele>131.541631</ele>
        <time>2023-04-27T10:30:38.827Z</time>
      </trkpt>
      <trkpt lat="51.41718" lon="7.34826">
        <ele>131.457842</ele>
        <time>2023-04-27T10:30:40.814Z</time>
      </trkpt>
      <trkpt lat="51.4171" lon="7.34819">
        <ele>131.378005</ele>
        <time>2023-04-27T10:30:42.824Z</time>
      </trkpt>
      <trkpt lat="51.41701" lon="7.34813">
        <ele>131.295318</ele>
        <time>2023-04-27T10:30:44.821Z</time>
      </trkpt>
      <trkpt lat="51.41692" lon="7.34807">
        <ele>131.214243</ele>
        <time>2023-04-27T10:30:46.826Z</time>
      </trkpt>
      <trkpt lat="51.41681" lon="7.34799">
        <ele>131.110436</ele>
        <time>2023-04-27T10:30:49.815Z</time>
      </trkpt>
      <trkpt lat="51.41669" lon="7.34789">
        <ele>130.993061</ele>
        <time>2023-04-27T10:30:52.809Z</time>
      </trkpt>
      <trkpt lat="51.4166" lon="7.34784">
        <ele>130.910329</ele>
        <time>2023-04-27T10:30:54.809Z</time>
      </trkpt>
      <trkpt lat="51.41648" lon="7.34775">
        <ele>130.795066</ele>
        <time>2023-04-27T10:30:57.817Z</time>
      </trkpt>
      <trkpt lat="51.4164" lon="7.34768">
        <ele>130.712674</ele>
        <time>2023-04-27T10:30:59.810Z</time>
      </trkpt>
      <trkpt lat="51.41631" lon="7.34763">
        <ele>130.635412</ele>
        <time>2023-04-27T10:31:01.814Z</time>
      </trkpt>
      <trkpt lat="51.4162" lon="7.34754">
        <ele>130.5288</ele>
        <time>2023-04-27T10:31:04.790Z</time>
      </trkpt>
      <trkpt lat="51.4161" lon="7.34746">
        <ele>130.429045</ele>
        <time>2023-04-27T10:31:07.814Z</time>
      </trkpt>
      <trkpt lat="51.41598" lon="7.34738">
        <ele>130.318182</ele>
        <time>2023-04-27T10:31:10.817Z</time>
      </trkpt>
      <trkpt lat="51.41587" lon="7.3473">
        <ele>130.210016</ele>
        <time>2023-04-27T10:31:13.781Z</time>
      </trkpt>
      <trkpt lat="51.41574" lon="7.34722">
        <ele>130.238711</ele>
        <time>2023-04-27T10:31:16.811Z</time>
      </trkpt>
      <trkpt lat="51.41563" lon="7.34713">
        <ele>130.311788</ele>
        <time>2023-04-27T10:31:19.788Z</time>
      </trkpt>
      <trkpt lat="51.41552" lon="7.34705">
        <ele>130.381136</ele>
        <time>2023-04-27T10:31:22.809Z</time>
      </trkpt>
      <trkpt lat="51.41541" lon="7.34695">
        <ele>130.451877</ele>
        <time>2023-04-27T10:31:25.789Z</time>
      </trkpt>
      <trkpt lat="51.41531" lon="7.34684">
        <ele>130.52373</ele>
        <time>2023-04-27T10:31:28.817Z</time>
      </trkpt>
      <trkpt lat="51.41523" lon="7.34677">
        <ele>130.576783</ele>
        <time>2023-04-27T10:31:30.809Z</time>
      </trkpt>
      <trkpt lat="51.41511" lon="7.34669">
        <ele>130.651423</ele>
        <time>2023-04-27T10:31:33.791Z</time>
      </trkpt>
      <trkpt lat="51.41499" lon="7.34659">
        <ele>130.72442</ele>
        <time>2023-04-27T10:31:36.807Z</time>
      </trkpt>
      <trkpt lat="51.41487" lon="7.34652">
        <ele>130.799383</ele>
        <time>2023-04-27T10:31:39.816Z</time>
      </trkpt>
      <trkpt lat="51.41475" lon="7.34646">
        <ele>130.874794</ele>
        <time>2023-04-27T10:31:42.810Z</time>
      </trkpt>
      <trkpt lat="51.41466" lon="7.34639">
        <ele>130.928038</ele>
        <time>2023-04-27T10:31:44.808Z</time>
      </trkpt>
      <trkpt lat="51.41455" lon="7.34632">
        <ele>130.99912</ele>
        <time>2023-04-27T10:31:47.820Z</time>
      </trkpt>
      <trkpt lat="51.41444" lon="7.34622">
        <ele>131.070079</ele>
        <time>2023-04-27T10:31:50.819Z</time>
      </trkpt>
      <trkpt lat="51.41433" lon="7.34614">
        <ele>131.141139</ele>
        <time>2023-04-27T10:31:53.806Z</time>
      </trkpt>
      <trkpt lat="51.41422" lon="7.34606">
        <ele>131.20826</ele>
        <time>2023-04-27T10:31:56.809Z</time>
      </trkpt>
      <trkpt lat="51.41413" lon="7.34598">
        <ele>131.165277</ele>
        <time>2023-04-27T10:31:59.804Z</time>
      </trkpt>
      <trkpt lat="51.41403" lon="7.34591">
        <ele>131.102374</ele>
        <time>2023-04-27T10:32:02.825Z</time>
      </trkpt>
      <trkpt lat="51.41392" lon="7.34583">
        <ele>131.035039</ele>
        <time>2023-04-27T10:32:05.786Z</time>
      </trkpt>
      <trkpt lat="51.4138" lon="7.34575">
        <ele>130.966338</ele>
        <time>2023-04-27T10:32:08.829Z</time>
      </trkpt>
      <trkpt lat="51.41369" lon="7.34566">
        <ele>130.899436</ele>
        <time>2023-04-27T10:32:11.797Z</time>
      </trkpt>
      <trkpt lat="51.41357" lon="7.34558">
        <ele>130.826043</ele>
        <time>2023-04-27T10:32:14.814Z</time>
      </trkpt>
      <trkpt lat="51.41345" lon="7.3455">
        <ele>130.753901</ele>
        <time>2023-04-27T10:32:17.801Z</time>
      </trkpt>
      <trkpt lat="51.41336" lon="7.34544">
        <ele>130.702498</ele>
        <time>2023-04-27T10:32:19.815Z</time>
      </trkpt>
      <trkpt lat="51.41325" lon="7.34536">
        <ele>130.631666</ele>
        <time>2023-04-27T10:32:22.809Z</time>
      </trkpt>
      <trkpt lat="51.41316" lon="7.34532">
        <ele>130.580551</ele>
        <time>2023-04-27T10:32:24.820Z</time>
      </trkpt>
      <trkpt lat="51.41303" lon="7.34526">
        <ele>130.508562</ele>
        <time>2023-04-27T10:32:27.802Z</time>
      </trkpt>
      <trkpt lat="51.4129" lon="7.3452">
        <ele>130.435725</ele>
        <time>2023-04-27T10:32:30.810Z</time>
      </trkpt>
      <trkpt lat="51.41282" lon="7.34516">
        <ele>130.385566</ele>
        <time>2023-04-27T10:32:32.816Z</time>
      </trkpt>
      <trkpt lat="51.41269" lon="7.3451">
        <ele>130.31262</ele>
        <time>2023-04-27T10:32:35.800Z</time>
      </trkpt>
      <trkpt lat="51.41256" lon="7.34505">
        <ele>130.240672</ele>
        <time>2023-04-27T10:32:38.834Z</time>
      </trkpt>
      <trkpt lat="51.41247" lon="7.34502">
        <ele>130.168714</ele>
        <time>2023-04-27T10:32:40.828Z</time>
      </trkpt>
      <trkpt lat="51.41235" lon="7.34496">
        <ele>130.050377</ele>
        <time>2023-04-27T10:32:43.820Z</time>
      </trkpt>
      <trkpt lat="51.41226" lon="7.34493">
        <ele>129.964778</ele>
        <time>2023-04-27T10:32:45.812Z</time>
      </trkpt>
      <trkpt lat="51.41217" lon="7.34489">
        <ele>129.881068</ele>
        <time>2023-04-27T10:32:47.829Z</time>
      </trkpt>
      <trkpt lat="51.41207" lon="7.34487">
        <ele>129.79287</ele>
        <time>2023-04-27T10:32:49.804Z</time>
      </trkpt>
      <trkpt lat="51.41198" lon="7.34482">
        <ele>129.708143</ele>
        <time>2023-04-27T10:32:51.824Z</time>
      </trkpt>
      <trkpt lat="51.41189" lon="7.34479">
        <ele>129.622167</ele>
        <time>2023-04-27T10:32:53.811Z</time>
      </trkpt>
      <trkpt lat="51.41179" lon="7.34475">
        <ele>129.53076</ele>
        <time>2023-04-27T10:32:55.794Z</time>
      </trkpt>
      <trkpt lat="51.41169" lon="7.34472">
        <ele>129.44113</ele>
        <time>2023-04-27T10:32:57.812Z</time>
      </trkpt>
      <trkpt lat="51.4116" lon="7.34469">
        <ele>129.35361</ele>
        <time>2023-04-27T10:32:59.814Z</time>
      </trkpt>
      <trkpt lat="51.41151" lon="7.34466">
        <ele>129.271287</ele>
        <time>2023-04-27T10:33:01.802Z</time>
      </trkpt>
      <trkpt lat="51.41138" lon="7.34461">
        <ele>129.148688</ele>
        <time>2023-04-27T10:33:04.812Z</time>
      </trkpt>
      <trkpt lat="51.41128" lon="7.34458">
        <ele>129.064597</ele>
        <time>2023-04-27T10:33:06.823Z</time>
      </trkpt>
      <trkpt lat="51.41119" lon="7.34454">
        <ele>128.977495</ele>
        <time>2023-04-27T10:33:08.811Z</time>
      </trkpt>
      <trkpt lat="51.4111" lon="7.3445">
        <ele>128.894817</ele>
        <time>2023-04-27T10:33:10.812Z</time>
      </trkpt>
      <trkpt lat="51.41101" lon="7.34447">
        <ele>128.810229</ele>
        <time>2023-04-27T10:33:12.811Z</time>
      </trkpt>
      <trkpt lat="51.41091" lon="7.34443">
        <ele>128.720104</ele>
        <time>2023-04-27T10:33:14.812Z</time>
      </trkpt>
      <trkpt lat="51.41082" lon="7.34439">
        <ele>128.630108</ele>
        <time>2023-04-27T10:33:16.808Z</time>
      </trkpt>
      <trkpt lat="51.41072" lon="7.34436">
        <ele>128.700009</ele>
        <time>2023-04-27T10:33:18.827Z</time>
      </trkpt>
      <trkpt lat="51.41063" lon="7.34431">
        <ele>128.863839</ele>
        <time>2023-04-27T10:33:20.808Z</time>
      </trkpt>
      <trkpt lat="51.41054" lon="7.34426">
        <ele>129.020315</ele>
        <time>2023-04-27T10:33:22.821Z</time>
      </trkpt>
      <trkpt lat="51.41045" lon="7.34422">
        <ele>129.183431</ele>
        <time>2023-04-27T10:33:24.817Z</time>
      </trkpt>
      <trkpt lat="51.41035" lon="7.34418">
        <ele>129.351037</ele>
        <time>2023-04-27T10:33:26.805Z</time>
      </trkpt>
      <trkpt lat="51.41026" lon="7.34414">
        <ele>129.518094</ele>
        <time>2023-04-27T10:33:28.833Z</time>
      </trkpt>
      <trkpt lat="51.41017" lon="7.34409">
        <ele>129.678981</ele>
        <time>2023-04-27T10:33:30.804Z</time>
      </trkpt>
      <trkpt lat="51.41007" lon="7.34405">
        <ele>129.838472</ele>
        <time>2023-04-27T10:33:32.804Z</time>
      </trkpt>
      <trkpt lat="51.40998" lon="7.34402">
        <ele>129.998905</ele>
        <time>2023-04-27T10:33:34.807Z</time>
      </trkpt>
      <trkpt lat="51.40984" lon="7.34399">
        <ele>130.22705</ele>
        <time>2023-04-27T10:33:37.804Z</time>
      </trkpt>
      <trkpt lat="51.40975" lon="7.34399">
        <ele>130.377893</ele>
        <time>2023-04-27T10:33:39.802Z</time>
      </trkpt>
      <trkpt lat="51.40963" lon="7.34404">
        <ele>130.592708</ele>
        <time>2023-04-27T10:33:42.805Z</time>
      </trkpt>
      <trkpt lat="51.40951" lon="7.34409">
        <ele>130.807656</ele>
        <time>2023-04-27T10:33:45.792Z</time>
      </trkpt>
      <trkpt lat="51.40938" lon="7.34417">
        <ele>131.025842</ele>
        <time>2023-04-27T10:33:48.810Z</time>
      </trkpt>
      <trkpt lat="51.40929" lon="7.34423">
        <ele>131.204359</ele>
        <time>2023-04-27T10:33:50.804Z</time>
      </trkpt>
      <trkpt lat="51.40918" lon="7.34428">
        <ele>131.395985</ele>
        <time>2023-04-27T10:33:52.811Z</time>
      </trkpt>
      <trkpt lat="51.40906" lon="7.34432">
        <ele>131.596706</ele>
        <time>2023-04-27T10:33:54.802Z</time>
      </trkpt>
      <trkpt lat="51.40894" lon="7.34435">
        <ele>132.066606</ele>
        <time>2023-04-27T10:33:56.803Z</time>
      </trkpt>
      <trkpt lat="51.40885" lon="7.34434">
        <ele>132.462704</ele>
        <time>2023-04-27T10:33:58.803Z</time>
      </trkpt>
      <trkpt lat="51.40876" lon="7.34423">
        <ele>132.907124</ele>
        <time>2023-04-27T10:34:01.817Z</time>
      </trkpt>
      <trkpt lat="51.40881" lon="7.34394">
        <ele>133.685667</ele>
        <time>2023-04-27T10:34:06.791Z</time>
      </trkpt>
      <trkpt lat="51.40873" lon="7.34381">
        <ele>134.158043</ele>
        <time>2023-04-27T10:34:08.777Z</time>
      </trkpt>
      <trkpt lat="51.40864" lon="7.34374">
        <ele>134.548021</ele>
        <time>2023-04-27T10:34:13.786Z</time>
      </trkpt>
      <trkpt lat="51.40868" lon="7.34352">
        <ele>135.134678</ele>
        <time>2023-04-27T10:34:18.791Z</time>
      </trkpt>
      <trkpt lat="51.40868" lon="7.34336">
        <ele>135.541734</ele>
        <time>2023-04-27T10:34:21.803Z</time>
      </trkpt>
      <trkpt lat="51.40859" lon="7.3433">
        <ele>135.932388</ele>
        <time>2023-04-27T10:34:26.792Z</time>
      </trkpt>
      <trkpt lat="51.40849" lon="7.34334">
        <ele>136.353226</ele>
        <time>2023-04-27T10:34:32.812Z</time>
      </trkpt>
      <trkpt lat="51.40841" lon="7.34328">
        <ele>136.746242</ele>
        <time>2023-04-27T10:34:42.798Z</time>
      </trkpt>
      <trkpt lat="51.40837" lon="7.34326">
        <ele>136.908309</ele>
        <time>2023-04-27T10:34:47.102Z</time>
      </trkpt>
      <trkpt lat="51.40764" lon="7.34336">
        <ele>139.383802</ele>
        <time>2023-04-27T10:38:02.901Z</time>
      </trkpt>
      <trkpt lat="51.40756" lon="7.34344">
        <ele>139.515114</ele>
        <time>2023-04-27T10:38:05.796Z</time>
      </trkpt>
      <trkpt lat="51.40747" lon="7.34351">
        <ele>139.656884</ele>
        <time>2023-04-27T10:38:08.813Z</time>
      </trkpt>
      <trkpt lat="51.40737" lon="7.34357">
        <ele>139.812292</ele>
        <time>2023-04-27T10:38:11.794Z</time>
      </trkpt>
      <trkpt lat="51.40725" lon="7.34359">
        <ele>139.985743</ele>
        <time>2023-04-27T10:38:14.805Z</time>
      </trkpt>
      <trkpt lat="51.40711" lon="7.34359">
        <ele>140.180151</ele>
        <time>2023-04-27T10:38:17.800Z</time>
      </trkpt>
      <trkpt lat="51.40701" lon="7.34359">
        <ele>140.324799</ele>
        <time>2023-04-27T10:38:19.797Z</time>
      </trkpt>
      <trkpt lat="51.40691" lon="7.3436">
        <ele>140.468038</ele>
        <time>2023-04-27T10:38:21.808Z</time>
      </trkpt>
      <trkpt lat="51.4068" lon="7.3436">
        <ele>140.618522</ele>
        <time>2023-04-27T10:38:23.805Z</time>
      </trkpt>
      <trkpt lat="51.40669" lon="7.34363">
        <ele>140.777477</ele>
        <time>2023-04-27T10:38:25.781Z</time>
      </trkpt>
      <trkpt lat="51.40658" lon="7.34366">
        <ele>140.938653</ele>
        <time>2023-04-27T10:38:27.797Z</time>
      </trkpt>
      <trkpt lat="51.40647" lon="7.34372">
        <ele>141.101632</ele>
        <time>2023-04-27T10:38:29.792Z</time>
      </trkpt>
      <trkpt lat="51.40636" lon="7.34381">
        <ele>141.27048</ele>
        <time>2023-04-27T10:38:31.797Z</time>
      </trkpt>
      <trkpt lat="51.40626" lon="7.3439">
        <ele>141.441834</ele>
        <time>2023-04-27T10:38:33.794Z</time>
      </trkpt>
      <trkpt lat="51.40615" lon="7.34399">
        <ele>141.61258</ele>
        <time>2023-04-27T10:38:35.784Z</time>
      </trkpt>
      <trkpt lat="51.40603" lon="7.34407">
        <ele>141.340515</ele>
        <time>2023-04-27T10:38:37.802Z</time>
      </trkpt>
      <trkpt lat="51.40593" lon="7.34417">
        <ele>140.997104</ele>
        <time>2023-04-27T10:38:39.793Z</time>
      </trkpt>
      <trkpt lat="51.40582" lon="7.34428">
        <ele>140.65353</ele>
        <time>2023-04-27T10:38:41.804Z</time>
      </trkpt>
      <trkpt lat="51.40572" lon="7.34438">
        <ele>140.322138</ele>
        <time>2023-04-27T10:38:43.811Z</time>
      </trkpt>
      <trkpt lat="51.40562" lon="7.34447">
        <ele>139.991037</ele>
        <time>2023-04-27T10:38:45.786Z</time>
      </trkpt>
      <trkpt lat="51.40552" lon="7.34457">
        <ele>139.665328</ele>
        <time>2023-04-27T10:38:47.812Z</time>
      </trkpt>
      <trkpt lat="51.40542" lon="7.34466">
        <ele>139.340822</ele>
        <time>2023-04-27T10:38:49.805Z</time>
      </trkpt>
      <trkpt lat="51.40532" lon="7.34476">
        <ele>139.016497</ele>
        <time>2023-04-27T10:38:51.817Z</time>
      </trkpt>
      <trkpt lat="51.40522" lon="7.34484">
        <ele>138.688779</ele>
        <time>2023-04-27T10:38:53.814Z</time>
      </trkpt>
      <trkpt lat="51.40511" lon="7.34492">
        <ele>138.349924</ele>
        <time>2023-04-27T10:38:55.781Z</time>
      </trkpt>
      <trkpt lat="51.40499" lon="7.345">
        <ele>138.000511</ele>
        <time>2023-04-27T10:38:57.825Z</time>
      </trkpt>
      <trkpt lat="51.40487" lon="7.34508">
        <ele>137.639329</ele>
        <time>2023-04-27T10:38:59.802Z</time>
      </trkpt>
      <trkpt lat="51.40476" lon="7.34514">
        <ele>137.296509</ele>
        <time>2023-04-27T10:39:01.797Z</time>
      </trkpt>
      <trkpt lat="51.40463" lon="7.3452">
        <ele>136.940785</ele>
        <time>2023-04-27T10:39:03.808Z</time>
      </trkpt>
      <trkpt lat="51.40451" lon="7.34524">
        <ele>136.575137</ele>
        <time>2023-04-27T10:39:05.806Z</time>
      </trkpt>
      <trkpt lat="51.40438" lon="7.34527">
        <ele>136.168821</ele>
        <time>2023-04-27T10:39:07.843Z</time>
      </trkpt>
      <trkpt lat="51.40424" lon="7.34529">
        <ele>135.751631</ele>
        <time>2023-04-27T10:39:09.803Z</time>
      </trkpt>
      <trkpt lat="51.4041" lon="7.34531">
        <ele>135.318954</ele>
        <time>2023-04-27T10:39:11.813Z</time>
      </trkpt>
      <trkpt lat="51.40397" lon="7.3453">
        <ele>134.91276</ele>
        <time>2023-04-27T10:39:13.810Z</time>
      </trkpt>
      <trkpt lat="51.40382" lon="7.3453">
        <ele>134.460813</ele>
        <time>2023-04-27T10:39:15.806Z</time>
      </trkpt>
      <trkpt lat="51.40367" lon="7.34531">
        <ele>134.005213</ele>
        <time>2023-04-27T10:39:17.820Z</time>
      </trkpt>
      <trkpt lat="51.40352" lon="7.34532">
        <ele>133.537893</ele>
        <time>2023-04-27T10:39:19.807Z</time>
      </trkpt>
      <trkpt lat="51.40337" lon="7.3453">
        <ele>133.081709</ele>
        <time>2023-04-27T10:39:21.815Z</time>
      </trkpt>
      <trkpt lat="51.40323" lon="7.3453">
        <ele>132.651248</ele>
        <time>2023-04-27T10:39:23.818Z</time>
      </trkpt>
      <trkpt lat="51.40311" lon="7.34531">
        <ele>132.266823</ele>
        <time>2023-04-27T10:39:25.790Z</time>
      </trkpt>
      <trkpt lat="51.403" lon="7.3453">
        <ele>131.925511</ele>
        <time>2023-04-27T10:39:27.808Z</time>
      </trkpt>
      <trkpt lat="51.40291" lon="7.3453">
        <ele>131.642428</ele>
        <time>2023-04-27T10:39:29.825Z</time>
      </trkpt>
      <trkpt lat="51.40279" lon="7.34531">
        <ele>131.275961</ele>
        <time>2023-04-27T10:39:32.815Z</time>
      </trkpt>
      <trkpt lat="51.40269" lon="7.34535">
        <ele>131.003402</ele>
        <time>2023-04-27T10:39:35.797Z</time>
      </trkpt>
      <trkpt lat="51.40258" lon="7.34538">
        <ele>130.814557</ele>
        <time>2023-04-27T10:39:39.805Z</time>
      </trkpt>
      <trkpt lat="51.40249" lon="7.34537">
        <ele>130.650792</ele>
        <time>2023-04-27T10:39:43.803Z</time>
      </trkpt>
      <trkpt lat="51.40242" lon="7.34547">
        <ele>130.482065</ele>
        <time>2023-04-27T10:39:49.804Z</time>
      </trkpt>
      <trkpt lat="51.40246" lon="7.34564">
        <ele>130.281735</ele>
        <time>2023-04-27T10:39:52.797Z</time>
      </trkpt>
      <trkpt lat="51.4025" lon="7.34579">
        <ele>130.104154</ele>
        <time>2023-04-27T10:39:54.846Z</time>
      </trkpt>
      <trkpt lat="51.40255" lon="7.34594">
        <ele>129.910822</ele>
        <time>2023-04-27T10:39:56.819Z</time>
      </trkpt>
      <trkpt lat="51.4026" lon="7.34609">
        <ele>129.718788</ele>
        <time>2023-04-27T10:39:58.801Z</time>
      </trkpt>
      <trkpt lat="51.40263" lon="7.34625">
        <ele>129.534036</ele>
        <time>2023-04-27T10:40:00.804Z</time>
      </trkpt>
      <trkpt lat="51.40265" lon="7.34641">
        <ele>129.358734</ele>
        <time>2023-04-27T10:40:02.798Z</time>
      </trkpt>
      <trkpt lat="51.40266" lon="7.34659">
        <ele>129.159291</ele>
        <time>2023-04-27T10:40:04.789Z</time>
      </trkpt>
      <trkpt lat="51.40266" lon="7.34676">
        <ele>128.970578</ele>
        <time>2023-04-27T10:40:06.796Z</time>
      </trkpt>
      <trkpt lat="51.40265" lon="7.34693">
        <ele>128.777238</ele>
        <time>2023-04-27T10:40:08.789Z</time>
      </trkpt>
      <trkpt lat="51.40263" lon="7.3471">
        <ele>128.590146</ele>
        <time>2023-04-27T10:40:10.795Z</time>
      </trkpt>
      <trkpt lat="51.40259" lon="7.34726">
        <ele>128.396969</ele>
        <time>2023-04-27T10:40:13.800Z</time>
      </trkpt>
      <trkpt lat="51.40261" lon="7.34744">
        <ele>128.196458</ele>
        <time>2023-04-27T10:40:17.819Z</time>
      </trkpt>
      <trkpt lat="51.40266" lon="7.34762">
        <ele>127.973423</ele>
        <time>2023-04-27T10:40:20.806Z</time>
      </trkpt>
      <trkpt lat="51.40271" lon="7.34776">
        <ele>127.84268</ele>
        <time>2023-04-27T10:40:26.795Z</time>
      </trkpt>
      <trkpt lat="51.40265" lon="7.34792">
        <ele>127.758975</ele>
        <time>2023-04-27T10:40:30.809Z</time>
      </trkpt>
      <trkpt lat="51.40254" lon="7.34803">
        <ele>127.666269</ele>
        <time>2023-04-27T10:40:34.797Z</time>
      </trkpt>
      <trkpt lat="51.40245" lon="7.3481">
        <ele>127.591394</ele>
        <time>2023-04-27T10:40:37.803Z</time>
      </trkpt>
      <trkpt lat="51.40235" lon="7.34818">
        <ele>127.508755</ele>
        <time>2023-04-27T10:40:40.817Z</time>
      </trkpt>
      <trkpt lat="51.40226" lon="7.34827">
        <ele>127.43235</ele>
        <time>2023-04-27T10:40:43.814Z</time>
      </trkpt>
      <trkpt lat="51.40215" lon="7.34837">
        <ele>127.345613</ele>
        <time>2023-04-27T10:40:46.814Z</time>
      </trkpt>
      <trkpt lat="51.40204" lon="7.34847">
        <ele>127.252796</ele>
        <time>2023-04-27T10:40:49.800Z</time>
      </trkpt>
      <trkpt lat="51.40194" lon="7.34859">
        <ele>127.160101</ele>
        <time>2023-04-27T10:40:52.820Z</time>
      </trkpt>
      <trkpt lat="51.40185" lon="7.34868">
        <ele>127.085594</ele>
        <time>2023-04-27T10:40:54.799Z</time>
      </trkpt>
      <trkpt lat="51.40178" lon="7.34878">
        <ele>127.013103</ele>
        <time>2023-04-27T10:40:56.821Z</time>
      </trkpt>
      <trkpt lat="51.40174" lon="7.34893">
        <ele>126.940937</ele>
        <time>2023-04-27T10:40:58.794Z</time>
      </trkpt>
      <trkpt lat="51.40172" lon="7.34911">
        <ele>126.855638</ele>
        <time>2023-04-27T10:41:00.793Z</time>
      </trkpt>
      <trkpt lat="51.40168" lon="7.34929">
        <ele>126.771778</ele>
        <time>2023-04-27T10:41:02.807Z</time>
      </trkpt>
      <trkpt lat="51.40162" lon="7.34946">
        <ele>126.683067</ele>
        <time>2023-04-27T10:41:04.796Z</time>
      </trkpt>
      <trkpt lat="51.40153" lon="7.34958">
        <ele>126.597819</ele>
        <time>2023-04-27T10:41:06.792Z</time>
      </trkpt>
      <trkpt lat="51.40143" lon="7.34965">
        <ele>126.625268</ele>
        <time>2023-04-27T10:41:08.801Z</time>
      </trkpt>
      <trkpt lat="51.40133" lon="7.34973">
        <ele>126.704792</ele>
        <time>2023-04-27T10:41:10.798Z</time>
      </trkpt>
      <trkpt lat="51.40124" lon="7.34979">
        <ele>126.777775</ele>
        <time>2023-04-27T10:41:12.818Z</time>
      </trkpt>
      <trkpt lat="51.40115" lon="7.34988">
        <ele>126.857085</ele>
        <time>2023-04-27T10:41:14.807Z</time>
      </trkpt>
      <trkpt lat="51.4011" lon="7.35003">
        <ele>126.934172</ele>
        <time>2023-04-27T10:41:16.799Z</time>
      </trkpt>
      <trkpt lat="51.4011" lon="7.3502">
        <ele>127.010478</ele>
        <time>2023-04-27T10:41:18.798Z</time>
      </trkpt>
      <trkpt lat="51.4011" lon="7.35034">
        <ele>127.076824</ele>
        <time>2023-04-27T10:41:20.802Z</time>
      </trkpt>
      <trkpt lat="51.40107" lon="7.35054">
        <ele>127.169221</ele>
        <time>2023-04-27T10:41:23.792Z</time>
      </trkpt>
      <trkpt lat="51.40103" lon="7.35067">
        <ele>127.235618</ele>
        <time>2023-04-27T10:41:25.799Z</time>
      </trkpt>
      <trkpt lat="51.401" lon="7.35082">
        <ele>127.306525</ele>
        <time>2023-04-27T10:41:27.801Z</time>
      </trkpt>
      <trkpt lat="51.40097" lon="7.35097">
        <ele>127.376357</ele>
        <time>2023-04-27T10:41:29.792Z</time>
      </trkpt>
      <trkpt lat="51.40094" lon="7.35113">
        <ele>127.454187</ele>
        <time>2023-04-27T10:41:31.796Z</time>
      </trkpt>
      <trkpt lat="51.40091" lon="7.35129">
        <ele>127.526162</ele>
        <time>2023-04-27T10:41:33.803Z</time>
      </trkpt>
      <trkpt lat="51.40088" lon="7.35144">
        <ele>127.598829</ele>
        <time>2023-04-27T10:41:35.786Z</time>
      </trkpt>
      <trkpt lat="51.40085" lon="7.35159">
        <ele>127.670805</ele>
        <time>2023-04-27T10:41:37.812Z</time>
      </trkpt>
      <trkpt lat="51.40082" lon="7.35174">
        <ele>127.743289</ele>
        <time>2023-04-27T10:41:39.788Z</time>
      </trkpt>
      <trkpt lat="51.40075" lon="7.35188">
        <ele>127.821637</ele>
        <time>2023-04-27T10:41:41.793Z</time>
      </trkpt>
      <trkpt lat="51.4007" lon="7.35203">
        <ele>127.870428</ele>
        <time>2023-04-27T10:41:43.790Z</time>
      </trkpt>
      <trkpt lat="51.40065" lon="7.35217">
        <ele>127.81556</ele>
        <time>2023-04-27T10:41:45.793Z</time>
      </trkpt>
      <trkpt lat="51.4006" lon="7.35231">
        <ele>127.763417</ele>
        <time>2023-04-27T10:41:47.808Z</time>
      </trkpt>
      <trkpt lat="51.40054" lon="7.35245">
        <ele>127.710747</ele>
        <time>2023-04-27T10:41:49.800Z</time>
      </trkpt>
      <trkpt lat="51.40049" lon="7.35259">
        <ele>127.658083</ele>
        <time>2023-04-27T10:41:51.804Z</time>
      </trkpt>
      <trkpt lat="51.40043" lon="7.35272">
        <ele>127.604569</ele>
        <time>2023-04-27T10:41:53.819Z</time>
      </trkpt>
      <trkpt lat="51.40038" lon="7.35286">
        <ele>127.551619</ele>
        <time>2023-04-27T10:41:55.793Z</time>
      </trkpt>
      <trkpt lat="51.40032" lon="7.35301">
        <ele>127.495322</ele>
        <time>2023-04-27T10:41:57.799Z</time>
      </trkpt>
      <trkpt lat="51.40027" lon="7.35315">
        <ele>127.441227</ele>
        <time>2023-04-27T10:41:59.800Z</time>
      </trkpt>
      <trkpt lat="51.40022" lon="7.35329">
        <ele>127.391238</ele>
        <time>2023-04-27T10:42:01.800Z</time>
      </trkpt>
      <trkpt lat="51.40017" lon="7.35342">
        <ele>127.339941</ele>
        <time>2023-04-27T10:42:03.809Z</time>
      </trkpt>
      <trkpt lat="51.40011" lon="7.35356">
        <ele>127.286723</ele>
        <time>2023-04-27T10:42:05.791Z</time>
      </trkpt>
      <trkpt lat="51.40006" lon="7.35369">
        <ele>127.234608</ele>
        <time>2023-04-27T10:42:07.799Z</time>
      </trkpt>
      <trkpt lat="51.40002" lon="7.35383">
        <ele>127.183895</ele>
        <time>2023-04-27T10:42:09.810Z</time>
      </trkpt>
      <trkpt lat="51.39997" lon="7.35397">
        <ele>127.132606</ele>
        <time>2023-04-27T10:42:11.800Z</time>
      </trkpt>
      <trkpt lat="51.39993" lon="7.35411">
        <ele>127.081777</ele>
        <time>2023-04-27T10:42:13.805Z</time>
      </trkpt>
      <trkpt lat="51.39992" lon="7.35426">
        <ele>127.033662</ele>
        <time>2023-04-27T10:42:15.791Z</time>
      </trkpt>
      <trkpt lat="51.39988" lon="7.35441">
        <ele>126.979637</ele>
        <time>2023-04-27T10:42:17.803Z</time>
      </trkpt>
      <trkpt lat="51.39983" lon="7.35456">
        <ele>126.923094</ele>
        <time>2023-04-27T10:42:19.786Z</time>
      </trkpt>
      <trkpt lat="51.39978" lon="7.35473">
        <ele>126.857737</ele>
        <time>2023-04-27T10:42:21.798Z</time>
      </trkpt>
      <trkpt lat="51.39971" lon="7.3549">
        <ele>126.787727</ele>
        <time>2023-04-27T10:42:23.797Z</time>
      </trkpt>
      <trkpt lat="51.39964" lon="7.35507">
        <ele>126.715644</ele>
        <time>2023-04-27T10:42:25.791Z</time>
      </trkpt>
      <trkpt lat="51.39958" lon="7.35526">
        <ele>126.63877</ele>
        <time>2023-04-27T10:42:27.817Z</time>
      </trkpt>
      <trkpt lat="51.39952" lon="7.35544">
        <ele>126.564972</ele>
        <time>2023-04-27T10:42:29.807Z</time>
      </trkpt>
      <trkpt lat="51.39945" lon="7.35563">
        <ele>126.487982</ele>
        <time>2023-04-27T10:42:31.817Z</time>
      </trkpt>
      <trkpt lat="51.3994" lon="7.35583">
        <ele>126.411499</ele>
        <time>2023-04-27T10:42:33.805Z</time>
      </trkpt>
      <trkpt lat="51.39932" lon="7.35601">
        <ele>126.335036</ele>
        <time>2023-04-27T10:42:35.799Z</time>
      </trkpt>
      <trkpt lat="51.39922" lon="7.35616">
        <ele>126.256451</ele>
        <time>2023-04-27T10:42:37.788Z</time>
      </trkpt>
      <trkpt lat="51.39912" lon="7.3563">
        <ele>126.183309</ele>
        <time>2023-04-27T10:42:39.807Z</time>
      </trkpt>
      <trkpt lat="51.39903" lon="7.35644">
        <ele>126.113321</ele>
        <time>2023-04-27T10:42:41.805Z</time>
      </trkpt>
      <trkpt lat="51.39894" lon="7.35657">
        <ele>126.04434</ele>
        <time>2023-04-27T10:42:43.807Z</time>
      </trkpt>
      <trkpt lat="51.39886" lon="7.3567">
        <ele>125.978935</ele>
        <time>2023-04-27T10:42:45.788Z</time>
      </trkpt>
      <trkpt lat="51.39877" lon="7.35681">
        <ele>125.927054</ele>
        <time>2023-04-27T10:42:47.822Z</time>
      </trkpt>
      <trkpt lat="51.39869" lon="7.35694">
        <ele>125.916074</ele>
        <time>2023-04-27T10:42:49.798Z</time>
      </trkpt>
      <trkpt lat="51.3986" lon="7.35706">
        <ele>125.905125</ele>
        <time>2023-04-27T10:42:51.808Z</time>
      </trkpt>
      <trkpt lat="51.39852" lon="7.35717">
        <ele>125.894473</ele>
        <time>2023-04-27T10:42:53.801Z</time>
      </trkpt>
      <trkpt lat="51.39844" lon="7.35728">
        <ele>125.884269</ele>
        <time>2023-04-27T10:42:55.795Z</time>
      </trkpt>
      <trkpt lat="51.39836" lon="7.35739">
        <ele>125.873804</ele>
        <time>2023-04-27T10:42:57.802Z</time>
      </trkpt>
      <trkpt lat="51.39829" lon="7.35752">
        <ele>125.863429</ele>
        <time>2023-04-27T10:42:59.810Z</time>
      </trkpt>
      <trkpt lat="51.39821" lon="7.35763">
        <ele>125.853299</ele>
        <time>2023-04-27T10:43:01.805Z</time>
      </trkpt>
      <trkpt lat="51.39813" lon="7.35775">
        <ele>125.842533</ele>
        <time>2023-04-27T10:43:03.801Z</time>
      </trkpt>
      <trkpt lat="51.39805" lon="7.35787">
        <ele>125.831789</ele>
        <time>2023-04-27T10:43:05.797Z</time>
      </trkpt>
      <trkpt lat="51.39797" lon="7.35799">
        <ele>125.820966</ele>
        <time>2023-04-27T10:43:07.802Z</time>
      </trkpt>
      <trkpt lat="51.39789" lon="7.35811">
        <ele>125.810633</ele>
        <time>2023-04-27T10:43:09.814Z</time>
      </trkpt>
      <trkpt lat="51.39781" lon="7.35822">
        <ele>125.800316</ele>
        <time>2023-04-27T10:43:11.803Z</time>
      </trkpt>
      <trkpt lat="51.39772" lon="7.35832">
        <ele>125.789855</ele>
        <time>2023-04-27T10:43:13.804Z</time>
      </trkpt>
      <trkpt lat="51.39764" lon="7.35844">
        <ele>125.779172</ele>
        <time>2023-04-27T10:43:15.791Z</time>
      </trkpt>
      <trkpt lat="51.39756" lon="7.35857">
        <ele>125.767996</ele>
        <time>2023-04-27T10:43:17.796Z</time>
      </trkpt>
      <trkpt lat="51.39748" lon="7.3587">
        <ele>125.757146</ele>
        <time>2023-04-27T10:43:19.787Z</time>
      </trkpt>
      <trkpt lat="51.3974" lon="7.35881">
        <ele>125.917634</ele>
        <time>2023-04-27T10:43:21.822Z</time>
      </trkpt>
      <trkpt lat="51.39733" lon="7.35891">
        <ele>126.143105</ele>
        <time>2023-04-27T10:43:23.805Z</time>
      </trkpt>
      <trkpt lat="51.39724" lon="7.35902">
        <ele>126.371029</ele>
        <time>2023-04-27T10:43:25.786Z</time>
      </trkpt>
      <trkpt lat="51.39716" lon="7.3591">
        <ele>126.593376</ele>
        <time>2023-04-27T10:43:27.798Z</time>
      </trkpt>
      <trkpt lat="51.39707" lon="7.35919">
        <ele>126.815988</ele>
        <time>2023-04-27T10:43:29.815Z</time>
      </trkpt>
      <trkpt lat="51.39699" lon="7.3593">
        <ele>127.056932</ele>
        <time>2023-04-27T10:43:31.807Z</time>
      </trkpt>
      <trkpt lat="51.39691" lon="7.35942">
        <ele>127.300101</ele>
        <time>2023-04-27T10:43:33.813Z</time>
      </trkpt>
      <trkpt lat="51.39683" lon="7.35953">
        <ele>127.520143</ele>
        <time>2023-04-27T10:43:35.787Z</time>
      </trkpt>
      <trkpt lat="51.39675" lon="7.35965">
        <ele>127.755231</ele>
        <time>2023-04-27T10:43:37.783Z</time>
      </trkpt>
      <trkpt lat="51.39667" lon="7.35975">
        <ele>127.981447</ele>
        <time>2023-04-27T10:43:39.803Z</time>
      </trkpt>
      <trkpt lat="51.39659" lon="7.35986">
        <ele>128.217278</ele>
        <time>2023-04-27T10:43:41.823Z</time>
      </trkpt>
      <trkpt lat="51.39651" lon="7.35996">
        <ele>128.435936</ele>
        <time>2023-04-27T10:43:43.813Z</time>
      </trkpt>
      <trkpt lat="51.39644" lon="7.36007">
        <ele>128.660645</ele>
        <time>2023-04-27T10:43:45.801Z</time>
      </trkpt>
      <trkpt lat="51.39636" lon="7.36017">
        <ele>128.892916</ele>
        <time>2023-04-27T10:43:47.802Z</time>
      </trkpt>
      <trkpt lat="51.39628" lon="7.36029">
        <ele>129.112657</ele>
        <time>2023-04-27T10:43:49.814Z</time>
      </trkpt>
      <trkpt lat="51.39621" lon="7.3604">
        <ele>129.338467</ele>
        <time>2023-04-27T10:43:51.801Z</time>
      </trkpt>
      <trkpt lat="51.39614" lon="7.36052">
        <ele>129.559574</ele>
        <time>2023-04-27T10:43:53.827Z</time>
      </trkpt>
      <trkpt lat="51.39607" lon="7.36063">
        <ele>129.708927</ele>
        <time>2023-04-27T10:43:55.797Z</time>
      </trkpt>
      <trkpt lat="51.396" lon="7.36073">
        <ele>129.724097</ele>
        <time>2023-04-27T10:43:57.815Z</time>
      </trkpt>
      <trkpt lat="51.39593" lon="7.36083">
        <ele>129.738494</ele>
        <time>2023-04-27T10:43:59.799Z</time>
      </trkpt>
      <trkpt lat="51.39586" lon="7.36092">
        <ele>129.75265</ele>
        <time>2023-04-27T10:44:01.800Z</time>
      </trkpt>
      <trkpt lat="51.39579" lon="7.36102">
        <ele>129.766992</ele>
        <time>2023-04-27T10:44:03.810Z</time>
      </trkpt>
      <trkpt lat="51.39572" lon="7.36113">
        <ele>129.782075</ele>
        <time>2023-04-27T10:44:05.804Z</time>
      </trkpt>
      <trkpt lat="51.39562" lon="7.36127">
        <ele>129.803154</ele>
        <time>2023-04-27T10:44:08.818Z</time>
      </trkpt>
      <trkpt lat="51.39555" lon="7.36136">
        <ele>129.817425</ele>
        <time>2023-04-27T10:44:10.821Z</time>
      </trkpt>
      <trkpt lat="51.39548" lon="7.36146">
        <ele>129.831568</ele>
        <time>2023-04-27T10:44:12.815Z</time>
      </trkpt>
      <trkpt lat="51.39541" lon="7.36157">
        <ele>129.846885</ele>
        <time>2023-04-27T10:44:14.818Z</time>
      </trkpt>
      <trkpt lat="51.39532" lon="7.36171">
        <ele>129.866446</ele>
        <time>2023-04-27T10:44:17.817Z</time>
      </trkpt>
      <trkpt lat="51.39523" lon="7.36187">
        <ele>129.886463</ele>
        <time>2023-04-27T10:44:20.818Z</time>
      </trkpt>
      <trkpt lat="51.39516" lon="7.36198">
        <ele>129.901793</ele>
        <time>2023-04-27T10:44:22.813Z</time>
      </trkpt>
      <trkpt lat="51.39509" lon="7.36209">
        <ele>129.91741</ele>
        <time>2023-04-27T10:44:24.822Z</time>
      </trkpt>
      <trkpt lat="51.39502" lon="7.36221">
        <ele>129.932946</ele>
        <time>2023-04-27T10:44:26.823Z</time>
      </trkpt>
      <trkpt lat="51.39494" lon="7.36232">
        <ele>129.948768</ele>
        <time>2023-04-27T10:44:28.806Z</time>
      </trkpt>
      <trkpt lat="51.39487" lon="7.36243">
        <ele>129.964394</ele>
        <time>2023-04-27T10:44:30.821Z</time>
      </trkpt>
      <trkpt lat="51.3948" lon="7.36253">
        <ele>129.979546</ele>
        <time>2023-04-27T10:44:32.810Z</time>
      </trkpt>
      <trkpt lat="51.39473" lon="7.36264">
        <ele>129.982667</ele>
        <time>2023-04-27T10:44:34.814Z</time>
      </trkpt>
      <trkpt lat="51.39466" lon="7.36273">
        <ele>129.982247</ele>
        <time>2023-04-27T10:44:36.824Z</time>
      </trkpt>
      <trkpt lat="51.39458" lon="7.36283">
        <ele>129.981769</ele>
        <time>2023-04-27T10:44:38.803Z</time>
      </trkpt>
      <trkpt lat="51.39449" lon="7.36292">
        <ele>129.981302</ele>
        <time>2023-04-27T10:44:40.800Z</time>
      </trkpt>
      <trkpt lat="51.3944" lon="7.36299">
        <ele>129.980852</ele>
        <time>2023-04-27T10:44:42.798Z</time>
      </trkpt>
      <trkpt lat="51.39431" lon="7.36305">
        <ele>129.980411</ele>
        <time>2023-04-27T10:44:44.811Z</time>
      </trkpt>
      <trkpt lat="51.39422" lon="7.36312">
        <ele>129.979955</ele>
        <time>2023-04-27T10:44:46.819Z</time>
      </trkpt>
      <trkpt lat="51.39413" lon="7.36319">
        <ele>129.979501</ele>
        <time>2023-04-27T10:44:48.812Z</time>
      </trkpt>
      <trkpt lat="51.39405" lon="7.36326">
        <ele>129.979078</ele>
        <time>2023-04-27T10:44:50.809Z</time>
      </trkpt>
      <trkpt lat="51.39397" lon="7.36336">
        <ele>129.978658</ele>
        <time>2023-04-27T10:44:52.800Z</time>
      </trkpt>
      <trkpt lat="51.3939" lon="7.36353">
        <ele>129.978056</ele>
        <time>2023-04-27T10:44:55.796Z</time>
      </trkpt>
      <trkpt lat="51.39382" lon="7.36363">
        <ele>129.977606</ele>
        <time>2023-04-27T10:44:57.803Z</time>
      </trkpt>
      <trkpt lat="51.39374" lon="7.36372">
        <ele>129.977167</ele>
        <time>2023-04-27T10:44:59.799Z</time>
      </trkpt>
      <trkpt lat="51.39367" lon="7.36383">
        <ele>129.976715</ele>
        <time>2023-04-27T10:45:01.808Z</time>
      </trkpt>
      <trkpt lat="51.39362" lon="7.36396">
        <ele>129.976273</ele>
        <time>2023-04-27T10:45:03.799Z</time>
      </trkpt>
      <trkpt lat="51.39354" lon="7.36406">
        <ele>129.975826</ele>
        <time>2023-04-27T10:45:05.795Z</time>
      </trkpt>
      <trkpt lat="51.39345" lon="7.36406">
        <ele>129.975409</ele>
        <time>2023-04-27T10:45:07.805Z</time>
      </trkpt>
      <trkpt lat="51.39335" lon="7.36405">
        <ele>129.974945</ele>
        <time>2023-04-27T10:45:09.798Z</time>
      </trkpt>
      <trkpt lat="51.39326" lon="7.36406">
        <ele>130.010857</ele>
        <time>2023-04-27T10:45:11.804Z</time>
      </trkpt>
      <trkpt lat="51.39317" lon="7.3641">
        <ele>130.06058</ele>
        <time>2023-04-27T10:45:13.797Z</time>
      </trkpt>
      <trkpt lat="51.39307" lon="7.36417">
        <ele>130.115329</ele>
        <time>2023-04-27T10:45:15.800Z</time>
      </trkpt>
      <trkpt lat="51.39299" lon="7.36424">
        <ele>130.167302</ele>
        <time>2023-04-27T10:45:17.791Z</time>
      </trkpt>
      <trkpt lat="51.3929" lon="7.36437">
        <ele>130.234415</ele>
        <time>2023-04-27T10:45:20.797Z</time>
      </trkpt>
      <trkpt lat="51.39284" lon="7.3645">
        <ele>130.286459</ele>
        <time>2023-04-27T10:45:22.788Z</time>
      </trkpt>
      <trkpt lat="51.39277" lon="7.36461">
        <ele>130.336874</ele>
        <time>2023-04-27T10:45:24.817Z</time>
      </trkpt>
      <trkpt lat="51.39271" lon="7.36473">
        <ele>130.388814</ele>
        <time>2023-04-27T10:45:26.829Z</time>
      </trkpt>
      <trkpt lat="51.39266" lon="7.36485">
        <ele>130.438218</ele>
        <time>2023-04-27T10:45:28.811Z</time>
      </trkpt>
      <trkpt lat="51.39258" lon="7.36501">
        <ele>130.508109</ele>
        <time>2023-04-27T10:45:31.799Z</time>
      </trkpt>
      <trkpt lat="51.39252" lon="7.36513">
        <ele>130.558583</ele>
        <time>2023-04-27T10:45:33.823Z</time>
      </trkpt>
      <trkpt lat="51.39247" lon="7.36525">
        <ele>130.608424</ele>
        <time>2023-04-27T10:45:35.798Z</time>
      </trkpt>
      <trkpt lat="51.39242" lon="7.36538">
        <ele>130.65732</ele>
        <time>2023-04-27T10:45:37.810Z</time>
      </trkpt>
      <trkpt lat="51.39238" lon="7.36551">
        <ele>130.707507</ele>
        <time>2023-04-27T10:45:39.817Z</time>
      </trkpt>
      <trkpt lat="51.39235" lon="7.36565">
        <ele>130.756469</ele>
        <time>2023-04-27T10:45:41.806Z</time>
      </trkpt>
      <trkpt lat="51.39233" lon="7.3658">
        <ele>130.807422</ele>
        <time>2023-04-27T10:45:43.794Z</time>
      </trkpt>
      <trkpt lat="51.39228" lon="7.36599">
        <ele>130.876105</ele>
        <time>2023-04-27T10:45:46.800Z</time>
      </trkpt>
      <trkpt lat="51.39221" lon="7.36616">
        <ele>130.956174</ele>
        <time>2023-04-27T10:45:49.811Z</time>
      </trkpt>
      <trkpt lat="51.39215" lon="7.36634">
        <ele>131.14301</ele>
        <time>2023-04-27T10:45:52.816Z</time>
      </trkpt>
      <trkpt lat="51.39208" lon="7.3665">
        <ele>131.318178</ele>
        <time>2023-04-27T10:45:55.801Z</time>
      </trkpt>
      <trkpt lat="51.39199" lon="7.36651">
        <ele>131.449915</ele>
        <time>2023-04-27T10:45:57.796Z</time>
      </trkpt>
      <trkpt lat="51.39186" lon="7.36648">
        <ele>131.641837</ele>
        <time>2023-04-27T10:46:00.798Z</time>
      </trkpt>
      <trkpt lat="51.39178" lon="7.36662">
        <ele>131.812909</ele>
        <time>2023-04-27T10:46:03.818Z</time>
      </trkpt>
      <trkpt lat="51.39173" lon="7.3668">
        <ele>131.989376</ele>
        <time>2023-04-27T10:46:06.807Z</time>
      </trkpt>
      <trkpt lat="51.39169" lon="7.36696">
        <ele>132.149542</ele>
        <time>2023-04-27T10:46:09.819Z</time>
      </trkpt>
      <trkpt lat="51.39165" lon="7.36714">
        <ele>132.322647</ele>
        <time>2023-04-27T10:46:12.813Z</time>
      </trkpt>
      <trkpt lat="51.3916" lon="7.36732">
        <ele>132.502537</ele>
        <time>2023-04-27T10:46:15.805Z</time>
      </trkpt>
      <trkpt lat="51.39156" lon="7.3675">
        <ele>132.679704</ele>
        <time>2023-04-27T10:46:18.811Z</time>
      </trkpt>
      <trkpt lat="51.39151" lon="7.36769">
        <ele>132.86488</ele>
        <time>2023-04-27T10:46:21.805Z</time>
      </trkpt>
      <trkpt lat="51.39146" lon="7.36786">
        <ele>133.04061</ele>
        <time>2023-04-27T10:46:24.812Z</time>
      </trkpt>
      <trkpt lat="51.39142" lon="7.36803">
        <ele>133.210375</ele>
        <time>2023-04-27T10:46:27.818Z</time>
      </trkpt>
      <trkpt lat="51.39137" lon="7.3682">
        <ele>133.373376</ele>
        <time>2023-04-27T10:46:30.806Z</time>
      </trkpt>
      <trkpt lat="51.39134" lon="7.36837">
        <ele>133.539603</ele>
        <time>2023-04-27T10:46:33.808Z</time>
      </trkpt>
      <trkpt lat="51.3913" lon="7.36853">
        <ele>133.516607</ele>
        <time>2023-04-27T10:46:36.816Z</time>
      </trkpt>
      <trkpt lat="51.39127" lon="7.36868">
        <ele>133.454885</ele>
        <time>2023-04-27T10:46:39.814Z</time>
      </trkpt>
      <trkpt lat="51.39124" lon="7.36882">
        <ele>133.3962</ele>
        <time>2023-04-27T10:46:42.821Z</time>
      </trkpt>
      <trkpt lat="51.39122" lon="7.36897">
        <ele>133.337057</ele>
        <time>2023-04-27T10:46:45.797Z</time>
      </trkpt>
      <trkpt lat="51.39119" lon="7.36917">
        <ele>133.254083</ele>
        <time>2023-04-27T10:46:48.795Z</time>
      </trkpt>
      <trkpt lat="51.39116" lon="7.36932">
        <ele>133.190271</ele>
        <time>2023-04-27T10:46:50.800Z</time>
      </trkpt>
      <trkpt lat="51.39112" lon="7.36949">
        <ele>133.120811</ele>
        <time>2023-04-27T10:46:52.805Z</time>
      </trkpt>
      <trkpt lat="51.39108" lon="7.36966">
        <ele>133.047335</ele>
        <time>2023-04-27T10:46:54.802Z</time>
      </trkpt>
      <trkpt lat="51.39104" lon="7.36982">
        <ele>132.978101</ele>
        <time>2023-04-27T10:46:56.806Z</time>
      </trkpt>
      <trkpt lat="51.39101" lon="7.36998">
        <ele>132.910491</ele>
        <time>2023-04-27T10:46:58.845Z</time>
      </trkpt>
      <trkpt lat="51.39096" lon="7.37014">
        <ele>132.840556</ele>
        <time>2023-04-27T10:47:00.823Z</time>
      </trkpt>
      <trkpt lat="51.39092" lon="7.37032">
        <ele>132.76598</ele>
        <time>2023-04-27T10:47:02.813Z</time>
      </trkpt>
      <trkpt lat="51.39088" lon="7.37048">
        <ele>132.696547</ele>
        <time>2023-04-27T10:47:04.803Z</time>
      </trkpt>
      <trkpt lat="51.39084" lon="7.37064">
        <ele>132.627965</ele>
        <time>2023-04-27T10:47:06.807Z</time>
      </trkpt>
      <trkpt lat="51.3908" lon="7.37079">
        <ele>132.561703</ele>
        <time>2023-04-27T10:47:08.824Z</time>
      </trkpt>
      <trkpt lat="51.39076" lon="7.37094">
        <ele>132.498499</ele>
        <time>2023-04-27T10:47:10.800Z</time>
      </trkpt>
      <trkpt lat="51.39072" lon="7.37115">
        <ele>132.425366</ele>
        <time>2023-04-27T10:47:13.803Z</time>
      </trkpt>
      <trkpt lat="51.39068" lon="7.37129">
        <ele>132.425056</ele>
        <time>2023-04-27T10:47:15.797Z</time>
      </trkpt>
      <trkpt lat="51.39066" lon="7.37144">
        <ele>132.424746</ele>
        <time>2023-04-27T10:47:17.832Z</time>
      </trkpt>
      <trkpt lat="51.39064" lon="7.37158">
        <ele>132.424443</ele>
        <time>2023-04-27T10:47:19.805Z</time>
      </trkpt>
      <trkpt lat="51.39062" lon="7.3718">
        <ele>132.424</ele>
        <time>2023-04-27T10:47:22.812Z</time>
      </trkpt>
      <trkpt lat="51.39059" lon="7.37195">
        <ele>132.423686</ele>
        <time>2023-04-27T10:47:24.806Z</time>
      </trkpt>
      <trkpt lat="51.39057" lon="7.37216">
        <ele>132.423245</ele>
        <time>2023-04-27T10:47:27.811Z</time>
      </trkpt>
      <trkpt lat="51.39056" lon="7.37231">
        <ele>132.422939</ele>
        <time>2023-04-27T10:47:29.815Z</time>
      </trkpt>
      <trkpt lat="51.39055" lon="7.37246">
        <ele>132.422646</ele>
        <time>2023-04-27T10:47:31.807Z</time>
      </trkpt>
      <trkpt lat="51.39054" lon="7.37261">
        <ele>132.422336</ele>
        <time>2023-04-27T10:47:33.800Z</time>
      </trkpt>
      <trkpt lat="51.39052" lon="7.37281">
        <ele>132.421916</ele>
        <time>2023-04-27T10:47:36.815Z</time>
      </trkpt>
      <trkpt lat="51.39048" lon="7.37302">
        <ele>132.421475</ele>
        <time>2023-04-27T10:47:39.797Z</time>
      </trkpt>
      <trkpt lat="51.39046" lon="7.37317">
        <ele>132.421178</ele>
        <time>2023-04-27T10:47:41.819Z</time>
      </trkpt>
      <trkpt lat="51.39044" lon="7.37331">
        <ele>132.420875</ele>
        <time>2023-04-27T10:47:43.800Z</time>
      </trkpt>
      <trkpt lat="51.3904" lon="7.37351">
        <ele>132.420448</ele>
        <time>2023-04-27T10:47:46.808Z</time>
      </trkpt>
      <trkpt lat="51.39038" lon="7.37367">
        <ele>132.420115</ele>
        <time>2023-04-27T10:47:49.804Z</time>
      </trkpt>
      <trkpt lat="51.39037" lon="7.37383">
        <ele>132.419788</ele>
        <time>2023-04-27T10:47:52.798Z</time>
      </trkpt>
      <trkpt lat="51.39034" lon="7.37403">
        <ele>132.319285</ele>
        <time>2023-04-27T10:47:55.783Z</time>
      </trkpt>
      <trkpt lat="51.39031" lon="7.37421">
        <ele>132.151269</ele>
        <time>2023-04-27T10:47:57.802Z</time>
      </trkpt>
      <trkpt lat="51.39026" lon="7.37435">
        <ele>132.011888</ele>
        <time>2023-04-27T10:47:59.791Z</time>
      </trkpt>
      <trkpt lat="51.39021" lon="7.37448">
        <ele>131.873615</ele>
        <time>2023-04-27T10:48:01.810Z</time>
      </trkpt>
      <trkpt lat="51.39016" lon="7.37462">
        <ele>131.726124</ele>
        <time>2023-04-27T10:48:03.818Z</time>
      </trkpt>
      <trkpt lat="51.3901" lon="7.37474">
        <ele>131.588917</ele>
        <time>2023-04-27T10:48:05.800Z</time>
      </trkpt>
      <trkpt lat="51.39005" lon="7.37486">
        <ele>131.458864</ele>
        <time>2023-04-27T10:48:07.801Z</time>
      </trkpt>
      <trkpt lat="51.38999" lon="7.37499">
        <ele>131.315088</ele>
        <time>2023-04-27T10:48:09.800Z</time>
      </trkpt>
      <trkpt lat="51.38993" lon="7.37512">
        <ele>131.172676</ele>
        <time>2023-04-27T10:48:11.805Z</time>
      </trkpt>
      <trkpt lat="51.38988" lon="7.37524">
        <ele>131.038633</ele>
        <time>2023-04-27T10:48:13.802Z</time>
      </trkpt>
      <trkpt lat="51.38982" lon="7.37536">
        <ele>130.903974</ele>
        <time>2023-04-27T10:48:15.790Z</time>
      </trkpt>
      <trkpt lat="51.38976" lon="7.37547">
        <ele>130.769459</ele>
        <time>2023-04-27T10:48:17.797Z</time>
      </trkpt>
      <trkpt lat="51.38968" lon="7.37564">
        <ele>130.581071</ele>
        <time>2023-04-27T10:48:20.822Z</time>
      </trkpt>
      <trkpt lat="51.3896" lon="7.37581">
        <ele>130.383896</ele>
        <time>2023-04-27T10:48:23.806Z</time>
      </trkpt>
      <trkpt lat="51.38955" lon="7.37593">
        <ele>130.25143</ele>
        <time>2023-04-27T10:48:25.798Z</time>
      </trkpt>
      <trkpt lat="51.38947" lon="7.37611">
        <ele>130.056853</ele>
        <time>2023-04-27T10:48:28.808Z</time>
      </trkpt>
      <trkpt lat="51.38941" lon="7.37623">
        <ele>129.925114</ele>
        <time>2023-04-27T10:48:30.815Z</time>
      </trkpt>
      <trkpt lat="51.38933" lon="7.37639">
        <ele>129.794298</ele>
        <time>2023-04-27T10:48:33.803Z</time>
      </trkpt>
      <trkpt lat="51.38926" lon="7.3765">
        <ele>129.75183</ele>
        <time>2023-04-27T10:48:35.798Z</time>
      </trkpt>
      <trkpt lat="51.3892" lon="7.37663">
        <ele>129.706075</ele>
        <time>2023-04-27T10:48:37.797Z</time>
      </trkpt>
      <trkpt lat="51.38914" lon="7.37674">
        <ele>129.66308</ele>
        <time>2023-04-27T10:48:39.817Z</time>
      </trkpt>
      <trkpt lat="51.38907" lon="7.37684">
        <ele>129.620979</ele>
        <time>2023-04-27T10:48:41.811Z</time>
      </trkpt>
      <trkpt lat="51.389" lon="7.37694">
        <ele>129.578603</ele>
        <time>2023-04-27T10:48:43.805Z</time>
      </trkpt>
      <trkpt lat="51.38894" lon="7.37704">
        <ele>129.53643</ele>
        <time>2023-04-27T10:48:45.794Z</time>
      </trkpt>
      <trkpt lat="51.38884" lon="7.37719">
        <ele>129.474897</ele>
        <time>2023-04-27T10:48:48.816Z</time>
      </trkpt>
      <trkpt lat="51.38874" lon="7.37733">
        <ele>129.414906</ele>
        <time>2023-04-27T10:48:51.798Z</time>
      </trkpt>
      <trkpt lat="51.38867" lon="7.37743">
        <ele>129.371401</ele>
        <time>2023-04-27T10:48:53.799Z</time>
      </trkpt>
      <trkpt lat="51.38856" lon="7.37756">
        <ele>129.311313</ele>
        <time>2023-04-27T10:48:56.801Z</time>
      </trkpt>
      <trkpt lat="51.38849" lon="7.37766">
        <ele>129.266558</ele>
        <time>2023-04-27T10:48:58.805Z</time>
      </trkpt>
      <trkpt lat="51.38838" lon="7.37777">
        <ele>129.20833</ele>
        <time>2023-04-27T10:49:01.791Z</time>
      </trkpt>
      <trkpt lat="51.38829" lon="7.37791">
        <ele>129.150528</ele>
        <time>2023-04-27T10:49:04.805Z</time>
      </trkpt>
      <trkpt lat="51.38822" lon="7.37801">
        <ele>129.108161</ele>
        <time>2023-04-27T10:49:06.804Z</time>
      </trkpt>
      <trkpt lat="51.38815" lon="7.3781">
        <ele>129.065724</ele>
        <time>2023-04-27T10:49:08.829Z</time>
      </trkpt>
      <trkpt lat="51.38807" lon="7.37819">
        <ele>129.023287</ele>
        <time>2023-04-27T10:49:10.807Z</time>
      </trkpt>
      <trkpt lat="51.388" lon="7.37828">
        <ele>128.989967</ele>
        <time>2023-04-27T10:49:12.810Z</time>
      </trkpt>
      <trkpt lat="51.38793" lon="7.37837">
        <ele>128.964278</ele>
        <time>2023-04-27T10:49:14.777Z</time>
      </trkpt>
      <trkpt lat="51.38785" lon="7.37845">
        <ele>128.939047</ele>
        <time>2023-04-27T10:49:16.838Z</time>
      </trkpt>
      <trkpt lat="51.38775" lon="7.37857">
        <ele>128.901747</ele>
        <time>2023-04-27T10:49:19.818Z</time>
      </trkpt>
      <trkpt lat="51.38767" lon="7.37866">
        <ele>128.875627</ele>
        <time>2023-04-27T10:49:21.804Z</time>
      </trkpt>
      <trkpt lat="51.38759" lon="7.37875">
        <ele>128.848285</ele>
        <time>2023-04-27T10:49:23.790Z</time>
      </trkpt>
      <trkpt lat="51.38751" lon="7.37884">
        <ele>128.821301</ele>
        <time>2023-04-27T10:49:25.778Z</time>
      </trkpt>
      <trkpt lat="51.38743" lon="7.37893">
        <ele>128.793097</ele>
        <time>2023-04-27T10:49:27.812Z</time>
      </trkpt>
      <trkpt lat="51.38735" lon="7.37901">
        <ele>128.766672</ele>
        <time>2023-04-27T10:49:29.813Z</time>
      </trkpt>
      <trkpt lat="51.38727" lon="7.37909">
        <ele>128.741157</ele>
        <time>2023-04-27T10:49:31.797Z</time>
      </trkpt>
      <trkpt lat="51.38719" lon="7.37916">
        <ele>128.715768</ele>
        <time>2023-04-27T10:49:33.819Z</time>
      </trkpt>
      <trkpt lat="51.38711" lon="7.37925">
        <ele>128.688114</ele>
        <time>2023-04-27T10:49:35.797Z</time>
      </trkpt>
      <trkpt lat="51.38704" lon="7.37933">
        <ele>128.662681</ele>
        <time>2023-04-27T10:49:37.812Z</time>
      </trkpt>
      <trkpt lat="51.38696" lon="7.3794">
        <ele>128.637343</ele>
        <time>2023-04-27T10:49:39.803Z</time>
      </trkpt>
      <trkpt lat="51.38685" lon="7.37953">
        <ele>128.598992</ele>
        <time>2023-04-27T10:49:42.799Z</time>
      </trkpt>
      <trkpt lat="51.38677" lon="7.37961">
        <ele>128.573863</ele>
        <time>2023-04-27T10:49:44.808Z</time>
      </trkpt>
      <trkpt lat="51.38669" lon="7.37969">
        <ele>128.547511</ele>
        <time>2023-04-27T10:49:46.819Z</time>
      </trkpt>
      <trkpt lat="51.38661" lon="7.37977">
        <ele>128.520375</ele>
        <time>2023-04-27T10:49:48.810Z</time>
      </trkpt>
      <trkpt lat="51.38653" lon="7.37986">
        <ele>128.485138</ele>
        <time>2023-04-27T10:49:50.805Z</time>
      </trkpt>
      <trkpt lat="51.38645" lon="7.37995">
        <ele>128.428141</ele>
        <time>2023-04-27T10:49:52.800Z</time>
      </trkpt>
      <trkpt lat="51.38636" lon="7.38004">
        <ele>128.371259</ele>
        <time>2023-04-27T10:49:54.811Z</time>
      </trkpt>
      <trkpt lat="51.38628" lon="7.38012">
        <ele>128.315928</ele>
        <time>2023-04-27T10:49:56.802Z</time>
      </trkpt>
      <trkpt lat="51.3862" lon="7.3802">
        <ele>128.260491</ele>
        <time>2023-04-27T10:49:58.815Z</time>
      </trkpt>
      <trkpt lat="51.38612" lon="7.38029">
        <ele>128.204647</ele>
        <time>2023-04-27T10:50:00.806Z</time>
      </trkpt>
      <trkpt lat="51.38604" lon="7.38038">
        <ele>128.147765</ele>
        <time>2023-04-27T10:50:02.813Z</time>
      </trkpt>
      <trkpt lat="51.38596" lon="7.38046">
        <ele>128.094013</ele>
        <time>2023-04-27T10:50:04.800Z</time>
      </trkpt>
      <trkpt lat="51.38588" lon="7.38054">
        <ele>128.039933</ele>
        <time>2023-04-27T10:50:06.820Z</time>
      </trkpt>
      <trkpt lat="51.3858" lon="7.38063">
        <ele>127.985083</ele>
        <time>2023-04-27T10:50:08.807Z</time>
      </trkpt>
      <trkpt lat="51.38572" lon="7.38071">
        <ele>127.930914</ele>
        <time>2023-04-27T10:50:10.803Z</time>
      </trkpt>
      <trkpt lat="51.38564" lon="7.38081">
        <ele>127.872891</ele>
        <time>2023-04-27T10:50:12.799Z</time>
      </trkpt>
      <trkpt lat="51.38557" lon="7.3809">
        <ele>127.819394</ele>
        <time>2023-04-27T10:50:14.788Z</time>
      </trkpt>
      <trkpt lat="51.38547" lon="7.38101">
        <ele>127.749739</ele>
        <time>2023-04-27T10:50:17.798Z</time>
      </trkpt>
      <trkpt lat="51.38539" lon="7.38111">
        <ele>127.690506</ele>
        <time>2023-04-27T10:50:20.812Z</time>
      </trkpt>
      <trkpt lat="51.38531" lon="7.3812">
        <ele>127.637279</ele>
        <time>2023-04-27T10:50:23.793Z</time>
      </trkpt>
      <trkpt lat="51.38524" lon="7.38128">
        <ele>127.583263</ele>
        <time>2023-04-27T10:50:26.807Z</time>
      </trkpt>
      <trkpt lat="51.38516" lon="7.38137">
        <ele>127.530655</ele>
        <time>2023-04-27T10:50:29.807Z</time>
      </trkpt>
      <trkpt lat="51.38509" lon="7.38146">
        <ele>127.476979</ele>
        <time>2023-04-27T10:50:32.832Z</time>
      </trkpt>
      <trkpt lat="51.38499" lon="7.38161">
        <ele>127.739955</ele>
        <time>2023-04-27T10:50:35.791Z</time>
      </trkpt>
      <trkpt lat="51.38491" lon="7.3817">
        <ele>127.987546</ele>
        <time>2023-04-27T10:50:37.797Z</time>
      </trkpt>
      <trkpt lat="51.38483" lon="7.38179">
        <ele>128.225794</ele>
        <time>2023-04-27T10:50:39.806Z</time>
      </trkpt>
      <trkpt lat="51.38476" lon="7.38188">
        <ele>128.455468</ele>
        <time>2023-04-27T10:50:41.824Z</time>
      </trkpt>
      <trkpt lat="51.38467" lon="7.38198">
        <ele>128.731835</ele>
        <time>2023-04-27T10:50:44.807Z</time>
      </trkpt>
      <trkpt lat="51.38458" lon="7.38209">
        <ele>129.014701</ele>
        <time>2023-04-27T10:50:47.815Z</time>
      </trkpt>
      <trkpt lat="51.3845" lon="7.38215">
        <ele>129.255189</ele>
        <time>2023-04-27T10:50:50.794Z</time>
      </trkpt>
      <trkpt lat="51.3844" lon="7.38221">
        <ele>129.508484</ele>
        <time>2023-04-27T10:50:53.797Z</time>
      </trkpt>
      <trkpt lat="51.38437" lon="7.38235">
        <ele>129.747942</ele>
        <time>2023-04-27T10:50:56.802Z</time>
      </trkpt>
      <trkpt lat="51.38442" lon="7.38251">
        <ele>130.023544</ele>
        <time>2023-04-27T10:51:00.798Z</time>
      </trkpt>
      <trkpt lat="51.38444" lon="7.38268">
        <ele>130.296997</ele>
        <time>2023-04-27T10:51:04.806Z</time>
      </trkpt>
      <trkpt lat="51.38448" lon="7.38283">
        <ele>130.557689</ele>
        <time>2023-04-27T10:51:08.823Z</time>
      </trkpt>
      <trkpt lat="51.38452" lon="7.383">
        <ele>130.830486</ele>
        <time>2023-04-27T10:51:12.801Z</time>
      </trkpt>
      <trkpt lat="51.38456" lon="7.38315">
        <ele>131.094871</ele>
        <time>2023-04-27T10:51:16.832Z</time>
      </trkpt>
      <trkpt lat="51.38459" lon="7.38329">
        <ele>131.327541</ele>
        <time>2023-04-27T10:51:20.789Z</time>
      </trkpt>
      <trkpt lat="51.38462" lon="7.38343">
        <ele>131.566836</ele>
        <time>2023-04-27T10:51:24.808Z</time>
      </trkpt>
      <trkpt lat="51.38465" lon="7.3836">
        <ele>131.847653</ele>
        <time>2023-04-27T10:51:29.813Z</time>
      </trkpt>
      <trkpt lat="51.38469" lon="7.38377">
        <ele>132.080086</ele>
        <time>2023-04-27T10:51:33.803Z</time>
      </trkpt>
      <trkpt lat="51.38472" lon="7.38393">
        <ele>132.23171</ele>
        <time>2023-04-27T10:51:36.790Z</time>
      </trkpt>
      <trkpt lat="51.38476" lon="7.38407">
        <ele>132.379778</ele>
        <time>2023-04-27T10:51:40.821Z</time>
      </trkpt>
      <trkpt lat="51.38476" lon="7.38423">
        <ele>132.524579</ele>
        <time>2023-04-27T10:51:46.793Z</time>
      </trkpt>
      <trkpt lat="51.38482" lon="7.38442">
        <ele>132.723212</ele>
        <time>2023-04-27T10:52:06.794Z</time>
      </trkpt>
      <trkpt lat="51.38488" lon="7.38454">
        <ele>132.868384</ele>
        <time>2023-04-27T10:52:09.789Z</time>
      </trkpt>
      <trkpt lat="51.38491" lon="7.3847">
        <ele>133.02656</ele>
        <time>2023-04-27T10:52:12.796Z</time>
      </trkpt>
      <trkpt lat="51.38497" lon="7.38489">
        <ele>133.21829</ele>
        <time>2023-04-27T10:52:15.789Z</time>
      </trkpt>
      <trkpt lat="51.38502" lon="7.38501">
        <ele>133.360181</ele>
        <time>2023-04-27T10:52:17.795Z</time>
      </trkpt>
      <trkpt lat="51.38508" lon="7.38514">
        <ele>133.507619</ele>
        <time>2023-04-27T10:52:19.805Z</time>
      </trkpt>
      <trkpt lat="51.38513" lon="7.38528">
        <ele>133.659007</ele>
        <time>2023-04-27T10:52:21.807Z</time>
      </trkpt>
      <trkpt lat="51.38518" lon="7.38543">
        <ele>133.812805</ele>
        <time>2023-04-27T10:52:23.804Z</time>
      </trkpt>
      <trkpt lat="51.38523" lon="7.38557">
        <ele>133.969442</ele>
        <time>2023-04-27T10:52:25.801Z</time>
      </trkpt>
      <trkpt lat="51.38529" lon="7.38571">
        <ele>134.125788</ele>
        <time>2023-04-27T10:52:27.813Z</time>
      </trkpt>
      <trkpt lat="51.38534" lon="7.38586">
        <ele>134.283632</ele>
        <time>2023-04-27T10:52:29.802Z</time>
      </trkpt>
      <trkpt lat="51.38539" lon="7.386">
        <ele>134.431311</ele>
        <time>2023-04-27T10:52:31.793Z</time>
      </trkpt>
      <trkpt lat="51.38544" lon="7.38614">
        <ele>134.580372</ele>
        <time>2023-04-27T10:52:33.796Z</time>
      </trkpt>
      <trkpt lat="51.38549" lon="7.38627">
        <ele>134.733744</ele>
        <time>2023-04-27T10:52:35.822Z</time>
      </trkpt>
      <trkpt lat="51.38551" lon="7.38647">
        <ele>135.029193</ele>
        <time>2023-04-27T10:52:38.794Z</time>
      </trkpt>
      <trkpt lat="51.38547" lon="7.38668">
        <ele>135.326698</ele>
        <time>2023-04-27T10:52:41.820Z</time>
      </trkpt>
      <trkpt lat="51.38543" lon="7.38681">
        <ele>135.534134</ele>
        <time>2023-04-27T10:52:43.806Z</time>
      </trkpt>
      <trkpt lat="51.38536" lon="7.38698">
        <ele>135.839408</ele>
        <time>2023-04-27T10:52:46.792Z</time>
      </trkpt>
      <trkpt lat="51.38528" lon="7.38714">
        <ele>136.123772</ele>
        <time>2023-04-27T10:52:49.811Z</time>
      </trkpt>
      <trkpt lat="51.38519" lon="7.38728">
        <ele>136.405325</ele>
        <time>2023-04-27T10:52:52.819Z</time>
      </trkpt>
      <trkpt lat="51.3851" lon="7.38745">
        <ele>136.713982</ele>
        <time>2023-04-27T10:52:55.795Z</time>
      </trkpt>
      <trkpt lat="51.38502" lon="7.38759">
        <ele>136.992985</ele>
        <time>2023-04-27T10:52:58.813Z</time>
      </trkpt>
      <trkpt lat="51.38493" lon="7.38776">
        <ele>137.298735</ele>
        <time>2023-04-27T10:53:01.798Z</time>
      </trkpt>
      <trkpt lat="51.38487" lon="7.38787">
        <ele>137.513085</ele>
        <time>2023-04-27T10:53:03.804Z</time>
      </trkpt>
      <trkpt lat="51.38478" lon="7.38803">
        <ele>137.807598</ele>
        <time>2023-04-27T10:53:06.817Z</time>
      </trkpt>
      <trkpt lat="51.3847" lon="7.38817">
        <ele>138.092297</ele>
        <time>2023-04-27T10:53:09.799Z</time>
      </trkpt>
      <trkpt lat="51.38461" lon="7.38833">
        <ele>138.389947</ele>
        <time>2023-04-27T10:53:12.807Z</time>
      </trkpt>
      <trkpt lat="51.38453" lon="7.38848">
        <ele>138.665227</ele>
        <time>2023-04-27T10:53:15.803Z</time>
      </trkpt>
      <trkpt lat="51.38445" lon="7.38862">
        <ele>138.918063</ele>
        <time>2023-04-27T10:53:18.827Z</time>
      </trkpt>
      <trkpt lat="51.38438" lon="7.38876">
        <ele>139.131618</ele>
        <time>2023-04-27T10:53:21.797Z</time>
      </trkpt>
      <trkpt lat="51.38431" lon="7.38889">
        <ele>139.344885</ele>
        <time>2023-04-27T10:53:24.807Z</time>
      </trkpt>
      <trkpt lat="51.38424" lon="7.38902">
        <ele>139.562571</ele>
        <time>2023-04-27T10:53:27.782Z</time>
      </trkpt>
      <trkpt lat="51.38417" lon="7.38915">
        <ele>139.76548</ele>
        <time>2023-04-27T10:53:30.801Z</time>
      </trkpt>
      <trkpt lat="51.38411" lon="7.38927">
        <ele>139.957734</ele>
        <time>2023-04-27T10:53:33.805Z</time>
      </trkpt>
      <trkpt lat="51.38405" lon="7.38938">
        <ele>140.137739</ele>
        <time>2023-04-27T10:53:36.812Z</time>
      </trkpt>
      <trkpt lat="51.38399" lon="7.38951">
        <ele>140.330182</ele>
        <time>2023-04-27T10:53:39.811Z</time>
      </trkpt>
      <trkpt lat="51.38392" lon="7.38963">
        <ele>140.529904</ele>
        <time>2023-04-27T10:53:42.820Z</time>
      </trkpt>
      <trkpt lat="51.38387" lon="7.38977">
        <ele>140.725134</ele>
        <time>2023-04-27T10:53:45.791Z</time>
      </trkpt>
      <trkpt lat="51.38383" lon="7.38991">
        <ele>140.918299</ele>
        <time>2023-04-27T10:53:48.798Z</time>
      </trkpt>
      <trkpt lat="51.38382" lon="7.39006">
        <ele>141.109311</ele>
        <time>2023-04-27T10:53:51.798Z</time>
      </trkpt>
      <trkpt lat="51.38388" lon="7.3902">
        <ele>141.3066</ele>
        <time>2023-04-27T10:53:54.801Z</time>
      </trkpt>
      <trkpt lat="51.38395" lon="7.3903">
        <ele>141.497172</ele>
        <time>2023-04-27T10:53:57.794Z</time>
      </trkpt>
      <trkpt lat="51.38405" lon="7.39041">
        <ele>141.727738</ele>
        <time>2023-04-27T10:54:01.810Z</time>
      </trkpt>
      <trkpt lat="51.38405" lon="7.39056">
        <ele>141.910186</ele>
        <time>2023-04-27T10:54:05.804Z</time>
      </trkpt>
      <trkpt lat="51.38401" lon="7.39074">
        <ele>142.139243</ele>
        <time>2023-04-27T10:54:09.803Z</time>
      </trkpt>
      <trkpt lat="51.38398" lon="7.39089">
        <ele>142.38575</ele>
        <time>2023-04-27T10:54:12.801Z</time>
      </trkpt>
      <trkpt lat="51.38395" lon="7.39104">
        <ele>142.819127</ele>
        <time>2023-04-27T10:54:15.800Z</time>
      </trkpt>
      <trkpt lat="51.38394" lon="7.3912">
        <ele>143.294398</ele>
        <time>2023-04-27T10:54:20.802Z</time>
      </trkpt>
      <trkpt lat="51.38398" lon="7.39134">
        <ele>143.724579</ele>
        <time>2023-04-27T10:54:26.789Z</time>
      </trkpt>
      <trkpt lat="51.38398" lon="7.39148">
        <ele>144.14079</ele>
        <time>2023-04-27T10:54:32.803Z</time>
      </trkpt>
      <trkpt lat="51.38398" lon="7.39165">
        <ele>144.622052</ele>
        <time>2023-04-27T10:54:40.808Z</time>
      </trkpt>
      <trkpt lat="51.38399" lon="7.39181">
        <ele>145.075166</ele>
        <time>2023-04-27T10:54:45.799Z</time>
      </trkpt>
      <trkpt lat="51.384" lon="7.39197">
        <ele>145.540991</ele>
        <time>2023-04-27T10:54:50.808Z</time>
      </trkpt>
      <trkpt lat="51.384" lon="7.39212">
        <ele>145.968634</ele>
        <time>2023-04-27T10:54:54.805Z</time>
      </trkpt>
      <trkpt lat="51.38401" lon="7.39227">
        <ele>146.392625</ele>
        <time>2023-04-27T10:54:58.807Z</time>
      </trkpt>
      <trkpt lat="51.38401" lon="7.39242">
        <ele>146.813677</ele>
        <time>2023-04-27T10:55:02.797Z</time>
      </trkpt>
      <trkpt lat="51.38401" lon="7.39256">
        <ele>147.242427</ele>
        <time>2023-04-27T10:55:06.781Z</time>
      </trkpt>
      <trkpt lat="51.38404" lon="7.39271">
        <ele>147.660396</ele>
        <time>2023-04-27T10:55:10.822Z</time>
      </trkpt>
      <trkpt lat="51.38405" lon="7.39286">
        <ele>148.093422</ele>
        <time>2023-04-27T10:55:14.800Z</time>
      </trkpt>
      <trkpt lat="51.38406" lon="7.39301">
        <ele>148.547441</ele>
        <time>2023-04-27T10:55:19.820Z</time>
      </trkpt>
      <trkpt lat="51.38407" lon="7.39316">
        <ele>148.984671</ele>
        <time>2023-04-27T10:55:25.788Z</time>
      </trkpt>
      <trkpt lat="51.38408" lon="7.39335">
        <ele>149.513665</ele>
        <time>2023-04-27T10:55:43.793Z</time>
      </trkpt>
      <trkpt lat="51.38397" lon="7.39337">
        <ele>150.050076</ele>
        <time>2023-04-27T10:55:48.806Z</time>
      </trkpt>
      <trkpt lat="51.38387" lon="7.39342">
        <ele>150.512456</ele>
        <time>2023-04-27T10:55:51.791Z</time>
      </trkpt>
      <trkpt lat="51.38377" lon="7.39341">
        <ele>150.178805</ele>
        <time>2023-04-27T10:55:54.800Z</time>
      </trkpt>
      <trkpt lat="51.38365" lon="7.39344">
        <ele>149.716881</ele>
        <time>2023-04-27T10:55:57.817Z</time>
      </trkpt>
      <trkpt lat="51.38354" lon="7.39349">
        <ele>149.276474</ele>
        <time>2023-04-27T10:56:00.800Z</time>
      </trkpt>
      <trkpt lat="51.38344" lon="7.39353">
        <ele>148.873028</ele>
        <time>2023-04-27T10:56:04.825Z</time>
      </trkpt>
      <trkpt lat="51.38334" lon="7.3935">
        <ele>148.466511</ele>
        <time>2023-04-27T10:56:09.806Z</time>
      </trkpt>
      <trkpt lat="51.38325" lon="7.39345">
        <ele>148.076072</ele>
        <time>2023-04-27T10:56:13.807Z</time>
      </trkpt>
      <trkpt lat="51.38316" lon="7.39342">
        <ele>147.698566</ele>
        <time>2023-04-27T10:56:17.823Z</time>
      </trkpt>
      <trkpt lat="51.3831" lon="7.3933">
        <ele>147.326451</ele>
        <time>2023-04-27T10:56:22.791Z</time>
      </trkpt>
      <trkpt lat="51.38311" lon="7.39314">
        <ele>146.922507</ele>
        <time>2023-04-27T10:56:25.808Z</time>
      </trkpt>
      <trkpt lat="51.38314" lon="7.39296">
        <ele>146.454985</ele>
        <time>2023-04-27T10:56:29.819Z</time>
      </trkpt>
      <trkpt lat="51.38316" lon="7.39281">
        <ele>146.084734</ele>
        <time>2023-04-27T10:56:32.809Z</time>
      </trkpt>
      <trkpt lat="51.38319" lon="7.39266">
        <ele>145.694101</ele>
        <time>2023-04-27T10:56:35.779Z</time>
      </trkpt>
      <trkpt lat="51.38322" lon="7.3925">
        <ele>145.285026</ele>
        <time>2023-04-27T10:56:38.807Z</time>
      </trkpt>
      <trkpt lat="51.38325" lon="7.39235">
        <ele>144.890087</ele>
        <time>2023-04-27T10:56:42.808Z</time>
      </trkpt>
      <trkpt lat="51.38328" lon="7.39217">
        <ele>144.423752</ele>
        <time>2023-04-27T10:57:13.812Z</time>
      </trkpt>
      <trkpt lat="51.38327" lon="7.392">
        <ele>144.013729</ele>
        <time>2023-04-27T10:57:21.805Z</time>
      </trkpt>
      <trkpt lat="51.38324" lon="7.39214">
        <ele>143.626018</ele>
        <time>2023-04-27T11:00:07.820Z</time>
      </trkpt>
      <trkpt lat="51.3832" lon="7.39229">
        <ele>143.455706</ele>
        <time>2023-04-27T11:00:11.807Z</time>
      </trkpt>
      <trkpt lat="51.38316" lon="7.39243">
        <ele>143.482171</ele>
        <time>2023-04-27T11:00:15.801Z</time>
      </trkpt>
      <trkpt lat="51.38313" lon="7.3926">
        <ele>143.513785</ele>
        <time>2023-04-27T11:00:19.808Z</time>
      </trkpt>
      <trkpt lat="51.3831" lon="7.39278">
        <ele>143.546503</ele>
        <time>2023-04-27T11:00:23.806Z</time>
      </trkpt>
      <trkpt lat="51.38307" lon="7.39292">
        <ele>143.57355</ele>
        <time>2023-04-27T11:00:26.788Z</time>
      </trkpt>
      <trkpt lat="51.38304" lon="7.39308">
        <ele>143.602701</ele>
        <time>2023-04-27T11:00:29.801Z</time>
      </trkpt>
      <trkpt lat="51.38302" lon="7.39324">
        <ele>143.632311</ele>
        <time>2023-04-27T11:00:32.804Z</time>
      </trkpt>
      <trkpt lat="51.383" lon="7.3934">
        <ele>143.662336</ele>
        <time>2023-04-27T11:00:35.797Z</time>
      </trkpt>
      <trkpt lat="51.38299" lon="7.39358">
        <ele>143.694607</ele>
        <time>2023-04-27T11:00:38.808Z</time>
      </trkpt>
      <trkpt lat="51.38302" lon="7.39377">
        <ele>143.728883</ele>
        <time>2023-04-27T11:00:41.812Z</time>
      </trkpt>
      <trkpt lat="51.38303" lon="7.39394">
        <ele>143.759527</ele>
        <time>2023-04-27T11:00:44.814Z</time>
      </trkpt>
      <trkpt lat="51.38299" lon="7.3941">
        <ele>143.789451</ele>
        <time>2023-04-27T11:00:47.807Z</time>
      </trkpt>
      <trkpt lat="51.38298" lon="7.39429">
        <ele>143.823275</ele>
        <time>2023-04-27T11:00:50.795Z</time>
      </trkpt>
      <trkpt lat="51.38297" lon="7.39448">
        <ele>143.857452</ele>
        <time>2023-04-27T11:00:53.796Z</time>
      </trkpt>
      <trkpt lat="51.38295" lon="7.39468">
        <ele>143.89261</ele>
        <time>2023-04-27T11:00:56.816Z</time>
      </trkpt>
      <trkpt lat="51.38294" lon="7.39489">
        <ele>143.93063</ele>
        <time>2023-04-27T11:00:59.809Z</time>
      </trkpt>
      <trkpt lat="51.38292" lon="7.39504">
        <ele>143.949867</ele>
        <time>2023-04-27T11:01:01.782Z</time>
      </trkpt>
      <trkpt lat="51.3829" lon="7.39524">
        <ele>143.915243</ele>
        <time>2023-04-27T11:01:04.812Z</time>
      </trkpt>
      <trkpt lat="51.38289" lon="7.39545">
        <ele>143.880615</ele>
        <time>2023-04-27T11:01:07.808Z</time>
      </trkpt>
      <trkpt lat="51.3829" lon="7.3956">
        <ele>143.855775</ele>
        <time>2023-04-27T11:01:09.801Z</time>
      </trkpt>
      <trkpt lat="51.38288" lon="7.39576">
        <ele>143.8289</ele>
        <time>2023-04-27T11:01:11.810Z</time>
      </trkpt>
      <trkpt lat="51.38288" lon="7.39591">
        <ele>143.804084</ele>
        <time>2023-04-27T11:01:13.815Z</time>
      </trkpt>
      <trkpt lat="51.38288" lon="7.39608">
        <ele>143.775238</ele>
        <time>2023-04-27T11:01:15.797Z</time>
      </trkpt>
      <trkpt lat="51.38287" lon="7.39625">
        <ele>143.746788</ele>
        <time>2023-04-27T11:01:17.803Z</time>
      </trkpt>
      <trkpt lat="51.38287" lon="7.3964">
        <ele>143.721636</ele>
        <time>2023-04-27T11:01:19.805Z</time>
      </trkpt>
      <trkpt lat="51.38287" lon="7.39655">
        <ele>143.695814</ele>
        <time>2023-04-27T11:01:21.804Z</time>
      </trkpt>
      <trkpt lat="51.38287" lon="7.39672">
        <ele>143.667989</ele>
        <time>2023-04-27T11:01:23.812Z</time>
      </trkpt>
      <trkpt lat="51.38286" lon="7.39687">
        <ele>143.641399</ele>
        <time>2023-04-27T11:01:25.844Z</time>
      </trkpt>
      <trkpt lat="51.38286" lon="7.39703">
        <ele>143.616092</ele>
        <time>2023-04-27T11:01:27.809Z</time>
      </trkpt>
      <trkpt lat="51.38287" lon="7.39717">
        <ele>143.591754</ele>
        <time>2023-04-27T11:01:29.795Z</time>
      </trkpt>
      <trkpt lat="51.38288" lon="7.39732">
        <ele>143.566666</ele>
        <time>2023-04-27T11:01:31.815Z</time>
      </trkpt>
      <trkpt lat="51.38289" lon="7.39748">
        <ele>143.540189</ele>
        <time>2023-04-27T11:01:33.783Z</time>
      </trkpt>
      <trkpt lat="51.38289" lon="7.39762">
        <ele>143.515553</ele>
        <time>2023-04-27T11:01:35.780Z</time>
      </trkpt>
      <trkpt lat="51.38288" lon="7.39781">
        <ele>143.483873</ele>
        <time>2023-04-27T11:01:38.804Z</time>
      </trkpt>
      <trkpt lat="51.38289" lon="7.39799">
        <ele>143.216686</ele>
        <time>2023-04-27T11:01:41.818Z</time>
      </trkpt>
      <trkpt lat="51.38292" lon="7.39814">
        <ele>142.784022</ele>
        <time>2023-04-27T11:01:44.816Z</time>
      </trkpt>
      <trkpt lat="51.38301" lon="7.39825">
        <ele>142.329253</ele>
        <time>2023-04-27T11:01:48.822Z</time>
      </trkpt>
      <trkpt lat="51.38312" lon="7.39824">
        <ele>141.868853</ele>
        <time>2023-04-27T11:01:53.789Z</time>
      </trkpt>
      <trkpt lat="51.38322" lon="7.39823">
        <ele>141.448469</ele>
        <time>2023-04-27T11:01:58.794Z</time>
      </trkpt>
      <trkpt lat="51.38328" lon="7.39839">
        <ele>140.938763</ele>
        <time>2023-04-27T11:02:18.808Z</time>
      </trkpt>
      <trkpt lat="51.38329" lon="7.39856">
        <ele>140.492158</ele>
        <time>2023-04-27T11:02:20.809Z</time>
      </trkpt>
      <trkpt lat="51.38332" lon="7.39875">
        <ele>139.965087</ele>
        <time>2023-04-27T11:02:22.800Z</time>
      </trkpt>
      <trkpt lat="51.38337" lon="7.39892">
        <ele>139.49392</ele>
        <time>2023-04-27T11:02:24.812Z</time>
      </trkpt>
      <trkpt lat="51.38333" lon="7.39905">
        <ele>139.110217</ele>
        <time>2023-04-27T11:02:26.798Z</time>
      </trkpt>
      <trkpt lat="51.38326" lon="7.39916">
        <ele>138.685819</ele>
        <time>2023-04-27T11:02:28.797Z</time>
      </trkpt>
      <trkpt lat="51.38321" lon="7.39935">
        <ele>138.151091</ele>
        <time>2023-04-27T11:02:31.818Z</time>
      </trkpt>
      <trkpt lat="51.38323" lon="7.39956">
        <ele>137.588879</ele>
        <time>2023-04-27T11:02:34.843Z</time>
      </trkpt>
      <trkpt lat="51.38324" lon="7.39977">
        <ele>137.026667</ele>
        <time>2023-04-27T11:02:37.789Z</time>
      </trkpt>
      <trkpt lat="51.38326" lon="7.39997">
        <ele>136.516335</ele>
        <time>2023-04-27T11:02:40.820Z</time>
      </trkpt>
      <trkpt lat="51.38328" lon="7.40014">
        <ele>136.044438</ele>
        <time>2023-04-27T11:02:44.820Z</time>
      </trkpt>
      <trkpt lat="51.38329" lon="7.4">
        <ele>135.958939</ele>
        <time>2023-04-27T11:02:50.800Z</time>
      </trkpt>
      <trkpt lat="51.38326" lon="7.39986">
        <ele>136.10444</ele>
        <time>2023-04-27T11:02:54.805Z</time>
      </trkpt>
      <trkpt lat="51.38325" lon="7.39971">
        <ele>136.252426</ele>
        <time>2023-04-27T11:02:57.823Z</time>
      </trkpt>
      <trkpt lat="51.38324" lon="7.39954">
        <ele>136.417289</ele>
        <time>2023-04-27T11:03:00.806Z</time>
      </trkpt>
      <trkpt lat="51.38323" lon="7.39938">
        <ele>136.586397</ele>
        <time>2023-04-27T11:03:03.803Z</time>
      </trkpt>
      <trkpt lat="51.38324" lon="7.39921">
        <ele>136.755504</ele>
        <time>2023-04-27T11:03:06.801Z</time>
      </trkpt>
      <trkpt lat="51.38331" lon="7.39906">
        <ele>136.937518</ele>
        <time>2023-04-27T11:03:09.801Z</time>
      </trkpt>
      <trkpt lat="51.38337" lon="7.3989">
        <ele>137.116679</ele>
        <time>2023-04-27T11:03:12.943Z</time>
      </trkpt>
      <trkpt lat="51.38331" lon="7.39873">
        <ele>137.309368</ele>
        <time>2023-04-27T11:03:15.812Z</time>
      </trkpt>
      <trkpt lat="51.38327" lon="7.39858">
        <ele>137.476568</ele>
        <time>2023-04-27T11:03:18.798Z</time>
      </trkpt>
      <trkpt lat="51.38324" lon="7.39844">
        <ele>137.621628</ele>
        <time>2023-04-27T11:03:25.802Z</time>
      </trkpt>
      <trkpt lat="51.38322" lon="7.39829">
        <ele>137.771172</ele>
        <time>2023-04-27T11:03:36.788Z</time>
      </trkpt>
      <trkpt lat="51.38329" lon="7.39817">
        <ele>137.933562</ele>
        <time>2023-04-27T11:03:45.793Z</time>
      </trkpt>
      <trkpt lat="51.38338" lon="7.3981">
        <ele>138.099527</ele>
        <time>2023-04-27T11:03:50.800Z</time>
      </trkpt>
      <trkpt lat="51.38347" lon="7.39805">
        <ele>138.256261</ele>
        <time>2023-04-27T11:03:54.816Z</time>
      </trkpt>
      <trkpt lat="51.38356" lon="7.398">
        <ele>138.405628</ele>
        <time>2023-04-27T11:03:57.803Z</time>
      </trkpt>
      <trkpt lat="51.38367" lon="7.39795">
        <ele>138.582983</ele>
        <time>2023-04-27T11:04:01.808Z</time>
      </trkpt>
      <trkpt lat="51.38376" lon="7.39788">
        <ele>138.742833</ele>
        <time>2023-04-27T11:04:05.789Z</time>
      </trkpt>
      <trkpt lat="51.38387" lon="7.39781">
        <ele>138.485181</ele>
        <time>2023-04-27T11:04:09.808Z</time>
      </trkpt>
      <trkpt lat="51.38396" lon="7.39775">
        <ele>138.260622</ele>
        <time>2023-04-27T11:04:12.827Z</time>
      </trkpt>
      <trkpt lat="51.38405" lon="7.39768">
        <ele>138.047218</ele>
        <time>2023-04-27T11:04:15.800Z</time>
      </trkpt>
      <trkpt lat="51.38415" lon="7.39763">
        <ele>137.801769</ele>
        <time>2023-04-27T11:04:19.806Z</time>
      </trkpt>
      <trkpt lat="51.38425" lon="7.39761">
        <ele>137.575811</ele>
        <time>2023-04-27T11:04:23.820Z</time>
      </trkpt>
      <trkpt lat="51.38433" lon="7.39771">
        <ele>137.334754</ele>
        <time>2023-04-27T11:04:27.800Z</time>
      </trkpt>
      <trkpt lat="51.38438" lon="7.39784">
        <ele>137.120422</ele>
        <time>2023-04-27T11:04:30.807Z</time>
      </trkpt>
      <trkpt lat="51.38443" lon="7.398">
        <ele>136.868021</ele>
        <time>2023-04-27T11:04:33.804Z</time>
      </trkpt>
      <trkpt lat="51.38452" lon="7.39815">
        <ele>136.579098</ele>
        <time>2023-04-27T11:04:36.806Z</time>
      </trkpt>
      <trkpt lat="51.38458" lon="7.39828">
        <ele>136.35097</ele>
        <time>2023-04-27T11:04:38.814Z</time>
      </trkpt>
      <trkpt lat="51.38464" lon="7.39842">
        <ele>136.106302</ele>
        <time>2023-04-27T11:04:40.888Z</time>
      </trkpt>
      <trkpt lat="51.38471" lon="7.39856">
        <ele>135.854298</ele>
        <time>2023-04-27T11:04:42.813Z</time>
      </trkpt>
      <trkpt lat="51.38478" lon="7.39869">
        <ele>135.612439</ele>
        <time>2023-04-27T11:04:44.810Z</time>
      </trkpt>
      <trkpt lat="51.38485" lon="7.39888">
        <ele>135.310778</ele>
        <time>2023-04-27T11:04:47.791Z</time>
      </trkpt>
      <trkpt lat="51.3849" lon="7.399">
        <ele>135.100715</ele>
        <time>2023-04-27T11:04:49.807Z</time>
      </trkpt>
      <trkpt lat="51.38496" lon="7.39913">
        <ele>134.879123</ele>
        <time>2023-04-27T11:04:51.798Z</time>
      </trkpt>
      <trkpt lat="51.38502" lon="7.39927">
        <ele>134.680699</ele>
        <time>2023-04-27T11:04:53.815Z</time>
      </trkpt>
      <trkpt lat="51.38508" lon="7.39941">
        <ele>134.677355</ele>
        <time>2023-04-27T11:04:55.803Z</time>
      </trkpt>
      <trkpt lat="51.38515" lon="7.39956">
        <ele>134.674046</ele>
        <time>2023-04-27T11:04:57.802Z</time>
      </trkpt>
      <trkpt lat="51.38522" lon="7.39972">
        <ele>134.67051</ele>
        <time>2023-04-27T11:05:00.819Z</time>
      </trkpt>
      <trkpt lat="51.38525" lon="7.39986">
        <ele>134.667805</ele>
        <time>2023-04-27T11:05:03.801Z</time>
      </trkpt>
      <trkpt lat="51.38524" lon="7.40003">
        <ele>134.664589</ele>
        <time>2023-04-27T11:05:07.803Z</time>
      </trkpt>
      <trkpt lat="51.38524" lon="7.39988">
        <ele>134.661873</ele>
        <time>2023-04-27T11:06:58.802Z</time>
      </trkpt>
      <trkpt lat="51.38516" lon="7.39995">
        <ele>134.659059</ele>
        <time>2023-04-27T11:07:23.799Z</time>
      </trkpt>
      <trkpt lat="51.38512" lon="7.40015">
        <ele>134.655048</ele>
        <time>2023-04-27T11:12:23.809Z</time>
      </trkpt>
      <trkpt lat="51.38523" lon="7.39988">
        <ele>134.649047</ele>
        <time>2023-04-27T11:16:01.800Z</time>
      </trkpt>
      <trkpt lat="51.38503" lon="7.4002">
        <ele>134.640722</ele>
        <time>2023-04-27T11:22:38.626Z</time>
      </trkpt>
      <trkpt lat="51.38518" lon="7.40007">
        <ele>134.6355</ele>
        <time>2023-04-27T11:24:40.113Z</time>
      </trkpt>
      <trkpt lat="51.38526" lon="7.40017">
        <ele>134.632566</ele>
        <time>2023-04-27T12:11:57.798Z</time>
      </trkpt>
      <trkpt lat="51.38537" lon="7.40022">
        <ele>134.629255</ele>
        <time>2023-04-27T12:12:03.791Z</time>
      </trkpt>
      <trkpt lat="51.38549" lon="7.40026">
        <ele>134.463184</ele>
        <time>2023-04-27T12:12:07.828Z</time>
      </trkpt>
      <trkpt lat="51.38559" lon="7.40028">
        <ele>134.251081</ele>
        <time>2023-04-27T12:12:10.803Z</time>
      </trkpt>
      <trkpt lat="51.38571" lon="7.40034">
        <ele>133.998586</ele>
        <time>2023-04-27T12:12:13.790Z</time>
      </trkpt>
      <trkpt lat="51.38583" lon="7.40039">
        <ele>133.740508</ele>
        <time>2023-04-27T12:12:16.809Z</time>
      </trkpt>
      <trkpt lat="51.38596" lon="7.40045">
        <ele>133.466394</ele>
        <time>2023-04-27T12:12:19.796Z</time>
      </trkpt>
      <trkpt lat="51.38605" lon="7.4005">
        <ele>133.273657</ele>
        <time>2023-04-27T12:12:21.795Z</time>
      </trkpt>
      <trkpt lat="51.38618" lon="7.40056">
        <ele>133.004575</ele>
        <time>2023-04-27T12:12:24.808Z</time>
      </trkpt>
      <trkpt lat="51.3863" lon="7.40061">
        <ele>132.749421</ele>
        <time>2023-04-27T12:12:27.803Z</time>
      </trkpt>
      <trkpt lat="51.38642" lon="7.40069">
        <ele>132.486104</ele>
        <time>2023-04-27T12:12:30.799Z</time>
      </trkpt>
      <trkpt lat="51.3865" lon="7.40075">
        <ele>132.298095</ele>
        <time>2023-04-27T12:12:32.804Z</time>
      </trkpt>
      <trkpt lat="51.38658" lon="7.40081">
        <ele>132.110085</ele>
        <time>2023-04-27T12:12:34.809Z</time>
      </trkpt>
      <trkpt lat="51.3867" lon="7.40089">
        <ele>131.851915</ele>
        <time>2023-04-27T12:12:37.800Z</time>
      </trkpt>
      <trkpt lat="51.38683" lon="7.40097">
        <ele>131.573417</ele>
        <time>2023-04-27T12:12:40.805Z</time>
      </trkpt>
      <trkpt lat="51.38691" lon="7.40102">
        <ele>131.388863</ele>
        <time>2023-04-27T12:12:42.800Z</time>
      </trkpt>
      <trkpt lat="51.387" lon="7.40108">
        <ele>131.198132</ele>
        <time>2023-04-27T12:12:44.806Z</time>
      </trkpt>
      <trkpt lat="51.38712" lon="7.40116">
        <ele>130.938282</ele>
        <time>2023-04-27T12:12:47.801Z</time>
      </trkpt>
      <trkpt lat="51.38721" lon="7.40121">
        <ele>130.824509</ele>
        <time>2023-04-27T12:12:49.815Z</time>
      </trkpt>
      <trkpt lat="51.38733" lon="7.4013">
        <ele>130.66116</ele>
        <time>2023-04-27T12:12:52.811Z</time>
      </trkpt>
      <trkpt lat="51.38746" lon="7.40139">
        <ele>130.496783</ele>
        <time>2023-04-27T12:12:55.786Z</time>
      </trkpt>
      <trkpt lat="51.38754" lon="7.40145">
        <ele>130.387091</ele>
        <time>2023-04-27T12:12:57.796Z</time>
      </trkpt>
      <trkpt lat="51.38763" lon="7.4015">
        <ele>130.273956</ele>
        <time>2023-04-27T12:12:59.800Z</time>
      </trkpt>
      <trkpt lat="51.38772" lon="7.40154">
        <ele>130.164224</ele>
        <time>2023-04-27T12:13:01.777Z</time>
      </trkpt>
      <trkpt lat="51.38785" lon="7.40159">
        <ele>130.009401</ele>
        <time>2023-04-27T12:13:04.806Z</time>
      </trkpt>
      <trkpt lat="51.38798" lon="7.40163">
        <ele>129.851226</ele>
        <time>2023-04-27T12:13:07.793Z</time>
      </trkpt>
      <trkpt lat="51.38811" lon="7.40167">
        <ele>129.694786</ele>
        <time>2023-04-27T12:13:10.811Z</time>
      </trkpt>
      <trkpt lat="51.38824" lon="7.40166">
        <ele>129.540706</ele>
        <time>2023-04-27T12:13:13.790Z</time>
      </trkpt>
      <trkpt lat="51.38836" lon="7.40165">
        <ele>129.393729</ele>
        <time>2023-04-27T12:13:16.806Z</time>
      </trkpt>
      <trkpt lat="51.38846" lon="7.40162">
        <ele>129.265076</ele>
        <time>2023-04-27T12:13:19.813Z</time>
      </trkpt>
      <trkpt lat="51.38857" lon="7.40157">
        <ele>129.138124</ele>
        <time>2023-04-27T12:13:22.795Z</time>
      </trkpt>
      <trkpt lat="51.38867" lon="7.40153">
        <ele>129.010382</ele>
        <time>2023-04-27T12:13:25.786Z</time>
      </trkpt>
      <trkpt lat="51.3888" lon="7.40146">
        <ele>128.853074</ele>
        <time>2023-04-27T12:13:28.792Z</time>
      </trkpt>
      <trkpt lat="51.38892" lon="7.4014">
        <ele>128.787187</ele>
        <time>2023-04-27T12:13:31.802Z</time>
      </trkpt>
      <trkpt lat="51.38903" lon="7.40133">
        <ele>128.760436</ele>
        <time>2023-04-27T12:13:34.809Z</time>
      </trkpt>
      <trkpt lat="51.38915" lon="7.40126">
        <ele>128.733601</ele>
        <time>2023-04-27T12:13:37.813Z</time>
      </trkpt>
      <trkpt lat="51.38926" lon="7.40119">
        <ele>128.707743</ele>
        <time>2023-04-27T12:13:40.810Z</time>
      </trkpt>
      <trkpt lat="51.38938" lon="7.40112">
        <ele>128.681579</ele>
        <time>2023-04-27T12:13:43.800Z</time>
      </trkpt>
      <trkpt lat="51.3895" lon="7.40107">
        <ele>128.655865</ele>
        <time>2023-04-27T12:13:46.800Z</time>
      </trkpt>
      <trkpt lat="51.38962" lon="7.40101">
        <ele>128.627934</ele>
        <time>2023-04-27T12:13:49.779Z</time>
      </trkpt>
      <trkpt lat="51.38974" lon="7.40092">
        <ele>128.59954</ele>
        <time>2023-04-27T12:13:52.785Z</time>
      </trkpt>
      <trkpt lat="51.38985" lon="7.40082">
        <ele>128.572868</ele>
        <time>2023-04-27T12:13:55.783Z</time>
      </trkpt>
      <trkpt lat="51.38996" lon="7.40073">
        <ele>128.546571</ele>
        <time>2023-04-27T12:13:58.806Z</time>
      </trkpt>
      <trkpt lat="51.39007" lon="7.40064">
        <ele>128.519637</ele>
        <time>2023-04-27T12:14:01.790Z</time>
      </trkpt>
      <trkpt lat="51.39019" lon="7.40054">
        <ele>128.491208</ele>
        <time>2023-04-27T12:14:04.806Z</time>
      </trkpt>
      <trkpt lat="51.39031" lon="7.40046">
        <ele>128.463466</ele>
        <time>2023-04-27T12:14:07.793Z</time>
      </trkpt>
      <trkpt lat="51.39043" lon="7.40038">
        <ele>128.43533</ele>
        <time>2023-04-27T12:14:10.819Z</time>
      </trkpt>
      <trkpt lat="51.39056" lon="7.40031">
        <ele>128.461187</ele>
        <time>2023-04-27T12:14:13.797Z</time>
      </trkpt>
      <trkpt lat="51.39068" lon="7.40024">
        <ele>128.539273</ele>
        <time>2023-04-27T12:14:16.821Z</time>
      </trkpt>
      <trkpt lat="51.3908" lon="7.40016">
        <ele>128.617777</ele>
        <time>2023-04-27T12:14:19.798Z</time>
      </trkpt>
      <trkpt lat="51.39093" lon="7.4001">
        <ele>128.693385</ele>
        <time>2023-04-27T12:14:22.792Z</time>
      </trkpt>
      <trkpt lat="51.39105" lon="7.40002">
        <ele>128.768075</ele>
        <time>2023-04-27T12:14:25.780Z</time>
      </trkpt>
      <trkpt lat="51.39116" lon="7.39996">
        <ele>128.841438</ele>
        <time>2023-04-27T12:14:28.797Z</time>
      </trkpt>
      <trkpt lat="51.39128" lon="7.39992">
        <ele>128.90981</ele>
        <time>2023-04-27T12:14:31.796Z</time>
      </trkpt>
      <trkpt lat="51.39137" lon="7.39988">
        <ele>128.964751</ele>
        <time>2023-04-27T12:14:34.781Z</time>
      </trkpt>
      <trkpt lat="51.39146" lon="7.39983">
        <ele>129.02063</ele>
        <time>2023-04-27T12:14:37.793Z</time>
      </trkpt>
      <trkpt lat="51.39157" lon="7.39977">
        <ele>129.091313</ele>
        <time>2023-04-27T12:14:40.808Z</time>
      </trkpt>
      <trkpt lat="51.39166" lon="7.39971">
        <ele>129.148954</ele>
        <time>2023-04-27T12:14:42.804Z</time>
      </trkpt>
      <trkpt lat="51.39176" lon="7.39964">
        <ele>129.213569</ele>
        <time>2023-04-27T12:14:44.813Z</time>
      </trkpt>
      <trkpt lat="51.39186" lon="7.39955">
        <ele>129.279416</ele>
        <time>2023-04-27T12:14:46.781Z</time>
      </trkpt>
      <trkpt lat="51.39194" lon="7.39943">
        <ele>129.344735</ele>
        <time>2023-04-27T12:14:48.779Z</time>
      </trkpt>
      <trkpt lat="51.39202" lon="7.39932">
        <ele>129.405305</ele>
        <time>2023-04-27T12:14:50.780Z</time>
      </trkpt>
      <trkpt lat="51.3921" lon="7.3992">
        <ele>129.467863</ele>
        <time>2023-04-27T12:14:52.797Z</time>
      </trkpt>
      <trkpt lat="51.39217" lon="7.39909">
        <ele>129.507235</ele>
        <time>2023-04-27T12:14:54.808Z</time>
      </trkpt>
      <trkpt lat="51.39225" lon="7.39897">
        <ele>129.543385</ele>
        <time>2023-04-27T12:14:56.796Z</time>
      </trkpt>
      <trkpt lat="51.39233" lon="7.39886">
        <ele>129.579995</ele>
        <time>2023-04-27T12:14:58.798Z</time>
      </trkpt>
      <trkpt lat="51.39241" lon="7.39876">
        <ele>129.615798</ele>
        <time>2023-04-27T12:15:00.804Z</time>
      </trkpt>
      <trkpt lat="51.3925" lon="7.39866">
        <ele>129.650341</ele>
        <time>2023-04-27T12:15:02.792Z</time>
      </trkpt>
      <trkpt lat="51.39258" lon="7.39858">
        <ele>129.683937</ele>
        <time>2023-04-27T12:15:04.778Z</time>
      </trkpt>
      <trkpt lat="51.39267" lon="7.39849">
        <ele>129.71869</ele>
        <time>2023-04-27T12:15:06.795Z</time>
      </trkpt>
      <trkpt lat="51.39276" lon="7.39844">
        <ele>129.752895</ele>
        <time>2023-04-27T12:15:08.788Z</time>
      </trkpt>
      <trkpt lat="51.39286" lon="7.3984">
        <ele>129.787187</ele>
        <time>2023-04-27T12:15:10.781Z</time>
      </trkpt>
      <trkpt lat="51.39296" lon="7.39836">
        <ele>129.822117</ele>
        <time>2023-04-27T12:15:12.788Z</time>
      </trkpt>
      <trkpt lat="51.39305" lon="7.39832">
        <ele>129.855365</ele>
        <time>2023-04-27T12:15:14.791Z</time>
      </trkpt>
      <trkpt lat="51.39315" lon="7.39829">
        <ele>129.890137</ele>
        <time>2023-04-27T12:15:16.792Z</time>
      </trkpt>
      <trkpt lat="51.39325" lon="7.39826">
        <ele>129.924226</ele>
        <time>2023-04-27T12:15:18.803Z</time>
      </trkpt>
      <trkpt lat="51.39335" lon="7.39824">
        <ele>129.959979</ele>
        <time>2023-04-27T12:15:20.791Z</time>
      </trkpt>
      <trkpt lat="51.39345" lon="7.39823">
        <ele>129.993939</ele>
        <time>2023-04-27T12:15:22.798Z</time>
      </trkpt>
      <trkpt lat="51.39356" lon="7.3982">
        <ele>130.029166</ele>
        <time>2023-04-27T12:15:24.794Z</time>
      </trkpt>
      <trkpt lat="51.39366" lon="7.39818">
        <ele>130.06458</ele>
        <time>2023-04-27T12:15:26.795Z</time>
      </trkpt>
      <trkpt lat="51.39376" lon="7.39819">
        <ele>130.110057</ele>
        <time>2023-04-27T12:15:28.794Z</time>
      </trkpt>
      <trkpt lat="51.39385" lon="7.39819">
        <ele>130.198545</ele>
        <time>2023-04-27T12:15:30.798Z</time>
      </trkpt>
      <trkpt lat="51.39395" lon="7.39819">
        <ele>130.28159</ele>
        <time>2023-04-27T12:15:32.782Z</time>
      </trkpt>
      <trkpt lat="51.39404" lon="7.39817">
        <ele>130.364023</ele>
        <time>2023-04-27T12:15:34.800Z</time>
      </trkpt>
      <trkpt lat="51.39416" lon="7.39816">
        <ele>130.475525</ele>
        <time>2023-04-27T12:15:37.791Z</time>
      </trkpt>
      <trkpt lat="51.39429" lon="7.39814">
        <ele>130.592791</ele>
        <time>2023-04-27T12:15:40.782Z</time>
      </trkpt>
      <trkpt lat="51.39441" lon="7.39812">
        <ele>130.706599</ele>
        <time>2023-04-27T12:15:43.797Z</time>
      </trkpt>
      <trkpt lat="51.39452" lon="7.39808">
        <ele>130.813948</ele>
        <time>2023-04-27T12:15:46.806Z</time>
      </trkpt>
      <trkpt lat="51.39465" lon="7.39805">
        <ele>130.926296</ele>
        <time>2023-04-27T12:15:49.801Z</time>
      </trkpt>
      <trkpt lat="51.39476" lon="7.39804">
        <ele>131.025862</ele>
        <time>2023-04-27T12:15:52.796Z</time>
      </trkpt>
      <trkpt lat="51.39487" lon="7.39804">
        <ele>131.127121</ele>
        <time>2023-04-27T12:15:55.783Z</time>
      </trkpt>
      <trkpt lat="51.39498" lon="7.39808">
        <ele>131.231108</ele>
        <time>2023-04-27T12:15:58.782Z</time>
      </trkpt>
      <trkpt lat="51.39507" lon="7.39812">
        <ele>131.315129</ele>
        <time>2023-04-27T12:16:00.795Z</time>
      </trkpt>
      <trkpt lat="51.39516" lon="7.39815">
        <ele>131.403162</ele>
        <time>2023-04-27T12:16:02.788Z</time>
      </trkpt>
      <trkpt lat="51.39525" lon="7.39819">
        <ele>131.488834</ele>
        <time>2023-04-27T12:16:04.779Z</time>
      </trkpt>
      <trkpt lat="51.39534" lon="7.39826">
        <ele>131.578292</ele>
        <time>2023-04-27T12:16:06.783Z</time>
      </trkpt>
      <trkpt lat="51.39543" lon="7.39831">
        <ele>131.6634</ele>
        <time>2023-04-27T12:16:08.785Z</time>
      </trkpt>
      <trkpt lat="51.39551" lon="7.39837">
        <ele>131.741361</ele>
        <time>2023-04-27T12:16:10.807Z</time>
      </trkpt>
      <trkpt lat="51.3956" lon="7.39844">
        <ele>131.786724</ele>
        <time>2023-04-27T12:16:12.790Z</time>
      </trkpt>
      <trkpt lat="51.39567" lon="7.39852">
        <ele>131.832987</ele>
        <time>2023-04-27T12:16:14.798Z</time>
      </trkpt>
      <trkpt lat="51.39578" lon="7.39864">
        <ele>131.897924</ele>
        <time>2023-04-27T12:16:17.774Z</time>
      </trkpt>
      <trkpt lat="51.39586" lon="7.39872">
        <ele>131.942493</ele>
        <time>2023-04-27T12:16:19.811Z</time>
      </trkpt>
      <trkpt lat="51.39597" lon="7.39884">
        <ele>132.007976</ele>
        <time>2023-04-27T12:16:22.884Z</time>
      </trkpt>
      <trkpt lat="51.39605" lon="7.39892">
        <ele>132.053544</ele>
        <time>2023-04-27T12:16:24.802Z</time>
      </trkpt>
      <trkpt lat="51.39612" lon="7.39901">
        <ele>132.097996</ele>
        <time>2023-04-27T12:16:26.792Z</time>
      </trkpt>
      <trkpt lat="51.3962" lon="7.3991">
        <ele>132.144217</ele>
        <time>2023-04-27T12:16:28.810Z</time>
      </trkpt>
      <trkpt lat="51.39627" lon="7.39918">
        <ele>132.1888</ele>
        <time>2023-04-27T12:16:30.809Z</time>
      </trkpt>
      <trkpt lat="51.39635" lon="7.39927">
        <ele>132.236574</ele>
        <time>2023-04-27T12:16:32.803Z</time>
      </trkpt>
      <trkpt lat="51.39642" lon="7.39939">
        <ele>132.286838</ele>
        <time>2023-04-27T12:16:34.794Z</time>
      </trkpt>
      <trkpt lat="51.39649" lon="7.39949">
        <ele>132.332885</ele>
        <time>2023-04-27T12:16:36.815Z</time>
      </trkpt>
      <trkpt lat="51.39657" lon="7.39958">
        <ele>132.379828</ele>
        <time>2023-04-27T12:16:38.798Z</time>
      </trkpt>
      <trkpt lat="51.39664" lon="7.39967">
        <ele>132.424683</ele>
        <time>2023-04-27T12:16:40.822Z</time>
      </trkpt>
      <trkpt lat="51.39674" lon="7.39981">
        <ele>132.490698</ele>
        <time>2023-04-27T12:16:43.815Z</time>
      </trkpt>
      <trkpt lat="51.39681" lon="7.39992">
        <ele>132.537778</ele>
        <time>2023-04-27T12:16:45.780Z</time>
      </trkpt>
      <trkpt lat="51.39688" lon="7.40003">
        <ele>132.584096</ele>
        <time>2023-04-27T12:16:47.794Z</time>
      </trkpt>
      <trkpt lat="51.39695" lon="7.40014">
        <ele>132.618997</ele>
        <time>2023-04-27T12:16:49.799Z</time>
      </trkpt>
      <trkpt lat="51.39702" lon="7.40025">
        <ele>132.628866</ele>
        <time>2023-04-27T12:16:51.803Z</time>
      </trkpt>
      <trkpt lat="51.39709" lon="7.40035">
        <ele>132.63868</ele>
        <time>2023-04-27T12:16:53.785Z</time>
      </trkpt>
      <trkpt lat="51.39717" lon="7.40045">
        <ele>132.6488</ele>
        <time>2023-04-27T12:16:55.784Z</time>
      </trkpt>
      <trkpt lat="51.39723" lon="7.40055">
        <ele>132.658177</ele>
        <time>2023-04-27T12:16:57.790Z</time>
      </trkpt>
      <trkpt lat="51.39731" lon="7.40066">
        <ele>132.66825</ele>
        <time>2023-04-27T12:16:59.807Z</time>
      </trkpt>
      <trkpt lat="51.39738" lon="7.40077">
        <ele>132.678513</ele>
        <time>2023-04-27T12:17:01.793Z</time>
      </trkpt>
      <trkpt lat="51.39745" lon="7.40089">
        <ele>132.68841</ele>
        <time>2023-04-27T12:17:03.810Z</time>
      </trkpt>
      <trkpt lat="51.39752" lon="7.401">
        <ele>132.698822</ele>
        <time>2023-04-27T12:17:05.781Z</time>
      </trkpt>
      <trkpt lat="51.39759" lon="7.40111">
        <ele>132.708444</ele>
        <time>2023-04-27T12:17:07.799Z</time>
      </trkpt>
      <trkpt lat="51.39766" lon="7.40123">
        <ele>132.718963</ele>
        <time>2023-04-27T12:17:09.791Z</time>
      </trkpt>
      <trkpt lat="51.39773" lon="7.40135">
        <ele>132.729204</ele>
        <time>2023-04-27T12:17:11.800Z</time>
      </trkpt>
      <trkpt lat="51.3978" lon="7.40147">
        <ele>132.739653</ele>
        <time>2023-04-27T12:17:13.796Z</time>
      </trkpt>
      <trkpt lat="51.39787" lon="7.40158">
        <ele>132.749842</ele>
        <time>2023-04-27T12:17:15.792Z</time>
      </trkpt>
      <trkpt lat="51.39794" lon="7.40169">
        <ele>132.759885</ele>
        <time>2023-04-27T12:17:17.799Z</time>
      </trkpt>
      <trkpt lat="51.39802" lon="7.40179">
        <ele>132.769486</ele>
        <time>2023-04-27T12:17:19.805Z</time>
      </trkpt>
      <trkpt lat="51.39809" lon="7.4019">
        <ele>132.779589</ele>
        <time>2023-04-27T12:17:21.816Z</time>
      </trkpt>
      <trkpt lat="51.39815" lon="7.40201">
        <ele>132.789278</ele>
        <time>2023-04-27T12:17:23.797Z</time>
      </trkpt>
      <trkpt lat="51.39823" lon="7.40214">
        <ele>132.794313</ele>
        <time>2023-04-27T12:17:25.784Z</time>
      </trkpt>
      <trkpt lat="51.3983" lon="7.40225">
        <ele>132.779286</ele>
        <time>2023-04-27T12:17:27.802Z</time>
      </trkpt>
      <trkpt lat="51.39838" lon="7.40238">
        <ele>132.764081</ele>
        <time>2023-04-27T12:17:29.787Z</time>
      </trkpt>
      <trkpt lat="51.39845" lon="7.4025">
        <ele>132.749318</ele>
        <time>2023-04-27T12:17:31.796Z</time>
      </trkpt>
      <trkpt lat="51.39851" lon="7.40261">
        <ele>132.73609</ele>
        <time>2023-04-27T12:17:33.794Z</time>
      </trkpt>
      <trkpt lat="51.39858" lon="7.40273">
        <ele>132.722039</ele>
        <time>2023-04-27T12:17:35.789Z</time>
      </trkpt>
      <trkpt lat="51.39865" lon="7.40283">
        <ele>132.708685</ele>
        <time>2023-04-27T12:17:37.797Z</time>
      </trkpt>
      <trkpt lat="51.39872" lon="7.40294">
        <ele>132.695331</ele>
        <time>2023-04-27T12:17:39.797Z</time>
      </trkpt>
      <trkpt lat="51.39879" lon="7.40306">
        <ele>132.680028</ele>
        <time>2023-04-27T12:17:41.775Z</time>
      </trkpt>
      <trkpt lat="51.39886" lon="7.40318">
        <ele>132.665661</ele>
        <time>2023-04-27T12:17:43.796Z</time>
      </trkpt>
      <trkpt lat="51.39893" lon="7.40328">
        <ele>132.652102</ele>
        <time>2023-04-27T12:17:45.793Z</time>
      </trkpt>
      <trkpt lat="51.399" lon="7.40339">
        <ele>132.638787</ele>
        <time>2023-04-27T12:17:47.792Z</time>
      </trkpt>
      <trkpt lat="51.39907" lon="7.4035">
        <ele>132.62476</ele>
        <time>2023-04-27T12:17:49.801Z</time>
      </trkpt>
      <trkpt lat="51.39914" lon="7.40361">
        <ele>132.610631</ele>
        <time>2023-04-27T12:17:51.791Z</time>
      </trkpt>
      <trkpt lat="51.39921" lon="7.40373">
        <ele>132.596422</ele>
        <time>2023-04-27T12:17:53.813Z</time>
      </trkpt>
      <trkpt lat="51.39928" lon="7.40384">
        <ele>132.582231</ele>
        <time>2023-04-27T12:17:55.784Z</time>
      </trkpt>
      <trkpt lat="51.39936" lon="7.40394">
        <ele>132.567983</ele>
        <time>2023-04-27T12:17:57.824Z</time>
      </trkpt>
      <trkpt lat="51.39944" lon="7.40405">
        <ele>132.553355</ele>
        <time>2023-04-27T12:17:59.797Z</time>
      </trkpt>
      <trkpt lat="51.3995" lon="7.40416">
        <ele>132.559997</ele>
        <time>2023-04-27T12:18:01.796Z</time>
      </trkpt>
      <trkpt lat="51.39958" lon="7.40429">
        <ele>132.630275</ele>
        <time>2023-04-27T12:18:03.783Z</time>
      </trkpt>
      <trkpt lat="51.39965" lon="7.4044">
        <ele>132.6952</ele>
        <time>2023-04-27T12:18:05.807Z</time>
      </trkpt>
      <trkpt lat="51.39971" lon="7.40452">
        <ele>132.758784</ele>
        <time>2023-04-27T12:18:07.797Z</time>
      </trkpt>
      <trkpt lat="51.39979" lon="7.40462">
        <ele>132.820631</ele>
        <time>2023-04-27T12:18:09.794Z</time>
      </trkpt>
      <trkpt lat="51.39985" lon="7.40471">
        <ele>132.879246</ele>
        <time>2023-04-27T12:18:11.795Z</time>
      </trkpt>
      <trkpt lat="51.39992" lon="7.40482">
        <ele>132.939437</ele>
        <time>2023-04-27T12:18:13.811Z</time>
      </trkpt>
      <trkpt lat="51.40001" lon="7.40498">
        <ele>133.029663</ele>
        <time>2023-04-27T12:18:16.801Z</time>
      </trkpt>
      <trkpt lat="51.40008" lon="7.4051">
        <ele>133.096216</ele>
        <time>2023-04-27T12:18:18.802Z</time>
      </trkpt>
      <trkpt lat="51.40015" lon="7.40522">
        <ele>133.160987</ele>
        <time>2023-04-27T12:18:20.798Z</time>
      </trkpt>
      <trkpt lat="51.40021" lon="7.40533">
        <ele>133.221008</ele>
        <time>2023-04-27T12:18:22.802Z</time>
      </trkpt>
      <trkpt lat="51.40028" lon="7.40543">
        <ele>133.282124</ele>
        <time>2023-04-27T12:18:24.795Z</time>
      </trkpt>
      <trkpt lat="51.40035" lon="7.40554">
        <ele>133.344584</ele>
        <time>2023-04-27T12:18:26.808Z</time>
      </trkpt>
      <trkpt lat="51.40042" lon="7.40563">
        <ele>133.403885</ele>
        <time>2023-04-27T12:18:28.799Z</time>
      </trkpt>
      <trkpt lat="51.40051" lon="7.40578">
        <ele>133.490226</ele>
        <time>2023-04-27T12:18:31.810Z</time>
      </trkpt>
      <trkpt lat="51.4006" lon="7.40594">
        <ele>133.576284</ele>
        <time>2023-04-27T12:18:34.804Z</time>
      </trkpt>
      <trkpt lat="51.40066" lon="7.40605">
        <ele>133.638679</ele>
        <time>2023-04-27T12:18:36.799Z</time>
      </trkpt>
      <trkpt lat="51.40073" lon="7.40616">
        <ele>133.69736</ele>
        <time>2023-04-27T12:18:38.799Z</time>
      </trkpt>
      <trkpt lat="51.40081" lon="7.40632">
        <ele>133.758976</ele>
        <time>2023-04-27T12:18:41.783Z</time>
      </trkpt>
      <trkpt lat="51.4009" lon="7.40648">
        <ele>133.812313</ele>
        <time>2023-04-27T12:18:44.809Z</time>
      </trkpt>
      <trkpt lat="51.40098" lon="7.40664">
        <ele>133.863168</ele>
        <time>2023-04-27T12:18:47.792Z</time>
      </trkpt>
      <trkpt lat="51.40104" lon="7.40682">
        <ele>133.914921</ele>
        <time>2023-04-27T12:18:50.810Z</time>
      </trkpt>
      <trkpt lat="51.40108" lon="7.40694">
        <ele>133.951839</ele>
        <time>2023-04-27T12:18:52.803Z</time>
      </trkpt>
      <trkpt lat="51.40114" lon="7.40707">
        <ele>133.990059</ele>
        <time>2023-04-27T12:18:54.800Z</time>
      </trkpt>
      <trkpt lat="51.40119" lon="7.40721">
        <ele>134.030433</ele>
        <time>2023-04-27T12:18:56.801Z</time>
      </trkpt>
      <trkpt lat="51.40123" lon="7.40734">
        <ele>134.068503</ele>
        <time>2023-04-27T12:18:58.800Z</time>
      </trkpt>
      <trkpt lat="51.40127" lon="7.40748">
        <ele>134.108598</ele>
        <time>2023-04-27T12:19:00.789Z</time>
      </trkpt>
      <trkpt lat="51.40134" lon="7.40767">
        <ele>134.163424</ele>
        <time>2023-04-27T12:19:03.801Z</time>
      </trkpt>
      <trkpt lat="51.40138" lon="7.4078">
        <ele>134.200382</ele>
        <time>2023-04-27T12:19:05.785Z</time>
      </trkpt>
      <trkpt lat="51.40145" lon="7.40798">
        <ele>134.254463</ele>
        <time>2023-04-27T12:19:08.801Z</time>
      </trkpt>
      <trkpt lat="51.40149" lon="7.40812">
        <ele>134.293065</ele>
        <time>2023-04-27T12:19:10.793Z</time>
      </trkpt>
      <trkpt lat="51.40156" lon="7.40831">
        <ele>134.347817</ele>
        <time>2023-04-27T12:19:13.817Z</time>
      </trkpt>
      <trkpt lat="51.40162" lon="7.40849">
        <ele>134.400923</ele>
        <time>2023-04-27T12:19:16.802Z</time>
      </trkpt>
      <trkpt lat="51.40169" lon="7.40866">
        <ele>134.46003</ele>
        <time>2023-04-27T12:19:19.803Z</time>
      </trkpt>
      <trkpt lat="51.40173" lon="7.40883">
        <ele>134.584271</ele>
        <time>2023-04-27T12:19:22.787Z</time>
      </trkpt>
      <trkpt lat="51.40179" lon="7.40901">
        <ele>134.71953</ele>
        <time>2023-04-27T12:19:25.788Z</time>
      </trkpt>
      <trkpt lat="51.40184" lon="7.4092">
        <ele>134.863533</ele>
        <time>2023-04-27T12:19:28.797Z</time>
      </trkpt>
      <trkpt lat="51.4019" lon="7.40938">
        <ele>134.999305</ele>
        <time>2023-04-27T12:19:31.806Z</time>
      </trkpt>
      <trkpt lat="51.40194" lon="7.40959">
        <ele>135.147114</ele>
        <time>2023-04-27T12:19:34.803Z</time>
      </trkpt>
      <trkpt lat="51.40197" lon="7.40973">
        <ele>135.246349</ele>
        <time>2023-04-27T12:19:36.793Z</time>
      </trkpt>
      <trkpt lat="51.40201" lon="7.40992">
        <ele>135.385436</ele>
        <time>2023-04-27T12:19:39.802Z</time>
      </trkpt>
      <trkpt lat="51.40204" lon="7.41006">
        <ele>135.48403</ele>
        <time>2023-04-27T12:19:41.797Z</time>
      </trkpt>
      <trkpt lat="51.40208" lon="7.41026">
        <ele>135.629604</ele>
        <time>2023-04-27T12:19:44.804Z</time>
      </trkpt>
      <trkpt lat="51.40211" lon="7.41046">
        <ele>135.77244</ele>
        <time>2023-04-27T12:19:47.803Z</time>
      </trkpt>
      <trkpt lat="51.40214" lon="7.41061">
        <ele>135.876277</ele>
        <time>2023-04-27T12:19:49.801Z</time>
      </trkpt>
      <trkpt lat="51.40216" lon="7.41076">
        <ele>135.97579</ele>
        <time>2023-04-27T12:19:51.806Z</time>
      </trkpt>
      <trkpt lat="51.40218" lon="7.41096">
        <ele>136.114506</ele>
        <time>2023-04-27T12:19:54.804Z</time>
      </trkpt>
      <trkpt lat="51.40219" lon="7.4111">
        <ele>136.214503</ele>
        <time>2023-04-27T12:19:56.790Z</time>
      </trkpt>
      <trkpt lat="51.40221" lon="7.41131">
        <ele>136.359282</ele>
        <time>2023-04-27T12:19:59.801Z</time>
      </trkpt>
      <trkpt lat="51.40223" lon="7.41146">
        <ele>136.372915</ele>
        <time>2023-04-27T12:20:01.796Z</time>
      </trkpt>
      <trkpt lat="51.40224" lon="7.41161">
        <ele>136.319318</ele>
        <time>2023-04-27T12:20:03.805Z</time>
      </trkpt>
      <trkpt lat="51.40224" lon="7.41175">
        <ele>136.264934</ele>
        <time>2023-04-27T12:20:05.804Z</time>
      </trkpt>
      <trkpt lat="51.40224" lon="7.41191">
        <ele>136.20944</ele>
        <time>2023-04-27T12:20:07.818Z</time>
      </trkpt>
      <trkpt lat="51.40225" lon="7.41205">
        <ele>136.155642</ele>
        <time>2023-04-27T12:20:09.793Z</time>
      </trkpt>
      <trkpt lat="51.40226" lon="7.41227">
        <ele>136.077373</ele>
        <time>2023-04-27T12:20:12.792Z</time>
      </trkpt>
      <trkpt lat="51.40226" lon="7.41243">
        <ele>136.019352</ele>
        <time>2023-04-27T12:20:14.804Z</time>
      </trkpt>
      <trkpt lat="51.40226" lon="7.41258">
        <ele>135.962788</ele>
        <time>2023-04-27T12:20:16.801Z</time>
      </trkpt>
      <trkpt lat="51.40226" lon="7.41274">
        <ele>135.904035</ele>
        <time>2023-04-27T12:20:18.810Z</time>
      </trkpt>
      <trkpt lat="51.40226" lon="7.41291">
        <ele>135.843414</ele>
        <time>2023-04-27T12:20:20.805Z</time>
      </trkpt>
      <trkpt lat="51.40224" lon="7.41307">
        <ele>135.782433</ele>
        <time>2023-04-27T12:20:22.798Z</time>
      </trkpt>
      <trkpt lat="51.40222" lon="7.41325">
        <ele>135.717648</ele>
        <time>2023-04-27T12:20:24.784Z</time>
      </trkpt>
      <trkpt lat="51.4022" lon="7.41341">
        <ele>135.656262</ele>
        <time>2023-04-27T12:20:26.816Z</time>
      </trkpt>
      <trkpt lat="51.40218" lon="7.41358">
        <ele>135.594692</ele>
        <time>2023-04-27T12:20:28.804Z</time>
      </trkpt>
      <trkpt lat="51.40216" lon="7.41375">
        <ele>135.531215</ele>
        <time>2023-04-27T12:20:30.809Z</time>
      </trkpt>
      <trkpt lat="51.40215" lon="7.41391">
        <ele>135.470822</ele>
        <time>2023-04-27T12:20:32.808Z</time>
      </trkpt>
      <trkpt lat="51.40216" lon="7.41408">
        <ele>135.411886</ele>
        <time>2023-04-27T12:20:34.803Z</time>
      </trkpt>
      <trkpt lat="51.40216" lon="7.41424">
        <ele>135.35277</ele>
        <time>2023-04-27T12:20:36.811Z</time>
      </trkpt>
      <trkpt lat="51.40217" lon="7.41441">
        <ele>135.326491</ele>
        <time>2023-04-27T12:20:38.802Z</time>
      </trkpt>
      <trkpt lat="51.40219" lon="7.41458">
        <ele>135.300759</ele>
        <time>2023-04-27T12:20:40.797Z</time>
      </trkpt>
      <trkpt lat="51.4022" lon="7.41475">
        <ele>135.274347</ele>
        <time>2023-04-27T12:20:42.800Z</time>
      </trkpt>
      <trkpt lat="51.40221" lon="7.41493">
        <ele>135.24803</ele>
        <time>2023-04-27T12:20:44.806Z</time>
      </trkpt>
      <trkpt lat="51.40221" lon="7.41509">
        <ele>135.223591</ele>
        <time>2023-04-27T12:20:46.811Z</time>
      </trkpt>
      <trkpt lat="51.4022" lon="7.41524">
        <ele>135.201064</ele>
        <time>2023-04-27T12:20:48.800Z</time>
      </trkpt>
      <trkpt lat="51.4022" lon="7.41541">
        <ele>135.175885</ele>
        <time>2023-04-27T12:20:50.804Z</time>
      </trkpt>
      <trkpt lat="51.4022" lon="7.41556">
        <ele>135.152494</ele>
        <time>2023-04-27T12:20:52.803Z</time>
      </trkpt>
      <trkpt lat="51.40219" lon="7.41571">
        <ele>135.1301</ele>
        <time>2023-04-27T12:20:54.797Z</time>
      </trkpt>
      <trkpt lat="51.40214" lon="7.41585">
        <ele>135.106497</ele>
        <time>2023-04-27T12:20:56.800Z</time>
      </trkpt>
      <trkpt lat="51.4021" lon="7.41599">
        <ele>135.082761</ele>
        <time>2023-04-27T12:20:58.790Z</time>
      </trkpt>
      <trkpt lat="51.40205" lon="7.41614">
        <ele>135.057362</ele>
        <time>2023-04-27T12:21:00.788Z</time>
      </trkpt>
      <trkpt lat="51.40202" lon="7.4163">
        <ele>135.032466</ele>
        <time>2023-04-27T12:21:02.795Z</time>
      </trkpt>
      <trkpt lat="51.40199" lon="7.41647">
        <ele>135.007251</ele>
        <time>2023-04-27T12:21:04.793Z</time>
      </trkpt>
      <trkpt lat="51.40197" lon="7.41662">
        <ele>134.983383</ele>
        <time>2023-04-27T12:21:06.805Z</time>
      </trkpt>
      <trkpt lat="51.40195" lon="7.41677">
        <ele>134.960143</ele>
        <time>2023-04-27T12:21:08.813Z</time>
      </trkpt>
      <trkpt lat="51.40193" lon="7.41693">
        <ele>134.936175</ele>
        <time>2023-04-27T12:21:10.817Z</time>
      </trkpt>
      <trkpt lat="51.40191" lon="7.41709">
        <ele>134.942041</ele>
        <time>2023-04-27T12:21:12.797Z</time>
      </trkpt>
      <trkpt lat="51.40188" lon="7.41723">
        <ele>135.017149</ele>
        <time>2023-04-27T12:21:14.798Z</time>
      </trkpt>
      <trkpt lat="51.40184" lon="7.41737">
        <ele>135.088609</ele>
        <time>2023-04-27T12:21:16.809Z</time>
      </trkpt>
      <trkpt lat="51.4018" lon="7.41752">
        <ele>135.164008</ele>
        <time>2023-04-27T12:21:18.805Z</time>
      </trkpt>
      <trkpt lat="51.40177" lon="7.41766">
        <ele>135.237125</ele>
        <time>2023-04-27T12:21:20.802Z</time>
      </trkpt>
      <trkpt lat="51.40173" lon="7.4178">
        <ele>135.308417</ele>
        <time>2023-04-27T12:21:22.804Z</time>
      </trkpt>
      <trkpt lat="51.4017" lon="7.41794">
        <ele>135.381534</ele>
        <time>2023-04-27T12:21:24.803Z</time>
      </trkpt>
      <trkpt lat="51.40166" lon="7.41809">
        <ele>135.455918</ele>
        <time>2023-04-27T12:21:26.805Z</time>
      </trkpt>
      <trkpt lat="51.40162" lon="7.41823">
        <ele>135.53074</ele>
        <time>2023-04-27T12:21:28.789Z</time>
      </trkpt>
      <trkpt lat="51.40159" lon="7.41837">
        <ele>135.603067</ele>
        <time>2023-04-27T12:21:30.796Z</time>
      </trkpt>
      <trkpt lat="51.40155" lon="7.41852">
        <ele>135.676574</ele>
        <time>2023-04-27T12:21:32.801Z</time>
      </trkpt>
      <trkpt lat="51.40152" lon="7.41867">
        <ele>135.75362</ele>
        <time>2023-04-27T12:21:34.804Z</time>
      </trkpt>
      <trkpt lat="51.40148" lon="7.41882">
        <ele>135.829459</ele>
        <time>2023-04-27T12:21:36.804Z</time>
      </trkpt>
      <trkpt lat="51.40144" lon="7.41896">
        <ele>135.904727</ele>
        <time>2023-04-27T12:21:38.790Z</time>
      </trkpt>
      <trkpt lat="51.4014" lon="7.41912">
        <ele>135.987768</ele>
        <time>2023-04-27T12:21:40.814Z</time>
      </trkpt>
      <trkpt lat="51.40136" lon="7.41928">
        <ele>136.069054</ele>
        <time>2023-04-27T12:21:42.808Z</time>
      </trkpt>
      <trkpt lat="51.40132" lon="7.41943">
        <ele>136.147012</ele>
        <time>2023-04-27T12:21:44.804Z</time>
      </trkpt>
      <trkpt lat="51.40126" lon="7.41957">
        <ele>136.225876</ele>
        <time>2023-04-27T12:21:46.802Z</time>
      </trkpt>
      <trkpt lat="51.40121" lon="7.4197">
        <ele>136.300401</ele>
        <time>2023-04-27T12:21:48.808Z</time>
      </trkpt>
      <trkpt lat="51.40115" lon="7.41983">
        <ele>136.361188</ele>
        <time>2023-04-27T12:21:50.816Z</time>
      </trkpt>
      <trkpt lat="51.40109" lon="7.41996">
        <ele>136.420573</ele>
        <time>2023-04-27T12:21:52.785Z</time>
      </trkpt>
      <trkpt lat="51.40104" lon="7.4201">
        <ele>136.481807</ele>
        <time>2023-04-27T12:21:54.811Z</time>
      </trkpt>
      <trkpt lat="51.40098" lon="7.42023">
        <ele>136.540923</ele>
        <time>2023-04-27T12:21:56.810Z</time>
      </trkpt>
      <trkpt lat="51.40092" lon="7.42035">
        <ele>136.598881</ele>
        <time>2023-04-27T12:21:58.814Z</time>
      </trkpt>
      <trkpt lat="51.40086" lon="7.42052">
        <ele>136.672927</ele>
        <time>2023-04-27T12:22:01.809Z</time>
      </trkpt>
      <trkpt lat="51.4008" lon="7.4207">
        <ele>136.749642</ele>
        <time>2023-04-27T12:22:04.809Z</time>
      </trkpt>
      <trkpt lat="51.40078" lon="7.42085">
        <ele>136.806977</ele>
        <time>2023-04-27T12:22:06.800Z</time>
      </trkpt>
      <trkpt lat="51.40075" lon="7.421">
        <ele>136.865703</ele>
        <time>2023-04-27T12:22:08.800Z</time>
      </trkpt>
      <trkpt lat="51.40071" lon="7.42115">
        <ele>136.925493</ele>
        <time>2023-04-27T12:22:10.807Z</time>
      </trkpt>
      <trkpt lat="51.40066" lon="7.42129">
        <ele>136.987388</ele>
        <time>2023-04-27T12:22:12.779Z</time>
      </trkpt>
      <trkpt lat="51.4006" lon="7.4214">
        <ele>137.042394</ele>
        <time>2023-04-27T12:22:14.799Z</time>
      </trkpt>
      <trkpt lat="51.40055" lon="7.42157">
        <ele>137.11377</ele>
        <time>2023-04-27T12:22:17.798Z</time>
      </trkpt>
      <trkpt lat="51.4005" lon="7.42176">
        <ele>137.188283</ele>
        <time>2023-04-27T12:22:20.804Z</time>
      </trkpt>
      <trkpt lat="51.40047" lon="7.42193">
        <ele>137.255221</ele>
        <time>2023-04-27T12:22:23.799Z</time>
      </trkpt>
      <trkpt lat="51.40042" lon="7.42209">
        <ele>137.321787</ele>
        <time>2023-04-27T12:22:26.806Z</time>
      </trkpt>
      <trkpt lat="51.40038" lon="7.42227">
        <ele>137.362514</ele>
        <time>2023-04-27T12:22:29.817Z</time>
      </trkpt>
      <trkpt lat="51.40032" lon="7.42242">
        <ele>137.314764</ele>
        <time>2023-04-27T12:22:32.822Z</time>
      </trkpt>
      <trkpt lat="51.40028" lon="7.42256">
        <ele>137.270199</ele>
        <time>2023-04-27T12:22:35.808Z</time>
      </trkpt>
      <trkpt lat="51.40023" lon="7.42271">
        <ele>137.220598</ele>
        <time>2023-04-27T12:22:39.810Z</time>
      </trkpt>
      <trkpt lat="51.40019" lon="7.42285">
        <ele>137.17727</ele>
        <time>2023-04-27T12:22:43.826Z</time>
      </trkpt>
      <trkpt lat="51.40014" lon="7.42299">
        <ele>137.134317</ele>
        <time>2023-04-27T12:22:47.824Z</time>
      </trkpt>
      <trkpt lat="51.40005" lon="7.42305">
        <ele>137.090671</ele>
        <time>2023-04-27T12:22:52.792Z</time>
      </trkpt>
      <trkpt lat="51.39995" lon="7.42298">
        <ele>137.041894</ele>
        <time>2023-04-27T12:22:58.798Z</time>
      </trkpt>
      <trkpt lat="51.39985" lon="7.42293">
        <ele>136.993273</ele>
        <time>2023-04-27T12:23:02.806Z</time>
      </trkpt>
      <trkpt lat="51.39977" lon="7.42285">
        <ele>136.949059</ele>
        <time>2023-04-27T12:23:05.796Z</time>
      </trkpt>
      <trkpt lat="51.39967" lon="7.42277">
        <ele>136.897738</ele>
        <time>2023-04-27T12:23:08.822Z</time>
      </trkpt>
      <trkpt lat="51.39955" lon="7.4227">
        <ele>136.842497</ele>
        <time>2023-04-27T12:23:11.804Z</time>
      </trkpt>
      <trkpt lat="51.39943" lon="7.4227">
        <ele>136.786567</ele>
        <time>2023-04-27T12:23:14.810Z</time>
      </trkpt>
      <trkpt lat="51.3993" lon="7.42278">
        <ele>136.725522</ele>
        <time>2023-04-27T12:23:17.802Z</time>
      </trkpt>
      <trkpt lat="51.39922" lon="7.42287">
        <ele>136.680466</ele>
        <time>2023-04-27T12:23:19.799Z</time>
      </trkpt>
      <trkpt lat="51.39914" lon="7.42296">
        <ele>136.636042</ele>
        <time>2023-04-27T12:23:21.823Z</time>
      </trkpt>
      <trkpt lat="51.39906" lon="7.42305">
        <ele>136.592028</ele>
        <time>2023-04-27T12:23:23.790Z</time>
      </trkpt>
      <trkpt lat="51.39898" lon="7.42316">
        <ele>136.598044</ele>
        <time>2023-04-27T12:23:25.800Z</time>
      </trkpt>
      <trkpt lat="51.39891" lon="7.42328">
        <ele>136.672327</ele>
        <time>2023-04-27T12:23:27.808Z</time>
      </trkpt>
      <trkpt lat="51.39884" lon="7.42338">
        <ele>136.744996</ele>
        <time>2023-04-27T12:23:29.795Z</time>
      </trkpt>
      <trkpt lat="51.39879" lon="7.42351">
        <ele>136.815871</ele>
        <time>2023-04-27T12:23:31.800Z</time>
      </trkpt>
      <trkpt lat="51.39873" lon="7.42363">
        <ele>136.884651</ele>
        <time>2023-04-27T12:23:33.802Z</time>
      </trkpt>
      <trkpt lat="51.39865" lon="7.42372">
        <ele>136.952725</ele>
        <time>2023-04-27T12:23:35.790Z</time>
      </trkpt>
      <trkpt lat="51.39858" lon="7.42381">
        <ele>137.025115</ele>
        <time>2023-04-27T12:23:37.797Z</time>
      </trkpt>
      <trkpt lat="51.39851" lon="7.42392">
        <ele>137.098638</ele>
        <time>2023-04-27T12:23:39.806Z</time>
      </trkpt>
      <trkpt lat="51.39843" lon="7.42401">
        <ele>137.167299</ele>
        <time>2023-04-27T12:23:41.806Z</time>
      </trkpt>
      <trkpt lat="51.39833" lon="7.42414">
        <ele>137.263661</ele>
        <time>2023-04-27T12:23:44.811Z</time>
      </trkpt>
      <trkpt lat="51.39825" lon="7.42422">
        <ele>137.331617</ele>
        <time>2023-04-27T12:23:46.804Z</time>
      </trkpt>
      <trkpt lat="51.39817" lon="7.42432">
        <ele>137.406642</ele>
        <time>2023-04-27T12:23:48.804Z</time>
      </trkpt>
      <trkpt lat="51.39811" lon="7.42445">
        <ele>137.482752</ele>
        <time>2023-04-27T12:23:50.801Z</time>
      </trkpt>
      <trkpt lat="51.39805" lon="7.42458">
        <ele>137.554776</ele>
        <time>2023-04-27T12:23:52.815Z</time>
      </trkpt>
      <trkpt lat="51.39799" lon="7.42469">
        <ele>137.627001</ele>
        <time>2023-04-27T12:23:54.809Z</time>
      </trkpt>
      <trkpt lat="51.39792" lon="7.4248">
        <ele>137.696696</ele>
        <time>2023-04-27T12:23:56.808Z</time>
      </trkpt>
      <trkpt lat="51.39785" lon="7.4249">
        <ele>137.765317</ele>
        <time>2023-04-27T12:23:58.815Z</time>
      </trkpt>
      <trkpt lat="51.39778" lon="7.42502">
        <ele>137.840449</ele>
        <time>2023-04-27T12:24:00.808Z</time>
      </trkpt>
      <trkpt lat="51.39771" lon="7.42513">
        <ele>137.874482</ele>
        <time>2023-04-27T12:24:02.810Z</time>
      </trkpt>
      <trkpt lat="51.39765" lon="7.42526">
        <ele>137.793489</ele>
        <time>2023-04-27T12:24:04.800Z</time>
      </trkpt>
      <trkpt lat="51.39758" lon="7.42536">
        <ele>137.718186</ele>
        <time>2023-04-27T12:24:06.805Z</time>
      </trkpt>
      <trkpt lat="51.39751" lon="7.42546">
        <ele>137.638685</ele>
        <time>2023-04-27T12:24:08.811Z</time>
      </trkpt>
      <trkpt lat="51.39744" lon="7.42557">
        <ele>137.561386</ele>
        <time>2023-04-27T12:24:10.805Z</time>
      </trkpt>
      <trkpt lat="51.39739" lon="7.42571">
        <ele>137.477269</ele>
        <time>2023-04-27T12:24:12.808Z</time>
      </trkpt>
      <trkpt lat="51.39734" lon="7.42585">
        <ele>137.39432</ele>
        <time>2023-04-27T12:24:14.805Z</time>
      </trkpt>
      <trkpt lat="51.39729" lon="7.42599">
        <ele>137.313223</ele>
        <time>2023-04-27T12:24:16.806Z</time>
      </trkpt>
      <trkpt lat="51.39724" lon="7.42612">
        <ele>137.235578</ele>
        <time>2023-04-27T12:24:18.815Z</time>
      </trkpt>
      <trkpt lat="51.39716" lon="7.42629">
        <ele>137.125754</ele>
        <time>2023-04-27T12:24:21.811Z</time>
      </trkpt>
      <trkpt lat="51.3971" lon="7.42641">
        <ele>137.048261</ele>
        <time>2023-04-27T12:24:23.801Z</time>
      </trkpt>
      <trkpt lat="51.39705" lon="7.42654">
        <ele>136.970577</ele>
        <time>2023-04-27T12:24:25.790Z</time>
      </trkpt>
      <trkpt lat="51.39699" lon="7.42666">
        <ele>136.893637</ele>
        <time>2023-04-27T12:24:27.803Z</time>
      </trkpt>
      <trkpt lat="51.39694" lon="7.42679">
        <ele>136.817998</ele>
        <time>2023-04-27T12:24:29.806Z</time>
      </trkpt>
      <trkpt lat="51.39688" lon="7.42691">
        <ele>136.742414</ele>
        <time>2023-04-27T12:24:31.805Z</time>
      </trkpt>
      <trkpt lat="51.39682" lon="7.42708">
        <ele>136.641333</ele>
        <time>2023-04-27T12:24:34.809Z</time>
      </trkpt>
      <trkpt lat="51.39673" lon="7.42721">
        <ele>136.538313</ele>
        <time>2023-04-27T12:24:37.799Z</time>
      </trkpt>
      <trkpt lat="51.39667" lon="7.42739">
        <ele>136.435</ele>
        <time>2023-04-27T12:24:40.801Z</time>
      </trkpt>
      <trkpt lat="51.39663" lon="7.42752">
        <ele>136.393218</ele>
        <time>2023-04-27T12:24:42.801Z</time>
      </trkpt>
      <trkpt lat="51.39658" lon="7.4277">
        <ele>136.338938</ele>
        <time>2023-04-27T12:24:45.796Z</time>
      </trkpt>
      <trkpt lat="51.39653" lon="7.42788">
        <ele>136.287612</ele>
        <time>2023-04-27T12:24:48.805Z</time>
      </trkpt>
      <trkpt lat="51.39648" lon="7.42806">
        <ele>136.234492</ele>
        <time>2023-04-27T12:24:51.802Z</time>
      </trkpt>
      <trkpt lat="51.39644" lon="7.42825">
        <ele>136.180008</ele>
        <time>2023-04-27T12:24:54.816Z</time>
      </trkpt>
      <trkpt lat="51.39644" lon="7.42843">
        <ele>136.130208</ele>
        <time>2023-04-27T12:24:57.798Z</time>
      </trkpt>
      <trkpt lat="51.39648" lon="7.42861">
        <ele>136.079744</ele>
        <time>2023-04-27T12:25:00.808Z</time>
      </trkpt>
      <trkpt lat="51.39646" lon="7.42879">
        <ele>136.028368</ele>
        <time>2023-04-27T12:25:03.797Z</time>
      </trkpt>
      <trkpt lat="51.39642" lon="7.42897">
        <ele>135.977339</ele>
        <time>2023-04-27T12:25:06.806Z</time>
      </trkpt>
      <trkpt lat="51.39631" lon="7.42904">
        <ele>135.929149</ele>
        <time>2023-04-27T12:25:09.803Z</time>
      </trkpt>
      <trkpt lat="51.39622" lon="7.42917">
        <ele>135.875524</ele>
        <time>2023-04-27T12:25:12.800Z</time>
      </trkpt>
      <trkpt lat="51.39617" lon="7.42936">
        <ele>135.81893</ele>
        <time>2023-04-27T12:25:15.807Z</time>
      </trkpt>
      <trkpt lat="51.39612" lon="7.42954">
        <ele>135.765976</ele>
        <time>2023-04-27T12:25:18.816Z</time>
      </trkpt>
      <trkpt lat="51.39608" lon="7.42973">
        <ele>135.713234</ele>
        <time>2023-04-27T12:25:21.803Z</time>
      </trkpt>
      <trkpt lat="51.39603" lon="7.42992">
        <ele>135.657457</ele>
        <time>2023-04-27T12:25:24.809Z</time>
      </trkpt>
      <trkpt lat="51.39598" lon="7.43012">
        <ele>135.632496</ele>
        <time>2023-04-27T12:25:27.807Z</time>
      </trkpt>
      <trkpt lat="51.39594" lon="7.43032">
        <ele>135.613058</ele>
        <time>2023-04-27T12:25:30.810Z</time>
      </trkpt>
      <trkpt lat="51.39589" lon="7.43049">
        <ele>135.595091</ele>
        <time>2023-04-27T12:25:33.784Z</time>
      </trkpt>
      <trkpt lat="51.39585" lon="7.43068">
        <ele>135.576227</ele>
        <time>2023-04-27T12:25:36.803Z</time>
      </trkpt>
      <trkpt lat="51.39581" lon="7.43082">
        <ele>135.562738</ele>
        <time>2023-04-27T12:25:38.814Z</time>
      </trkpt>
      <trkpt lat="51.39578" lon="7.43101">
        <ele>135.543896</ele>
        <time>2023-04-27T12:25:41.803Z</time>
      </trkpt>
      <trkpt lat="51.39575" lon="7.43121">
        <ele>135.525481</ele>
        <time>2023-04-27T12:25:44.809Z</time>
      </trkpt>
      <trkpt lat="51.39573" lon="7.4314">
        <ele>135.507902</ele>
        <time>2023-04-27T12:25:47.804Z</time>
      </trkpt>
      <trkpt lat="51.39572" lon="7.43158">
        <ele>135.490744</ele>
        <time>2023-04-27T12:25:50.815Z</time>
      </trkpt>
      <trkpt lat="51.3957" lon="7.43177">
        <ele>135.472775</ele>
        <time>2023-04-27T12:25:53.806Z</time>
      </trkpt>
      <trkpt lat="51.39566" lon="7.43196">
        <ele>135.454729</ele>
        <time>2023-04-27T12:25:56.821Z</time>
      </trkpt>
      <trkpt lat="51.39561" lon="7.43214">
        <ele>135.435972</ele>
        <time>2023-04-27T12:25:59.797Z</time>
      </trkpt>
      <trkpt lat="51.39557" lon="7.43228">
        <ele>135.42197</ele>
        <time>2023-04-27T12:26:01.788Z</time>
      </trkpt>
      <trkpt lat="51.39552" lon="7.43247">
        <ele>135.402947</ele>
        <time>2023-04-27T12:26:04.811Z</time>
      </trkpt>
      <trkpt lat="51.39547" lon="7.43266">
        <ele>135.384011</ele>
        <time>2023-04-27T12:26:07.808Z</time>
      </trkpt>
      <trkpt lat="51.3954" lon="7.43284">
        <ele>135.519122</ele>
        <time>2023-04-27T12:26:10.808Z</time>
      </trkpt>
      <trkpt lat="51.39535" lon="7.43297">
        <ele>135.618952</ele>
        <time>2023-04-27T12:26:12.811Z</time>
      </trkpt>
      <trkpt lat="51.3953" lon="7.43309">
        <ele>135.715397</ele>
        <time>2023-04-27T12:26:14.811Z</time>
      </trkpt>
      <trkpt lat="51.39523" lon="7.43319">
        <ele>135.813648</ele>
        <time>2023-04-27T12:26:16.812Z</time>
      </trkpt>
      <trkpt lat="51.39516" lon="7.43329">
        <ele>135.91698</ele>
        <time>2023-04-27T12:26:18.809Z</time>
      </trkpt>
      <trkpt lat="51.3951" lon="7.43342">
        <ele>136.023143</ele>
        <time>2023-04-27T12:26:20.807Z</time>
      </trkpt>
      <trkpt lat="51.39506" lon="7.43355">
        <ele>136.121366</ele>
        <time>2023-04-27T12:26:22.807Z</time>
      </trkpt>
      <trkpt lat="51.39502" lon="7.43368">
        <ele>136.221023</ele>
        <time>2023-04-27T12:26:24.805Z</time>
      </trkpt>
      <trkpt lat="51.39497" lon="7.43381">
        <ele>136.323939</ele>
        <time>2023-04-27T12:26:26.824Z</time>
      </trkpt>
      <trkpt lat="51.39492" lon="7.43394">
        <ele>136.423199</ele>
        <time>2023-04-27T12:26:28.805Z</time>
      </trkpt>
      <trkpt lat="51.39488" lon="7.43413">
        <ele>136.559796</ele>
        <time>2023-04-27T12:26:31.803Z</time>
      </trkpt>
      <trkpt lat="51.39491" lon="7.43435">
        <ele>136.704669</ele>
        <time>2023-04-27T12:26:34.805Z</time>
      </trkpt>
      <trkpt lat="51.39492" lon="7.4345">
        <ele>136.807902</ele>
        <time>2023-04-27T12:26:36.791Z</time>
      </trkpt>
      <trkpt lat="51.39493" lon="7.43466">
        <ele>136.913728</ele>
        <time>2023-04-27T12:26:38.816Z</time>
      </trkpt>
      <trkpt lat="51.3949" lon="7.43481">
        <ele>137.019098</ele>
        <time>2023-04-27T12:26:40.795Z</time>
      </trkpt>
      <trkpt lat="51.39486" lon="7.43499">
        <ele>137.1457</ele>
        <time>2023-04-27T12:26:43.800Z</time>
      </trkpt>
      <trkpt lat="51.39483" lon="7.43514">
        <ele>137.252521</ele>
        <time>2023-04-27T12:26:46.809Z</time>
      </trkpt>
      <trkpt lat="51.39478" lon="7.43528">
        <ele>137.379602</ele>
        <time>2023-04-27T12:26:49.804Z</time>
      </trkpt>
      <trkpt lat="51.39475" lon="7.43544">
        <ele>137.541256</ele>
        <time>2023-04-27T12:26:53.804Z</time>
      </trkpt>
      <trkpt lat="51.39469" lon="7.4356">
        <ele>137.719469</ele>
        <time>2023-04-27T12:26:57.805Z</time>
      </trkpt>
      <trkpt lat="51.39464" lon="7.43574">
        <ele>137.87523</ele>
        <time>2023-04-27T12:27:00.791Z</time>
      </trkpt>
      <trkpt lat="51.39459" lon="7.4359">
        <ele>138.044991</ele>
        <time>2023-04-27T12:27:03.804Z</time>
      </trkpt>
      <trkpt lat="51.39455" lon="7.43607">
        <ele>138.213459</ele>
        <time>2023-04-27T12:27:06.797Z</time>
      </trkpt>
      <trkpt lat="51.39452" lon="7.43625">
        <ele>138.398694</ele>
        <time>2023-04-27T12:27:09.805Z</time>
      </trkpt>
      <trkpt lat="51.39448" lon="7.43644">
        <ele>138.58269</ele>
        <time>2023-04-27T12:27:12.820Z</time>
      </trkpt>
      <trkpt lat="51.39447" lon="7.43663">
        <ele>138.773706</ele>
        <time>2023-04-27T12:27:15.794Z</time>
      </trkpt>
      <trkpt lat="51.39447" lon="7.43685">
        <ele>138.976319</ele>
        <time>2023-04-27T12:27:18.807Z</time>
      </trkpt>
      <trkpt lat="51.39448" lon="7.43699">
        <ele>139.119382</ele>
        <time>2023-04-27T12:27:20.796Z</time>
      </trkpt>
      <trkpt lat="51.39451" lon="7.4372">
        <ele>139.321905</ele>
        <time>2023-04-27T12:27:23.800Z</time>
      </trkpt>
      <trkpt lat="51.39453" lon="7.43734">
        <ele>139.46039</ele>
        <time>2023-04-27T12:27:25.792Z</time>
      </trkpt>
      <trkpt lat="51.39456" lon="7.43755">
        <ele>139.665888</ele>
        <time>2023-04-27T12:27:28.800Z</time>
      </trkpt>
      <trkpt lat="51.39459" lon="7.4377">
        <ele>139.810994</ele>
        <time>2023-04-27T12:27:30.796Z</time>
      </trkpt>
      <trkpt lat="51.39462" lon="7.43791">
        <ele>140.017594</ele>
        <time>2023-04-27T12:27:33.801Z</time>
      </trkpt>
      <trkpt lat="51.39464" lon="7.43805">
        <ele>140.024968</ele>
        <time>2023-04-27T12:27:35.795Z</time>
      </trkpt>
      <trkpt lat="51.39468" lon="7.43827">
        <ele>139.935669</ele>
        <time>2023-04-27T12:27:38.807Z</time>
      </trkpt>
      <trkpt lat="51.39472" lon="7.43848">
        <ele>139.849797</ele>
        <time>2023-04-27T12:27:41.798Z</time>
      </trkpt>
      <trkpt lat="51.39474" lon="7.43863">
        <ele>139.787146</ele>
        <time>2023-04-27T12:27:43.795Z</time>
      </trkpt>
      <trkpt lat="51.39475" lon="7.43878">
        <ele>139.728578</ele>
        <time>2023-04-27T12:27:45.804Z</time>
      </trkpt>
      <trkpt lat="51.39479" lon="7.43898">
        <ele>139.645735</ele>
        <time>2023-04-27T12:27:48.804Z</time>
      </trkpt>
      <trkpt lat="51.39481" lon="7.43912">
        <ele>139.587801</ele>
        <time>2023-04-27T12:27:50.811Z</time>
      </trkpt>
      <trkpt lat="51.39483" lon="7.43927">
        <ele>139.52844</ele>
        <time>2023-04-27T12:27:52.791Z</time>
      </trkpt>
      <trkpt lat="51.39485" lon="7.43941">
        <ele>139.468315</ele>
        <time>2023-04-27T12:27:54.807Z</time>
      </trkpt>
      <trkpt lat="51.39488" lon="7.43956">
        <ele>139.4089</ele>
        <time>2023-04-27T12:27:56.811Z</time>
      </trkpt>
      <trkpt lat="51.3949" lon="7.43971">
        <ele>139.347076</ele>
        <time>2023-04-27T12:27:58.807Z</time>
      </trkpt>
      <trkpt lat="51.39493" lon="7.43991">
        <ele>139.263455</ele>
        <time>2023-04-27T12:28:01.803Z</time>
      </trkpt>
      <trkpt lat="51.39497" lon="7.44006">
        <ele>139.20075</ele>
        <time>2023-04-27T12:28:03.802Z</time>
      </trkpt>
      <trkpt lat="51.39503" lon="7.44023">
        <ele>139.122057</ele>
        <time>2023-04-27T12:28:06.809Z</time>
      </trkpt>
      <trkpt lat="51.39507" lon="7.44036">
        <ele>139.0635</ele>
        <time>2023-04-27T12:28:08.809Z</time>
      </trkpt>
      <trkpt lat="51.39514" lon="7.44053">
        <ele>138.982849</ele>
        <time>2023-04-27T12:28:11.789Z</time>
      </trkpt>
      <trkpt lat="51.3952" lon="7.44067">
        <ele>138.91846</ele>
        <time>2023-04-27T12:28:14.808Z</time>
      </trkpt>
      <trkpt lat="51.39526" lon="7.44079">
        <ele>138.894143</ele>
        <time>2023-04-27T12:28:17.784Z</time>
      </trkpt>
      <trkpt lat="51.39532" lon="7.44092">
        <ele>138.86846</ele>
        <time>2023-04-27T12:28:20.805Z</time>
      </trkpt>
      <trkpt lat="51.39539" lon="7.44105">
        <ele>138.841583</ele>
        <time>2023-04-27T12:28:23.788Z</time>
      </trkpt>
      <trkpt lat="51.39546" lon="7.44113">
        <ele>138.818167</ele>
        <time>2023-04-27T12:28:25.798Z</time>
      </trkpt>
      <trkpt lat="51.39554" lon="7.44126">
        <ele>138.789277</ele>
        <time>2023-04-27T12:28:28.797Z</time>
      </trkpt>
      <trkpt lat="51.39561" lon="7.44139">
        <ele>138.761381</ele>
        <time>2023-04-27T12:28:31.805Z</time>
      </trkpt>
      <trkpt lat="51.39569" lon="7.44153">
        <ele>138.73172</ele>
        <time>2023-04-27T12:28:34.821Z</time>
      </trkpt>
      <trkpt lat="51.39577" lon="7.44165">
        <ele>138.702805</ele>
        <time>2023-04-27T12:28:37.808Z</time>
      </trkpt>
      <trkpt lat="51.39585" lon="7.4418">
        <ele>138.671289</ele>
        <time>2023-04-27T12:28:40.816Z</time>
      </trkpt>
      <trkpt lat="51.39594" lon="7.44195">
        <ele>138.638417</ele>
        <time>2023-04-27T12:28:43.806Z</time>
      </trkpt>
      <trkpt lat="51.39603" lon="7.4421">
        <ele>138.606831</ele>
        <time>2023-04-27T12:28:46.805Z</time>
      </trkpt>
      <trkpt lat="51.39611" lon="7.44225">
        <ele>138.574106</ele>
        <time>2023-04-27T12:28:49.810Z</time>
      </trkpt>
      <trkpt lat="51.39618" lon="7.44239">
        <ele>138.544516</ele>
        <time>2023-04-27T12:28:52.791Z</time>
      </trkpt>
      <trkpt lat="51.39626" lon="7.44254">
        <ele>138.512855</ele>
        <time>2023-04-27T12:28:55.803Z</time>
      </trkpt>
      <trkpt lat="51.39635" lon="7.44269">
        <ele>138.480117</ele>
        <time>2023-04-27T12:28:58.807Z</time>
      </trkpt>
      <trkpt lat="51.39644" lon="7.44283">
        <ele>138.44785</ele>
        <time>2023-04-27T12:29:01.788Z</time>
      </trkpt>
      <trkpt lat="51.39652" lon="7.44298">
        <ele>138.416851</ele>
        <time>2023-04-27T12:29:04.799Z</time>
      </trkpt>
      <trkpt lat="51.39654" lon="7.44317">
        <ele>138.385377</ele>
        <time>2023-04-27T12:29:07.798Z</time>
      </trkpt>
      <trkpt lat="51.39658" lon="7.44337">
        <ele>138.350652</ele>
        <time>2023-04-27T12:29:10.809Z</time>
      </trkpt>
      <trkpt lat="51.39662" lon="7.44351">
        <ele>138.324774</ele>
        <time>2023-04-27T12:29:12.817Z</time>
      </trkpt>
      <trkpt lat="51.39667" lon="7.44366">
        <ele>138.298254</ele>
        <time>2023-04-27T12:29:14.805Z</time>
      </trkpt>
      <trkpt lat="51.39672" lon="7.44379">
        <ele>138.273737</ele>
        <time>2023-04-27T12:29:16.800Z</time>
      </trkpt>
      <trkpt lat="51.39678" lon="7.44392">
        <ele>138.247531</ele>
        <time>2023-04-27T12:29:18.802Z</time>
      </trkpt>
      <trkpt lat="51.39684" lon="7.44403">
        <ele>138.22266</ele>
        <time>2023-04-27T12:29:20.796Z</time>
      </trkpt>
      <trkpt lat="51.3969" lon="7.44414">
        <ele>138.198895</ele>
        <time>2023-04-27T12:29:22.813Z</time>
      </trkpt>
      <trkpt lat="51.39697" lon="7.44425">
        <ele>138.173733</ele>
        <time>2023-04-27T12:29:24.790Z</time>
      </trkpt>
      <trkpt lat="51.39704" lon="7.44435">
        <ele>138.150255</ele>
        <time>2023-04-27T12:29:26.805Z</time>
      </trkpt>
      <trkpt lat="51.3971" lon="7.44447">
        <ele>138.124586</ele>
        <time>2023-04-27T12:29:28.807Z</time>
      </trkpt>
      <trkpt lat="51.39716" lon="7.44458">
        <ele>138.100873</ele>
        <time>2023-04-27T12:29:30.795Z</time>
      </trkpt>
      <trkpt lat="51.39723" lon="7.44469">
        <ele>138.076337</ele>
        <time>2023-04-27T12:29:32.812Z</time>
      </trkpt>
      <trkpt lat="51.39731" lon="7.44485">
        <ele>138.041815</ele>
        <time>2023-04-27T12:29:35.797Z</time>
      </trkpt>
      <trkpt lat="51.39737" lon="7.44496">
        <ele>138.018149</ele>
        <time>2023-04-27T12:29:37.809Z</time>
      </trkpt>
      <trkpt lat="51.39743" lon="7.44507">
        <ele>137.994558</ele>
        <time>2023-04-27T12:29:39.800Z</time>
      </trkpt>
      <trkpt lat="51.39752" lon="7.44523">
        <ele>138.165715</ele>
        <time>2023-04-27T12:29:42.813Z</time>
      </trkpt>
      <trkpt lat="51.39758" lon="7.44535">
        <ele>138.303617</ele>
        <time>2023-04-27T12:29:44.818Z</time>
      </trkpt>
      <trkpt lat="51.39765" lon="7.44545">
        <ele>138.435693</ele>
        <time>2023-04-27T12:29:46.808Z</time>
      </trkpt>
      <trkpt lat="51.39771" lon="7.44556">
        <ele>138.567029</ele>
        <time>2023-04-27T12:29:48.804Z</time>
      </trkpt>
      <trkpt lat="51.3978" lon="7.44572">
        <ele>138.759607</ele>
        <time>2023-04-27T12:29:51.811Z</time>
      </trkpt>
      <trkpt lat="51.39786" lon="7.44583">
        <ele>138.894319</ele>
        <time>2023-04-27T12:29:53.804Z</time>
      </trkpt>
      <trkpt lat="51.39792" lon="7.44595">
        <ele>139.031592</ele>
        <time>2023-04-27T12:29:55.789Z</time>
      </trkpt>
      <trkpt lat="51.39797" lon="7.44607">
        <ele>139.161746</ele>
        <time>2023-04-27T12:29:57.793Z</time>
      </trkpt>
      <trkpt lat="51.39803" lon="7.44618">
        <ele>139.295777</ele>
        <time>2023-04-27T12:29:59.800Z</time>
      </trkpt>
      <trkpt lat="51.39808" lon="7.4463">
        <ele>139.428719</ele>
        <time>2023-04-27T12:30:01.799Z</time>
      </trkpt>
      <trkpt lat="51.39817" lon="7.44645">
        <ele>139.61341</ele>
        <time>2023-04-27T12:30:04.802Z</time>
      </trkpt>
      <trkpt lat="51.39825" lon="7.44661">
        <ele>139.792935</ele>
        <time>2023-04-27T12:30:07.802Z</time>
      </trkpt>
      <trkpt lat="51.39832" lon="7.44677">
        <ele>139.968476</ele>
        <time>2023-04-27T12:30:10.782Z</time>
      </trkpt>
      <trkpt lat="51.39839" lon="7.44693">
        <ele>140.147056</ele>
        <time>2023-04-27T12:30:13.804Z</time>
      </trkpt>
      <trkpt lat="51.39846" lon="7.44705">
        <ele>140.295506</ele>
        <time>2023-04-27T12:30:16.798Z</time>
      </trkpt>
      <trkpt lat="51.39852" lon="7.44717">
        <ele>140.439285</ele>
        <time>2023-04-27T12:30:19.797Z</time>
      </trkpt>
      <trkpt lat="51.39858" lon="7.44729">
        <ele>140.570799</ele>
        <time>2023-04-27T12:30:22.805Z</time>
      </trkpt>
      <trkpt lat="51.39866" lon="7.44742">
        <ele>140.615654</ele>
        <time>2023-04-27T12:30:26.809Z</time>
      </trkpt>
      <trkpt lat="51.39872" lon="7.44754">
        <ele>140.638853</ele>
        <time>2023-04-27T12:30:29.799Z</time>
      </trkpt>
      <trkpt lat="51.39878" lon="7.44766">
        <ele>140.663037</ele>
        <time>2023-04-27T12:30:32.804Z</time>
      </trkpt>
      <trkpt lat="51.39885" lon="7.44779">
        <ele>140.689793</ele>
        <time>2023-04-27T12:30:35.797Z</time>
      </trkpt>
      <trkpt lat="51.39891" lon="7.44793">
        <ele>140.715622</ele>
        <time>2023-04-27T12:30:38.809Z</time>
      </trkpt>
      <trkpt lat="51.39898" lon="7.44806">
        <ele>140.742534</ele>
        <time>2023-04-27T12:30:41.782Z</time>
      </trkpt>
      <trkpt lat="51.39905" lon="7.44821">
        <ele>140.771174</ele>
        <time>2023-04-27T12:30:44.806Z</time>
      </trkpt>
      <trkpt lat="51.39912" lon="7.44836">
        <ele>140.800059</ele>
        <time>2023-04-27T12:30:47.823Z</time>
      </trkpt>
      <trkpt lat="51.39919" lon="7.44851">
        <ele>140.828758</ele>
        <time>2023-04-27T12:30:50.802Z</time>
      </trkpt>
      <trkpt lat="51.39926" lon="7.44866">
        <ele>140.857793</ele>
        <time>2023-04-27T12:30:53.811Z</time>
      </trkpt>
      <trkpt lat="51.39933" lon="7.4488">
        <ele>140.886526</ele>
        <time>2023-04-27T12:30:56.807Z</time>
      </trkpt>
      <trkpt lat="51.3994" lon="7.44895">
        <ele>140.914798</ele>
        <time>2023-04-27T12:30:59.801Z</time>
      </trkpt>
      <trkpt lat="51.39948" lon="7.44908">
        <ele>140.943233</ele>
        <time>2023-04-27T12:31:02.805Z</time>
      </trkpt>
      <trkpt lat="51.39955" lon="7.44922">
        <ele>140.97027</ele>
        <time>2023-04-27T12:31:05.799Z</time>
      </trkpt>
      <trkpt lat="51.39963" lon="7.44935">
        <ele>140.998982</ele>
        <time>2023-04-27T12:31:08.802Z</time>
      </trkpt>
      <trkpt lat="51.3997" lon="7.44949">
        <ele>141.02614</ele>
        <time>2023-04-27T12:31:11.790Z</time>
      </trkpt>
      <trkpt lat="51.39974" lon="7.44964">
        <ele>141.115771</ele>
        <time>2023-04-27T12:31:14.810Z</time>
      </trkpt>
      <trkpt lat="51.39976" lon="7.44978">
        <ele>141.226148</ele>
        <time>2023-04-27T12:31:17.808Z</time>
      </trkpt>
      <trkpt lat="51.39979" lon="7.44993">
        <ele>141.345412</ele>
        <time>2023-04-27T12:31:22.805Z</time>
      </trkpt>
      <trkpt lat="51.3998" lon="7.45008">
        <ele>141.455119</ele>
        <time>2023-04-27T12:31:26.806Z</time>
      </trkpt>
      <trkpt lat="51.39982" lon="7.45022">
        <ele>141.568239</ele>
        <time>2023-04-27T12:31:30.802Z</time>
      </trkpt>
      <trkpt lat="51.39984" lon="7.45038">
        <ele>141.691793</ele>
        <time>2023-04-27T12:31:35.799Z</time>
      </trkpt>
      <trkpt lat="51.39987" lon="7.45055">
        <ele>141.824096</ele>
        <time>2023-04-27T12:31:40.789Z</time>
      </trkpt>
      <trkpt lat="51.39989" lon="7.45071">
        <ele>141.948426</ele>
        <time>2023-04-27T12:31:45.809Z</time>
      </trkpt>
      <trkpt lat="51.39991" lon="7.45086">
        <ele>142.068028</ele>
        <time>2023-04-27T12:31:49.810Z</time>
      </trkpt>
      <trkpt lat="51.39993" lon="7.45102">
        <ele>142.194065</ele>
        <time>2023-04-27T12:31:53.811Z</time>
      </trkpt>
      <trkpt lat="51.39995" lon="7.45118">
        <ele>142.316126</ele>
        <time>2023-04-27T12:31:57.805Z</time>
      </trkpt>
      <trkpt lat="51.39997" lon="7.45134">
        <ele>142.439926</ele>
        <time>2023-04-27T12:32:01.800Z</time>
      </trkpt>
      <trkpt lat="51.4" lon="7.45149">
        <ele>142.55958</ele>
        <time>2023-04-27T12:32:05.816Z</time>
      </trkpt>
      <trkpt lat="51.40002" lon="7.45167">
        <ele>142.700047</ele>
        <time>2023-04-27T12:32:09.794Z</time>
      </trkpt>
      <trkpt lat="51.40006" lon="7.45183">
        <ele>142.825612</ele>
        <time>2023-04-27T12:32:13.799Z</time>
      </trkpt>
      <trkpt lat="51.40008" lon="7.45199">
        <ele>142.954634</ele>
        <time>2023-04-27T12:32:17.805Z</time>
      </trkpt>
      <trkpt lat="51.4001" lon="7.45217">
        <ele>143.091241</ele>
        <time>2023-04-27T12:32:21.815Z</time>
      </trkpt>
      <trkpt lat="51.40012" lon="7.45231">
        <ele>143.202504</ele>
        <time>2023-04-27T12:32:25.806Z</time>
      </trkpt>
      <trkpt lat="51.40018" lon="7.45247">
        <ele>143.149804</ele>
        <time>2023-04-27T12:32:30.807Z</time>
      </trkpt>
      <trkpt lat="51.40029" lon="7.45254">
        <ele>143.040182</ele>
        <time>2023-04-27T12:32:34.802Z</time>
      </trkpt>
      <trkpt lat="51.40039" lon="7.4525">
        <ele>142.951617</ele>
        <time>2023-04-27T12:32:37.801Z</time>
      </trkpt>
      <trkpt lat="51.40049" lon="7.45247">
        <ele>142.858412</ele>
        <time>2023-04-27T12:32:40.780Z</time>
      </trkpt>
      <trkpt lat="51.4006" lon="7.45245">
        <ele>142.75601</ele>
        <time>2023-04-27T12:32:43.807Z</time>
      </trkpt>
      <trkpt lat="51.40071" lon="7.45249">
        <ele>142.65727</ele>
        <time>2023-04-27T12:32:46.796Z</time>
      </trkpt>
      <trkpt lat="51.4008" lon="7.45256">
        <ele>142.561429</ele>
        <time>2023-04-27T12:32:49.806Z</time>
      </trkpt>
      <trkpt lat="51.4009" lon="7.45264">
        <ele>142.463716</ele>
        <time>2023-04-27T12:32:52.805Z</time>
      </trkpt>
      <trkpt lat="51.40099" lon="7.4527">
        <ele>142.370866</ele>
        <time>2023-04-27T12:32:55.802Z</time>
      </trkpt>
      <trkpt lat="51.40109" lon="7.45277">
        <ele>142.281345</ele>
        <time>2023-04-27T12:32:58.825Z</time>
      </trkpt>
      <trkpt lat="51.40117" lon="7.45285">
        <ele>142.191042</ele>
        <time>2023-04-27T12:33:01.805Z</time>
      </trkpt>
      <trkpt lat="51.40126" lon="7.45292">
        <ele>142.098887</ele>
        <time>2023-04-27T12:33:04.817Z</time>
      </trkpt>
      <trkpt lat="51.40137" lon="7.45302">
        <ele>141.985679</ele>
        <time>2023-04-27T12:33:07.800Z</time>
      </trkpt>
      <trkpt lat="51.40148" lon="7.4531">
        <ele>141.875533</ele>
        <time>2023-04-27T12:33:10.807Z</time>
      </trkpt>
      <trkpt lat="51.40158" lon="7.4532">
        <ele>141.76832</ele>
        <time>2023-04-27T12:33:13.796Z</time>
      </trkpt>
      <trkpt lat="51.40169" lon="7.45329">
        <ele>141.663973</ele>
        <time>2023-04-27T12:33:16.798Z</time>
      </trkpt>
      <trkpt lat="51.4018" lon="7.45338">
        <ele>141.575441</ele>
        <time>2023-04-27T12:33:19.804Z</time>
      </trkpt>
      <trkpt lat="51.4019" lon="7.45345">
        <ele>141.516307</ele>
        <time>2023-04-27T12:33:22.805Z</time>
      </trkpt>
      <trkpt lat="51.40201" lon="7.45355">
        <ele>141.452457</ele>
        <time>2023-04-27T12:33:25.794Z</time>
      </trkpt>
      <trkpt lat="51.40213" lon="7.45362">
        <ele>141.389574</ele>
        <time>2023-04-27T12:33:28.815Z</time>
      </trkpt>
      <trkpt lat="51.40224" lon="7.4537">
        <ele>141.32823</ele>
        <time>2023-04-27T12:33:31.801Z</time>
      </trkpt>
      <trkpt lat="51.40233" lon="7.45378">
        <ele>141.272819</ele>
        <time>2023-04-27T12:33:34.797Z</time>
      </trkpt>
      <trkpt lat="51.40244" lon="7.45387">
        <ele>141.211382</ele>
        <time>2023-04-27T12:33:37.805Z</time>
      </trkpt>
      <trkpt lat="51.40252" lon="7.45394">
        <ele>141.164239</ele>
        <time>2023-04-27T12:33:39.798Z</time>
      </trkpt>
      <trkpt lat="51.40263" lon="7.45404">
        <ele>141.098558</ele>
        <time>2023-04-27T12:33:42.805Z</time>
      </trkpt>
      <trkpt lat="51.40275" lon="7.45413">
        <ele>141.031701</ele>
        <time>2023-04-27T12:33:45.792Z</time>
      </trkpt>
      <trkpt lat="51.40286" lon="7.45421">
        <ele>140.968347</ele>
        <time>2023-04-27T12:33:48.804Z</time>
      </trkpt>
      <trkpt lat="51.40298" lon="7.45425">
        <ele>140.906444</ele>
        <time>2023-04-27T12:33:51.802Z</time>
      </trkpt>
      <trkpt lat="51.40309" lon="7.45424">
        <ele>140.849554</ele>
        <time>2023-04-27T12:33:54.800Z</time>
      </trkpt>
      <trkpt lat="51.40321" lon="7.45422">
        <ele>140.789769</ele>
        <time>2023-04-27T12:33:57.801Z</time>
      </trkpt>
      <trkpt lat="51.40334" lon="7.45422">
        <ele>140.721649</ele>
        <time>2023-04-27T12:34:00.801Z</time>
      </trkpt>
      <trkpt lat="51.40344" lon="7.45423">
        <ele>140.683585</ele>
        <time>2023-04-27T12:34:02.796Z</time>
      </trkpt>
      <trkpt lat="51.40353" lon="7.45424">
        <ele>140.676014</ele>
        <time>2023-04-27T12:34:04.805Z</time>
      </trkpt>
      <trkpt lat="51.40362" lon="7.45423">
        <ele>140.668377</ele>
        <time>2023-04-27T12:34:06.806Z</time>
      </trkpt>
      <trkpt lat="51.40371" lon="7.45423">
        <ele>140.661127</ele>
        <time>2023-04-27T12:34:08.805Z</time>
      </trkpt>
      <trkpt lat="51.40384" lon="7.45421">
        <ele>140.650973</ele>
        <time>2023-04-27T12:34:11.783Z</time>
      </trkpt>
      <trkpt lat="51.40393" lon="7.45419">
        <ele>140.643767</ele>
        <time>2023-04-27T12:34:13.826Z</time>
      </trkpt>
      <trkpt lat="51.40406" lon="7.45419">
        <ele>140.633474</ele>
        <time>2023-04-27T12:34:16.816Z</time>
      </trkpt>
      <trkpt lat="51.40418" lon="7.45423">
        <ele>140.623196</ele>
        <time>2023-04-27T12:34:19.796Z</time>
      </trkpt>
      <trkpt lat="51.4043" lon="7.45432">
        <ele>140.612596</ele>
        <time>2023-04-27T12:34:22.782Z</time>
      </trkpt>
      <trkpt lat="51.40438" lon="7.4544">
        <ele>140.605309</ele>
        <time>2023-04-27T12:34:24.797Z</time>
      </trkpt>
      <trkpt lat="51.40446" lon="7.45447">
        <ele>140.597934</ele>
        <time>2023-04-27T12:34:26.806Z</time>
      </trkpt>
      <trkpt lat="51.40454" lon="7.45455">
        <ele>140.590462</ele>
        <time>2023-04-27T12:34:28.807Z</time>
      </trkpt>
      <trkpt lat="51.40463" lon="7.45467">
        <ele>140.580864</ele>
        <time>2023-04-27T12:34:31.808Z</time>
      </trkpt>
      <trkpt lat="51.40473" lon="7.45478">
        <ele>140.570925</ele>
        <time>2023-04-27T12:34:34.804Z</time>
      </trkpt>
      <trkpt lat="51.40483" lon="7.45488">
        <ele>140.561674</ele>
        <time>2023-04-27T12:34:37.796Z</time>
      </trkpt>
      <trkpt lat="51.40493" lon="7.45494">
        <ele>140.553089</ele>
        <time>2023-04-27T12:34:40.793Z</time>
      </trkpt>
      <trkpt lat="51.40504" lon="7.455">
        <ele>140.543687</ele>
        <time>2023-04-27T12:34:43.796Z</time>
      </trkpt>
      <trkpt lat="51.40516" lon="7.45505">
        <ele>140.511654</ele>
        <time>2023-04-27T12:34:46.825Z</time>
      </trkpt>
      <trkpt lat="51.40527" lon="7.4551">
        <ele>140.469644</ele>
        <time>2023-04-27T12:34:49.796Z</time>
      </trkpt>
      <trkpt lat="51.40539" lon="7.45516">
        <ele>140.426475</ele>
        <time>2023-04-27T12:34:52.799Z</time>
      </trkpt>
      <trkpt lat="51.40551" lon="7.45525">
        <ele>140.382179</ele>
        <time>2023-04-27T12:34:55.807Z</time>
      </trkpt>
      <trkpt lat="51.4056" lon="7.45539">
        <ele>140.336823</ele>
        <time>2023-04-27T12:34:58.802Z</time>
      </trkpt>
      <trkpt lat="51.40569" lon="7.45554">
        <ele>140.292358</ele>
        <time>2023-04-27T12:35:01.806Z</time>
      </trkpt>
      <trkpt lat="51.40578" lon="7.45568">
        <ele>140.251039</ele>
        <time>2023-04-27T12:35:04.805Z</time>
      </trkpt>
      <trkpt lat="51.40586" lon="7.45582">
        <ele>140.207743</ele>
        <time>2023-04-27T12:35:07.800Z</time>
      </trkpt>
      <trkpt lat="51.40596" lon="7.45594">
        <ele>140.165547</ele>
        <time>2023-04-27T12:35:10.806Z</time>
      </trkpt>
      <trkpt lat="51.40607" lon="7.45606">
        <ele>140.119997</ele>
        <time>2023-04-27T12:35:13.800Z</time>
      </trkpt>
      <trkpt lat="51.40619" lon="7.45614">
        <ele>140.076104</ele>
        <time>2023-04-27T12:35:16.807Z</time>
      </trkpt>
      <trkpt lat="51.4063" lon="7.45621">
        <ele>140.03569</ele>
        <time>2023-04-27T12:35:19.805Z</time>
      </trkpt>
      <trkpt lat="51.40639" lon="7.45628">
        <ele>139.998962</ele>
        <time>2023-04-27T12:35:22.805Z</time>
      </trkpt>
      <trkpt lat="51.40649" lon="7.45633">
        <ele>139.962143</ele>
        <time>2023-04-27T12:35:25.787Z</time>
      </trkpt>
      <trkpt lat="51.4066" lon="7.45638">
        <ele>139.924024</ele>
        <time>2023-04-27T12:35:29.799Z</time>
      </trkpt>
      <trkpt lat="51.40668" lon="7.4565">
        <ele>140.107729</ele>
        <time>2023-04-27T12:35:34.799Z</time>
      </trkpt>
      <trkpt lat="51.40677" lon="7.45658">
        <ele>140.294604</ele>
        <time>2023-04-27T12:35:38.801Z</time>
      </trkpt>
      <trkpt lat="51.40687" lon="7.45667">
        <ele>140.514761</ele>
        <time>2023-04-27T12:35:42.815Z</time>
      </trkpt>
      <trkpt lat="51.40695" lon="7.45674">
        <ele>140.695305</ele>
        <time>2023-04-27T12:35:45.803Z</time>
      </trkpt>
      <trkpt lat="51.40706" lon="7.45677">
        <ele>140.916</ele>
        <time>2023-04-27T12:35:49.783Z</time>
      </trkpt>
      <trkpt lat="51.40716" lon="7.45678">
        <ele>141.099654</ele>
        <time>2023-04-27T12:35:52.803Z</time>
      </trkpt>
      <trkpt lat="51.40725" lon="7.4568">
        <ele>141.282892</ele>
        <time>2023-04-27T12:35:55.806Z</time>
      </trkpt>
      <trkpt lat="51.40736" lon="7.45688">
        <ele>141.510299</ele>
        <time>2023-04-27T12:35:58.805Z</time>
      </trkpt>
      <trkpt lat="51.40747" lon="7.45693">
        <ele>141.735448</ele>
        <time>2023-04-27T12:36:01.806Z</time>
      </trkpt>
      <trkpt lat="51.40756" lon="7.45699">
        <ele>141.909671</ele>
        <time>2023-04-27T12:36:03.802Z</time>
      </trkpt>
      <trkpt lat="51.40768" lon="7.45705">
        <ele>142.15509</ele>
        <time>2023-04-27T12:36:06.816Z</time>
      </trkpt>
      <trkpt lat="51.40779" lon="7.45711">
        <ele>142.380942</ele>
        <time>2023-04-27T12:36:09.819Z</time>
      </trkpt>
      <trkpt lat="51.40791" lon="7.45715">
        <ele>142.617916</ele>
        <time>2023-04-27T12:36:12.806Z</time>
      </trkpt>
      <trkpt lat="51.40802" lon="7.45721">
        <ele>142.835355</ele>
        <time>2023-04-27T12:36:15.812Z</time>
      </trkpt>
      <trkpt lat="51.40813" lon="7.45728">
        <ele>143.067709</ele>
        <time>2023-04-27T12:36:18.813Z</time>
      </trkpt>
      <trkpt lat="51.40824" lon="7.45737">
        <ele>143.310251</ele>
        <time>2023-04-27T12:36:21.822Z</time>
      </trkpt>
      <trkpt lat="51.40836" lon="7.45746">
        <ele>143.317669</ele>
        <time>2023-04-27T12:36:24.803Z</time>
      </trkpt>
      <trkpt lat="51.40848" lon="7.45755">
        <ele>143.229145</ele>
        <time>2023-04-27T12:36:27.813Z</time>
      </trkpt>
      <trkpt lat="51.40859" lon="7.45765">
        <ele>143.142811</ele>
        <time>2023-04-27T12:36:30.804Z</time>
      </trkpt>
      <trkpt lat="51.4087" lon="7.45777">
        <ele>143.058063</ele>
        <time>2023-04-27T12:36:33.803Z</time>
      </trkpt>
      <trkpt lat="51.4088" lon="7.4579">
        <ele>142.969113</ele>
        <time>2023-04-27T12:36:36.789Z</time>
      </trkpt>
      <trkpt lat="51.4089" lon="7.45804">
        <ele>142.878329</ele>
        <time>2023-04-27T12:36:39.800Z</time>
      </trkpt>
      <trkpt lat="51.409" lon="7.45818">
        <ele>142.78701</ele>
        <time>2023-04-27T12:36:42.802Z</time>
      </trkpt>
      <trkpt lat="51.40907" lon="7.45827">
        <ele>142.726445</ele>
        <time>2023-04-27T12:36:44.803Z</time>
      </trkpt>
      <trkpt lat="51.40916" lon="7.45841">
        <ele>142.641639</ele>
        <time>2023-04-27T12:36:47.820Z</time>
      </trkpt>
      <trkpt lat="51.40927" lon="7.45854">
        <ele>142.552689</ele>
        <time>2023-04-27T12:36:50.804Z</time>
      </trkpt>
      <trkpt lat="51.40937" lon="7.45867">
        <ele>142.466131</ele>
        <time>2023-04-27T12:36:53.813Z</time>
      </trkpt>
      <trkpt lat="51.40944" lon="7.45876">
        <ele>142.405435</ele>
        <time>2023-04-27T12:36:55.795Z</time>
      </trkpt>
      <trkpt lat="51.40953" lon="7.4589">
        <ele>142.316926</ele>
        <time>2023-04-27T12:36:58.823Z</time>
      </trkpt>
      <trkpt lat="51.40961" lon="7.45899">
        <ele>142.254058</ele>
        <time>2023-04-27T12:37:00.803Z</time>
      </trkpt>
      <trkpt lat="51.40968" lon="7.45908">
        <ele>142.190688</ele>
        <time>2023-04-27T12:37:02.803Z</time>
      </trkpt>
      <trkpt lat="51.40978" lon="7.4592">
        <ele>142.06946</ele>
        <time>2023-04-27T12:37:05.797Z</time>
      </trkpt>
      <trkpt lat="51.40988" lon="7.45932">
        <ele>141.937474</ele>
        <time>2023-04-27T12:37:08.806Z</time>
      </trkpt>
      <trkpt lat="51.40997" lon="7.45945">
        <ele>141.815546</ele>
        <time>2023-04-27T12:37:11.802Z</time>
      </trkpt>
      <trkpt lat="51.41005" lon="7.45956">
        <ele>141.703853</ele>
        <time>2023-04-27T12:37:14.804Z</time>
      </trkpt>
      <trkpt lat="51.41012" lon="7.45967">
        <ele>141.597725</ele>
        <time>2023-04-27T12:37:17.811Z</time>
      </trkpt>
      <trkpt lat="51.41021" lon="7.45978">
        <ele>141.478602</ele>
        <time>2023-04-27T12:37:21.805Z</time>
      </trkpt>
      <trkpt lat="51.4103" lon="7.4599">
        <ele>141.352836</ele>
        <time>2023-04-27T12:37:25.781Z</time>
      </trkpt>
      <trkpt lat="51.41039" lon="7.46001">
        <ele>141.231634</ele>
        <time>2023-04-27T12:37:28.809Z</time>
      </trkpt>
      <trkpt lat="51.41045" lon="7.46012">
        <ele>141.135689</ele>
        <time>2023-04-27T12:37:30.805Z</time>
      </trkpt>
      <trkpt lat="51.41053" lon="7.46023">
        <ele>141.019415</ele>
        <time>2023-04-27T12:37:33.802Z</time>
      </trkpt>
      <trkpt lat="51.41062" lon="7.46035">
        <ele>140.89942</ele>
        <time>2023-04-27T12:37:36.803Z</time>
      </trkpt>
      <trkpt lat="51.41072" lon="7.46047">
        <ele>140.766173</ele>
        <time>2023-04-27T12:37:39.823Z</time>
      </trkpt>
      <trkpt lat="51.41081" lon="7.46061">
        <ele>140.633059</ele>
        <time>2023-04-27T12:37:42.796Z</time>
      </trkpt>
      <trkpt lat="51.4109" lon="7.46075">
        <ele>140.49959</ele>
        <time>2023-04-27T12:37:45.786Z</time>
      </trkpt>
      <trkpt lat="51.411" lon="7.46088">
        <ele>140.361376</ele>
        <time>2023-04-27T12:37:48.798Z</time>
      </trkpt>
      <trkpt lat="51.41109" lon="7.461">
        <ele>140.279156</ele>
        <time>2023-04-27T12:37:51.805Z</time>
      </trkpt>
      <trkpt lat="51.41118" lon="7.46116">
        <ele>140.525756</ele>
        <time>2023-04-27T12:37:54.806Z</time>
      </trkpt>
      <trkpt lat="51.41125" lon="7.46125">
        <ele>140.694435</ele>
        <time>2023-04-27T12:37:56.807Z</time>
      </trkpt>
      <trkpt lat="51.41132" lon="7.46135">
        <ele>140.864572</ele>
        <time>2023-04-27T12:37:58.807Z</time>
      </trkpt>
      <trkpt lat="51.41141" lon="7.46149">
        <ele>141.102216</ele>
        <time>2023-04-27T12:38:01.811Z</time>
      </trkpt>
      <trkpt lat="51.41151" lon="7.46164">
        <ele>141.35336</ele>
        <time>2023-04-27T12:38:04.808Z</time>
      </trkpt>
      <trkpt lat="51.41158" lon="7.46174">
        <ele>141.520442</ele>
        <time>2023-04-27T12:38:06.806Z</time>
      </trkpt>
      <trkpt lat="51.41164" lon="7.46185">
        <ele>141.690119</ele>
        <time>2023-04-27T12:38:08.810Z</time>
      </trkpt>
      <trkpt lat="51.41172" lon="7.46201">
        <ele>141.926689</ele>
        <time>2023-04-27T12:38:11.802Z</time>
      </trkpt>
      <trkpt lat="51.41178" lon="7.46212">
        <ele>142.095851</ele>
        <time>2023-04-27T12:38:13.808Z</time>
      </trkpt>
      <trkpt lat="51.41183" lon="7.46223">
        <ele>142.263778</ele>
        <time>2023-04-27T12:38:15.796Z</time>
      </trkpt>
      <trkpt lat="51.41192" lon="7.4624">
        <ele>142.506676</ele>
        <time>2023-04-27T12:38:18.825Z</time>
      </trkpt>
      <trkpt lat="51.412" lon="7.46256">
        <ele>142.741491</ele>
        <time>2023-04-27T12:38:21.803Z</time>
      </trkpt>
      <trkpt lat="51.41208" lon="7.46272">
        <ele>142.981934</ele>
        <time>2023-04-27T12:38:24.804Z</time>
      </trkpt>
      <trkpt lat="51.41215" lon="7.46288">
        <ele>143.210956</ele>
        <time>2023-04-27T12:38:27.815Z</time>
      </trkpt>
      <trkpt lat="51.41223" lon="7.46304">
        <ele>143.442946</ele>
        <time>2023-04-27T12:38:30.814Z</time>
      </trkpt>
      <trkpt lat="51.41229" lon="7.46319">
        <ele>143.607049</ele>
        <time>2023-04-27T12:38:33.808Z</time>
      </trkpt>
      <trkpt lat="51.41235" lon="7.4633">
        <ele>143.678972</ele>
        <time>2023-04-27T12:38:35.792Z</time>
      </trkpt>
      <trkpt lat="51.41241" lon="7.4634">
        <ele>143.75173</ele>
        <time>2023-04-27T12:38:37.805Z</time>
      </trkpt>
      <trkpt lat="51.41251" lon="7.46356">
        <ele>143.858542</ele>
        <time>2023-04-27T12:38:40.807Z</time>
      </trkpt>
      <trkpt lat="51.41256" lon="7.46374">
        <ele>143.957693</ele>
        <time>2023-04-27T12:38:43.800Z</time>
      </trkpt>
      <trkpt lat="51.41255" lon="7.46389">
        <ele>144.031414</ele>
        <time>2023-04-27T12:38:45.787Z</time>
      </trkpt>
      <trkpt lat="51.41257" lon="7.46408">
        <ele>144.127461</ele>
        <time>2023-04-27T12:38:48.813Z</time>
      </trkpt>
      <trkpt lat="51.41264" lon="7.46424">
        <ele>144.222474</ele>
        <time>2023-04-27T12:38:51.795Z</time>
      </trkpt>
      <trkpt lat="51.4127" lon="7.46438">
        <ele>144.305057</ele>
        <time>2023-04-27T12:38:54.818Z</time>
      </trkpt>
      <trkpt lat="51.41276" lon="7.46453">
        <ele>144.394033</ele>
        <time>2023-04-27T12:38:57.801Z</time>
      </trkpt>
      <trkpt lat="51.41282" lon="7.46467">
        <ele>144.477895</ele>
        <time>2023-04-27T12:39:00.810Z</time>
      </trkpt>
      <trkpt lat="51.41289" lon="7.46483">
        <ele>144.572841</ele>
        <time>2023-04-27T12:39:03.803Z</time>
      </trkpt>
      <trkpt lat="51.41298" lon="7.465">
        <ele>144.686296</ele>
        <time>2023-04-27T12:39:06.802Z</time>
      </trkpt>
      <trkpt lat="51.41304" lon="7.46512">
        <ele>144.760522</ele>
        <time>2023-04-27T12:39:08.802Z</time>
      </trkpt>
      <trkpt lat="51.41309" lon="7.46524">
        <ele>144.831964</ele>
        <time>2023-04-27T12:39:10.803Z</time>
      </trkpt>
      <trkpt lat="51.41316" lon="7.46538">
        <ele>144.923041</ele>
        <time>2023-04-27T12:39:13.804Z</time>
      </trkpt>
      <trkpt lat="51.41323" lon="7.46554">
        <ele>145.000601</ele>
        <time>2023-04-27T12:39:16.811Z</time>
      </trkpt>
      <trkpt lat="51.4133" lon="7.46571">
        <ele>145.003633</ele>
        <time>2023-04-27T12:39:19.799Z</time>
      </trkpt>
      <trkpt lat="51.41335" lon="7.46585">
        <ele>145.005975</ele>
        <time>2023-04-27T12:39:21.810Z</time>
      </trkpt>
      <trkpt lat="51.41339" lon="7.46598">
        <ele>145.008164</ele>
        <time>2023-04-27T12:39:23.821Z</time>
      </trkpt>
      <trkpt lat="51.41345" lon="7.46616">
        <ele>145.011242</ele>
        <time>2023-04-27T12:39:26.809Z</time>
      </trkpt>
      <trkpt lat="51.4135" lon="7.46628">
        <ele>145.013467</ele>
        <time>2023-04-27T12:39:28.806Z</time>
      </trkpt>
      <trkpt lat="51.41354" lon="7.46641">
        <ele>145.015663</ele>
        <time>2023-04-27T12:39:30.799Z</time>
      </trkpt>
      <trkpt lat="51.41359" lon="7.46654">
        <ele>145.01799</ele>
        <time>2023-04-27T12:39:32.806Z</time>
      </trkpt>
      <trkpt lat="51.41364" lon="7.46667">
        <ele>145.020279</ele>
        <time>2023-04-27T12:39:34.802Z</time>
      </trkpt>
      <trkpt lat="51.41369" lon="7.4668">
        <ele>145.022543</ele>
        <time>2023-04-27T12:39:36.797Z</time>
      </trkpt>
      <trkpt lat="51.41373" lon="7.46693">
        <ele>145.024718</ele>
        <time>2023-04-27T12:39:38.813Z</time>
      </trkpt>
      <trkpt lat="51.41378" lon="7.46706">
        <ele>145.026972</ele>
        <time>2023-04-27T12:39:40.785Z</time>
      </trkpt>
      <trkpt lat="51.41385" lon="7.46722">
        <ele>145.029914</ele>
        <time>2023-04-27T12:39:43.794Z</time>
      </trkpt>
      <trkpt lat="51.41391" lon="7.46741">
        <ele>145.033207</ele>
        <time>2023-04-27T12:39:46.798Z</time>
      </trkpt>
      <trkpt lat="51.41396" lon="7.46758">
        <ele>145.035921</ele>
        <time>2023-04-27T12:39:49.793Z</time>
      </trkpt>
      <trkpt lat="51.41401" lon="7.46776">
        <ele>145.038973</ele>
        <time>2023-04-27T12:39:52.797Z</time>
      </trkpt>
      <trkpt lat="51.41405" lon="7.46794">
        <ele>145.041855</ele>
        <time>2023-04-27T12:39:55.796Z</time>
      </trkpt>
      <trkpt lat="51.41411" lon="7.46811">
        <ele>145.160398</ele>
        <time>2023-04-27T12:39:58.799Z</time>
      </trkpt>
      <trkpt lat="51.41417" lon="7.46827">
        <ele>145.417801</ele>
        <time>2023-04-27T12:40:01.802Z</time>
      </trkpt>
      <trkpt lat="51.41424" lon="7.46844">
        <ele>145.704215</ele>
        <time>2023-04-27T12:40:04.795Z</time>
      </trkpt>
      <trkpt lat="51.41431" lon="7.4686">
        <ele>145.969875</ele>
        <time>2023-04-27T12:40:07.810Z</time>
      </trkpt>
      <trkpt lat="51.41437" lon="7.46874">
        <ele>146.210425</ele>
        <time>2023-04-27T12:40:10.805Z</time>
      </trkpt>
      <trkpt lat="51.41443" lon="7.46892">
        <ele>146.485635</ele>
        <time>2023-04-27T12:40:13.805Z</time>
      </trkpt>
      <trkpt lat="51.41448" lon="7.46909">
        <ele>146.743292</ele>
        <time>2023-04-27T12:40:16.809Z</time>
      </trkpt>
      <trkpt lat="51.41452" lon="7.46926">
        <ele>146.989626</ele>
        <time>2023-04-27T12:40:19.801Z</time>
      </trkpt>
      <trkpt lat="51.41455" lon="7.46945">
        <ele>147.265406</ele>
        <time>2023-04-27T12:40:22.819Z</time>
      </trkpt>
      <trkpt lat="51.41459" lon="7.46958">
        <ele>147.46873</ele>
        <time>2023-04-27T12:40:24.815Z</time>
      </trkpt>
      <trkpt lat="51.41466" lon="7.46975">
        <ele>147.737834</ele>
        <time>2023-04-27T12:40:27.803Z</time>
      </trkpt>
      <trkpt lat="51.41471" lon="7.46993">
        <ele>148.01506</ele>
        <time>2023-04-27T12:40:30.808Z</time>
      </trkpt>
      <trkpt lat="51.41475" lon="7.47013">
        <ele>148.294724</ele>
        <time>2023-04-27T12:40:33.790Z</time>
      </trkpt>
      <trkpt lat="51.41478" lon="7.47031">
        <ele>148.558737</ele>
        <time>2023-04-27T12:40:36.803Z</time>
      </trkpt>
      <trkpt lat="51.41481" lon="7.47046">
        <ele>148.765164</ele>
        <time>2023-04-27T12:40:38.807Z</time>
      </trkpt>
      <trkpt lat="51.41484" lon="7.4706">
        <ele>148.965135</ele>
        <time>2023-04-27T12:40:40.822Z</time>
      </trkpt>
      <trkpt lat="51.41485" lon="7.47081">
        <ele>148.86233</ele>
        <time>2023-04-27T12:40:43.793Z</time>
      </trkpt>
      <trkpt lat="51.41486" lon="7.471">
        <ele>148.718228</ele>
        <time>2023-04-27T12:40:46.804Z</time>
      </trkpt>
      <trkpt lat="51.41486" lon="7.4712">
        <ele>148.566976</ele>
        <time>2023-04-27T12:40:49.789Z</time>
      </trkpt>
      <trkpt lat="51.41486" lon="7.47137">
        <ele>148.443354</ele>
        <time>2023-04-27T12:40:52.803Z</time>
      </trkpt>
      <trkpt lat="51.41486" lon="7.47153">
        <ele>148.319708</ele>
        <time>2023-04-27T12:40:55.802Z</time>
      </trkpt>
      <trkpt lat="51.41487" lon="7.47171">
        <ele>148.191063</ele>
        <time>2023-04-27T12:40:58.805Z</time>
      </trkpt>
      <trkpt lat="51.41489" lon="7.4719">
        <ele>148.046289</ele>
        <time>2023-04-27T12:41:01.796Z</time>
      </trkpt>
      <trkpt lat="51.41491" lon="7.47211">
        <ele>147.889559</ele>
        <time>2023-04-27T12:41:04.808Z</time>
      </trkpt>
      <trkpt lat="51.41491" lon="7.47231">
        <ele>147.739853</ele>
        <time>2023-04-27T12:41:07.787Z</time>
      </trkpt>
      <trkpt lat="51.41491" lon="7.47252">
        <ele>147.578995</ele>
        <time>2023-04-27T12:41:10.805Z</time>
      </trkpt>
      <trkpt lat="51.41491" lon="7.47268">
        <ele>147.461324</ele>
        <time>2023-04-27T12:41:12.801Z</time>
      </trkpt>
      <trkpt lat="51.41492" lon="7.47283">
        <ele>147.351326</ele>
        <time>2023-04-27T12:41:14.808Z</time>
      </trkpt>
      <trkpt lat="51.41493" lon="7.47304">
        <ele>147.191845</ele>
        <time>2023-04-27T12:41:17.816Z</time>
      </trkpt>
      <trkpt lat="51.41493" lon="7.47326">
        <ele>147.031732</ele>
        <time>2023-04-27T12:41:20.808Z</time>
      </trkpt>
      <trkpt lat="51.41493" lon="7.47347">
        <ele>146.875325</ele>
        <time>2023-04-27T12:41:23.808Z</time>
      </trkpt>
      <trkpt lat="51.41493" lon="7.47366">
        <ele>146.727259</ele>
        <time>2023-04-27T12:41:26.798Z</time>
      </trkpt>
      <trkpt lat="51.41495" lon="7.47382">
        <ele>146.611472</ele>
        <time>2023-04-27T12:41:28.807Z</time>
      </trkpt>
      <trkpt lat="51.41497" lon="7.47402">
        <ele>146.455169</ele>
        <time>2023-04-27T12:41:31.789Z</time>
      </trkpt>
      <trkpt lat="51.41502" lon="7.47421">
        <ele>146.298511</ele>
        <time>2023-04-27T12:41:34.784Z</time>
      </trkpt>
      <trkpt lat="51.41506" lon="7.47435">
        <ele>146.186053</ele>
        <time>2023-04-27T12:41:36.815Z</time>
      </trkpt>
      <trkpt lat="51.41508" lon="7.4745">
        <ele>146.070457</ele>
        <time>2023-04-27T12:41:38.828Z</time>
      </trkpt>
      <trkpt lat="51.41509" lon="7.47465">
        <ele>145.954455</ele>
        <time>2023-04-27T12:41:40.801Z</time>
      </trkpt>
      <trkpt lat="51.4151" lon="7.47481">
        <ele>145.833872</ele>
        <time>2023-04-27T12:41:42.795Z</time>
      </trkpt>
      <trkpt lat="51.4151" lon="7.47497">
        <ele>145.717039</ele>
        <time>2023-04-27T12:41:44.817Z</time>
      </trkpt>
      <trkpt lat="51.4151" lon="7.47513">
        <ele>145.596697</ele>
        <time>2023-04-27T12:41:46.803Z</time>
      </trkpt>
      <trkpt lat="51.4151" lon="7.47529">
        <ele>145.477107</ele>
        <time>2023-04-27T12:41:48.815Z</time>
      </trkpt>
      <trkpt lat="51.41511" lon="7.47545">
        <ele>145.351274</ele>
        <time>2023-04-27T12:41:50.800Z</time>
      </trkpt>
      <trkpt lat="51.41512" lon="7.47561">
        <ele>145.236091</ele>
        <time>2023-04-27T12:41:52.807Z</time>
      </trkpt>
      <trkpt lat="51.41512" lon="7.47577">
        <ele>145.115798</ele>
        <time>2023-04-27T12:41:54.808Z</time>
      </trkpt>
      <trkpt lat="51.41513" lon="7.47593">
        <ele>144.994035</ele>
        <time>2023-04-27T12:41:56.821Z</time>
      </trkpt>
      <trkpt lat="51.41514" lon="7.47608">
        <ele>144.877502</ele>
        <time>2023-04-27T12:41:58.815Z</time>
      </trkpt>
      <trkpt lat="51.41514" lon="7.47625">
        <ele>144.75186</ele>
        <time>2023-04-27T12:42:00.802Z</time>
      </trkpt>
      <trkpt lat="51.41515" lon="7.4764">
        <ele>144.78632</ele>
        <time>2023-04-27T12:42:02.808Z</time>
      </trkpt>
      <trkpt lat="51.41516" lon="7.47656">
        <ele>145.020738</ele>
        <time>2023-04-27T12:42:04.800Z</time>
      </trkpt>
      <trkpt lat="51.41517" lon="7.47672">
        <ele>145.264677</ele>
        <time>2023-04-27T12:42:06.796Z</time>
      </trkpt>
      <trkpt lat="51.41517" lon="7.47686">
        <ele>145.484753</ele>
        <time>2023-04-27T12:42:08.803Z</time>
      </trkpt>
      <trkpt lat="51.41518" lon="7.47704">
        <ele>145.755595</ele>
        <time>2023-04-27T12:42:11.793Z</time>
      </trkpt>
      <trkpt lat="51.41517" lon="7.4772">
        <ele>146.003556</ele>
        <time>2023-04-27T12:42:14.804Z</time>
      </trkpt>
      <trkpt lat="51.41517" lon="7.47736">
        <ele>146.255854</ele>
        <time>2023-04-27T12:42:17.805Z</time>
      </trkpt>
      <trkpt lat="51.41516" lon="7.47755">
        <ele>146.535507</ele>
        <time>2023-04-27T12:42:20.796Z</time>
      </trkpt>
      <trkpt lat="51.41515" lon="7.47771">
        <ele>146.788424</ele>
        <time>2023-04-27T12:42:23.802Z</time>
      </trkpt>
      <trkpt lat="51.41519" lon="7.47787">
        <ele>147.052324</ele>
        <time>2023-04-27T12:42:27.803Z</time>
      </trkpt>
      <trkpt lat="51.41528" lon="7.47788">
        <ele>147.28835</ele>
        <time>2023-04-27T12:42:31.805Z</time>
      </trkpt>
      <trkpt lat="51.41539" lon="7.47789">
        <ele>147.553096</ele>
        <time>2023-04-27T12:42:35.841Z</time>
      </trkpt>
      <trkpt lat="51.41551" lon="7.4779">
        <ele>147.838087</ele>
        <time>2023-04-27T12:42:39.810Z</time>
      </trkpt>
      <trkpt lat="51.41561" lon="7.47791">
        <ele>148.078414</ele>
        <time>2023-04-27T12:42:42.806Z</time>
      </trkpt>
      <trkpt lat="51.41571" lon="7.47792">
        <ele>148.321534</ele>
        <time>2023-04-27T12:42:45.788Z</time>
      </trkpt>
      <trkpt lat="51.41581" lon="7.47792">
        <ele>148.58369</ele>
        <time>2023-04-27T12:42:48.805Z</time>
      </trkpt>
      <trkpt lat="51.41592" lon="7.47794">
        <ele>148.851844</ele>
        <time>2023-04-27T12:42:51.803Z</time>
      </trkpt>
      <trkpt lat="51.41603" lon="7.47795">
        <ele>149.123752</ele>
        <time>2023-04-27T12:42:54.789Z</time>
      </trkpt>
      <trkpt lat="51.41615" lon="7.47797">
        <ele>149.38002</ele>
        <time>2023-04-27T12:42:57.793Z</time>
      </trkpt>
      <trkpt lat="51.41626" lon="7.47799">
        <ele>149.626279</ele>
        <time>2023-04-27T12:43:00.806Z</time>
      </trkpt>
      <trkpt lat="51.41636" lon="7.47799">
        <ele>149.851296</ele>
        <time>2023-04-27T12:43:03.803Z</time>
      </trkpt>
      <trkpt lat="51.41647" lon="7.47801">
        <ele>150.103898</ele>
        <time>2023-04-27T12:43:06.810Z</time>
      </trkpt>
      <trkpt lat="51.41659" lon="7.47803">
        <ele>150.364884</ele>
        <time>2023-04-27T12:43:09.816Z</time>
      </trkpt>
      <trkpt lat="51.4167" lon="7.47803">
        <ele>150.603099</ele>
        <time>2023-04-27T12:43:12.818Z</time>
      </trkpt>
      <trkpt lat="51.41679" lon="7.47801">
        <ele>150.814833</ele>
        <time>2023-04-27T12:43:16.819Z</time>
      </trkpt>
      <trkpt lat="51.41692" lon="7.47802">
        <ele>151.093309</ele>
        <time>2023-04-27T12:44:33.801Z</time>
      </trkpt>
      <trkpt lat="51.41701" lon="7.47803">
        <ele>151.30697</ele>
        <time>2023-04-27T12:44:37.801Z</time>
      </trkpt>
      <trkpt lat="51.41712" lon="7.47803">
        <ele>151.53858</ele>
        <time>2023-04-27T12:44:41.806Z</time>
      </trkpt>
      <trkpt lat="51.41722" lon="7.47805">
        <ele>151.781717</ele>
        <time>2023-04-27T12:44:45.804Z</time>
      </trkpt>
      <trkpt lat="51.41734" lon="7.47806">
        <ele>152.042603</ele>
        <time>2023-04-27T12:44:49.807Z</time>
      </trkpt>
      <trkpt lat="51.41743" lon="7.47807">
        <ele>152.245333</ele>
        <time>2023-04-27T12:44:52.807Z</time>
      </trkpt>
      <trkpt lat="51.41753" lon="7.47808">
        <ele>152.456948</ele>
        <time>2023-04-27T12:44:55.798Z</time>
      </trkpt>
      <trkpt lat="51.41763" lon="7.4781">
        <ele>152.683325</ele>
        <time>2023-04-27T12:44:58.795Z</time>
      </trkpt>
      <trkpt lat="51.41773" lon="7.4781">
        <ele>152.910428</ele>
        <time>2023-04-27T12:45:01.811Z</time>
      </trkpt>
      <trkpt lat="51.41784" lon="7.47812">
        <ele>153.181799</ele>
        <time>2023-04-27T12:45:04.821Z</time>
      </trkpt>
      <trkpt lat="51.41794" lon="7.47812">
        <ele>153.552346</ele>
        <time>2023-04-27T12:45:07.787Z</time>
      </trkpt>
      <trkpt lat="51.41805" lon="7.47813">
        <ele>153.941855</ele>
        <time>2023-04-27T12:45:10.790Z</time>
      </trkpt>
      <trkpt lat="51.41816" lon="7.47812">
        <ele>154.341568</ele>
        <time>2023-04-27T12:45:13.786Z</time>
      </trkpt>
      <trkpt lat="51.41826" lon="7.47812">
        <ele>154.723182</ele>
        <time>2023-04-27T12:45:16.816Z</time>
      </trkpt>
      <trkpt lat="51.41835" lon="7.47813">
        <ele>155.065747</ele>
        <time>2023-04-27T12:45:19.799Z</time>
      </trkpt>
      <trkpt lat="51.41846" lon="7.47812">
        <ele>155.440174</ele>
        <time>2023-04-27T12:45:23.816Z</time>
      </trkpt>
      <trkpt lat="51.41857" lon="7.47814">
        <ele>155.848114</ele>
        <time>2023-04-27T12:45:27.795Z</time>
      </trkpt>
      <trkpt lat="51.41867" lon="7.47814">
        <ele>156.200759</ele>
        <time>2023-04-27T12:45:30.794Z</time>
      </trkpt>
      <trkpt lat="51.41877" lon="7.47814">
        <ele>156.585844</ele>
        <time>2023-04-27T12:45:34.780Z</time>
      </trkpt>
      <trkpt lat="51.41887" lon="7.47814">
        <ele>156.952786</ele>
        <time>2023-04-27T12:45:38.798Z</time>
      </trkpt>
      <trkpt lat="51.41896" lon="7.47812">
        <ele>157.287814</ele>
        <time>2023-04-27T12:45:42.795Z</time>
      </trkpt>
      <trkpt lat="51.41906" lon="7.47808">
        <ele>157.634101</ele>
        <time>2023-04-27T12:45:46.804Z</time>
      </trkpt>
      <trkpt lat="51.41915" lon="7.47805">
        <ele>157.995295</ele>
        <time>2023-04-27T12:45:50.801Z</time>
      </trkpt>
      <trkpt lat="51.41924" lon="7.47802">
        <ele>158.331088</ele>
        <time>2023-04-27T12:45:54.797Z</time>
      </trkpt>
      <trkpt lat="51.41936" lon="7.47798">
        <ele>158.749619</ele>
        <time>2023-04-27T12:45:59.797Z</time>
      </trkpt>
      <trkpt lat="51.41945" lon="7.47795">
        <ele>159.112366</ele>
        <time>2023-04-27T12:46:03.784Z</time>
      </trkpt>
      <trkpt lat="51.41955" lon="7.4779">
        <ele>159.484619</ele>
        <time>2023-04-27T12:46:07.790Z</time>
      </trkpt>
      <trkpt lat="51.41965" lon="7.47787">
        <ele>160.005613</ele>
        <time>2023-04-27T12:46:11.789Z</time>
      </trkpt>
      <trkpt lat="51.41975" lon="7.47789">
        <ele>160.565452</ele>
        <time>2023-04-27T12:46:15.787Z</time>
      </trkpt>
      <trkpt lat="51.41979" lon="7.47802">
        <ele>161.095498</ele>
        <time>2023-04-27T12:46:19.800Z</time>
      </trkpt>
      <trkpt lat="51.41989" lon="7.47813">
        <ele>161.807478</ele>
        <time>2023-04-27T12:46:23.779Z</time>
      </trkpt>
      <trkpt lat="51.41994" lon="7.4783">
        <ele>162.511083</ele>
        <time>2023-04-27T12:46:27.799Z</time>
      </trkpt>
      <trkpt lat="51.41991" lon="7.47846">
        <ele>163.101121</ele>
        <time>2023-04-27T12:46:30.779Z</time>
      </trkpt>
      <trkpt lat="51.41986" lon="7.47858">
        <ele>163.653282</ele>
        <time>2023-04-27T12:46:33.788Z</time>
      </trkpt>
      <trkpt lat="51.41979" lon="7.47867">
        <ele>164.201687</ele>
        <time>2023-04-27T12:46:36.789Z</time>
      </trkpt>
      <trkpt lat="51.4197" lon="7.47873">
        <ele>164.754574</ele>
        <time>2023-04-27T12:46:39.792Z</time>
      </trkpt>
      <trkpt lat="51.41961" lon="7.47874">
        <ele>165.298475</ele>
        <time>2023-04-27T12:46:42.787Z</time>
      </trkpt>
      <trkpt lat="51.41951" lon="7.47875">
        <ele>165.857664</ele>
        <time>2023-04-27T12:46:45.781Z</time>
      </trkpt>
      <trkpt lat="51.4194" lon="7.47875">
        <ele>166.499278</ele>
        <time>2023-04-27T12:46:49.813Z</time>
      </trkpt>
      <trkpt lat="51.41929" lon="7.47875">
        <ele>167.146352</ele>
        <time>2023-04-27T12:46:53.803Z</time>
      </trkpt>
      <trkpt lat="51.4192" lon="7.47875">
        <ele>167.699239</ele>
        <time>2023-04-27T12:46:56.812Z</time>
      </trkpt>
      <trkpt lat="51.41908" lon="7.47875">
        <ele>168.387401</ele>
        <time>2023-04-27T12:47:00.803Z</time>
      </trkpt>
      <trkpt lat="51.41899" lon="7.47874">
        <ele>168.947888</ele>
        <time>2023-04-27T12:47:04.812Z</time>
      </trkpt>
      <trkpt lat="51.41888" lon="7.47872">
        <ele>169.544826</ele>
        <time>2023-04-27T12:47:15.788Z</time>
      </trkpt>
      <trkpt lat="51.41877" lon="7.47871">
        <ele>170.192648</ele>
        <time>2023-04-27T12:47:20.805Z</time>
      </trkpt>
      <trkpt lat="51.41869" lon="7.47864">
        <ele>170.433552</ele>
        <time>2023-04-27T12:47:24.798Z</time>
      </trkpt>
      <trkpt lat="51.41862" lon="7.47851">
        <ele>170.682817</ele>
        <time>2023-04-27T12:47:29.790Z</time>
      </trkpt>
      <trkpt lat="51.41858" lon="7.47836">
        <ele>170.913691</ele>
        <time>2023-04-27T12:47:33.789Z</time>
      </trkpt>
      <trkpt lat="51.41856" lon="7.47819">
        <ele>171.170189</ele>
        <time>2023-04-27T12:47:37.780Z</time>
      </trkpt>
      <trkpt lat="51.41859" lon="7.47805">
        <ele>171.391101</ele>
        <time>2023-04-27T12:47:41.791Z</time>
      </trkpt>
      <trkpt lat="51.41865" lon="7.47793">
        <ele>171.612025</ele>
        <time>2023-04-27T12:47:45.772Z</time>
      </trkpt>
      <trkpt lat="51.41873" lon="7.47783">
        <ele>171.861717</ele>
        <time>2023-04-27T12:47:49.782Z</time>
      </trkpt>
      <trkpt lat="51.41883" lon="7.47778">
        <ele>172.103685</ele>
        <time>2023-04-27T12:47:53.789Z</time>
      </trkpt>
      <trkpt lat="51.41893" lon="7.47776">
        <ele>172.324677</ele>
        <time>2023-04-27T12:47:57.806Z</time>
      </trkpt>
      <trkpt lat="51.41902" lon="7.47775">
        <ele>172.538795</ele>
        <time>2023-04-27T12:48:01.795Z</time>
      </trkpt>
      <trkpt lat="51.41912" lon="7.47773">
        <ele>172.787296</ele>
        <time>2023-04-27T12:48:06.786Z</time>
      </trkpt>
      <trkpt lat="51.41922" lon="7.47772">
        <ele>173.008175</ele>
        <time>2023-04-27T12:48:11.797Z</time>
      </trkpt>
      <trkpt lat="51.41932" lon="7.4777">
        <ele>173.254533</ele>
        <time>2023-04-27T12:48:16.799Z</time>
      </trkpt>
      <trkpt lat="51.41941" lon="7.47767">
        <ele>173.474451</ele>
        <time>2023-04-27T12:48:20.782Z</time>
      </trkpt>
      <trkpt lat="51.41952" lon="7.47765">
        <ele>173.737691</ele>
        <time>2023-04-27T12:48:25.800Z</time>
      </trkpt>
      <trkpt lat="51.41962" lon="7.4776">
        <ele>173.982835</ele>
        <time>2023-04-27T12:48:30.794Z</time>
      </trkpt>
      <trkpt lat="51.41973" lon="7.47761">
        <ele>174.244441</ele>
        <time>2023-04-27T12:48:35.782Z</time>
      </trkpt>
      <trkpt lat="51.41982" lon="7.47764">
        <ele>174.562511</ele>
        <time>2023-04-27T12:48:39.792Z</time>
      </trkpt>
      <trkpt lat="51.41991" lon="7.47769">
        <ele>175.480026</ele>
        <time>2023-04-27T12:48:43.800Z</time>
      </trkpt>
      <trkpt lat="51.42001" lon="7.47776">
        <ele>176.539284</ele>
        <time>2023-04-27T12:48:48.787Z</time>
      </trkpt>
      <trkpt lat="51.42011" lon="7.47785">
        <ele>177.604353</ele>
        <time>2023-04-27T12:48:53.801Z</time>
      </trkpt>
      <trkpt lat="51.4202" lon="7.47793">
        <ele>178.64604</ele>
        <time>2023-04-27T12:48:58.789Z</time>
      </trkpt>
      <trkpt lat="51.42029" lon="7.47802">
        <ele>179.695393</ele>
        <time>2023-04-27T12:49:03.797Z</time>
      </trkpt>
      <trkpt lat="51.42038" lon="7.47809">
        <ele>180.651728</ele>
        <time>2023-04-27T12:49:08.804Z</time>
      </trkpt>
      <trkpt lat="51.42048" lon="7.47817">
        <ele>181.669226</ele>
        <time>2023-04-27T12:49:13.786Z</time>
      </trkpt>
      <trkpt lat="51.42056" lon="7.47824">
        <ele>182.585659</ele>
        <time>2023-04-27T12:49:18.796Z</time>
      </trkpt>
      <trkpt lat="51.42066" lon="7.47832">
        <ele>183.681578</ele>
        <time>2023-04-27T12:49:23.791Z</time>
      </trkpt>
      <trkpt lat="51.42075" lon="7.47839">
        <ele>184.697979</ele>
        <time>2023-04-27T12:49:28.795Z</time>
      </trkpt>
      <trkpt lat="51.42085" lon="7.47846">
        <ele>185.732211</ele>
        <time>2023-04-27T12:49:34.796Z</time>
      </trkpt>
      <trkpt lat="51.42095" lon="7.47854">
        <ele>186.814415</ele>
        <time>2023-04-27T12:49:39.789Z</time>
      </trkpt>
      <trkpt lat="51.42103" lon="7.47861">
        <ele>187.692171</ele>
        <time>2023-04-27T12:49:44.789Z</time>
      </trkpt>
      <trkpt lat="51.42112" lon="7.47868">
        <ele>188.646646</ele>
        <time>2023-04-27T12:49:49.790Z</time>
      </trkpt>
      <trkpt lat="51.42122" lon="7.47877">
        <ele>189.76821</ele>
        <time>2023-04-27T12:49:54.796Z</time>
      </trkpt>
      <trkpt lat="51.42131" lon="7.47882">
        <ele>190.65627</ele>
        <time>2023-04-27T12:49:58.792Z</time>
      </trkpt>
      <trkpt lat="51.42139" lon="7.47888">
        <ele>191.531273</ele>
        <time>2023-04-27T12:50:02.787Z</time>
      </trkpt>
      <trkpt lat="51.42148" lon="7.47896">
        <ele>192.130548</ele>
        <time>2023-04-27T12:50:07.819Z</time>
      </trkpt>
      <trkpt lat="51.42157" lon="7.47902">
        <ele>192.489454</ele>
        <time>2023-04-27T12:50:12.790Z</time>
      </trkpt>
      <trkpt lat="51.42166" lon="7.47909">
        <ele>192.845537</ele>
        <time>2023-04-27T12:50:17.797Z</time>
      </trkpt>
      <trkpt lat="51.42174" lon="7.47918">
        <ele>193.213855</ele>
        <time>2023-04-27T12:50:22.787Z</time>
      </trkpt>
      <trkpt lat="51.42183" lon="7.47924">
        <ele>193.544919</ele>
        <time>2023-04-27T12:50:26.787Z</time>
      </trkpt>
      <trkpt lat="51.42192" lon="7.47932">
        <ele>193.922924</ele>
        <time>2023-04-27T12:50:31.804Z</time>
      </trkpt>
      <trkpt lat="51.42201" lon="7.4794">
        <ele>194.306426</ele>
        <time>2023-04-27T12:50:36.785Z</time>
      </trkpt>
      <trkpt lat="51.4221" lon="7.47946">
        <ele>194.664449</ele>
        <time>2023-04-27T12:50:41.790Z</time>
      </trkpt>
      <trkpt lat="51.42219" lon="7.47952">
        <ele>195.001729</ele>
        <time>2023-04-27T12:50:45.786Z</time>
      </trkpt>
      <trkpt lat="51.42227" lon="7.47958">
        <ele>195.333642</ele>
        <time>2023-04-27T12:50:50.804Z</time>
      </trkpt>
      <trkpt lat="51.42236" lon="7.47967">
        <ele>195.702784</ele>
        <time>2023-04-27T12:50:55.789Z</time>
      </trkpt>
      <trkpt lat="51.42245" lon="7.47973">
        <ele>196.043093</ele>
        <time>2023-04-27T12:51:00.811Z</time>
      </trkpt>
      <trkpt lat="51.42253" lon="7.47979">
        <ele>196.38077</ele>
        <time>2023-04-27T12:51:05.782Z</time>
      </trkpt>
      <trkpt lat="51.42262" lon="7.47987">
        <ele>196.741839</ele>
        <time>2023-04-27T12:51:10.790Z</time>
      </trkpt>
      <trkpt lat="51.42272" lon="7.47996">
        <ele>197.151196</ele>
        <time>2023-04-27T12:51:15.784Z</time>
      </trkpt>
      <trkpt lat="51.42281" lon="7.48005">
        <ele>197.560221</ele>
        <time>2023-04-27T12:51:20.800Z</time>
      </trkpt>
      <trkpt lat="51.4229" lon="7.48014">
        <ele>197.917141</ele>
        <time>2023-04-27T12:51:25.807Z</time>
      </trkpt>
      <trkpt lat="51.42298" lon="7.48021">
        <ele>198.264351</ele>
        <time>2023-04-27T12:51:29.787Z</time>
      </trkpt>
      <trkpt lat="51.42306" lon="7.48032">
        <ele>198.895806</ele>
        <time>2023-04-27T12:51:34.793Z</time>
      </trkpt>
      <trkpt lat="51.42314" lon="7.48042">
        <ele>199.643947</ele>
        <time>2023-04-27T12:51:39.788Z</time>
      </trkpt>
      <trkpt lat="51.42321" lon="7.48051">
        <ele>200.303971</ele>
        <time>2023-04-27T12:51:43.813Z</time>
      </trkpt>
      <trkpt lat="51.42327" lon="7.48062">
        <ele>200.979594</ele>
        <time>2023-04-27T12:51:48.789Z</time>
      </trkpt>
      <trkpt lat="51.42334" lon="7.48073">
        <ele>201.71544</ele>
        <time>2023-04-27T12:51:53.781Z</time>
      </trkpt>
      <trkpt lat="51.4234" lon="7.48087">
        <ele>202.491508</ele>
        <time>2023-04-27T12:51:58.784Z</time>
      </trkpt>
      <trkpt lat="51.42345" lon="7.48101">
        <ele>203.218945</ele>
        <time>2023-04-27T12:52:03.790Z</time>
      </trkpt>
      <trkpt lat="51.4235" lon="7.48113">
        <ele>203.899214</ele>
        <time>2023-04-27T12:52:11.800Z</time>
      </trkpt>
      <trkpt lat="51.42354" lon="7.48128">
        <ele>204.634611</ele>
        <time>2023-04-27T12:54:36.795Z</time>
      </trkpt>
      <trkpt lat="51.42358" lon="7.48141">
        <ele>205.316196</ele>
        <time>2023-04-27T12:54:41.800Z</time>
      </trkpt>
      <trkpt lat="51.42361" lon="7.48159">
        <ele>206.132366</ele>
        <time>2023-04-27T12:54:46.795Z</time>
      </trkpt>
      <trkpt lat="51.42364" lon="7.48175">
        <ele>206.904214</ele>
        <time>2023-04-27T12:54:51.796Z</time>
      </trkpt>
      <trkpt lat="51.42368" lon="7.48191">
        <ele>207.700633</ele>
        <time>2023-04-27T12:54:56.793Z</time>
      </trkpt>
      <trkpt lat="51.4237" lon="7.48208">
        <ele>208.492776</ele>
        <time>2023-04-27T12:55:01.802Z</time>
      </trkpt>
      <trkpt lat="51.42373" lon="7.48224">
        <ele>209.267905</ele>
        <time>2023-04-27T12:55:06.796Z</time>
      </trkpt>
      <trkpt lat="51.42374" lon="7.48241">
        <ele>210.056999</ele>
        <time>2023-04-27T12:55:11.796Z</time>
      </trkpt>
      <trkpt lat="51.42376" lon="7.48258">
        <ele>210.8288</ele>
        <time>2023-04-27T12:55:16.805Z</time>
      </trkpt>
      <trkpt lat="51.42379" lon="7.48273">
        <ele>211.564811</ele>
        <time>2023-04-27T12:55:21.798Z</time>
      </trkpt>
      <trkpt lat="51.42381" lon="7.48289">
        <ele>212.012983</ele>
        <time>2023-04-27T12:55:26.801Z</time>
      </trkpt>
      <trkpt lat="51.42382" lon="7.48304">
        <ele>212.444963</ele>
        <time>2023-04-27T12:55:31.774Z</time>
      </trkpt>
      <trkpt lat="51.42382" lon="7.48321">
        <ele>212.897924</ele>
        <time>2023-04-27T12:55:36.790Z</time>
      </trkpt>
      <trkpt lat="51.42379" lon="7.48337">
        <ele>213.352548</ele>
        <time>2023-04-27T12:55:40.778Z</time>
      </trkpt>
      <trkpt lat="51.42374" lon="7.48349">
        <ele>213.764794</ele>
        <time>2023-04-27T12:55:44.799Z</time>
      </trkpt>
      <trkpt lat="51.42366" lon="7.48359">
        <ele>214.214089</ele>
        <time>2023-04-27T12:55:48.822Z</time>
      </trkpt>
      <trkpt lat="51.42356" lon="7.48363">
        <ele>214.67406</ele>
        <time>2023-04-27T12:55:52.799Z</time>
      </trkpt>
      <trkpt lat="51.42346" lon="7.48361">
        <ele>215.12168</ele>
        <time>2023-04-27T12:55:56.791Z</time>
      </trkpt>
      <trkpt lat="51.42336" lon="7.48356">
        <ele>215.55431</ele>
        <time>2023-04-27T12:56:00.799Z</time>
      </trkpt>
      <trkpt lat="51.42328" lon="7.48347">
        <ele>215.974592</ele>
        <time>2023-04-27T12:56:04.809Z</time>
      </trkpt>
      <trkpt lat="51.42321" lon="7.48336">
        <ele>216.41178</ele>
        <time>2023-04-27T12:56:08.803Z</time>
      </trkpt>
      <trkpt lat="51.42315" lon="7.48325">
        <ele>216.831936</ele>
        <time>2023-04-27T12:56:12.795Z</time>
      </trkpt>
      <trkpt lat="51.42309" lon="7.48313">
        <ele>217.245605</ele>
        <time>2023-04-27T12:56:16.800Z</time>
      </trkpt>
      <trkpt lat="51.42303" lon="7.48298">
        <ele>217.727742</ele>
        <time>2023-04-27T12:56:21.796Z</time>
      </trkpt>
      <trkpt lat="51.42297" lon="7.48285">
        <ele>218.181512</ele>
        <time>2023-04-27T12:56:26.812Z</time>
      </trkpt>
      <trkpt lat="51.4229" lon="7.48272">
        <ele>218.64433</ele>
        <time>2023-04-27T12:56:31.804Z</time>
      </trkpt>
      <trkpt lat="51.42284" lon="7.48259">
        <ele>219.084336</ele>
        <time>2023-04-27T12:56:36.811Z</time>
      </trkpt>
      <trkpt lat="51.42278" lon="7.48246">
        <ele>219.537897</ele>
        <time>2023-04-27T12:56:41.769Z</time>
      </trkpt>
      <trkpt lat="51.42272" lon="7.48232">
        <ele>219.929586</ele>
        <time>2023-04-27T12:56:46.816Z</time>
      </trkpt>
      <trkpt lat="51.42265" lon="7.48221">
        <ele>220.295152</ele>
        <time>2023-04-27T12:56:51.789Z</time>
      </trkpt>
      <trkpt lat="51.42259" lon="7.48209">
        <ele>220.649115</ele>
        <time>2023-04-27T12:56:56.810Z</time>
      </trkpt>
      <trkpt lat="51.42253" lon="7.48196">
        <ele>221.016636</ele>
        <time>2023-04-27T12:57:01.815Z</time>
      </trkpt>
      <trkpt lat="51.42245" lon="7.48185">
        <ele>221.402217</ele>
        <time>2023-04-27T12:57:06.801Z</time>
      </trkpt>
      <trkpt lat="51.42236" lon="7.48179">
        <ele>221.754466</ele>
        <time>2023-04-27T12:57:11.793Z</time>
      </trkpt>
      <trkpt lat="51.42226" lon="7.48177">
        <ele>222.126054</ele>
        <time>2023-04-27T12:57:16.811Z</time>
      </trkpt>
      <trkpt lat="51.42216" lon="7.48177">
        <ele>222.499007</ele>
        <time>2023-04-27T12:57:21.796Z</time>
      </trkpt>
      <trkpt lat="51.42206" lon="7.48185">
        <ele>222.907809</ele>
        <time>2023-04-27T12:57:26.792Z</time>
      </trkpt>
      <trkpt lat="51.42198" lon="7.48193">
        <ele>223.250713</ele>
        <time>2023-04-27T12:57:30.797Z</time>
      </trkpt>
      <trkpt lat="51.4219" lon="7.48206">
        <ele>223.672516</ele>
        <time>2023-04-27T12:57:35.785Z</time>
      </trkpt>
      <trkpt lat="51.42186" lon="7.48222">
        <ele>224.065623</ele>
        <time>2023-04-27T12:57:40.791Z</time>
      </trkpt>
      <trkpt lat="51.42185" lon="7.48237">
        <ele>224.409047</ele>
        <time>2023-04-27T12:57:44.786Z</time>
      </trkpt>
      <trkpt lat="51.42186" lon="7.48254">
        <ele>224.801079</ele>
        <time>2023-04-27T12:57:49.797Z</time>
      </trkpt>
      <trkpt lat="51.4219" lon="7.48271">
        <ele>225.218799</ele>
        <time>2023-04-27T12:57:54.801Z</time>
      </trkpt>
      <trkpt lat="51.42195" lon="7.48284">
        <ele>225.58785</ele>
        <time>2023-04-27T12:57:58.788Z</time>
      </trkpt>
      <trkpt lat="51.42202" lon="7.48296">
        <ele>225.970757</ele>
        <time>2023-04-27T12:58:02.804Z</time>
      </trkpt>
      <trkpt lat="51.42209" lon="7.48306">
        <ele>226.398025</ele>
        <time>2023-04-27T12:58:06.804Z</time>
      </trkpt>
      <trkpt lat="51.42216" lon="7.48318">
        <ele>226.872865</ele>
        <time>2023-04-27T12:58:10.798Z</time>
      </trkpt>
      <trkpt lat="51.42223" lon="7.48331">
        <ele>227.430459</ele>
        <time>2023-04-27T12:58:15.811Z</time>
      </trkpt>
      <trkpt lat="51.4223" lon="7.48342">
        <ele>227.931901</ele>
        <time>2023-04-27T12:58:19.800Z</time>
      </trkpt>
      <trkpt lat="51.42238" lon="7.48352">
        <ele>228.447661</ele>
        <time>2023-04-27T12:58:23.798Z</time>
      </trkpt>
      <trkpt lat="51.42244" lon="7.48363">
        <ele>228.940952</ele>
        <time>2023-04-27T12:58:27.797Z</time>
      </trkpt>
      <trkpt lat="51.42252" lon="7.48375">
        <ele>229.491319</ele>
        <time>2023-04-27T12:58:31.797Z</time>
      </trkpt>
      <trkpt lat="51.42258" lon="7.48388">
        <ele>230.019215</ele>
        <time>2023-04-27T12:58:35.846Z</time>
      </trkpt>
      <trkpt lat="51.42265" lon="7.48398">
        <ele>230.483128</ele>
        <time>2023-04-27T12:58:39.806Z</time>
      </trkpt>
      <trkpt lat="51.42272" lon="7.48409">
        <ele>231.009372</ele>
        <time>2023-04-27T12:58:43.799Z</time>
      </trkpt>
      <trkpt lat="51.4228" lon="7.48421">
        <ele>231.544572</ele>
        <time>2023-04-27T12:58:47.797Z</time>
      </trkpt>
      <trkpt lat="51.42287" lon="7.48434">
        <ele>232.111497</ele>
        <time>2023-04-27T12:58:51.809Z</time>
      </trkpt>
      <trkpt lat="51.42295" lon="7.48446">
        <ele>232.639992</ele>
        <time>2023-04-27T12:58:56.816Z</time>
      </trkpt>
      <trkpt lat="51.42302" lon="7.48459">
        <ele>233.185108</ele>
        <time>2023-04-27T12:59:01.810Z</time>
      </trkpt>
      <trkpt lat="51.42309" lon="7.48471">
        <ele>233.711005</ele>
        <time>2023-04-27T12:59:06.789Z</time>
      </trkpt>
      <trkpt lat="51.42316" lon="7.48483">
        <ele>234.239298</ele>
        <time>2023-04-27T12:59:11.790Z</time>
      </trkpt>
      <trkpt lat="51.42322" lon="7.48496">
        <ele>234.745526</ele>
        <time>2023-04-27T12:59:16.802Z</time>
      </trkpt>
      <trkpt lat="51.42328" lon="7.48509">
        <ele>235.270142</ele>
        <time>2023-04-27T12:59:21.799Z</time>
      </trkpt>
      <trkpt lat="51.42336" lon="7.4852">
        <ele>235.742447</ele>
        <time>2023-04-27T12:59:26.817Z</time>
      </trkpt>
      <trkpt lat="51.42344" lon="7.48531">
        <ele>236.185265</ele>
        <time>2023-04-27T12:59:31.800Z</time>
      </trkpt>
      <trkpt lat="51.4235" lon="7.48544">
        <ele>236.611137</ele>
        <time>2023-04-27T12:59:36.791Z</time>
      </trkpt>
      <trkpt lat="51.42358" lon="7.48556">
        <ele>237.037824</ele>
        <time>2023-04-27T12:59:41.807Z</time>
      </trkpt>
      <trkpt lat="51.42364" lon="7.48568">
        <ele>237.461759</ele>
        <time>2023-04-27T12:59:46.791Z</time>
      </trkpt>
      <trkpt lat="51.42372" lon="7.48579">
        <ele>237.881035</ele>
        <time>2023-04-27T12:59:51.786Z</time>
      </trkpt>
      <trkpt lat="51.42379" lon="7.48591">
        <ele>238.309665</ele>
        <time>2023-04-27T12:59:56.799Z</time>
      </trkpt>
      <trkpt lat="51.42387" lon="7.48602">
        <ele>238.735129</ele>
        <time>2023-04-27T13:00:01.812Z</time>
      </trkpt>
      <trkpt lat="51.42395" lon="7.48612">
        <ele>239.172107</ele>
        <time>2023-04-27T13:00:06.799Z</time>
      </trkpt>
      <trkpt lat="51.42404" lon="7.48621">
        <ele>239.610251</ele>
        <time>2023-04-27T13:00:11.798Z</time>
      </trkpt>
      <trkpt lat="51.42413" lon="7.48627">
        <ele>240.030505</ele>
        <time>2023-04-27T13:00:16.789Z</time>
      </trkpt>
      <trkpt lat="51.42423" lon="7.48631">
        <ele>240.47824</ele>
        <time>2023-04-27T13:00:21.796Z</time>
      </trkpt>
      <trkpt lat="51.42434" lon="7.4863">
        <ele>240.900474</ele>
        <time>2023-04-27T13:00:26.780Z</time>
      </trkpt>
      <trkpt lat="51.42444" lon="7.48629">
        <ele>241.341845</ele>
        <time>2023-04-27T13:00:31.810Z</time>
      </trkpt>
      <trkpt lat="51.42454" lon="7.48627">
        <ele>241.750811</ele>
        <time>2023-04-27T13:00:36.817Z</time>
      </trkpt>
      <trkpt lat="51.42463" lon="7.48622">
        <ele>242.150817</ele>
        <time>2023-04-27T13:00:41.809Z</time>
      </trkpt>
      <trkpt lat="51.42471" lon="7.48614">
        <ele>242.557085</ele>
        <time>2023-04-27T13:00:46.800Z</time>
      </trkpt>
      <trkpt lat="51.4248" lon="7.48604">
        <ele>243.000127</ele>
        <time>2023-04-27T13:00:51.806Z</time>
      </trkpt>
      <trkpt lat="51.42487" lon="7.48593">
        <ele>243.458329</ele>
        <time>2023-04-27T13:00:56.799Z</time>
      </trkpt>
      <trkpt lat="51.42493" lon="7.48581">
        <ele>243.918604</ele>
        <time>2023-04-27T13:01:01.791Z</time>
      </trkpt>
      <trkpt lat="51.42499" lon="7.4857">
        <ele>244.332003</ele>
        <time>2023-04-27T13:01:05.802Z</time>
      </trkpt>
      <trkpt lat="51.42505" lon="7.48559">
        <ele>244.757664</ele>
        <time>2023-04-27T13:01:10.804Z</time>
      </trkpt>
      <trkpt lat="51.42512" lon="7.48547">
        <ele>245.206178</ele>
        <time>2023-04-27T13:01:15.815Z</time>
      </trkpt>
      <trkpt lat="51.42518" lon="7.48534">
        <ele>245.688352</ele>
        <time>2023-04-27T13:01:20.782Z</time>
      </trkpt>
      <trkpt lat="51.42525" lon="7.4852">
        <ele>246.179603</ele>
        <time>2023-04-27T13:01:25.814Z</time>
      </trkpt>
      <trkpt lat="51.42531" lon="7.4851">
        <ele>246.613951</ele>
        <time>2023-04-27T13:01:30.813Z</time>
      </trkpt>
      <trkpt lat="51.42538" lon="7.48498">
        <ele>247.070612</ele>
        <time>2023-04-27T13:01:35.797Z</time>
      </trkpt>
      <trkpt lat="51.42545" lon="7.48488">
        <ele>247.530743</ele>
        <time>2023-04-27T13:01:41.798Z</time>
      </trkpt>
      <trkpt lat="51.42552" lon="7.48498">
        <ele>247.950412</ele>
        <time>2023-04-27T13:01:46.797Z</time>
      </trkpt>
      <trkpt lat="51.42552" lon="7.48513">
        <ele>248.387997</ele>
        <time>2023-04-27T13:01:54.791Z</time>
      </trkpt>
      <trkpt lat="51.42544" lon="7.48531">
        <ele>249.03724</ele>
        <time>2023-04-27T13:02:50.803Z</time>
      </trkpt>
      <trkpt lat="51.42539" lon="7.48545">
        <ele>249.500782</ele>
        <time>2023-04-27T13:02:55.786Z</time>
      </trkpt>
      <trkpt lat="51.42534" lon="7.48559">
        <ele>249.935243</ele>
        <time>2023-04-27T13:03:00.793Z</time>
      </trkpt>
      <trkpt lat="51.42529" lon="7.48574">
        <ele>250.451091</ele>
        <time>2023-04-27T13:03:05.777Z</time>
      </trkpt>
      <trkpt lat="51.42524" lon="7.48588">
        <ele>250.8913</ele>
        <time>2023-04-27T13:03:09.803Z</time>
      </trkpt>
      <trkpt lat="51.4252" lon="7.48604">
        <ele>251.374122</ele>
        <time>2023-04-27T13:03:14.811Z</time>
      </trkpt>
      <trkpt lat="51.42515" lon="7.48617">
        <ele>251.776956</ele>
        <time>2023-04-27T13:03:18.801Z</time>
      </trkpt>
      <trkpt lat="51.42509" lon="7.48631">
        <ele>252.200554</ele>
        <time>2023-04-27T13:03:22.795Z</time>
      </trkpt>
      <trkpt lat="51.42504" lon="7.48645">
        <ele>252.631944</ele>
        <time>2023-04-27T13:03:26.797Z</time>
      </trkpt>
      <trkpt lat="51.42498" lon="7.48659">
        <ele>253.07891</ele>
        <time>2023-04-27T13:03:31.794Z</time>
      </trkpt>
      <trkpt lat="51.42492" lon="7.48674">
        <ele>253.51925</ele>
        <time>2023-04-27T13:03:37.786Z</time>
      </trkpt>
      <trkpt lat="51.42488" lon="7.48688">
        <ele>253.910983</ele>
        <time>2023-04-27T13:03:42.805Z</time>
      </trkpt>
      <trkpt lat="51.42482" lon="7.48699">
        <ele>254.291941</ele>
        <time>2023-04-27T13:03:47.802Z</time>
      </trkpt>
      <trkpt lat="51.42477" lon="7.48711">
        <ele>254.666209</ele>
        <time>2023-04-27T13:03:53.784Z</time>
      </trkpt>
      <trkpt lat="51.42483" lon="7.48724">
        <ele>255.070261</ele>
        <time>2023-04-27T13:03:59.821Z</time>
      </trkpt>
      <trkpt lat="51.42492" lon="7.48721">
        <ele>255.455618</ele>
        <time>2023-04-27T13:04:03.809Z</time>
      </trkpt>
      <trkpt lat="51.42501" lon="7.48716">
        <ele>255.832149</ele>
        <time>2023-04-27T13:04:08.795Z</time>
      </trkpt>
      <trkpt lat="51.4251" lon="7.48711">
        <ele>256.230548</ele>
        <time>2023-04-27T13:04:13.808Z</time>
      </trkpt>
      <trkpt lat="51.42519" lon="7.48706">
        <ele>256.626665</ele>
        <time>2023-04-27T13:04:18.787Z</time>
      </trkpt>
      <trkpt lat="51.42529" lon="7.48697">
        <ele>257.090439</ele>
        <time>2023-04-27T13:04:24.794Z</time>
      </trkpt>
      <trkpt lat="51.42536" lon="7.48684">
        <ele>257.528915</ele>
        <time>2023-04-27T13:04:30.788Z</time>
      </trkpt>
      <trkpt lat="51.42541" lon="7.48671">
        <ele>257.953853</ele>
        <time>2023-04-27T13:04:35.785Z</time>
      </trkpt>
      <trkpt lat="51.42549" lon="7.48662">
        <ele>258.337291</ele>
        <time>2023-04-27T13:04:40.799Z</time>
      </trkpt>
      <trkpt lat="51.42559" lon="7.48655">
        <ele>258.675448</ele>
        <time>2023-04-27T13:04:45.789Z</time>
      </trkpt>
      <trkpt lat="51.42568" lon="7.48655">
        <ele>258.814025</ele>
        <time>2023-04-27T13:04:50.800Z</time>
      </trkpt>
      <trkpt lat="51.42579" lon="7.48657">
        <ele>258.969831</ele>
        <time>2023-04-27T13:04:55.795Z</time>
      </trkpt>
      <trkpt lat="51.42589" lon="7.48658">
        <ele>259.108618</ele>
        <time>2023-04-27T13:05:00.794Z</time>
      </trkpt>
      <trkpt lat="51.42599" lon="7.48661">
        <ele>259.255847</ele>
        <time>2023-04-27T13:05:05.788Z</time>
      </trkpt>
      <trkpt lat="51.42608" lon="7.48661">
        <ele>259.391523</ele>
        <time>2023-04-27T13:05:10.793Z</time>
      </trkpt>
      <trkpt lat="51.42618" lon="7.48661">
        <ele>259.537292</ele>
        <time>2023-04-27T13:05:15.795Z</time>
      </trkpt>
      <trkpt lat="51.42628" lon="7.4866">
        <ele>259.683283</ele>
        <time>2023-04-27T13:05:20.802Z</time>
      </trkpt>
      <trkpt lat="51.42639" lon="7.48661">
        <ele>259.833598</ele>
        <time>2023-04-27T13:05:24.795Z</time>
      </trkpt>
      <trkpt lat="51.4265" lon="7.4866">
        <ele>259.996842</ele>
        <time>2023-04-27T13:05:28.799Z</time>
      </trkpt>
      <trkpt lat="51.42661" lon="7.48658">
        <ele>260.152211</ele>
        <time>2023-04-27T13:05:32.800Z</time>
      </trkpt>
      <trkpt lat="51.42672" lon="7.48655">
        <ele>260.315834</ele>
        <time>2023-04-27T13:05:36.807Z</time>
      </trkpt>
      <trkpt lat="51.42683" lon="7.48651">
        <ele>260.48271</ele>
        <time>2023-04-27T13:05:40.804Z</time>
      </trkpt>
      <trkpt lat="51.42694" lon="7.4865">
        <ele>260.639514</ele>
        <time>2023-04-27T13:05:44.802Z</time>
      </trkpt>
      <trkpt lat="51.42705" lon="7.48649">
        <ele>260.793964</ele>
        <time>2023-04-27T13:05:49.790Z</time>
      </trkpt>
      <trkpt lat="51.42714" lon="7.48648">
        <ele>260.924753</ele>
        <time>2023-04-27T13:05:53.788Z</time>
      </trkpt>
      <trkpt lat="51.42723" lon="7.48642">
        <ele>261.072077</ele>
        <time>2023-04-27T13:05:58.802Z</time>
      </trkpt>
      <trkpt lat="51.42733" lon="7.48637">
        <ele>261.210065</ele>
        <time>2023-04-27T13:06:02.834Z</time>
      </trkpt>
      <trkpt lat="51.42742" lon="7.48631">
        <ele>260.238804</ele>
        <time>2023-04-27T13:06:05.782Z</time>
      </trkpt>
      <trkpt lat="51.42751" lon="7.48623">
        <ele>259.342195</ele>
        <time>2023-04-27T13:06:08.798Z</time>
      </trkpt>
      <trkpt lat="51.4276" lon="7.48609">
        <ele>258.18156</ele>
        <time>2023-04-27T13:06:11.816Z</time>
      </trkpt>
      <trkpt lat="51.42768" lon="7.48599">
        <ele>257.281865</ele>
        <time>2023-04-27T13:06:13.817Z</time>
      </trkpt>
      <trkpt lat="51.42777" lon="7.48584">
        <ele>256.050587</ele>
        <time>2023-04-27T13:06:16.777Z</time>
      </trkpt>
      <trkpt lat="51.4278" lon="7.48561">
        <ele>254.72303</ele>
        <time>2023-04-27T13:06:19.785Z</time>
      </trkpt>
      <trkpt lat="51.42779" lon="7.48541">
        <ele>253.5532</ele>
        <time>2023-04-27T13:06:21.791Z</time>
      </trkpt>
      <trkpt lat="51.42777" lon="7.48519">
        <ele>252.263831</ele>
        <time>2023-04-27T13:06:23.789Z</time>
      </trkpt>
      <trkpt lat="51.42777" lon="7.48498">
        <ele>251.062889</ele>
        <time>2023-04-27T13:06:25.813Z</time>
      </trkpt>
      <trkpt lat="51.42786" lon="7.48491">
        <ele>250.112928</ele>
        <time>2023-04-27T13:06:27.783Z</time>
      </trkpt>
      <trkpt lat="51.42798" lon="7.4849">
        <ele>249.010124</ele>
        <time>2023-04-27T13:06:29.784Z</time>
      </trkpt>
      <trkpt lat="51.42809" lon="7.48486">
        <ele>247.953601</ele>
        <time>2023-04-27T13:06:31.790Z</time>
      </trkpt>
      <trkpt lat="51.42821" lon="7.48482">
        <ele>246.867927</ele>
        <time>2023-04-27T13:06:33.798Z</time>
      </trkpt>
      <trkpt lat="51.42832" lon="7.48487">
        <ele>245.772838</ele>
        <time>2023-04-27T13:06:35.780Z</time>
      </trkpt>
      <trkpt lat="51.42843" lon="7.48497">
        <ele>244.648728</ele>
        <time>2023-04-27T13:06:37.776Z</time>
      </trkpt>
      <trkpt lat="51.42852" lon="7.48499">
        <ele>243.657445</ele>
        <time>2023-04-27T13:06:39.801Z</time>
      </trkpt>
      <trkpt lat="51.42865" lon="7.48495">
        <ele>242.379324</ele>
        <time>2023-04-27T13:06:41.792Z</time>
      </trkpt>
      <trkpt lat="51.42875" lon="7.48485">
        <ele>241.127715</ele>
        <time>2023-04-27T13:06:43.805Z</time>
      </trkpt>
      <trkpt lat="51.42887" lon="7.48472">
        <ele>239.669593</ele>
        <time>2023-04-27T13:06:45.803Z</time>
      </trkpt>
      <trkpt lat="51.429" lon="7.48458">
        <ele>238.056144</ele>
        <time>2023-04-27T13:06:47.803Z</time>
      </trkpt>
      <trkpt lat="51.42913" lon="7.48441">
        <ele>236.366917</ele>
        <time>2023-04-27T13:06:49.800Z</time>
      </trkpt>
      <trkpt lat="51.42926" lon="7.48423">
        <ele>234.620274</ele>
        <time>2023-04-27T13:06:51.796Z</time>
      </trkpt>
      <trkpt lat="51.42937" lon="7.48401">
        <ele>232.834731</ele>
        <time>2023-04-27T13:06:53.793Z</time>
      </trkpt>
      <trkpt lat="51.42941" lon="7.48386">
        <ele>231.847768</ele>
        <time>2023-04-27T13:06:54.803Z</time>
      </trkpt>
      <trkpt lat="51.42943" lon="7.4837">
        <ele>230.824058</ele>
        <time>2023-04-27T13:06:55.798Z</time>
      </trkpt>
      <trkpt lat="51.42945" lon="7.48354">
        <ele>229.756844</ele>
        <time>2023-04-27T13:06:56.817Z</time>
      </trkpt>
      <trkpt lat="51.42947" lon="7.48338">
        <ele>228.766088</ele>
        <time>2023-04-27T13:06:57.854Z</time>
      </trkpt>
      <trkpt lat="51.42949" lon="7.48323">
        <ele>227.766993</ele>
        <time>2023-04-27T13:06:58.783Z</time>
      </trkpt>
      <trkpt lat="51.42954" lon="7.48311">
        <ele>226.817218</ele>
        <time>2023-04-27T13:06:59.806Z</time>
      </trkpt>
      <trkpt lat="51.42967" lon="7.48291">
        <ele>225.803608</ele>
        <time>2023-04-27T13:07:01.811Z</time>
      </trkpt>
      <trkpt lat="51.42979" lon="7.48274">
        <ele>225.130793</ele>
        <time>2023-04-27T13:07:03.799Z</time>
      </trkpt>
      <trkpt lat="51.42992" lon="7.48262">
        <ele>224.527603</ele>
        <time>2023-04-27T13:07:05.801Z</time>
      </trkpt>
      <trkpt lat="51.43003" lon="7.48253">
        <ele>224.022698</ele>
        <time>2023-04-27T13:07:07.796Z</time>
      </trkpt>
      <trkpt lat="51.43015" lon="7.48254">
        <ele>223.515748</ele>
        <time>2023-04-27T13:07:09.792Z</time>
      </trkpt>
      <trkpt lat="51.43024" lon="7.48268">
        <ele>222.981877</ele>
        <time>2023-04-27T13:07:11.799Z</time>
      </trkpt>
      <trkpt lat="51.43032" lon="7.48288">
        <ele>222.39375</ele>
        <time>2023-04-27T13:07:13.797Z</time>
      </trkpt>
      <trkpt lat="51.43039" lon="7.48308">
        <ele>221.786156</ele>
        <time>2023-04-27T13:07:15.797Z</time>
      </trkpt>
      <trkpt lat="51.43048" lon="7.48327">
        <ele>221.167635</ele>
        <time>2023-04-27T13:07:17.786Z</time>
      </trkpt>
      <trkpt lat="51.43057" lon="7.48346">
        <ele>220.552764</ele>
        <time>2023-04-27T13:07:19.797Z</time>
      </trkpt>
      <trkpt lat="51.43066" lon="7.48365">
        <ele>219.963947</ele>
        <time>2023-04-27T13:07:21.794Z</time>
      </trkpt>
      <trkpt lat="51.43074" lon="7.48384">
        <ele>219.384043</ele>
        <time>2023-04-27T13:07:23.816Z</time>
      </trkpt>
      <trkpt lat="51.43081" lon="7.48403">
        <ele>218.936409</ele>
        <time>2023-04-27T13:07:25.805Z</time>
      </trkpt>
      <trkpt lat="51.43085" lon="7.48423">
        <ele>219.035719</ele>
        <time>2023-04-27T13:07:27.796Z</time>
      </trkpt>
      <trkpt lat="51.43088" lon="7.48444">
        <ele>219.13236</ele>
        <time>2023-04-27T13:07:29.794Z</time>
      </trkpt>
      <trkpt lat="51.4309" lon="7.48462">
        <ele>219.218582</ele>
        <time>2023-04-27T13:07:31.793Z</time>
      </trkpt>
      <trkpt lat="51.43091" lon="7.48479">
        <ele>219.29941</ele>
        <time>2023-04-27T13:07:33.809Z</time>
      </trkpt>
      <trkpt lat="51.43093" lon="7.48494">
        <ele>219.368075</ele>
        <time>2023-04-27T13:07:35.805Z</time>
      </trkpt>
      <trkpt lat="51.43097" lon="7.4851">
        <ele>219.447871</ele>
        <time>2023-04-27T13:07:38.802Z</time>
      </trkpt>
      <trkpt lat="51.43102" lon="7.48522">
        <ele>219.517785</ele>
        <time>2023-04-27T13:07:42.821Z</time>
      </trkpt>
      <trkpt lat="51.43109" lon="7.48534">
        <ele>219.594779</ele>
        <time>2023-04-27T13:07:47.794Z</time>
      </trkpt>
      <trkpt lat="51.43116" lon="7.48544">
        <ele>219.666139</ele>
        <time>2023-04-27T13:07:51.814Z</time>
      </trkpt>
      <trkpt lat="51.43123" lon="7.48554">
        <ele>219.734889</ele>
        <time>2023-04-27T13:07:55.778Z</time>
      </trkpt>
      <trkpt lat="51.4313" lon="7.48564">
        <ele>219.803997</ele>
        <time>2023-04-27T13:07:59.797Z</time>
      </trkpt>
      <trkpt lat="51.43137" lon="7.48574">
        <ele>219.875222</ele>
        <time>2023-04-27T13:08:03.797Z</time>
      </trkpt>
      <trkpt lat="51.43144" lon="7.48586">
        <ele>219.95392</ele>
        <time>2023-04-27T13:08:07.801Z</time>
      </trkpt>
      <trkpt lat="51.43152" lon="7.486">
        <ele>220.038227</ele>
        <time>2023-04-27T13:08:11.796Z</time>
      </trkpt>
      <trkpt lat="51.4316" lon="7.48614">
        <ele>220.126516</ele>
        <time>2023-04-27T13:08:15.799Z</time>
      </trkpt>
      <trkpt lat="51.43166" lon="7.48626">
        <ele>220.198919</ele>
        <time>2023-04-27T13:08:18.798Z</time>
      </trkpt>
      <trkpt lat="51.43173" lon="7.48638">
        <ele>220.385283</ele>
        <time>2023-04-27T13:08:21.801Z</time>
      </trkpt>
      <trkpt lat="51.4318" lon="7.48654">
        <ele>221.044947</ele>
        <time>2023-04-27T13:08:24.798Z</time>
      </trkpt>
      <trkpt lat="51.43187" lon="7.48669">
        <ele>221.68218</ele>
        <time>2023-04-27T13:08:27.807Z</time>
      </trkpt>
      <trkpt lat="51.43196" lon="7.48681">
        <ele>222.342132</ele>
        <time>2023-04-27T13:08:30.796Z</time>
      </trkpt>
      <trkpt lat="51.43206" lon="7.4869">
        <ele>223.001719</ele>
        <time>2023-04-27T13:08:33.800Z</time>
      </trkpt>
      <trkpt lat="51.43216" lon="7.48696">
        <ele>223.581072</ele>
        <time>2023-04-27T13:08:36.844Z</time>
      </trkpt>
      <trkpt lat="51.43227" lon="7.48702">
        <ele>224.229977</ele>
        <time>2023-04-27T13:08:40.808Z</time>
      </trkpt>
      <trkpt lat="51.43239" lon="7.48708">
        <ele>224.889284</ele>
        <time>2023-04-27T13:08:44.827Z</time>
      </trkpt>
      <trkpt lat="51.43247" lon="7.48713">
        <ele>225.386769</ele>
        <time>2023-04-27T13:08:47.811Z</time>
      </trkpt>
      <trkpt lat="51.43258" lon="7.48718">
        <ele>225.98397</ele>
        <time>2023-04-27T13:08:51.801Z</time>
      </trkpt>
      <trkpt lat="51.43268" lon="7.48724">
        <ele>226.585582</ele>
        <time>2023-04-27T13:08:56.809Z</time>
      </trkpt>
      <trkpt lat="51.43279" lon="7.48729">
        <ele>227.1945</ele>
        <time>2023-04-27T13:09:01.783Z</time>
      </trkpt>
      <trkpt lat="51.43287" lon="7.48734">
        <ele>227.688284</ele>
        <time>2023-04-27T13:09:05.852Z</time>
      </trkpt>
      <trkpt lat="51.43297" lon="7.48738">
        <ele>228.285518</ele>
        <time>2023-04-27T13:09:10.788Z</time>
      </trkpt>
      <trkpt lat="51.43308" lon="7.48744">
        <ele>228.884004</ele>
        <time>2023-04-27T13:09:15.811Z</time>
      </trkpt>
      <trkpt lat="51.43317" lon="7.4875">
        <ele>229.426788</ele>
        <time>2023-04-27T13:09:20.781Z</time>
      </trkpt>
      <trkpt lat="51.43326" lon="7.48754">
        <ele>229.967416</ele>
        <time>2023-04-27T13:09:25.787Z</time>
      </trkpt>
      <trkpt lat="51.43335" lon="7.48759">
        <ele>230.604808</ele>
        <time>2023-04-27T13:09:31.796Z</time>
      </trkpt>
      <trkpt lat="51.43344" lon="7.48764">
        <ele>231.291346</ele>
        <time>2023-04-27T13:09:36.800Z</time>
      </trkpt>
      <trkpt lat="51.43353" lon="7.48769">
        <ele>232.047583</ele>
        <time>2023-04-27T13:09:41.797Z</time>
      </trkpt>
      <trkpt lat="51.43363" lon="7.48776">
        <ele>232.857641</ele>
        <time>2023-04-27T13:09:46.803Z</time>
      </trkpt>
      <trkpt lat="51.43372" lon="7.48782">
        <ele>233.631359</ele>
        <time>2023-04-27T13:09:50.795Z</time>
      </trkpt>
      <trkpt lat="51.43382" lon="7.48786">
        <ele>234.374874</ele>
        <time>2023-04-27T13:09:54.798Z</time>
      </trkpt>
      <trkpt lat="51.43391" lon="7.4879">
        <ele>235.146914</ele>
        <time>2023-04-27T13:09:58.816Z</time>
      </trkpt>
      <trkpt lat="51.43401" lon="7.48794">
        <ele>235.887201</ele>
        <time>2023-04-27T13:10:02.813Z</time>
      </trkpt>
      <trkpt lat="51.4341" lon="7.48797">
        <ele>236.602178</ele>
        <time>2023-04-27T13:10:06.810Z</time>
      </trkpt>
      <trkpt lat="51.4342" lon="7.48799">
        <ele>237.35478</ele>
        <time>2023-04-27T13:10:10.813Z</time>
      </trkpt>
      <trkpt lat="51.4343" lon="7.48801">
        <ele>238.097992</ele>
        <time>2023-04-27T13:10:14.800Z</time>
      </trkpt>
      <trkpt lat="51.43439" lon="7.48803">
        <ele>238.809881</ele>
        <time>2023-04-27T13:10:18.800Z</time>
      </trkpt>
      <trkpt lat="51.43448" lon="7.48805">
        <ele>239.496268</ele>
        <time>2023-04-27T13:10:22.799Z</time>
      </trkpt>
      <trkpt lat="51.43457" lon="7.48809">
        <ele>240.185818</ele>
        <time>2023-04-27T13:10:26.804Z</time>
      </trkpt>
      <trkpt lat="51.43467" lon="7.4881">
        <ele>240.963025</ele>
        <time>2023-04-27T13:10:31.799Z</time>
      </trkpt>
      <trkpt lat="51.43477" lon="7.48808">
        <ele>241.742962</ele>
        <time>2023-04-27T13:10:36.815Z</time>
      </trkpt>
      <trkpt lat="51.43487" lon="7.48802">
        <ele>242.54545</ele>
        <time>2023-04-27T13:10:41.811Z</time>
      </trkpt>
      <trkpt lat="51.43496" lon="7.48795">
        <ele>243.343607</ele>
        <time>2023-04-27T13:10:46.804Z</time>
      </trkpt>
      <trkpt lat="51.43505" lon="7.48787">
        <ele>243.841649</ele>
        <time>2023-04-27T13:10:49.813Z</time>
      </trkpt>
      <trkpt lat="51.43515" lon="7.48778">
        <ele>243.804684</ele>
        <time>2023-04-27T13:10:52.810Z</time>
      </trkpt>
      <trkpt lat="51.43523" lon="7.48772">
        <ele>243.775544</ele>
        <time>2023-04-27T13:10:54.803Z</time>
      </trkpt>
      <trkpt lat="51.43532" lon="7.48768">
        <ele>243.74548</ele>
        <time>2023-04-27T13:10:56.798Z</time>
      </trkpt>
      <trkpt lat="51.43542" lon="7.48763">
        <ele>243.712796</ele>
        <time>2023-04-27T13:10:58.802Z</time>
      </trkpt>
      <trkpt lat="51.43553" lon="7.4876">
        <ele>243.678174</ele>
        <time>2023-04-27T13:11:00.798Z</time>
      </trkpt>
      <trkpt lat="51.43562" lon="7.48757">
        <ele>243.64615</ele>
        <time>2023-04-27T13:11:02.823Z</time>
      </trkpt>
      <trkpt lat="51.43573" lon="7.48755">
        <ele>243.612069</ele>
        <time>2023-04-27T13:11:04.806Z</time>
      </trkpt>
      <trkpt lat="51.43583" lon="7.48753">
        <ele>243.580819</ele>
        <time>2023-04-27T13:11:06.810Z</time>
      </trkpt>
      <trkpt lat="51.43596" lon="7.4875">
        <ele>243.538068</ele>
        <time>2023-04-27T13:11:09.797Z</time>
      </trkpt>
      <trkpt lat="51.43605" lon="7.48747">
        <ele>243.508811</ele>
        <time>2023-04-27T13:11:11.801Z</time>
      </trkpt>
      <trkpt lat="51.43614" lon="7.48748">
        <ele>243.479397</ele>
        <time>2023-04-27T13:11:13.800Z</time>
      </trkpt>
      <trkpt lat="51.43624" lon="7.48748">
        <ele>243.447428</ele>
        <time>2023-04-27T13:11:15.806Z</time>
      </trkpt>
      <trkpt lat="51.43633" lon="7.48749">
        <ele>243.417963</ele>
        <time>2023-04-27T13:11:17.795Z</time>
      </trkpt>
      <trkpt lat="51.43642" lon="7.48751">
        <ele>243.389247</ele>
        <time>2023-04-27T13:11:19.801Z</time>
      </trkpt>
      <trkpt lat="51.43655" lon="7.48756">
        <ele>243.347911</ele>
        <time>2023-04-27T13:11:22.802Z</time>
      </trkpt>
      <trkpt lat="51.43666" lon="7.48757">
        <ele>243.312068</ele>
        <time>2023-04-27T13:11:25.789Z</time>
      </trkpt>
      <trkpt lat="51.43676" lon="7.48756">
        <ele>243.279721</ele>
        <time>2023-04-27T13:11:28.809Z</time>
      </trkpt>
      <trkpt lat="51.43687" lon="7.48756">
        <ele>243.781682</ele>
        <time>2023-04-27T13:11:31.801Z</time>
      </trkpt>
      <trkpt lat="51.43698" lon="7.48757">
        <ele>244.396189</ele>
        <time>2023-04-27T13:11:35.808Z</time>
      </trkpt>
      <trkpt lat="51.43707" lon="7.48755">
        <ele>244.886434</ele>
        <time>2023-04-27T13:11:38.812Z</time>
      </trkpt>
      <trkpt lat="51.43716" lon="7.48754">
        <ele>245.379047</ele>
        <time>2023-04-27T13:11:41.802Z</time>
      </trkpt>
      <trkpt lat="51.43725" lon="7.48753">
        <ele>245.901353</ele>
        <time>2023-04-27T13:11:45.785Z</time>
      </trkpt>
      <trkpt lat="51.43734" lon="7.48749">
        <ele>246.39988</ele>
        <time>2023-04-27T13:11:49.811Z</time>
      </trkpt>
      <trkpt lat="51.43745" lon="7.48743">
        <ele>247.019555</ele>
        <time>2023-04-27T13:11:54.796Z</time>
      </trkpt>
      <trkpt lat="51.43756" lon="7.48737">
        <ele>247.632072</ele>
        <time>2023-04-27T13:11:59.793Z</time>
      </trkpt>
      <trkpt lat="51.43766" lon="7.48734">
        <ele>248.193568</ele>
        <time>2023-04-27T13:12:04.789Z</time>
      </trkpt>
      <trkpt lat="51.43776" lon="7.48732">
        <ele>248.734001</ele>
        <time>2023-04-27T13:12:09.806Z</time>
      </trkpt>
      <trkpt lat="51.43786" lon="7.48733">
        <ele>249.277819</ele>
        <time>2023-04-27T13:12:16.800Z</time>
      </trkpt>
      <trkpt lat="51.43796" lon="7.48734">
        <ele>249.854187</ele>
        <time>2023-04-27T13:12:21.794Z</time>
      </trkpt>
      <trkpt lat="51.43807" lon="7.48736">
        <ele>250.443597</ele>
        <time>2023-04-27T13:12:26.802Z</time>
      </trkpt>
      <trkpt lat="51.43816" lon="7.48739">
        <ele>250.942124</ele>
        <time>2023-04-27T13:12:30.799Z</time>
      </trkpt>
      <trkpt lat="51.43826" lon="7.48742">
        <ele>251.488128</ele>
        <time>2023-04-27T13:12:35.796Z</time>
      </trkpt>
      <trkpt lat="51.43836" lon="7.48746">
        <ele>252.035633</ele>
        <time>2023-04-27T13:12:39.789Z</time>
      </trkpt>
      <trkpt lat="51.43845" lon="7.48752">
        <ele>252.583874</ele>
        <time>2023-04-27T13:12:43.797Z</time>
      </trkpt>
      <trkpt lat="51.43854" lon="7.48758">
        <ele>253.171517</ele>
        <time>2023-04-27T13:12:47.807Z</time>
      </trkpt>
      <trkpt lat="51.43864" lon="7.48763">
        <ele>253.986844</ele>
        <time>2023-04-27T13:12:51.804Z</time>
      </trkpt>
      <trkpt lat="51.43873" lon="7.48768">
        <ele>254.80965</ele>
        <time>2023-04-27T13:12:55.795Z</time>
      </trkpt>
      <trkpt lat="51.43883" lon="7.48772">
        <ele>255.678317</ele>
        <time>2023-04-27T13:13:00.800Z</time>
      </trkpt>
      <trkpt lat="51.43893" lon="7.48776">
        <ele>256.529266</ele>
        <time>2023-04-27T13:13:05.783Z</time>
      </trkpt>
      <trkpt lat="51.43903" lon="7.48778">
        <ele>257.343641</ele>
        <time>2023-04-27T13:13:10.798Z</time>
      </trkpt>
      <trkpt lat="51.43912" lon="7.48777">
        <ele>258.174232</ele>
        <time>2023-04-27T13:13:15.805Z</time>
      </trkpt>
      <trkpt lat="51.43923" lon="7.48775">
        <ele>259.081649</ele>
        <time>2023-04-27T13:13:21.817Z</time>
      </trkpt>
      <trkpt lat="51.43933" lon="7.48775">
        <ele>259.926211</ele>
        <time>2023-04-27T13:13:26.803Z</time>
      </trkpt>
      <trkpt lat="51.43943" lon="7.48779">
        <ele>260.778627</ele>
        <time>2023-04-27T13:13:31.796Z</time>
      </trkpt>
      <trkpt lat="51.43954" lon="7.48782">
        <ele>261.675374</ele>
        <time>2023-04-27T13:13:36.795Z</time>
      </trkpt>
      <trkpt lat="51.43965" lon="7.48785">
        <ele>262.612641</ele>
        <time>2023-04-27T13:13:41.797Z</time>
      </trkpt>
      <trkpt lat="51.43975" lon="7.48787">
        <ele>263.449862</ele>
        <time>2023-04-27T13:13:46.789Z</time>
      </trkpt>
      <trkpt lat="51.43985" lon="7.48789">
        <ele>264.309117</ele>
        <time>2023-04-27T13:13:58.795Z</time>
      </trkpt>
      <trkpt lat="51.43985" lon="7.48789">
        <ele>264.309117</ele>
        <time>2023-04-27T13:14:00.559Z</time>
      </trkpt>
      <trkpt lat="51.43994" lon="7.48789">
        <ele>265.0952</ele>
        <time>2023-04-27T13:26:21.789Z</time>
      </trkpt>
      <trkpt lat="51.43999" lon="7.48802">
        <ele>265.895837</ele>
        <time>2023-04-27T13:32:09.783Z</time>
      </trkpt>
      <trkpt lat="51.44009" lon="7.48809">
        <ele>266.808155</ele>
        <time>2023-04-27T13:32:15.789Z</time>
      </trkpt>
      <trkpt lat="51.4402" lon="7.48816">
        <ele>267.745564</ele>
        <time>2023-04-27T13:32:20.800Z</time>
      </trkpt>
      <trkpt lat="51.44029" lon="7.48822">
        <ele>268.514469</ele>
        <time>2023-04-27T13:32:25.797Z</time>
      </trkpt>
      <trkpt lat="51.44038" lon="7.48828">
        <ele>269.210011</ele>
        <time>2023-04-27T13:32:30.782Z</time>
      </trkpt>
      <trkpt lat="51.44047" lon="7.48836">
        <ele>269.983869</ele>
        <time>2023-04-27T13:32:35.779Z</time>
      </trkpt>
      <trkpt lat="51.44056" lon="7.48841">
        <ele>270.680986</ele>
        <time>2023-04-27T13:32:39.791Z</time>
      </trkpt>
      <trkpt lat="51.44067" lon="7.48845">
        <ele>271.482304</ele>
        <time>2023-04-27T13:32:44.783Z</time>
      </trkpt>
      <trkpt lat="51.44077" lon="7.48846">
        <ele>272.159269</ele>
        <time>2023-04-27T13:32:48.798Z</time>
      </trkpt>
      <trkpt lat="51.44086" lon="7.4885">
        <ele>272.894958</ele>
        <time>2023-04-27T13:32:52.801Z</time>
      </trkpt>
      <trkpt lat="51.44096" lon="7.48854">
        <ele>273.603362</ele>
        <time>2023-04-27T13:32:56.807Z</time>
      </trkpt>
      <trkpt lat="51.44106" lon="7.48857">
        <ele>274.330401</ele>
        <time>2023-04-27T13:33:01.792Z</time>
      </trkpt>
      <trkpt lat="51.44116" lon="7.48858">
        <ele>275.110604</ele>
        <time>2023-04-27T13:33:06.792Z</time>
      </trkpt>
      <trkpt lat="51.44127" lon="7.48859">
        <ele>275.87159</ele>
        <time>2023-04-27T13:33:11.775Z</time>
      </trkpt>
      <trkpt lat="51.44138" lon="7.48858">
        <ele>276.654318</ele>
        <time>2023-04-27T13:33:16.777Z</time>
      </trkpt>
      <trkpt lat="51.44148" lon="7.4886">
        <ele>277.374999</ele>
        <time>2023-04-27T13:33:21.782Z</time>
      </trkpt>
      <trkpt lat="51.44156" lon="7.48863">
        <ele>278.022902</ele>
        <time>2023-04-27T13:33:26.797Z</time>
      </trkpt>
      <trkpt lat="51.44166" lon="7.48865">
        <ele>278.710119</ele>
        <time>2023-04-27T13:33:33.786Z</time>
      </trkpt>
      <trkpt lat="51.44176" lon="7.48865">
        <ele>279.463898</ele>
        <time>2023-04-27T13:33:39.788Z</time>
      </trkpt>
      <trkpt lat="51.44185" lon="7.48871">
        <ele>280.151683</ele>
        <time>2023-04-27T13:33:44.799Z</time>
      </trkpt>
      <trkpt lat="51.44194" lon="7.48882">
        <ele>280.988363</ele>
        <time>2023-04-27T13:33:48.796Z</time>
      </trkpt>
      <trkpt lat="51.44201" lon="7.48892">
        <ele>280.919893</ele>
        <time>2023-04-27T13:33:51.792Z</time>
      </trkpt>
      <trkpt lat="51.44208" lon="7.48902">
        <ele>280.658967</ele>
        <time>2023-04-27T13:33:54.795Z</time>
      </trkpt>
      <trkpt lat="51.44217" lon="7.48913">
        <ele>280.345844</ele>
        <time>2023-04-27T13:33:57.809Z</time>
      </trkpt>
      <trkpt lat="51.44226" lon="7.48924">
        <ele>280.029404</ele>
        <time>2023-04-27T13:34:00.821Z</time>
      </trkpt>
      <trkpt lat="51.44235" lon="7.48934">
        <ele>279.702827</ele>
        <time>2023-04-27T13:34:03.800Z</time>
      </trkpt>
      <trkpt lat="51.44245" lon="7.48946">
        <ele>279.371951</ele>
        <time>2023-04-27T13:34:06.810Z</time>
      </trkpt>
      <trkpt lat="51.44255" lon="7.48958">
        <ele>279.028379</ele>
        <time>2023-04-27T13:34:09.802Z</time>
      </trkpt>
      <trkpt lat="51.44264" lon="7.48971">
        <ele>278.668319</ele>
        <time>2023-04-27T13:34:12.794Z</time>
      </trkpt>
      <trkpt lat="51.44275" lon="7.48983">
        <ele>278.320806</ele>
        <time>2023-04-27T13:34:15.788Z</time>
      </trkpt>
      <trkpt lat="51.44284" lon="7.48994">
        <ele>278.003306</ele>
        <time>2023-04-27T13:34:18.798Z</time>
      </trkpt>
      <trkpt lat="51.44293" lon="7.48999">
        <ele>277.735736</ele>
        <time>2023-04-27T13:34:26.783Z</time>
      </trkpt>
      <trkpt lat="51.443" lon="7.49008">
        <ele>277.475486</ele>
        <time>2023-04-27T13:35:12.798Z</time>
      </trkpt>
      <trkpt lat="51.44308" lon="7.49017">
        <ele>277.219988</ele>
        <time>2023-04-27T13:35:17.775Z</time>
      </trkpt>
      <trkpt lat="51.44316" lon="7.49027">
        <ele>276.924273</ele>
        <time>2023-04-27T13:35:22.789Z</time>
      </trkpt>
      <trkpt lat="51.44325" lon="7.49038">
        <ele>276.608891</ele>
        <time>2023-04-27T13:35:26.807Z</time>
      </trkpt>
      <trkpt lat="51.44334" lon="7.49051">
        <ele>276.270702</ele>
        <time>2023-04-27T13:35:30.812Z</time>
      </trkpt>
      <trkpt lat="51.44343" lon="7.49061">
        <ele>275.988981</ele>
        <time>2023-04-27T13:35:33.789Z</time>
      </trkpt>
      <trkpt lat="51.44351" lon="7.49071">
        <ele>275.742458</ele>
        <time>2023-04-27T13:35:36.806Z</time>
      </trkpt>
      <trkpt lat="51.4436" lon="7.49081">
        <ele>275.493868</ele>
        <time>2023-04-27T13:35:39.813Z</time>
      </trkpt>
      <trkpt lat="51.44369" lon="7.49091">
        <ele>275.239537</ele>
        <time>2023-04-27T13:35:42.803Z</time>
      </trkpt>
      <trkpt lat="51.44377" lon="7.49101">
        <ele>274.994379</ele>
        <time>2023-04-27T13:35:45.781Z</time>
      </trkpt>
      <trkpt lat="51.44386" lon="7.49111">
        <ele>274.740474</ele>
        <time>2023-04-27T13:35:48.798Z</time>
      </trkpt>
      <trkpt lat="51.44393" lon="7.4912">
        <ele>274.514922</ele>
        <time>2023-04-27T13:35:51.796Z</time>
      </trkpt>
      <trkpt lat="51.44401" lon="7.49128">
        <ele>274.300545</ele>
        <time>2023-04-27T13:35:55.809Z</time>
      </trkpt>
      <trkpt lat="51.4441" lon="7.49137">
        <ele>274.05954</ele>
        <time>2023-04-27T13:36:00.802Z</time>
      </trkpt>
      <trkpt lat="51.44421" lon="7.49146">
        <ele>273.752885</ele>
        <time>2023-04-27T13:36:27.792Z</time>
      </trkpt>
      <trkpt lat="51.44431" lon="7.49158">
        <ele>273.464626</ele>
        <time>2023-04-27T13:36:30.817Z</time>
      </trkpt>
      <trkpt lat="51.44442" lon="7.4917">
        <ele>273.153614</ele>
        <time>2023-04-27T13:36:33.809Z</time>
      </trkpt>
      <trkpt lat="51.44452" lon="7.49175">
        <ele>272.908266</ele>
        <time>2023-04-27T13:36:35.800Z</time>
      </trkpt>
      <trkpt lat="51.44461" lon="7.49173">
        <ele>272.677969</ele>
        <time>2023-04-27T13:36:37.800Z</time>
      </trkpt>
      <trkpt lat="51.4447" lon="7.49165">
        <ele>272.449306</ele>
        <time>2023-04-27T13:36:39.809Z</time>
      </trkpt>
      <trkpt lat="51.44474" lon="7.49151">
        <ele>272.215139</ele>
        <time>2023-04-27T13:36:41.791Z</time>
      </trkpt>
      <trkpt lat="51.4448" lon="7.49137">
        <ele>271.974229</ele>
        <time>2023-04-27T13:36:43.792Z</time>
      </trkpt>
      <trkpt lat="51.44485" lon="7.49124">
        <ele>271.716761</ele>
        <time>2023-04-27T13:36:45.793Z</time>
      </trkpt>
      <trkpt lat="51.44491" lon="7.4911">
        <ele>271.409958</ele>
        <time>2023-04-27T13:36:47.798Z</time>
      </trkpt>
      <trkpt lat="51.44497" lon="7.49097">
        <ele>271.127098</ele>
        <time>2023-04-27T13:36:49.795Z</time>
      </trkpt>
      <trkpt lat="51.44503" lon="7.49085">
        <ele>270.852481</ele>
        <time>2023-04-27T13:36:51.805Z</time>
      </trkpt>
      <trkpt lat="51.44508" lon="7.49072">
        <ele>270.575842</ele>
        <time>2023-04-27T13:36:53.795Z</time>
      </trkpt>
      <trkpt lat="51.44514" lon="7.4906">
        <ele>270.283372</ele>
        <time>2023-04-27T13:36:55.787Z</time>
      </trkpt>
      <trkpt lat="51.44521" lon="7.49047">
        <ele>269.97655</ele>
        <time>2023-04-27T13:36:57.812Z</time>
      </trkpt>
      <trkpt lat="51.44528" lon="7.49033">
        <ele>269.650546</ele>
        <time>2023-04-27T13:36:59.792Z</time>
      </trkpt>
      <trkpt lat="51.44534" lon="7.49019">
        <ele>269.340917</ele>
        <time>2023-04-27T13:37:01.800Z</time>
      </trkpt>
      <trkpt lat="51.44541" lon="7.49004">
        <ele>268.991411</ele>
        <time>2023-04-27T13:37:03.797Z</time>
      </trkpt>
      <trkpt lat="51.44549" lon="7.48987">
        <ele>268.620771</ele>
        <time>2023-04-27T13:37:05.804Z</time>
      </trkpt>
      <trkpt lat="51.44557" lon="7.48969">
        <ele>268.214165</ele>
        <time>2023-04-27T13:37:07.811Z</time>
      </trkpt>
      <trkpt lat="51.44566" lon="7.48951">
        <ele>267.797753</ele>
        <time>2023-04-27T13:37:09.802Z</time>
      </trkpt>
      <trkpt lat="51.44575" lon="7.48933">
        <ele>267.380468</ele>
        <time>2023-04-27T13:37:11.793Z</time>
      </trkpt>
      <trkpt lat="51.44584" lon="7.48916">
        <ele>266.964078</ele>
        <time>2023-04-27T13:37:13.801Z</time>
      </trkpt>
      <trkpt lat="51.44594" lon="7.48898">
        <ele>266.494452</ele>
        <time>2023-04-27T13:37:15.785Z</time>
      </trkpt>
      <trkpt lat="51.44605" lon="7.48882">
        <ele>265.84414</ele>
        <time>2023-04-27T13:37:17.805Z</time>
      </trkpt>
      <trkpt lat="51.44617" lon="7.48867">
        <ele>265.190834</ele>
        <time>2023-04-27T13:37:19.805Z</time>
      </trkpt>
      <trkpt lat="51.44629" lon="7.48853">
        <ele>264.543285</ele>
        <time>2023-04-27T13:37:21.819Z</time>
      </trkpt>
      <trkpt lat="51.44642" lon="7.4884">
        <ele>263.871185</ele>
        <time>2023-04-27T13:37:23.799Z</time>
      </trkpt>
      <trkpt lat="51.44656" lon="7.48829">
        <ele>263.188475</ele>
        <time>2023-04-27T13:37:25.799Z</time>
      </trkpt>
      <trkpt lat="51.4467" lon="7.48819">
        <ele>262.518102</ele>
        <time>2023-04-27T13:37:27.774Z</time>
      </trkpt>
      <trkpt lat="51.44684" lon="7.48811">
        <ele>261.866298</ele>
        <time>2023-04-27T13:37:29.806Z</time>
      </trkpt>
      <trkpt lat="51.447" lon="7.48806">
        <ele>261.178247</ele>
        <time>2023-04-27T13:37:31.793Z</time>
      </trkpt>
      <trkpt lat="51.44716" lon="7.48802">
        <ele>260.48565</ele>
        <time>2023-04-27T13:37:33.797Z</time>
      </trkpt>
      <trkpt lat="51.44731" lon="7.48798">
        <ele>259.826111</ele>
        <time>2023-04-27T13:37:35.804Z</time>
      </trkpt>
      <trkpt lat="51.44748" lon="7.48796">
        <ele>259.089404</ele>
        <time>2023-04-27T13:37:37.811Z</time>
      </trkpt>
      <trkpt lat="51.44757" lon="7.48797">
        <ele>258.681932</ele>
        <time>2023-04-27T13:37:38.810Z</time>
      </trkpt>
      <trkpt lat="51.44774" lon="7.48797">
        <ele>257.900071</ele>
        <time>2023-04-27T13:37:40.820Z</time>
      </trkpt>
      <trkpt lat="51.44783" lon="7.48799">
        <ele>257.502962</ele>
        <time>2023-04-27T13:37:41.770Z</time>
      </trkpt>
      <trkpt lat="51.44793" lon="7.48801">
        <ele>257.074538</ele>
        <time>2023-04-27T13:37:42.813Z</time>
      </trkpt>
      <trkpt lat="51.44802" lon="7.48805">
        <ele>256.641075</ele>
        <time>2023-04-27T13:37:43.801Z</time>
      </trkpt>
      <trkpt lat="51.44812" lon="7.48809">
        <ele>256.194637</ele>
        <time>2023-04-27T13:37:44.819Z</time>
      </trkpt>
      <trkpt lat="51.44822" lon="7.48813">
        <ele>255.763491</ele>
        <time>2023-04-27T13:37:45.809Z</time>
      </trkpt>
      <trkpt lat="51.44839" lon="7.4882">
        <ele>254.972727</ele>
        <time>2023-04-27T13:37:47.802Z</time>
      </trkpt>
      <trkpt lat="51.44855" lon="7.48827">
        <ele>254.229837</ele>
        <time>2023-04-27T13:37:49.799Z</time>
      </trkpt>
      <trkpt lat="51.44869" lon="7.48831">
        <ele>253.582195</ele>
        <time>2023-04-27T13:37:51.772Z</time>
      </trkpt>
      <trkpt lat="51.44883" lon="7.48836">
        <ele>252.953054</ele>
        <time>2023-04-27T13:37:53.791Z</time>
      </trkpt>
      <trkpt lat="51.44897" lon="7.4884">
        <ele>252.334695</ele>
        <time>2023-04-27T13:37:55.817Z</time>
      </trkpt>
      <trkpt lat="51.44911" lon="7.48844">
        <ele>251.714709</ele>
        <time>2023-04-27T13:37:57.812Z</time>
      </trkpt>
      <trkpt lat="51.44924" lon="7.48845">
        <ele>251.13594</ele>
        <time>2023-04-27T13:37:59.817Z</time>
      </trkpt>
      <trkpt lat="51.44936" lon="7.48845">
        <ele>250.662366</ele>
        <time>2023-04-27T13:38:01.803Z</time>
      </trkpt>
      <trkpt lat="51.44948" lon="7.48846">
        <ele>250.31796</ele>
        <time>2023-04-27T13:38:03.812Z</time>
      </trkpt>
      <trkpt lat="51.44961" lon="7.48847">
        <ele>249.952133</ele>
        <time>2023-04-27T13:38:05.869Z</time>
      </trkpt>
      <trkpt lat="51.44973" lon="7.48849">
        <ele>249.583833</ele>
        <time>2023-04-27T13:38:07.803Z</time>
      </trkpt>
      <trkpt lat="51.44986" lon="7.48849">
        <ele>249.213507</ele>
        <time>2023-04-27T13:38:09.795Z</time>
      </trkpt>
      <trkpt lat="51.44998" lon="7.48843">
        <ele>248.856454</ele>
        <time>2023-04-27T13:38:11.802Z</time>
      </trkpt>
      <trkpt lat="51.4501" lon="7.48836">
        <ele>248.478479</ele>
        <time>2023-04-27T13:38:13.801Z</time>
      </trkpt>
      <trkpt lat="51.45023" lon="7.48832">
        <ele>248.108232</ele>
        <time>2023-04-27T13:38:15.803Z</time>
      </trkpt>
      <trkpt lat="51.45033" lon="7.48822">
        <ele>247.761788</ele>
        <time>2023-04-27T13:38:17.898Z</time>
      </trkpt>
      <trkpt lat="51.45045" lon="7.48816">
        <ele>247.3893</ele>
        <time>2023-04-27T13:38:19.824Z</time>
      </trkpt>
      <trkpt lat="51.45058" lon="7.48808">
        <ele>246.997921</ele>
        <time>2023-04-27T13:38:21.797Z</time>
      </trkpt>
      <trkpt lat="51.45072" lon="7.48799">
        <ele>246.570978</ele>
        <time>2023-04-27T13:38:23.820Z</time>
      </trkpt>
      <trkpt lat="51.45086" lon="7.48791">
        <ele>246.136458</ele>
        <time>2023-04-27T13:38:25.799Z</time>
      </trkpt>
      <trkpt lat="51.451" lon="7.48783">
        <ele>245.702803</ele>
        <time>2023-04-27T13:38:27.797Z</time>
      </trkpt>
      <trkpt lat="51.45114" lon="7.48775">
        <ele>245.216167</ele>
        <time>2023-04-27T13:38:29.802Z</time>
      </trkpt>
      <trkpt lat="51.45128" lon="7.48765">
        <ele>244.717156</ele>
        <time>2023-04-27T13:38:31.807Z</time>
      </trkpt>
      <trkpt lat="51.45142" lon="7.48756">
        <ele>244.204408</ele>
        <time>2023-04-27T13:38:33.807Z</time>
      </trkpt>
      <trkpt lat="51.45157" lon="7.48746">
        <ele>243.67773</ele>
        <time>2023-04-27T13:38:35.793Z</time>
      </trkpt>
      <trkpt lat="51.45172" lon="7.48736">
        <ele>243.137898</ele>
        <time>2023-04-27T13:38:37.792Z</time>
      </trkpt>
      <trkpt lat="51.45186" lon="7.48726">
        <ele>242.597741</ele>
        <time>2023-04-27T13:38:39.795Z</time>
      </trkpt>
      <trkpt lat="51.45201" lon="7.48714">
        <ele>242.061753</ele>
        <time>2023-04-27T13:38:41.815Z</time>
      </trkpt>
      <trkpt lat="51.45215" lon="7.48703">
        <ele>241.536315</ele>
        <time>2023-04-27T13:38:43.794Z</time>
      </trkpt>
      <trkpt lat="51.4523" lon="7.4869">
        <ele>240.969077</ele>
        <time>2023-04-27T13:38:45.784Z</time>
      </trkpt>
      <trkpt lat="51.45245" lon="7.48674">
        <ele>240.376862</ele>
        <time>2023-04-27T13:38:47.800Z</time>
      </trkpt>
      <trkpt lat="51.45259" lon="7.48657">
        <ele>239.780474</ele>
        <time>2023-04-27T13:38:49.810Z</time>
      </trkpt>
      <trkpt lat="51.45271" lon="7.48639">
        <ele>239.110247</ele>
        <time>2023-04-27T13:38:51.797Z</time>
      </trkpt>
      <trkpt lat="51.45285" lon="7.48622">
        <ele>238.394935</ele>
        <time>2023-04-27T13:38:53.802Z</time>
      </trkpt>
      <trkpt lat="51.45295" lon="7.48605">
        <ele>237.767081</ele>
        <time>2023-04-27T13:38:55.795Z</time>
      </trkpt>
      <trkpt lat="51.45306" lon="7.48588">
        <ele>237.138004</ele>
        <time>2023-04-27T13:38:57.802Z</time>
      </trkpt>
      <trkpt lat="51.45316" lon="7.48569">
        <ele>236.471487</ele>
        <time>2023-04-27T13:38:59.798Z</time>
      </trkpt>
      <trkpt lat="51.45327" lon="7.48551">
        <ele>235.816945</ele>
        <time>2023-04-27T13:39:01.793Z</time>
      </trkpt>
      <trkpt lat="51.45337" lon="7.48533">
        <ele>235.173018</ele>
        <time>2023-04-27T13:39:03.820Z</time>
      </trkpt>
      <trkpt lat="51.45346" lon="7.48513">
        <ele>234.533994</ele>
        <time>2023-04-27T13:39:05.801Z</time>
      </trkpt>
      <trkpt lat="51.45356" lon="7.48494">
        <ele>233.87808</ele>
        <time>2023-04-27T13:39:07.810Z</time>
      </trkpt>
      <trkpt lat="51.45366" lon="7.48475">
        <ele>233.238943</ele>
        <time>2023-04-27T13:39:09.775Z</time>
      </trkpt>
      <trkpt lat="51.45377" lon="7.48458">
        <ele>232.599581</ele>
        <time>2023-04-27T13:39:11.796Z</time>
      </trkpt>
      <trkpt lat="51.45388" lon="7.48443">
        <ele>231.95445</ele>
        <time>2023-04-27T13:39:13.792Z</time>
      </trkpt>
      <trkpt lat="51.45401" lon="7.48429">
        <ele>230.901446</ele>
        <time>2023-04-27T13:39:15.824Z</time>
      </trkpt>
      <trkpt lat="51.45415" lon="7.48413">
        <ele>229.79285</ele>
        <time>2023-04-27T13:39:17.802Z</time>
      </trkpt>
      <trkpt lat="51.45429" lon="7.48397">
        <ele>228.667566</ele>
        <time>2023-04-27T13:39:19.789Z</time>
      </trkpt>
      <trkpt lat="51.45444" lon="7.48385">
        <ele>227.532417</ele>
        <time>2023-04-27T13:39:21.793Z</time>
      </trkpt>
      <trkpt lat="51.45459" lon="7.48374">
        <ele>226.427671</ele>
        <time>2023-04-27T13:39:23.798Z</time>
      </trkpt>
      <trkpt lat="51.45474" lon="7.48363">
        <ele>225.329268</ele>
        <time>2023-04-27T13:39:25.793Z</time>
      </trkpt>
      <trkpt lat="51.4549" lon="7.48355">
        <ele>224.252477</ele>
        <time>2023-04-27T13:39:27.796Z</time>
      </trkpt>
      <trkpt lat="51.45504" lon="7.48349">
        <ele>223.262173</ele>
        <time>2023-04-27T13:39:29.803Z</time>
      </trkpt>
      <trkpt lat="51.45518" lon="7.48343">
        <ele>222.289008</ele>
        <time>2023-04-27T13:39:31.792Z</time>
      </trkpt>
      <trkpt lat="51.45534" lon="7.48342">
        <ele>221.228973</ele>
        <time>2023-04-27T13:39:33.798Z</time>
      </trkpt>
      <trkpt lat="51.4555" lon="7.48342">
        <ele>220.182974</ele>
        <time>2023-04-27T13:39:35.783Z</time>
      </trkpt>
      <trkpt lat="51.45566" lon="7.48341">
        <ele>219.300856</ele>
        <time>2023-04-27T13:39:37.795Z</time>
      </trkpt>
      <trkpt lat="51.45583" lon="7.48341">
        <ele>218.368364</ele>
        <time>2023-04-27T13:39:39.808Z</time>
      </trkpt>
      <trkpt lat="51.456" lon="7.48341">
        <ele>217.435955</ele>
        <time>2023-04-27T13:39:41.777Z</time>
      </trkpt>
      <trkpt lat="51.45617" lon="7.48343">
        <ele>216.491059</ele>
        <time>2023-04-27T13:39:43.794Z</time>
      </trkpt>
      <trkpt lat="51.45634" lon="7.48344">
        <ele>215.524543</ele>
        <time>2023-04-27T13:39:45.793Z</time>
      </trkpt>
      <trkpt lat="51.45652" lon="7.48346">
        <ele>214.529976</ele>
        <time>2023-04-27T13:39:47.811Z</time>
      </trkpt>
      <trkpt lat="51.45661" lon="7.48348">
        <ele>214.026293</ele>
        <time>2023-04-27T13:39:48.799Z</time>
      </trkpt>
      <trkpt lat="51.45679" lon="7.48352">
        <ele>213.028993</ele>
        <time>2023-04-27T13:39:50.808Z</time>
      </trkpt>
      <trkpt lat="51.45688" lon="7.48354">
        <ele>212.50739</ele>
        <time>2023-04-27T13:39:51.813Z</time>
      </trkpt>
      <trkpt lat="51.45697" lon="7.48356">
        <ele>211.992249</ele>
        <time>2023-04-27T13:39:52.812Z</time>
      </trkpt>
      <trkpt lat="51.45706" lon="7.48359">
        <ele>211.483571</ele>
        <time>2023-04-27T13:39:53.795Z</time>
      </trkpt>
      <trkpt lat="51.45715" lon="7.48362">
        <ele>210.962662</ele>
        <time>2023-04-27T13:39:54.801Z</time>
      </trkpt>
      <trkpt lat="51.45724" lon="7.48364">
        <ele>210.455255</ele>
        <time>2023-04-27T13:39:55.782Z</time>
      </trkpt>
      <trkpt lat="51.45734" lon="7.48367">
        <ele>209.932547</ele>
        <time>2023-04-27T13:39:56.816Z</time>
      </trkpt>
      <trkpt lat="51.45743" lon="7.4837">
        <ele>209.431931</ele>
        <time>2023-04-27T13:39:57.810Z</time>
      </trkpt>
      <trkpt lat="51.4576" lon="7.48375">
        <ele>208.482186</ele>
        <time>2023-04-27T13:39:59.809Z</time>
      </trkpt>
      <trkpt lat="51.45778" lon="7.48381">
        <ele>207.532962</ele>
        <time>2023-04-27T13:40:01.804Z</time>
      </trkpt>
      <trkpt lat="51.45795" lon="7.48385">
        <ele>206.609967</ele>
        <time>2023-04-27T13:40:03.807Z</time>
      </trkpt>
      <trkpt lat="51.45809" lon="7.48388">
        <ele>205.840063</ele>
        <time>2023-04-27T13:40:05.782Z</time>
      </trkpt>
      <trkpt lat="51.45822" lon="7.48393">
        <ele>205.135986</ele>
        <time>2023-04-27T13:40:07.803Z</time>
      </trkpt>
      <trkpt lat="51.45832" lon="7.48397">
        <ele>204.558416</ele>
        <time>2023-04-27T13:40:09.795Z</time>
      </trkpt>
      <trkpt lat="51.45842" lon="7.48401">
        <ele>203.996497</ele>
        <time>2023-04-27T13:40:11.802Z</time>
      </trkpt>
      <trkpt lat="51.45855" lon="7.48405">
        <ele>203.330496</ele>
        <time>2023-04-27T13:40:13.793Z</time>
      </trkpt>
      <trkpt lat="51.45867" lon="7.48409">
        <ele>202.648707</ele>
        <time>2023-04-27T13:40:15.781Z</time>
      </trkpt>
      <trkpt lat="51.45881" lon="7.48414">
        <ele>201.892692</ele>
        <time>2023-04-27T13:40:17.793Z</time>
      </trkpt>
      <trkpt lat="51.45895" lon="7.48419">
        <ele>201.128209</ele>
        <time>2023-04-27T13:40:19.799Z</time>
      </trkpt>
      <trkpt lat="51.45909" lon="7.48425">
        <ele>200.347471</ele>
        <time>2023-04-27T13:40:21.797Z</time>
      </trkpt>
      <trkpt lat="51.45923" lon="7.48428">
        <ele>199.503652</ele>
        <time>2023-04-27T13:40:23.815Z</time>
      </trkpt>
      <trkpt lat="51.45937" lon="7.48433">
        <ele>198.689339</ele>
        <time>2023-04-27T13:40:25.786Z</time>
      </trkpt>
      <trkpt lat="51.45951" lon="7.48436">
        <ele>197.931477</ele>
        <time>2023-04-27T13:40:27.816Z</time>
      </trkpt>
      <trkpt lat="51.45963" lon="7.48439">
        <ele>197.241201</ele>
        <time>2023-04-27T13:40:29.800Z</time>
      </trkpt>
      <trkpt lat="51.45975" lon="7.48443">
        <ele>196.521055</ele>
        <time>2023-04-27T13:40:31.812Z</time>
      </trkpt>
      <trkpt lat="51.45989" lon="7.48448">
        <ele>195.705965</ele>
        <time>2023-04-27T13:40:33.815Z</time>
      </trkpt>
      <trkpt lat="51.46005" lon="7.48451">
        <ele>194.811391</ele>
        <time>2023-04-27T13:40:35.784Z</time>
      </trkpt>
      <trkpt lat="51.46021" lon="7.48454">
        <ele>193.84988</ele>
        <time>2023-04-27T13:40:37.799Z</time>
      </trkpt>
      <trkpt lat="51.46038" lon="7.48457">
        <ele>192.881912</ele>
        <time>2023-04-27T13:40:39.790Z</time>
      </trkpt>
      <trkpt lat="51.46054" lon="7.48458">
        <ele>191.964573</ele>
        <time>2023-04-27T13:40:41.791Z</time>
      </trkpt>
      <trkpt lat="51.46071" lon="7.48459">
        <ele>191.014641</ele>
        <time>2023-04-27T13:40:43.791Z</time>
      </trkpt>
      <trkpt lat="51.46087" lon="7.48458">
        <ele>190.108738</ele>
        <time>2023-04-27T13:40:45.799Z</time>
      </trkpt>
      <trkpt lat="51.46103" lon="7.48456">
        <ele>189.134159</ele>
        <time>2023-04-27T13:40:47.802Z</time>
      </trkpt>
      <trkpt lat="51.4612" lon="7.48453">
        <ele>188.13629</ele>
        <time>2023-04-27T13:40:49.798Z</time>
      </trkpt>
      <trkpt lat="51.46136" lon="7.4845">
        <ele>187.219398</ele>
        <time>2023-04-27T13:40:51.822Z</time>
      </trkpt>
      <trkpt lat="51.4615" lon="7.48446">
        <ele>186.332262</ele>
        <time>2023-04-27T13:40:53.799Z</time>
      </trkpt>
      <trkpt lat="51.46164" lon="7.48441">
        <ele>185.539242</ele>
        <time>2023-04-27T13:40:55.784Z</time>
      </trkpt>
      <trkpt lat="51.46176" lon="7.48436">
        <ele>184.794708</ele>
        <time>2023-04-27T13:40:57.799Z</time>
      </trkpt>
      <trkpt lat="51.46187" lon="7.48431">
        <ele>184.087971</ele>
        <time>2023-04-27T13:40:59.782Z</time>
      </trkpt>
      <trkpt lat="51.46197" lon="7.48427">
        <ele>183.518807</ele>
        <time>2023-04-27T13:41:01.813Z</time>
      </trkpt>
      <trkpt lat="51.46207" lon="7.48424">
        <ele>182.928933</ele>
        <time>2023-04-27T13:41:05.784Z</time>
      </trkpt>
      <trkpt lat="51.46216" lon="7.48417">
        <ele>182.291683</ele>
        <time>2023-04-27T13:41:27.794Z</time>
      </trkpt>
      <trkpt lat="51.46226" lon="7.48416">
        <ele>181.742145</ele>
        <time>2023-04-27T13:41:30.792Z</time>
      </trkpt>
      <trkpt lat="51.46237" lon="7.48408">
        <ele>181.015155</ele>
        <time>2023-04-27T13:41:33.812Z</time>
      </trkpt>
      <trkpt lat="51.46246" lon="7.48403">
        <ele>180.437366</ele>
        <time>2023-04-27T13:41:35.785Z</time>
      </trkpt>
      <trkpt lat="51.46258" lon="7.48397">
        <ele>179.738334</ele>
        <time>2023-04-27T13:41:37.801Z</time>
      </trkpt>
      <trkpt lat="51.4627" lon="7.48393">
        <ele>179.417533</ele>
        <time>2023-04-27T13:41:39.800Z</time>
      </trkpt>
      <trkpt lat="51.46283" lon="7.48387">
        <ele>179.112497</ele>
        <time>2023-04-27T13:41:41.776Z</time>
      </trkpt>
      <trkpt lat="51.46296" lon="7.48382">
        <ele>178.810405</ele>
        <time>2023-04-27T13:41:43.797Z</time>
      </trkpt>
      <trkpt lat="51.46308" lon="7.48376">
        <ele>178.509953</ele>
        <time>2023-04-27T13:41:45.790Z</time>
      </trkpt>
      <trkpt lat="51.46321" lon="7.48368">
        <ele>178.201038</ele>
        <time>2023-04-27T13:41:47.798Z</time>
      </trkpt>
      <trkpt lat="51.46335" lon="7.48361">
        <ele>177.874939</ele>
        <time>2023-04-27T13:41:49.801Z</time>
      </trkpt>
      <trkpt lat="51.46347" lon="7.48355">
        <ele>177.589265</ele>
        <time>2023-04-27T13:41:51.792Z</time>
      </trkpt>
      <trkpt lat="51.46357" lon="7.4835">
        <ele>177.333007</ele>
        <time>2023-04-27T13:41:53.791Z</time>
      </trkpt>
      <trkpt lat="51.46369" lon="7.48344">
        <ele>177.060791</ele>
        <time>2023-04-27T13:41:55.792Z</time>
      </trkpt>
      <trkpt lat="51.46381" lon="7.48338">
        <ele>176.778597</ele>
        <time>2023-04-27T13:41:57.807Z</time>
      </trkpt>
      <trkpt lat="51.46392" lon="7.48333">
        <ele>176.515761</ele>
        <time>2023-04-27T13:41:59.799Z</time>
      </trkpt>
      <trkpt lat="51.46403" lon="7.48328">
        <ele>176.251107</ele>
        <time>2023-04-27T13:42:01.809Z</time>
      </trkpt>
      <trkpt lat="51.46415" lon="7.48322">
        <ele>175.955238</ele>
        <time>2023-04-27T13:42:03.792Z</time>
      </trkpt>
      <trkpt lat="51.4643" lon="7.48317">
        <ele>175.618627</ele>
        <time>2023-04-27T13:42:05.784Z</time>
      </trkpt>
      <trkpt lat="51.46443" lon="7.4831">
        <ele>175.502869</ele>
        <time>2023-04-27T13:42:07.819Z</time>
      </trkpt>
      <trkpt lat="51.46458" lon="7.48304">
        <ele>175.401317</ele>
        <time>2023-04-27T13:42:09.792Z</time>
      </trkpt>
      <trkpt lat="51.46473" lon="7.48297">
        <ele>175.290234</ele>
        <time>2023-04-27T13:42:11.799Z</time>
      </trkpt>
      <trkpt lat="51.46489" lon="7.4829">
        <ele>175.18187</ele>
        <time>2023-04-27T13:42:13.791Z</time>
      </trkpt>
      <trkpt lat="51.46504" lon="7.48282">
        <ele>175.073992</ele>
        <time>2023-04-27T13:42:15.785Z</time>
      </trkpt>
      <trkpt lat="51.46519" lon="7.48274">
        <ele>174.96684</ele>
        <time>2023-04-27T13:42:17.793Z</time>
      </trkpt>
      <trkpt lat="51.46533" lon="7.48266">
        <ele>174.863964</ele>
        <time>2023-04-27T13:42:19.797Z</time>
      </trkpt>
      <trkpt lat="51.46547" lon="7.48258">
        <ele>174.760502</ele>
        <time>2023-04-27T13:42:21.808Z</time>
      </trkpt>
      <trkpt lat="51.46561" lon="7.48251">
        <ele>174.66344</ele>
        <time>2023-04-27T13:42:23.804Z</time>
      </trkpt>
      <trkpt lat="51.46574" lon="7.48245">
        <ele>174.57218</ele>
        <time>2023-04-27T13:42:25.773Z</time>
      </trkpt>
      <trkpt lat="51.46586" lon="7.48241">
        <ele>174.488036</ele>
        <time>2023-04-27T13:42:27.793Z</time>
      </trkpt>
      <trkpt lat="51.46597" lon="7.48235">
        <ele>174.406629</ele>
        <time>2023-04-27T13:42:29.814Z</time>
      </trkpt>
      <trkpt lat="51.4661" lon="7.48229">
        <ele>174.364568</ele>
        <time>2023-04-27T13:42:31.804Z</time>
      </trkpt>
      <trkpt lat="51.46622" lon="7.48222">
        <ele>174.359907</ele>
        <time>2023-04-27T13:42:33.812Z</time>
      </trkpt>
      <trkpt lat="51.46634" lon="7.48216">
        <ele>174.355263</ele>
        <time>2023-04-27T13:42:35.789Z</time>
      </trkpt>
      <trkpt lat="51.46646" lon="7.4821">
        <ele>174.350592</ele>
        <time>2023-04-27T13:42:37.797Z</time>
      </trkpt>
      <trkpt lat="51.46659" lon="7.48203">
        <ele>174.345858</ele>
        <time>2023-04-27T13:42:39.804Z</time>
      </trkpt>
      <trkpt lat="51.46671" lon="7.48198">
        <ele>174.341256</ele>
        <time>2023-04-27T13:42:41.816Z</time>
      </trkpt>
      <trkpt lat="51.46684" lon="7.48193">
        <ele>174.336392</ele>
        <time>2023-04-27T13:42:43.796Z</time>
      </trkpt>
      <trkpt lat="51.46697" lon="7.48188">
        <ele>174.331523</ele>
        <time>2023-04-27T13:42:45.880Z</time>
      </trkpt>
      <trkpt lat="51.4671" lon="7.48183">
        <ele>174.326764</ele>
        <time>2023-04-27T13:42:47.817Z</time>
      </trkpt>
      <trkpt lat="51.46723" lon="7.48178">
        <ele>174.322006</ele>
        <time>2023-04-27T13:42:49.793Z</time>
      </trkpt>
      <trkpt lat="51.46735" lon="7.48173">
        <ele>174.317463</ele>
        <time>2023-04-27T13:42:51.795Z</time>
      </trkpt>
      <trkpt lat="51.46748" lon="7.48169">
        <ele>174.312755</ele>
        <time>2023-04-27T13:42:53.800Z</time>
      </trkpt>
      <trkpt lat="51.46761" lon="7.48164">
        <ele>174.308071</ele>
        <time>2023-04-27T13:42:55.787Z</time>
      </trkpt>
      <trkpt lat="51.46773" lon="7.4816">
        <ele>174.303504</ele>
        <time>2023-04-27T13:42:57.792Z</time>
      </trkpt>
      <trkpt lat="51.46786" lon="7.48156">
        <ele>174.05396</ele>
        <time>2023-04-27T13:42:59.814Z</time>
      </trkpt>
      <trkpt lat="51.46798" lon="7.48152">
        <ele>173.712372</ele>
        <time>2023-04-27T13:43:01.812Z</time>
      </trkpt>
      <trkpt lat="51.4681" lon="7.48147">
        <ele>173.382117</ele>
        <time>2023-04-27T13:43:03.810Z</time>
      </trkpt>
      <trkpt lat="51.46821" lon="7.48144">
        <ele>173.078294</ele>
        <time>2023-04-27T13:43:05.782Z</time>
      </trkpt>
      <trkpt lat="51.46831" lon="7.48141">
        <ele>172.824075</ele>
        <time>2023-04-27T13:43:07.799Z</time>
      </trkpt>
      <trkpt lat="51.46844" lon="7.48137">
        <ele>172.469336</ele>
        <time>2023-04-27T13:43:10.768Z</time>
      </trkpt>
      <trkpt lat="51.46852" lon="7.48134">
        <ele>172.228239</ele>
        <time>2023-04-27T13:43:12.798Z</time>
      </trkpt>
      <trkpt lat="51.46865" lon="7.48127">
        <ele>171.882679</ele>
        <time>2023-04-27T13:43:15.790Z</time>
      </trkpt>
      <trkpt lat="51.46874" lon="7.48124">
        <ele>171.634362</ele>
        <time>2023-04-27T13:43:17.804Z</time>
      </trkpt>
      <trkpt lat="51.46883" lon="7.4812">
        <ele>171.387976</ele>
        <time>2023-04-27T13:43:19.793Z</time>
      </trkpt>
      <trkpt lat="51.46892" lon="7.48116">
        <ele>171.122173</ele>
        <time>2023-04-27T13:43:21.793Z</time>
      </trkpt>
      <trkpt lat="51.46903" lon="7.48113">
        <ele>170.836642</ele>
        <time>2023-04-27T13:43:23.805Z</time>
      </trkpt>
      <trkpt lat="51.46913" lon="7.48109">
        <ele>170.551781</ele>
        <time>2023-04-27T13:43:25.825Z</time>
      </trkpt>
      <trkpt lat="51.46924" lon="7.48104">
        <ele>170.247509</ele>
        <time>2023-04-27T13:43:27.802Z</time>
      </trkpt>
      <trkpt lat="51.46936" lon="7.481">
        <ele>169.911177</ele>
        <time>2023-04-27T13:43:29.790Z</time>
      </trkpt>
      <trkpt lat="51.46948" lon="7.48095">
        <ele>169.586521</ele>
        <time>2023-04-27T13:43:31.793Z</time>
      </trkpt>
      <trkpt lat="51.4696" lon="7.48092">
        <ele>169.402535</ele>
        <time>2023-04-27T13:43:33.783Z</time>
      </trkpt>
      <trkpt lat="51.46972" lon="7.48088">
        <ele>169.284289</ele>
        <time>2023-04-27T13:43:35.805Z</time>
      </trkpt>
      <trkpt lat="51.46985" lon="7.48085">
        <ele>169.166829</ele>
        <time>2023-04-27T13:43:37.790Z</time>
      </trkpt>
      <trkpt lat="51.46998" lon="7.48082">
        <ele>169.045978</ele>
        <time>2023-04-27T13:43:39.806Z</time>
      </trkpt>
      <trkpt lat="51.47011" lon="7.48079">
        <ele>168.919166</ele>
        <time>2023-04-27T13:43:41.799Z</time>
      </trkpt>
      <trkpt lat="51.47024" lon="7.48075">
        <ele>168.799891</ele>
        <time>2023-04-27T13:43:43.790Z</time>
      </trkpt>
      <trkpt lat="51.47036" lon="7.48073">
        <ele>168.679247</ele>
        <time>2023-04-27T13:43:45.786Z</time>
      </trkpt>
      <trkpt lat="51.47049" lon="7.48071">
        <ele>168.556142</ele>
        <time>2023-04-27T13:43:47.804Z</time>
      </trkpt>
      <trkpt lat="51.47063" lon="7.48069">
        <ele>168.430904</ele>
        <time>2023-04-27T13:43:49.793Z</time>
      </trkpt>
      <trkpt lat="51.47076" lon="7.48067">
        <ele>168.30846</ele>
        <time>2023-04-27T13:43:51.804Z</time>
      </trkpt>
      <trkpt lat="51.47089" lon="7.48068">
        <ele>168.182858</ele>
        <time>2023-04-27T13:43:53.811Z</time>
      </trkpt>
      <trkpt lat="51.47102" lon="7.48067">
        <ele>168.066463</ele>
        <time>2023-04-27T13:43:55.798Z</time>
      </trkpt>
      <trkpt lat="51.47114" lon="7.48066">
        <ele>167.94558</ele>
        <time>2023-04-27T13:43:57.824Z</time>
      </trkpt>
      <trkpt lat="51.47127" lon="7.48065">
        <ele>167.828286</ele>
        <time>2023-04-27T13:43:59.796Z</time>
      </trkpt>
      <trkpt lat="51.47139" lon="7.48065">
        <ele>167.647952</ele>
        <time>2023-04-27T13:44:01.780Z</time>
      </trkpt>
      <trkpt lat="51.47152" lon="7.48065">
        <ele>167.433648</ele>
        <time>2023-04-27T13:44:03.803Z</time>
      </trkpt>
      <trkpt lat="51.47165" lon="7.48065">
        <ele>167.214212</ele>
        <time>2023-04-27T13:44:05.784Z</time>
      </trkpt>
      <trkpt lat="51.47177" lon="7.48065">
        <ele>166.994776</ele>
        <time>2023-04-27T13:44:07.816Z</time>
      </trkpt>
      <trkpt lat="51.4719" lon="7.48065">
        <ele>166.782181</ele>
        <time>2023-04-27T13:44:09.804Z</time>
      </trkpt>
      <trkpt lat="51.47203" lon="7.48067">
        <ele>166.561765</ele>
        <time>2023-04-27T13:44:11.789Z</time>
      </trkpt>
      <trkpt lat="51.47216" lon="7.48068">
        <ele>166.345561</ele>
        <time>2023-04-27T13:44:13.808Z</time>
      </trkpt>
      <trkpt lat="51.47228" lon="7.48069">
        <ele>166.137744</ele>
        <time>2023-04-27T13:44:15.796Z</time>
      </trkpt>
      <trkpt lat="51.4724" lon="7.4807">
        <ele>165.924706</ele>
        <time>2023-04-27T13:44:17.796Z</time>
      </trkpt>
      <trkpt lat="51.47253" lon="7.48072">
        <ele>165.706268</ele>
        <time>2023-04-27T13:44:19.806Z</time>
      </trkpt>
      <trkpt lat="51.47265" lon="7.48074">
        <ele>165.496392</ele>
        <time>2023-04-27T13:44:21.811Z</time>
      </trkpt>
      <trkpt lat="51.47278" lon="7.48075">
        <ele>165.272869</ele>
        <time>2023-04-27T13:44:23.816Z</time>
      </trkpt>
      <trkpt lat="51.47292" lon="7.48077">
        <ele>165.046252</ele>
        <time>2023-04-27T13:44:25.803Z</time>
      </trkpt>
      <trkpt lat="51.47305" lon="7.48078">
        <ele>164.826425</ele>
        <time>2023-04-27T13:44:27.791Z</time>
      </trkpt>
      <trkpt lat="51.47318" lon="7.48079">
        <ele>164.60706</ele>
        <time>2023-04-27T13:44:29.797Z</time>
      </trkpt>
      <trkpt lat="51.47331" lon="7.4808">
        <ele>164.382482</ele>
        <time>2023-04-27T13:44:31.798Z</time>
      </trkpt>
      <trkpt lat="51.47344" lon="7.48081">
        <ele>164.149557</ele>
        <time>2023-04-27T13:44:33.810Z</time>
      </trkpt>
      <trkpt lat="51.47359" lon="7.48082">
        <ele>163.908303</ele>
        <time>2023-04-27T13:44:35.792Z</time>
      </trkpt>
      <trkpt lat="51.47373" lon="7.48085">
        <ele>163.665673</ele>
        <time>2023-04-27T13:44:37.810Z</time>
      </trkpt>
      <trkpt lat="51.47387" lon="7.48086">
        <ele>163.420626</ele>
        <time>2023-04-27T13:44:39.793Z</time>
      </trkpt>
      <trkpt lat="51.47402" lon="7.48088">
        <ele>163.172496</ele>
        <time>2023-04-27T13:44:41.804Z</time>
      </trkpt>
      <trkpt lat="51.47416" lon="7.48089">
        <ele>162.929214</ele>
        <time>2023-04-27T13:44:43.807Z</time>
      </trkpt>
      <trkpt lat="51.47431" lon="7.48091">
        <ele>162.673407</ele>
        <time>2023-04-27T13:44:45.783Z</time>
      </trkpt>
      <trkpt lat="51.47445" lon="7.48093">
        <ele>162.430311</ele>
        <time>2023-04-27T13:44:47.811Z</time>
      </trkpt>
      <trkpt lat="51.4746" lon="7.48094">
        <ele>162.178623</ele>
        <time>2023-04-27T13:44:49.812Z</time>
      </trkpt>
      <trkpt lat="51.47476" lon="7.48096">
        <ele>161.916413</ele>
        <time>2023-04-27T13:44:51.796Z</time>
      </trkpt>
      <trkpt lat="51.47491" lon="7.48098">
        <ele>161.64228</ele>
        <time>2023-04-27T13:44:53.798Z</time>
      </trkpt>
      <trkpt lat="51.47506" lon="7.48099">
        <ele>161.176219</ele>
        <time>2023-04-27T13:44:55.788Z</time>
      </trkpt>
      <trkpt lat="51.47522" lon="7.48101">
        <ele>160.699687</ele>
        <time>2023-04-27T13:44:57.821Z</time>
      </trkpt>
      <trkpt lat="51.47537" lon="7.48103">
        <ele>160.217722</ele>
        <time>2023-04-27T13:44:59.793Z</time>
      </trkpt>
      <trkpt lat="51.47553" lon="7.48105">
        <ele>159.742446</ele>
        <time>2023-04-27T13:45:01.803Z</time>
      </trkpt>
      <trkpt lat="51.47568" lon="7.48106">
        <ele>159.275789</ele>
        <time>2023-04-27T13:45:03.792Z</time>
      </trkpt>
      <trkpt lat="51.47584" lon="7.48109">
        <ele>158.799258</ele>
        <time>2023-04-27T13:45:05.784Z</time>
      </trkpt>
      <trkpt lat="51.47599" lon="7.48111">
        <ele>158.329276</ele>
        <time>2023-04-27T13:45:07.784Z</time>
      </trkpt>
      <trkpt lat="51.47614" lon="7.48112">
        <ele>157.869634</ele>
        <time>2023-04-27T13:45:09.793Z</time>
      </trkpt>
      <trkpt lat="51.4763" lon="7.48113">
        <ele>157.381988</ele>
        <time>2023-04-27T13:45:11.807Z</time>
      </trkpt>
      <trkpt lat="51.47647" lon="7.48114">
        <ele>156.889024</ele>
        <time>2023-04-27T13:45:13.804Z</time>
      </trkpt>
      <trkpt lat="51.47661" lon="7.48113">
        <ele>156.450844</ele>
        <time>2023-04-27T13:45:15.789Z</time>
      </trkpt>
      <trkpt lat="51.47673" lon="7.48113">
        <ele>156.10022</ele>
        <time>2023-04-27T13:45:17.794Z</time>
      </trkpt>
      <trkpt lat="51.47683" lon="7.48111">
        <ele>155.849482</ele>
        <time>2023-04-27T13:45:19.810Z</time>
      </trkpt>
      <trkpt lat="51.47694" lon="7.48109">
        <ele>155.558074</ele>
        <time>2023-04-27T13:45:22.795Z</time>
      </trkpt>
      <trkpt lat="51.47703" lon="7.4811">
        <ele>155.314497</ele>
        <time>2023-04-27T13:45:28.797Z</time>
      </trkpt>
      <trkpt lat="51.47715" lon="7.48105">
        <ele>155.01</ele>
        <time>2023-04-27T13:45:33.805Z</time>
      </trkpt>
      <trkpt lat="51.47726" lon="7.48103">
        <ele>154.717119</ele>
        <time>2023-04-27T13:45:36.806Z</time>
      </trkpt>
      <trkpt lat="51.47735" lon="7.48101">
        <ele>154.48334</ele>
        <time>2023-04-27T13:45:38.796Z</time>
      </trkpt>
      <trkpt lat="51.47744" lon="7.481">
        <ele>154.247796</ele>
        <time>2023-04-27T13:45:40.812Z</time>
      </trkpt>
      <trkpt lat="51.47754" lon="7.48098">
        <ele>154.002474</ele>
        <time>2023-04-27T13:45:42.817Z</time>
      </trkpt>
      <trkpt lat="51.47764" lon="7.48093">
        <ele>153.725605</ele>
        <time>2023-04-27T13:45:44.805Z</time>
      </trkpt>
      <trkpt lat="51.47775" lon="7.48087">
        <ele>153.436414</ele>
        <time>2023-04-27T13:45:46.819Z</time>
      </trkpt>
      <trkpt lat="51.47787" lon="7.48084">
        <ele>153.113993</ele>
        <time>2023-04-27T13:45:48.797Z</time>
      </trkpt>
      <trkpt lat="51.478" lon="7.4808">
        <ele>152.776144</ele>
        <time>2023-04-27T13:45:50.809Z</time>
      </trkpt>
      <trkpt lat="51.47813" lon="7.48075">
        <ele>152.422532</ele>
        <time>2023-04-27T13:45:52.803Z</time>
      </trkpt>
      <trkpt lat="51.47827" lon="7.48069">
        <ele>152.060469</ele>
        <time>2023-04-27T13:45:54.793Z</time>
      </trkpt>
      <trkpt lat="51.4784" lon="7.48064">
        <ele>151.70399</ele>
        <time>2023-04-27T13:45:56.797Z</time>
      </trkpt>
      <trkpt lat="51.47854" lon="7.48058">
        <ele>151.487338</ele>
        <time>2023-04-27T13:45:58.811Z</time>
      </trkpt>
      <trkpt lat="51.47868" lon="7.48052">
        <ele>151.345328</ele>
        <time>2023-04-27T13:46:00.807Z</time>
      </trkpt>
      <trkpt lat="51.47882" lon="7.48046">
        <ele>151.201387</ele>
        <time>2023-04-27T13:46:02.810Z</time>
      </trkpt>
      <trkpt lat="51.47896" lon="7.4804">
        <ele>151.055646</ele>
        <time>2023-04-27T13:46:04.804Z</time>
      </trkpt>
      <trkpt lat="51.47909" lon="7.48033">
        <ele>150.916976</ele>
        <time>2023-04-27T13:46:06.797Z</time>
      </trkpt>
      <trkpt lat="51.47922" lon="7.48025">
        <ele>150.775667</ele>
        <time>2023-04-27T13:46:08.815Z</time>
      </trkpt>
      <trkpt lat="51.47936" lon="7.48017">
        <ele>150.635284</ele>
        <time>2023-04-27T13:46:10.796Z</time>
      </trkpt>
      <trkpt lat="51.47949" lon="7.4801">
        <ele>150.497017</ele>
        <time>2023-04-27T13:46:12.796Z</time>
      </trkpt>
      <trkpt lat="51.47961" lon="7.48002">
        <ele>150.361056</ele>
        <time>2023-04-27T13:46:14.803Z</time>
      </trkpt>
      <trkpt lat="51.47974" lon="7.47994">
        <ele>150.225558</ele>
        <time>2023-04-27T13:46:16.799Z</time>
      </trkpt>
      <trkpt lat="51.47986" lon="7.47987">
        <ele>150.098872</ele>
        <time>2023-04-27T13:46:18.791Z</time>
      </trkpt>
      <trkpt lat="51.47997" lon="7.47978">
        <ele>149.971557</ele>
        <time>2023-04-27T13:46:20.799Z</time>
      </trkpt>
      <trkpt lat="51.48008" lon="7.47968">
        <ele>149.844594</ele>
        <time>2023-04-27T13:46:22.801Z</time>
      </trkpt>
      <trkpt lat="51.48019" lon="7.47957">
        <ele>149.779205</ele>
        <time>2023-04-27T13:46:24.789Z</time>
      </trkpt>
      <trkpt lat="51.4803" lon="7.47948">
        <ele>149.766031</ele>
        <time>2023-04-27T13:46:26.804Z</time>
      </trkpt>
      <trkpt lat="51.48041" lon="7.47937">
        <ele>149.75302</ele>
        <time>2023-04-27T13:46:28.801Z</time>
      </trkpt>
      <trkpt lat="51.48051" lon="7.47927">
        <ele>149.740008</ele>
        <time>2023-04-27T13:46:30.800Z</time>
      </trkpt>
      <trkpt lat="51.48062" lon="7.47917">
        <ele>149.726974</ele>
        <time>2023-04-27T13:46:32.813Z</time>
      </trkpt>
      <trkpt lat="51.48072" lon="7.47906">
        <ele>149.714314</ele>
        <time>2023-04-27T13:46:34.793Z</time>
      </trkpt>
      <trkpt lat="51.48082" lon="7.47895">
        <ele>149.701163</ele>
        <time>2023-04-27T13:46:36.804Z</time>
      </trkpt>
      <trkpt lat="51.48092" lon="7.47883">
        <ele>149.687917</ele>
        <time>2023-04-27T13:46:38.796Z</time>
      </trkpt>
      <trkpt lat="51.48102" lon="7.4787">
        <ele>149.674674</ele>
        <time>2023-04-27T13:46:40.795Z</time>
      </trkpt>
      <trkpt lat="51.48111" lon="7.47858">
        <ele>149.661925</ele>
        <time>2023-04-27T13:46:42.806Z</time>
      </trkpt>
      <trkpt lat="51.4812" lon="7.47846">
        <ele>149.649417</ele>
        <time>2023-04-27T13:46:44.790Z</time>
      </trkpt>
      <trkpt lat="51.4813" lon="7.47833">
        <ele>149.636578</ele>
        <time>2023-04-27T13:46:46.797Z</time>
      </trkpt>
      <trkpt lat="51.48139" lon="7.47819">
        <ele>149.623666</ele>
        <time>2023-04-27T13:46:48.798Z</time>
      </trkpt>
      <trkpt lat="51.48147" lon="7.47806">
        <ele>149.611148</ele>
        <time>2023-04-27T13:46:50.798Z</time>
      </trkpt>
      <trkpt lat="51.48156" lon="7.47792">
        <ele>149.598204</ele>
        <time>2023-04-27T13:46:52.814Z</time>
      </trkpt>
      <trkpt lat="51.48164" lon="7.47777">
        <ele>149.483079</ele>
        <time>2023-04-27T13:46:54.819Z</time>
      </trkpt>
      <trkpt lat="51.48172" lon="7.47762">
        <ele>149.357536</ele>
        <time>2023-04-27T13:46:56.814Z</time>
      </trkpt>
      <trkpt lat="51.4818" lon="7.47747">
        <ele>149.232713</ele>
        <time>2023-04-27T13:46:58.798Z</time>
      </trkpt>
      <trkpt lat="51.48186" lon="7.47731">
        <ele>149.114138</ele>
        <time>2023-04-27T13:47:00.800Z</time>
      </trkpt>
      <trkpt lat="51.48193" lon="7.47716">
        <ele>148.999308</ele>
        <time>2023-04-27T13:47:02.813Z</time>
      </trkpt>
      <trkpt lat="51.48201" lon="7.47702">
        <ele>148.876632</ele>
        <time>2023-04-27T13:47:04.823Z</time>
      </trkpt>
      <trkpt lat="51.48209" lon="7.47687">
        <ele>148.753006</ele>
        <time>2023-04-27T13:47:06.801Z</time>
      </trkpt>
      <trkpt lat="51.48216" lon="7.4767">
        <ele>148.623712</ele>
        <time>2023-04-27T13:47:08.822Z</time>
      </trkpt>
      <trkpt lat="51.48224" lon="7.47653">
        <ele>148.490875</ele>
        <time>2023-04-27T13:47:10.796Z</time>
      </trkpt>
      <trkpt lat="51.4823" lon="7.47636">
        <ele>148.36395</ele>
        <time>2023-04-27T13:47:12.790Z</time>
      </trkpt>
      <trkpt lat="51.48238" lon="7.47619">
        <ele>148.235302</ele>
        <time>2023-04-27T13:47:14.819Z</time>
      </trkpt>
      <trkpt lat="51.48245" lon="7.47603">
        <ele>148.107034</ele>
        <time>2023-04-27T13:47:16.800Z</time>
      </trkpt>
      <trkpt lat="51.48252" lon="7.47586">
        <ele>147.978386</ele>
        <time>2023-04-27T13:47:18.799Z</time>
      </trkpt>
      <trkpt lat="51.48259" lon="7.47568">
        <ele>147.848791</ele>
        <time>2023-04-27T13:47:20.810Z</time>
      </trkpt>
      <trkpt lat="51.48266" lon="7.47551">
        <ele>147.676967</ele>
        <time>2023-04-27T13:47:22.778Z</time>
      </trkpt>
      <trkpt lat="51.48273" lon="7.47534">
        <ele>147.448336</ele>
        <time>2023-04-27T13:47:24.804Z</time>
      </trkpt>
      <trkpt lat="51.48279" lon="7.47518">
        <ele>147.225414</ele>
        <time>2023-04-27T13:47:26.815Z</time>
      </trkpt>
      <trkpt lat="51.48286" lon="7.47501">
        <ele>147.001644</ele>
        <time>2023-04-27T13:47:28.808Z</time>
      </trkpt>
      <trkpt lat="51.48293" lon="7.47486">
        <ele>146.776971</ele>
        <time>2023-04-27T13:47:30.811Z</time>
      </trkpt>
      <trkpt lat="51.48301" lon="7.4747">
        <ele>146.547724</ele>
        <time>2023-04-27T13:47:32.791Z</time>
      </trkpt>
      <trkpt lat="51.48307" lon="7.47452">
        <ele>146.315225</ele>
        <time>2023-04-27T13:47:34.803Z</time>
      </trkpt>
      <trkpt lat="51.48315" lon="7.47435">
        <ele>146.072588</ele>
        <time>2023-04-27T13:47:36.798Z</time>
      </trkpt>
      <trkpt lat="51.48322" lon="7.47419">
        <ele>145.850109</ele>
        <time>2023-04-27T13:47:38.780Z</time>
      </trkpt>
      <trkpt lat="51.48329" lon="7.47404">
        <ele>145.633302</ele>
        <time>2023-04-27T13:47:40.804Z</time>
      </trkpt>
      <trkpt lat="51.48337" lon="7.4739">
        <ele>145.419389</ele>
        <time>2023-04-27T13:47:42.822Z</time>
      </trkpt>
      <trkpt lat="51.48344" lon="7.47375">
        <ele>145.207518</ele>
        <time>2023-04-27T13:47:44.823Z</time>
      </trkpt>
      <trkpt lat="51.4835" lon="7.4736">
        <ele>144.996888</ele>
        <time>2023-04-27T13:47:46.805Z</time>
      </trkpt>
      <trkpt lat="51.48357" lon="7.47346">
        <ele>144.804197</ele>
        <time>2023-04-27T13:47:48.813Z</time>
      </trkpt>
      <trkpt lat="51.48363" lon="7.47334">
        <ele>144.630168</ele>
        <time>2023-04-27T13:47:50.819Z</time>
      </trkpt>
      <trkpt lat="51.48368" lon="7.47322">
        <ele>144.474284</ele>
        <time>2023-04-27T13:47:52.799Z</time>
      </trkpt>
      <trkpt lat="51.48375" lon="7.47306">
        <ele>144.414669</ele>
        <time>2023-04-27T13:47:55.801Z</time>
      </trkpt>
      <trkpt lat="51.48379" lon="7.47291">
        <ele>144.364916</ele>
        <time>2023-04-27T13:47:59.780Z</time>
      </trkpt>
      <trkpt lat="51.48386" lon="7.47274">
        <ele>144.305324</ele>
        <time>2023-04-27T13:48:06.776Z</time>
      </trkpt>
      <trkpt lat="51.48389" lon="7.47257">
        <ele>144.251636</ele>
        <time>2023-04-27T13:48:09.790Z</time>
      </trkpt>
      <trkpt lat="51.48396" lon="7.47241">
        <ele>144.192449</ele>
        <time>2023-04-27T13:48:12.794Z</time>
      </trkpt>
      <trkpt lat="51.48405" lon="7.47224">
        <ele>144.127779</ele>
        <time>2023-04-27T13:48:15.786Z</time>
      </trkpt>
      <trkpt lat="51.48409" lon="7.47211">
        <ele>144.083152</ele>
        <time>2023-04-27T13:48:17.799Z</time>
      </trkpt>
      <trkpt lat="51.48414" lon="7.47197">
        <ele>144.034477</ele>
        <time>2023-04-27T13:48:19.813Z</time>
      </trkpt>
      <trkpt lat="51.48419" lon="7.47182">
        <ele>143.984023</ele>
        <time>2023-04-27T13:48:21.802Z</time>
      </trkpt>
      <trkpt lat="51.48424" lon="7.47167">
        <ele>143.93093</ele>
        <time>2023-04-27T13:48:23.815Z</time>
      </trkpt>
      <trkpt lat="51.4843" lon="7.47151">
        <ele>143.877719</ele>
        <time>2023-04-27T13:48:25.786Z</time>
      </trkpt>
      <trkpt lat="51.48436" lon="7.47136">
        <ele>143.82376</ele>
        <time>2023-04-27T13:48:27.812Z</time>
      </trkpt>
      <trkpt lat="51.48442" lon="7.47121">
        <ele>143.768777</ele>
        <time>2023-04-27T13:48:29.804Z</time>
      </trkpt>
      <trkpt lat="51.48448" lon="7.47105">
        <ele>143.714505</ele>
        <time>2023-04-27T13:48:31.785Z</time>
      </trkpt>
      <trkpt lat="51.48454" lon="7.47089">
        <ele>143.658</ele>
        <time>2023-04-27T13:48:33.795Z</time>
      </trkpt>
      <trkpt lat="51.4846" lon="7.47073">
        <ele>143.598638</ele>
        <time>2023-04-27T13:48:35.782Z</time>
      </trkpt>
      <trkpt lat="51.48466" lon="7.47057">
        <ele>143.528285</ele>
        <time>2023-04-27T13:48:37.791Z</time>
      </trkpt>
      <trkpt lat="51.48473" lon="7.47041">
        <ele>143.456867</ele>
        <time>2023-04-27T13:48:39.791Z</time>
      </trkpt>
      <trkpt lat="51.48481" lon="7.47026">
        <ele>143.384937</ele>
        <time>2023-04-27T13:48:41.800Z</time>
      </trkpt>
      <trkpt lat="51.48488" lon="7.4701">
        <ele>143.312568</ele>
        <time>2023-04-27T13:48:43.791Z</time>
      </trkpt>
      <trkpt lat="51.48496" lon="7.46995">
        <ele>143.238318</ele>
        <time>2023-04-27T13:48:45.809Z</time>
      </trkpt>
      <trkpt lat="51.48504" lon="7.4698">
        <ele>143.164137</ele>
        <time>2023-04-27T13:48:47.792Z</time>
      </trkpt>
      <trkpt lat="51.48513" lon="7.46964">
        <ele>143.086458</ele>
        <time>2023-04-27T13:48:49.792Z</time>
      </trkpt>
      <trkpt lat="51.48521" lon="7.46949">
        <ele>143.010407</ele>
        <time>2023-04-27T13:48:51.789Z</time>
      </trkpt>
      <trkpt lat="51.48531" lon="7.46935">
        <ele>142.932005</ele>
        <time>2023-04-27T13:48:53.794Z</time>
      </trkpt>
      <trkpt lat="51.48541" lon="7.46921">
        <ele>142.851682</ele>
        <time>2023-04-27T13:48:55.788Z</time>
      </trkpt>
      <trkpt lat="51.48551" lon="7.46907">
        <ele>142.771624</ele>
        <time>2023-04-27T13:48:57.798Z</time>
      </trkpt>
      <trkpt lat="51.48562" lon="7.46893">
        <ele>142.688086</ele>
        <time>2023-04-27T13:48:59.796Z</time>
      </trkpt>
      <trkpt lat="51.48574" lon="7.4688">
        <ele>142.603069</ele>
        <time>2023-04-27T13:49:01.781Z</time>
      </trkpt>
      <trkpt lat="51.48586" lon="7.46867">
        <ele>142.473669</ele>
        <time>2023-04-27T13:49:03.789Z</time>
      </trkpt>
      <trkpt lat="51.48598" lon="7.46854">
        <ele>142.237883</ele>
        <time>2023-04-27T13:49:05.783Z</time>
      </trkpt>
      <trkpt lat="51.4861" lon="7.46842">
        <ele>141.998106</ele>
        <time>2023-04-27T13:49:07.792Z</time>
      </trkpt>
      <trkpt lat="51.48623" lon="7.46831">
        <ele>141.761338</ele>
        <time>2023-04-27T13:49:09.818Z</time>
      </trkpt>
      <trkpt lat="51.48635" lon="7.4682">
        <ele>141.523779</ele>
        <time>2023-04-27T13:49:11.815Z</time>
      </trkpt>
      <trkpt lat="51.48648" lon="7.46811">
        <ele>141.288386</ele>
        <time>2023-04-27T13:49:13.801Z</time>
      </trkpt>
      <trkpt lat="51.48662" lon="7.46803">
        <ele>141.044657</ele>
        <time>2023-04-27T13:49:15.785Z</time>
      </trkpt>
      <trkpt lat="51.48676" lon="7.46795">
        <ele>140.806998</ele>
        <time>2023-04-27T13:49:17.795Z</time>
      </trkpt>
      <trkpt lat="51.48689" lon="7.46787">
        <ele>140.56823</ele>
        <time>2023-04-27T13:49:19.795Z</time>
      </trkpt>
      <trkpt lat="51.48702" lon="7.46779">
        <ele>140.331646</ele>
        <time>2023-04-27T13:49:21.796Z</time>
      </trkpt>
      <trkpt lat="51.48716" lon="7.46772">
        <ele>140.096117</ele>
        <time>2023-04-27T13:49:23.792Z</time>
      </trkpt>
      <trkpt lat="51.48729" lon="7.46767">
        <ele>139.864936</ele>
        <time>2023-04-27T13:49:25.785Z</time>
      </trkpt>
      <trkpt lat="51.48743" lon="7.46762">
        <ele>139.63445</ele>
        <time>2023-04-27T13:49:27.794Z</time>
      </trkpt>
      <trkpt lat="51.48757" lon="7.46758">
        <ele>139.525367</ele>
        <time>2023-04-27T13:49:29.792Z</time>
      </trkpt>
      <trkpt lat="51.4877" lon="7.46754">
        <ele>139.482373</ele>
        <time>2023-04-27T13:49:31.787Z</time>
      </trkpt>
      <trkpt lat="51.48784" lon="7.46751">
        <ele>139.44022</ele>
        <time>2023-04-27T13:49:33.779Z</time>
      </trkpt>
      <trkpt lat="51.48797" lon="7.46749">
        <ele>139.398038</ele>
        <time>2023-04-27T13:49:35.781Z</time>
      </trkpt>
      <trkpt lat="51.4881" lon="7.46747">
        <ele>139.35589</ele>
        <time>2023-04-27T13:49:37.795Z</time>
      </trkpt>
      <trkpt lat="51.48823" lon="7.46746">
        <ele>139.31638</ele>
        <time>2023-04-27T13:49:39.775Z</time>
      </trkpt>
      <trkpt lat="51.48836" lon="7.46745">
        <ele>139.275241</ele>
        <time>2023-04-27T13:49:41.799Z</time>
      </trkpt>
      <trkpt lat="51.48849" lon="7.46745">
        <ele>139.235746</ele>
        <time>2023-04-27T13:49:43.800Z</time>
      </trkpt>
      <trkpt lat="51.48861" lon="7.46745">
        <ele>139.197185</ele>
        <time>2023-04-27T13:49:45.787Z</time>
      </trkpt>
      <trkpt lat="51.48873" lon="7.46747">
        <ele>139.160425</ele>
        <time>2023-04-27T13:49:47.792Z</time>
      </trkpt>
      <trkpt lat="51.48884" lon="7.46748">
        <ele>139.124276</ele>
        <time>2023-04-27T13:49:49.799Z</time>
      </trkpt>
      <trkpt lat="51.48895" lon="7.46748">
        <ele>139.090733</ele>
        <time>2023-04-27T13:49:51.799Z</time>
      </trkpt>
      <trkpt lat="51.48905" lon="7.4675">
        <ele>139.057925</ele>
        <time>2023-04-27T13:49:53.801Z</time>
      </trkpt>
      <trkpt lat="51.48916" lon="7.46752">
        <ele>139.023963</ele>
        <time>2023-04-27T13:49:55.779Z</time>
      </trkpt>
      <trkpt lat="51.48927" lon="7.46753">
        <ele>138.990939</ele>
        <time>2023-04-27T13:49:57.796Z</time>
      </trkpt>
      <trkpt lat="51.48937" lon="7.46756">
        <ele>139.217074</ele>
        <time>2023-04-27T13:49:59.807Z</time>
      </trkpt>
      <trkpt lat="51.48947" lon="7.46757">
        <ele>139.43556</ele>
        <time>2023-04-27T13:50:01.817Z</time>
      </trkpt>
      <trkpt lat="51.48957" lon="7.46759">
        <ele>139.651491</ele>
        <time>2023-04-27T13:50:03.804Z</time>
      </trkpt>
      <trkpt lat="51.48967" lon="7.4676">
        <ele>139.871752</ele>
        <time>2023-04-27T13:50:05.779Z</time>
      </trkpt>
      <trkpt lat="51.48976" lon="7.4676">
        <ele>140.073819</ele>
        <time>2023-04-27T13:50:07.813Z</time>
      </trkpt>
      <trkpt lat="51.48989" lon="7.46762">
        <ele>140.35732</ele>
        <time>2023-04-27T13:50:10.798Z</time>
      </trkpt>
      <trkpt lat="51.49002" lon="7.46764">
        <ele>140.638435</ele>
        <time>2023-04-27T13:50:13.794Z</time>
      </trkpt>
      <trkpt lat="51.49015" lon="7.46765">
        <ele>140.919658</ele>
        <time>2023-04-27T13:50:16.822Z</time>
      </trkpt>
      <trkpt lat="51.49028" lon="7.46767">
        <ele>141.196666</ele>
        <time>2023-04-27T13:50:19.797Z</time>
      </trkpt>
      <trkpt lat="51.49039" lon="7.46769">
        <ele>141.450008</ele>
        <time>2023-04-27T13:50:22.798Z</time>
      </trkpt>
      <trkpt lat="51.49051" lon="7.46771">
        <ele>141.701801</ele>
        <time>2023-04-27T13:50:25.785Z</time>
      </trkpt>
      <trkpt lat="51.49063" lon="7.46774">
        <ele>141.955588</ele>
        <time>2023-04-27T13:50:28.812Z</time>
      </trkpt>
      <trkpt lat="51.49074" lon="7.46774">
        <ele>142.201198</ele>
        <time>2023-04-27T13:50:31.796Z</time>
      </trkpt>
      <trkpt lat="51.49085" lon="7.46775">
        <ele>142.444636</ele>
        <time>2023-04-27T13:50:34.792Z</time>
      </trkpt>
      <trkpt lat="51.49096" lon="7.46777">
        <ele>142.689794</ele>
        <time>2023-04-27T13:50:37.796Z</time>
      </trkpt>
      <trkpt lat="51.49107" lon="7.46779">
        <ele>142.947308</ele>
        <time>2023-04-27T13:50:40.807Z</time>
      </trkpt>
      <trkpt lat="51.49118" lon="7.4678">
        <ele>143.287217</ele>
        <time>2023-04-27T13:50:43.788Z</time>
      </trkpt>
      <trkpt lat="51.49129" lon="7.4678">
        <ele>143.629154</ele>
        <time>2023-04-27T13:50:46.814Z</time>
      </trkpt>
      <trkpt lat="51.4914" lon="7.46782">
        <ele>143.975418</ele>
        <time>2023-04-27T13:50:49.791Z</time>
      </trkpt>
      <trkpt lat="51.49152" lon="7.46781">
        <ele>144.323765</ele>
        <time>2023-04-27T13:50:52.795Z</time>
      </trkpt>
      <trkpt lat="51.49162" lon="7.46782">
        <ele>144.656578</ele>
        <time>2023-04-27T13:50:55.802Z</time>
      </trkpt>
      <trkpt lat="51.49173" lon="7.46782">
        <ele>144.983064</ele>
        <time>2023-04-27T13:50:58.791Z</time>
      </trkpt>
      <trkpt lat="51.49183" lon="7.46782">
        <ele>145.31568</ele>
        <time>2023-04-27T13:51:01.798Z</time>
      </trkpt>
      <trkpt lat="51.49194" lon="7.46782">
        <ele>145.657885</ele>
        <time>2023-04-27T13:51:04.821Z</time>
      </trkpt>
      <trkpt lat="51.49204" lon="7.46781">
        <ele>145.959634</ele>
        <time>2023-04-27T13:51:07.791Z</time>
      </trkpt>
      <trkpt lat="51.49213" lon="7.46781">
        <ele>146.248726</ele>
        <time>2023-04-27T13:51:10.820Z</time>
      </trkpt>
      <trkpt lat="51.49222" lon="7.46785">
        <ele>146.533556</ele>
        <time>2023-04-27T13:51:13.800Z</time>
      </trkpt>
      <trkpt lat="51.49232" lon="7.46786">
        <ele>146.840401</ele>
        <time>2023-04-27T13:51:16.786Z</time>
      </trkpt>
      <trkpt lat="51.49242" lon="7.46787">
        <ele>147.141952</ele>
        <time>2023-04-27T13:51:19.784Z</time>
      </trkpt>
      <trkpt lat="51.49251" lon="7.46788">
        <ele>147.423427</ele>
        <time>2023-04-27T13:51:22.818Z</time>
      </trkpt>
      <trkpt lat="51.4926" lon="7.46787">
        <ele>147.701057</ele>
        <time>2023-04-27T13:51:25.793Z</time>
      </trkpt>
      <trkpt lat="51.49271" lon="7.46788">
        <ele>148.058871</ele>
        <time>2023-04-27T13:51:29.796Z</time>
      </trkpt>
      <trkpt lat="51.49283" lon="7.46788">
        <ele>148.428805</ele>
        <time>2023-04-27T13:51:33.800Z</time>
      </trkpt>
      <trkpt lat="51.49292" lon="7.46789">
        <ele>148.880283</ele>
        <time>2023-04-27T13:51:36.812Z</time>
      </trkpt>
      <trkpt lat="51.49304" lon="7.4679">
        <ele>149.548331</ele>
        <time>2023-04-27T13:51:40.802Z</time>
      </trkpt>
      <trkpt lat="51.49316" lon="7.46793">
        <ele>150.194672</ele>
        <time>2023-04-27T13:51:44.800Z</time>
      </trkpt>
      <trkpt lat="51.49325" lon="7.46794">
        <ele>150.700234</ele>
        <time>2023-04-27T13:51:47.807Z</time>
      </trkpt>
      <trkpt lat="51.49334" lon="7.46797">
        <ele>151.210295</ele>
        <time>2023-04-27T13:51:50.811Z</time>
      </trkpt>
      <trkpt lat="51.49343" lon="7.46801">
        <ele>151.710504</ele>
        <time>2023-04-27T13:51:53.787Z</time>
      </trkpt>
      <trkpt lat="51.49352" lon="7.46804">
        <ele>152.220565</ele>
        <time>2023-04-27T13:51:56.808Z</time>
      </trkpt>
      <trkpt lat="51.49362" lon="7.46804">
        <ele>152.811076</ele>
        <time>2023-04-27T13:52:00.793Z</time>
      </trkpt>
      <trkpt lat="51.49375" lon="7.46802">
        <ele>153.484308</ele>
        <time>2023-04-27T13:52:04.814Z</time>
      </trkpt>
      <trkpt lat="51.49386" lon="7.46807">
        <ele>154.154227</ele>
        <time>2023-04-27T13:52:07.777Z</time>
      </trkpt>
      <trkpt lat="51.49397" lon="7.46811">
        <ele>154.789703</ele>
        <time>2023-04-27T13:52:11.803Z</time>
      </trkpt>
      <trkpt lat="51.49406" lon="7.46816">
        <ele>155.290429</ele>
        <time>2023-04-27T13:52:14.799Z</time>
      </trkpt>
      <trkpt lat="51.49417" lon="7.46823">
        <ele>155.925689</ele>
        <time>2023-04-27T13:52:18.811Z</time>
      </trkpt>
      <trkpt lat="51.49428" lon="7.46827">
        <ele>156.550435</ele>
        <time>2023-04-27T13:52:22.804Z</time>
      </trkpt>
      <trkpt lat="51.49437" lon="7.46834">
        <ele>157.135869</ele>
        <time>2023-04-27T13:52:26.815Z</time>
      </trkpt>
      <trkpt lat="51.49446" lon="7.46842">
        <ele>157.676091</ele>
        <time>2023-04-27T13:52:30.816Z</time>
      </trkpt>
      <trkpt lat="51.49454" lon="7.46852">
        <ele>158.256951</ele>
        <time>2023-04-27T13:52:34.803Z</time>
      </trkpt>
      <trkpt lat="51.4946" lon="7.46866">
        <ele>158.670807</ele>
        <time>2023-04-27T13:52:38.813Z</time>
      </trkpt>
      <trkpt lat="51.49463" lon="7.4688">
        <ele>158.990653</ele>
        <time>2023-04-27T13:52:42.799Z</time>
      </trkpt>
      <trkpt lat="51.49473" lon="7.46883">
        <ele>159.339984</ele>
        <time>2023-04-27T13:52:51.781Z</time>
      </trkpt>
      <trkpt lat="51.49482" lon="7.46874">
        <ele>159.70547</ele>
        <time>2023-04-27T13:52:56.812Z</time>
      </trkpt>
      <trkpt lat="51.49492" lon="7.46872">
        <ele>160.03494</ele>
        <time>2023-04-27T13:53:01.782Z</time>
      </trkpt>
      <trkpt lat="51.495" lon="7.46883">
        <ele>160.401643</ele>
        <time>2023-04-27T13:53:05.791Z</time>
      </trkpt>
      <trkpt lat="51.49508" lon="7.46875">
        <ele>160.749845</ele>
        <time>2023-04-27T13:53:09.793Z</time>
      </trkpt>
      <trkpt lat="51.49518" lon="7.46873">
        <ele>161.073922</ele>
        <time>2023-04-27T13:53:13.804Z</time>
      </trkpt>
      <trkpt lat="51.49528" lon="7.46874">
        <ele>161.421056</ele>
        <time>2023-04-27T13:53:17.809Z</time>
      </trkpt>
      <trkpt lat="51.49538" lon="7.46877">
        <ele>161.765822</ele>
        <time>2023-04-27T13:53:21.794Z</time>
      </trkpt>
      <trkpt lat="51.49548" lon="7.4688">
        <ele>162.112545</ele>
        <time>2023-04-27T13:53:25.791Z</time>
      </trkpt>
      <trkpt lat="51.49558" lon="7.46883">
        <ele>162.468599</ele>
        <time>2023-04-27T13:53:29.793Z</time>
      </trkpt>
      <trkpt lat="51.49569" lon="7.46885">
        <ele>162.858831</ele>
        <time>2023-04-27T13:53:34.818Z</time>
      </trkpt>
      <trkpt lat="51.4958" lon="7.46886">
        <ele>163.232653</ele>
        <time>2023-04-27T13:53:39.794Z</time>
      </trkpt>
      <trkpt lat="51.4959" lon="7.46886">
        <ele>163.561657</ele>
        <time>2023-04-27T13:53:43.804Z</time>
      </trkpt>
      <trkpt lat="51.496" lon="7.46894">
        <ele>163.944226</ele>
        <time>2023-04-27T13:53:48.805Z</time>
      </trkpt>
      <trkpt lat="51.4961" lon="7.46896">
        <ele>164.28724</ele>
        <time>2023-04-27T13:53:52.783Z</time>
      </trkpt>
      <trkpt lat="51.4962" lon="7.46897">
        <ele>164.640747</ele>
        <time>2023-04-27T13:53:56.798Z</time>
      </trkpt>
      <trkpt lat="51.4963" lon="7.46895">
        <ele>164.94039</ele>
        <time>2023-04-27T13:54:00.804Z</time>
      </trkpt>
      <trkpt lat="51.49641" lon="7.46896">
        <ele>165.255398</ele>
        <time>2023-04-27T13:54:04.797Z</time>
      </trkpt>
      <trkpt lat="51.49652" lon="7.46895">
        <ele>165.567536</ele>
        <time>2023-04-27T13:54:08.814Z</time>
      </trkpt>
      <trkpt lat="51.49663" lon="7.46894">
        <ele>165.892054</ele>
        <time>2023-04-27T13:54:12.780Z</time>
      </trkpt>
      <trkpt lat="51.49672" lon="7.46894">
        <ele>166.160021</ele>
        <time>2023-04-27T13:54:15.781Z</time>
      </trkpt>
      <trkpt lat="51.49681" lon="7.46893">
        <ele>166.446003</ele>
        <time>2023-04-27T13:54:19.800Z</time>
      </trkpt>
      <trkpt lat="51.49692" lon="7.46891">
        <ele>166.762356</ele>
        <time>2023-04-27T13:54:23.786Z</time>
      </trkpt>
      <trkpt lat="51.49703" lon="7.4689">
        <ele>167.072204</ele>
        <time>2023-04-27T13:54:27.790Z</time>
      </trkpt>
      <trkpt lat="51.49714" lon="7.46889">
        <ele>167.396366</ele>
        <time>2023-04-27T13:54:31.797Z</time>
      </trkpt>
      <trkpt lat="51.49724" lon="7.46888">
        <ele>167.712379</ele>
        <time>2023-04-27T13:54:35.788Z</time>
      </trkpt>
      <trkpt lat="51.49735" lon="7.46888">
        <ele>168.036043</ele>
        <time>2023-04-27T13:54:39.788Z</time>
      </trkpt>
      <trkpt lat="51.49746" lon="7.46886">
        <ele>168.361361</ele>
        <time>2023-04-27T13:54:43.796Z</time>
      </trkpt>
      <trkpt lat="51.49757" lon="7.46891">
        <ele>168.681833</ele>
        <time>2023-04-27T13:54:47.796Z</time>
      </trkpt>
      <trkpt lat="51.49768" lon="7.46895">
        <ele>169.016941</ele>
        <time>2023-04-27T13:54:51.790Z</time>
      </trkpt>
      <trkpt lat="51.49777" lon="7.4689">
        <ele>169.296114</ele>
        <time>2023-04-27T13:54:55.787Z</time>
      </trkpt>
      <trkpt lat="51.49785" lon="7.4688">
        <ele>169.60705</ele>
        <time>2023-04-27T13:55:01.798Z</time>
      </trkpt>
      <trkpt lat="51.49794" lon="7.46875">
        <ele>169.863036</ele>
        <time>2023-04-27T13:55:06.824Z</time>
      </trkpt>
      <trkpt lat="51.49804" lon="7.46872">
        <ele>169.725933</ele>
        <time>2023-04-27T13:55:10.808Z</time>
      </trkpt>
      <trkpt lat="51.49814" lon="7.46872">
        <ele>169.595918</ele>
        <time>2023-04-27T13:55:14.787Z</time>
      </trkpt>
      <trkpt lat="51.49825" lon="7.46875">
        <ele>169.448454</ele>
        <time>2023-04-27T13:55:18.796Z</time>
      </trkpt>
      <trkpt lat="51.49833" lon="7.46865">
        <ele>169.30674</ele>
        <time>2023-04-27T13:55:22.812Z</time>
      </trkpt>
      <trkpt lat="51.49844" lon="7.46862">
        <ele>169.160603</ele>
        <time>2023-04-27T13:55:27.777Z</time>
      </trkpt>
      <trkpt lat="51.49855" lon="7.4686">
        <ele>169.021332</ele>
        <time>2023-04-27T13:55:31.794Z</time>
      </trkpt>
      <trkpt lat="51.49864" lon="7.46858">
        <ele>168.890978</ele>
        <time>2023-04-27T13:55:35.781Z</time>
      </trkpt>
      <trkpt lat="51.49875" lon="7.46856">
        <ele>168.750682</ele>
        <time>2023-04-27T13:55:39.839Z</time>
      </trkpt>
      <trkpt lat="51.49886" lon="7.46853">
        <ele>168.595246</ele>
        <time>2023-04-27T13:55:43.797Z</time>
      </trkpt>
      <trkpt lat="51.49896" lon="7.46853">
        <ele>168.46388</ele>
        <time>2023-04-27T13:55:47.799Z</time>
      </trkpt>
      <trkpt lat="51.49907" lon="7.46851">
        <ele>168.317744</ele>
        <time>2023-04-27T13:56:21.783Z</time>
      </trkpt>
      <trkpt lat="51.49918" lon="7.46847">
        <ele>168.165962</ele>
        <time>2023-04-27T13:56:27.816Z</time>
      </trkpt>
      <trkpt lat="51.49927" lon="7.46849">
        <ele>168.040763</ele>
        <time>2023-04-27T13:56:30.808Z</time>
      </trkpt>
      <trkpt lat="51.49938" lon="7.46857">
        <ele>167.877993</ele>
        <time>2023-04-27T13:56:33.792Z</time>
      </trkpt>
      <trkpt lat="51.49947" lon="7.46862">
        <ele>167.754945</ele>
        <time>2023-04-27T13:56:38.835Z</time>
      </trkpt>
      <trkpt lat="51.49953" lon="7.4685">
        <ele>167.625955</ele>
        <time>2023-04-27T13:56:42.797Z</time>
      </trkpt>
      <trkpt lat="51.49961" lon="7.46838">
        <ele>167.477687</ele>
        <time>2023-04-27T13:56:46.806Z</time>
      </trkpt>
      <trkpt lat="51.49971" lon="7.46841">
        <ele>167.523247</ele>
        <time>2023-04-27T13:56:49.789Z</time>
      </trkpt>
      <trkpt lat="51.49979" lon="7.46833">
        <ele>167.588746</ele>
        <time>2023-04-27T13:56:52.792Z</time>
      </trkpt>
      <trkpt lat="51.49988" lon="7.46826">
        <ele>167.664116</ele>
        <time>2023-04-27T13:56:55.822Z</time>
      </trkpt>
      <trkpt lat="51.49997" lon="7.46822">
        <ele>167.731026</ele>
        <time>2023-04-27T13:56:57.795Z</time>
      </trkpt>
      <trkpt lat="51.5001" lon="7.46813">
        <ele>167.827189</ele>
        <time>2023-04-27T13:57:00.794Z</time>
      </trkpt>
      <trkpt lat="51.50022" lon="7.46804">
        <ele>167.922682</ele>
        <time>2023-04-27T13:57:03.810Z</time>
      </trkpt>
      <trkpt lat="51.50031" lon="7.46797">
        <ele>167.993817</ele>
        <time>2023-04-27T13:57:05.794Z</time>
      </trkpt>
      <trkpt lat="51.50043" lon="7.4679">
        <ele>168.089136</ele>
        <time>2023-04-27T13:57:08.800Z</time>
      </trkpt>
      <trkpt lat="51.50052" lon="7.46785">
        <ele>168.15886</ele>
        <time>2023-04-27T13:57:10.824Z</time>
      </trkpt>
      <trkpt lat="51.50064" lon="7.46782">
        <ele>168.247237</ele>
        <time>2023-04-27T13:57:13.782Z</time>
      </trkpt>
      <trkpt lat="51.50075" lon="7.46778">
        <ele>168.321427</ele>
        <time>2023-04-27T13:57:15.793Z</time>
      </trkpt>
      <trkpt lat="51.50085" lon="7.46777">
        <ele>168.396885</ele>
        <time>2023-04-27T13:57:17.794Z</time>
      </trkpt>
      <trkpt lat="51.50096" lon="7.46775">
        <ele>168.473589</ele>
        <time>2023-04-27T13:57:19.793Z</time>
      </trkpt>
      <trkpt lat="51.50107" lon="7.46771">
        <ele>168.554881</ele>
        <time>2023-04-27T13:57:21.795Z</time>
      </trkpt>
      <trkpt lat="51.50117" lon="7.46767">
        <ele>168.630113</ele>
        <time>2023-04-27T13:57:23.795Z</time>
      </trkpt>
      <trkpt lat="51.50127" lon="7.46766">
        <ele>168.703369</ele>
        <time>2023-04-27T13:57:25.798Z</time>
      </trkpt>
      <trkpt lat="51.50136" lon="7.46765">
        <ele>168.637645</ele>
        <time>2023-04-27T13:57:27.814Z</time>
      </trkpt>
      <trkpt lat="51.50146" lon="7.46758">
        <ele>168.271628</ele>
        <time>2023-04-27T13:57:30.776Z</time>
      </trkpt>
      <trkpt lat="51.50157" lon="7.46753">
        <ele>167.845148</ele>
        <time>2023-04-27T13:57:33.799Z</time>
      </trkpt>
      <trkpt lat="51.5017" lon="7.46751">
        <ele>167.372267</ele>
        <time>2023-04-27T13:57:36.799Z</time>
      </trkpt>
      <trkpt lat="51.50181" lon="7.46747">
        <ele>166.993938</ele>
        <time>2023-04-27T13:57:38.808Z</time>
      </trkpt>
      <trkpt lat="51.50191" lon="7.46745">
        <ele>166.609559</ele>
        <time>2023-04-27T13:57:40.818Z</time>
      </trkpt>
      <trkpt lat="51.50204" lon="7.46743">
        <ele>166.161932</ele>
        <time>2023-04-27T13:57:42.826Z</time>
      </trkpt>
      <trkpt lat="51.50217" lon="7.46738">
        <ele>165.675921</ele>
        <time>2023-04-27T13:57:44.806Z</time>
      </trkpt>
      <trkpt lat="51.50229" lon="7.46733">
        <ele>165.225074</ele>
        <time>2023-04-27T13:57:46.800Z</time>
      </trkpt>
      <trkpt lat="51.50241" lon="7.4673">
        <ele>164.785102</ele>
        <time>2023-04-27T13:57:48.811Z</time>
      </trkpt>
      <trkpt lat="51.50253" lon="7.46726">
        <ele>164.349099</ele>
        <time>2023-04-27T13:57:50.781Z</time>
      </trkpt>
      <trkpt lat="51.50265" lon="7.46723">
        <ele>163.901329</ele>
        <time>2023-04-27T13:57:52.796Z</time>
      </trkpt>
      <trkpt lat="51.50278" lon="7.4672">
        <ele>163.455211</ele>
        <time>2023-04-27T13:57:54.804Z</time>
      </trkpt>
      <trkpt lat="51.50289" lon="7.46718">
        <ele>163.02524</ele>
        <time>2023-04-27T13:57:56.813Z</time>
      </trkpt>
      <trkpt lat="51.50301" lon="7.46716">
        <ele>162.608506</ele>
        <time>2023-04-27T13:57:58.819Z</time>
      </trkpt>
      <trkpt lat="51.50311" lon="7.46713">
        <ele>162.255203</ele>
        <time>2023-04-27T13:58:01.785Z</time>
      </trkpt>
      <trkpt lat="51.50327" lon="7.46709">
        <ele>161.954154</ele>
        <time>2023-04-27T13:58:38.801Z</time>
      </trkpt>
      <trkpt lat="51.50337" lon="7.46706">
        <ele>161.777054</ele>
        <time>2023-04-27T13:58:41.789Z</time>
      </trkpt>
      <trkpt lat="51.50347" lon="7.46704">
        <ele>161.582494</ele>
        <time>2023-04-27T13:58:44.788Z</time>
      </trkpt>
      <trkpt lat="51.5036" lon="7.46703">
        <ele>161.349388</ele>
        <time>2023-04-27T13:58:47.806Z</time>
      </trkpt>
      <trkpt lat="51.50371" lon="7.46706">
        <ele>161.136408</ele>
        <time>2023-04-27T13:58:50.789Z</time>
      </trkpt>
      <trkpt lat="51.50384" lon="7.46711">
        <ele>160.894923</ele>
        <time>2023-04-27T13:58:53.803Z</time>
      </trkpt>
      <trkpt lat="51.50394" lon="7.46716">
        <ele>160.70344</ele>
        <time>2023-04-27T13:58:55.791Z</time>
      </trkpt>
      <trkpt lat="51.50404" lon="7.46721">
        <ele>160.513849</ele>
        <time>2023-04-27T13:58:57.792Z</time>
      </trkpt>
      <trkpt lat="51.50412" lon="7.46728">
        <ele>160.334217</ele>
        <time>2023-04-27T13:58:59.821Z</time>
      </trkpt>
      <trkpt lat="51.50421" lon="7.46735">
        <ele>160.157019</ele>
        <time>2023-04-27T13:59:01.791Z</time>
      </trkpt>
      <trkpt lat="51.5043" lon="7.46741">
        <ele>159.97579</ele>
        <time>2023-04-27T13:59:03.767Z</time>
      </trkpt>
      <trkpt lat="51.5044" lon="7.46747">
        <ele>159.781274</ele>
        <time>2023-04-27T13:59:05.805Z</time>
      </trkpt>
      <trkpt lat="51.50449" lon="7.46754">
        <ele>159.588456</ele>
        <time>2023-04-27T13:59:07.789Z</time>
      </trkpt>
      <trkpt lat="51.50459" lon="7.46762">
        <ele>159.38492</ele>
        <time>2023-04-27T13:59:09.790Z</time>
      </trkpt>
      <trkpt lat="51.50469" lon="7.46771">
        <ele>159.171593</ele>
        <time>2023-04-27T13:59:11.812Z</time>
      </trkpt>
      <trkpt lat="51.50479" lon="7.46779">
        <ele>158.966414</ele>
        <time>2023-04-27T13:59:13.801Z</time>
      </trkpt>
      <trkpt lat="51.50489" lon="7.46786">
        <ele>158.687532</ele>
        <time>2023-04-27T13:59:15.777Z</time>
      </trkpt>
      <trkpt lat="51.50498" lon="7.46794">
        <ele>158.408193</ele>
        <time>2023-04-27T13:59:17.785Z</time>
      </trkpt>
      <trkpt lat="51.50507" lon="7.46801">
        <ele>158.137981</ele>
        <time>2023-04-27T13:59:19.788Z</time>
      </trkpt>
      <trkpt lat="51.50516" lon="7.46811">
        <ele>157.841561</ele>
        <time>2023-04-27T13:59:21.807Z</time>
      </trkpt>
      <trkpt lat="51.50524" lon="7.46818">
        <ele>157.597663</ele>
        <time>2023-04-27T13:59:23.797Z</time>
      </trkpt>
      <trkpt lat="51.50532" lon="7.46826">
        <ele>157.345502</ele>
        <time>2023-04-27T13:59:25.795Z</time>
      </trkpt>
      <trkpt lat="51.50543" lon="7.46834">
        <ele>157.024014</ele>
        <time>2023-04-27T13:59:28.800Z</time>
      </trkpt>
      <trkpt lat="51.50552" lon="7.46837">
        <ele>156.765991</ele>
        <time>2023-04-27T13:59:31.795Z</time>
      </trkpt>
      <trkpt lat="51.50568" lon="7.46839">
        <ele>156.351791</ele>
        <time>2023-04-27T13:59:52.802Z</time>
      </trkpt>
      <trkpt lat="51.50579" lon="7.46836">
        <ele>156.032395</ele>
        <time>2023-04-27T13:59:56.799Z</time>
      </trkpt>
      <trkpt lat="51.5059" lon="7.46833">
        <ele>155.731594</ele>
        <time>2023-04-27T13:59:59.788Z</time>
      </trkpt>
      <trkpt lat="51.50603" lon="7.4683">
        <ele>155.404204</ele>
        <time>2023-04-27T14:00:02.791Z</time>
      </trkpt>
      <trkpt lat="51.50615" lon="7.46826">
        <ele>155.069118</ele>
        <time>2023-04-27T14:00:05.785Z</time>
      </trkpt>
      <trkpt lat="51.50624" lon="7.46821">
        <ele>154.814994</ele>
        <time>2023-04-27T14:00:07.792Z</time>
      </trkpt>
      <trkpt lat="51.50635" lon="7.46817">
        <ele>154.513205</ele>
        <time>2023-04-27T14:00:09.819Z</time>
      </trkpt>
      <trkpt lat="51.50646" lon="7.46814">
        <ele>154.197429</ele>
        <time>2023-04-27T14:00:11.777Z</time>
      </trkpt>
      <trkpt lat="51.50658" lon="7.46812">
        <ele>153.714168</ele>
        <time>2023-04-27T14:00:13.794Z</time>
      </trkpt>
      <trkpt lat="51.5067" lon="7.46806">
        <ele>153.160198</ele>
        <time>2023-04-27T14:00:15.797Z</time>
      </trkpt>
      <trkpt lat="51.50681" lon="7.46801">
        <ele>152.643938</ele>
        <time>2023-04-27T14:00:17.784Z</time>
      </trkpt>
      <trkpt lat="51.50693" lon="7.46798">
        <ele>152.094517</ele>
        <time>2023-04-27T14:00:19.811Z</time>
      </trkpt>
      <trkpt lat="51.50705" lon="7.46796">
        <ele>151.533266</ele>
        <time>2023-04-27T14:00:21.791Z</time>
      </trkpt>
      <trkpt lat="51.50718" lon="7.46795">
        <ele>150.956126</ele>
        <time>2023-04-27T14:00:23.783Z</time>
      </trkpt>
      <trkpt lat="51.50727" lon="7.46799">
        <ele>150.51454</ele>
        <time>2023-04-27T14:00:25.783Z</time>
      </trkpt>
      <trkpt lat="51.5074" lon="7.46801">
        <ele>149.945733</ele>
        <time>2023-04-27T14:00:28.813Z</time>
      </trkpt>
      <trkpt lat="51.5075" lon="7.468">
        <ele>149.495296</ele>
        <time>2023-04-27T14:00:30.797Z</time>
      </trkpt>
      <trkpt lat="51.5076" lon="7.46799">
        <ele>149.050743</ele>
        <time>2023-04-27T14:00:32.809Z</time>
      </trkpt>
      <trkpt lat="51.5077" lon="7.46799">
        <ele>148.60035</ele>
        <time>2023-04-27T14:00:34.807Z</time>
      </trkpt>
      <trkpt lat="51.5078" lon="7.46802">
        <ele>148.13335</ele>
        <time>2023-04-27T14:00:36.784Z</time>
      </trkpt>
      <trkpt lat="51.50789" lon="7.46808">
        <ele>147.671355</ele>
        <time>2023-04-27T14:00:38.787Z</time>
      </trkpt>
      <trkpt lat="51.50799" lon="7.46813">
        <ele>147.215074</ele>
        <time>2023-04-27T14:00:40.779Z</time>
      </trkpt>
      <trkpt lat="51.50809" lon="7.46816">
        <ele>146.781142</ele>
        <time>2023-04-27T14:00:42.821Z</time>
      </trkpt>
      <trkpt lat="51.50817" lon="7.46823">
        <ele>146.360271</ele>
        <time>2023-04-27T14:00:44.796Z</time>
      </trkpt>
      <trkpt lat="51.50825" lon="7.46831">
        <ele>146.035156</ele>
        <time>2023-04-27T14:00:46.796Z</time>
      </trkpt>
      <trkpt lat="51.50833" lon="7.46839">
        <ele>146.047003</ele>
        <time>2023-04-27T14:00:48.803Z</time>
      </trkpt>
      <trkpt lat="51.50841" lon="7.46846">
        <ele>146.058405</ele>
        <time>2023-04-27T14:00:50.801Z</time>
      </trkpt>
      <trkpt lat="51.50851" lon="7.4685">
        <ele>146.070873</ele>
        <time>2023-04-27T14:00:54.771Z</time>
      </trkpt>
      <trkpt lat="51.50861" lon="7.46856">
        <ele>146.084777</ele>
        <time>2023-04-27T14:01:15.802Z</time>
      </trkpt>
      <trkpt lat="51.5087" lon="7.46859">
        <ele>146.096165</ele>
        <time>2023-04-27T14:01:18.800Z</time>
      </trkpt>
      <trkpt lat="51.50883" lon="7.4686">
        <ele>146.111387</ele>
        <time>2023-04-27T14:01:21.788Z</time>
      </trkpt>
      <trkpt lat="51.50891" lon="7.46869">
        <ele>146.123273</ele>
        <time>2023-04-27T14:01:24.802Z</time>
      </trkpt>
      <trkpt lat="51.509" lon="7.46862">
        <ele>146.135283</ele>
        <time>2023-04-27T14:01:27.795Z</time>
      </trkpt>
      <trkpt lat="51.50907" lon="7.46851">
        <ele>146.147927</ele>
        <time>2023-04-27T14:01:30.781Z</time>
      </trkpt>
      <trkpt lat="51.50916" lon="7.46843">
        <ele>146.160812</ele>
        <time>2023-04-27T14:01:33.781Z</time>
      </trkpt>
      <trkpt lat="51.50928" lon="7.46844">
        <ele>146.175261</ele>
        <time>2023-04-27T14:01:36.785Z</time>
      </trkpt>
      <trkpt lat="51.5094" lon="7.46847">
        <ele>146.190108</ele>
        <time>2023-04-27T14:01:39.793Z</time>
      </trkpt>
      <trkpt lat="51.50952" lon="7.46851">
        <ele>146.205847</ele>
        <time>2023-04-27T14:01:42.820Z</time>
      </trkpt>
      <trkpt lat="51.50964" lon="7.46852">
        <ele>146.220426</ele>
        <time>2023-04-27T14:01:45.796Z</time>
      </trkpt>
      <trkpt lat="51.50974" lon="7.4685">
        <ele>146.231968</ele>
        <time>2023-04-27T14:01:51.818Z</time>
      </trkpt>
      <trkpt lat="51.50985" lon="7.46848">
        <ele>146.246176</ele>
        <time>2023-04-27T14:01:55.776Z</time>
      </trkpt>
      <trkpt lat="51.50995" lon="7.46848">
        <ele>146.232229</ele>
        <time>2023-04-27T14:01:58.801Z</time>
      </trkpt>
      <trkpt lat="51.51005" lon="7.46848">
        <ele>146.158141</ele>
        <time>2023-04-27T14:02:01.866Z</time>
      </trkpt>
      <trkpt lat="51.51004" lon="7.46831">
        <ele>146.075398</ele>
        <time>2023-04-27T14:02:25.787Z</time>
      </trkpt>
      <trkpt lat="51.51003" lon="7.46813">
        <ele>145.988171</ele>
        <time>2023-04-27T14:02:29.793Z</time>
      </trkpt>
      <trkpt lat="51.51" lon="7.46796">
        <ele>145.90538</ele>
        <time>2023-04-27T14:02:32.803Z</time>
      </trkpt>
      <trkpt lat="51.50997" lon="7.4678">
        <ele>145.824198</ele>
        <time>2023-04-27T14:02:35.790Z</time>
      </trkpt>
      <trkpt lat="51.50996" lon="7.46763">
        <ele>145.74327</ele>
        <time>2023-04-27T14:02:38.781Z</time>
      </trkpt>
      <trkpt lat="51.50997" lon="7.46743">
        <ele>145.650541</ele>
        <time>2023-04-27T14:02:41.795Z</time>
      </trkpt>
      <trkpt lat="51.50998" lon="7.46724">
        <ele>145.556497</ele>
        <time>2023-04-27T14:02:44.794Z</time>
      </trkpt>
      <trkpt lat="51.50998" lon="7.46705">
        <ele>145.464264</ele>
        <time>2023-04-27T14:02:47.792Z</time>
      </trkpt>
      <trkpt lat="51.50999" lon="7.46686">
        <ele>145.373699</ele>
        <time>2023-04-27T14:02:50.797Z</time>
      </trkpt>
      <trkpt lat="51.50998" lon="7.46669">
        <ele>145.294387</ele>
        <time>2023-04-27T14:02:53.808Z</time>
      </trkpt>
      <trkpt lat="51.50999" lon="7.46644">
        <ele>145.171418</ele>
        <time>2023-04-27T14:03:18.812Z</time>
      </trkpt>
      <trkpt lat="51.50999" lon="7.46629">
        <ele>145.100127</ele>
        <time>2023-04-27T14:03:21.810Z</time>
      </trkpt>
      <trkpt lat="51.50999" lon="7.46612">
        <ele>145.015945</ele>
        <time>2023-04-27T14:03:24.799Z</time>
      </trkpt>
      <trkpt lat="51.50999" lon="7.46593">
        <ele>144.925114</ele>
        <time>2023-04-27T14:03:27.788Z</time>
      </trkpt>
      <trkpt lat="51.51" lon="7.46572">
        <ele>144.823435</ele>
        <time>2023-04-27T14:03:30.796Z</time>
      </trkpt>
      <trkpt lat="51.51" lon="7.4655">
        <ele>144.707911</ele>
        <time>2023-04-27T14:03:33.830Z</time>
      </trkpt>
      <trkpt lat="51.51001" lon="7.46535">
        <ele>144.632604</ele>
        <time>2023-04-27T14:03:35.790Z</time>
      </trkpt>
      <trkpt lat="51.51002" lon="7.46519">
        <ele>144.550219</ele>
        <time>2023-04-27T14:03:37.817Z</time>
      </trkpt>
      <trkpt lat="51.51002" lon="7.46503">
        <ele>144.468214</ele>
        <time>2023-04-27T14:03:39.798Z</time>
      </trkpt>
      <trkpt lat="51.51003" lon="7.46488">
        <ele>144.389746</ele>
        <time>2023-04-27T14:03:41.798Z</time>
      </trkpt>
      <trkpt lat="51.51003" lon="7.46472">
        <ele>144.305712</ele>
        <time>2023-04-27T14:03:43.794Z</time>
      </trkpt>
      <trkpt lat="51.51003" lon="7.46455">
        <ele>144.221151</ele>
        <time>2023-04-27T14:03:45.784Z</time>
      </trkpt>
      <trkpt lat="51.51004" lon="7.4644">
        <ele>144.141171</ele>
        <time>2023-04-27T14:03:47.806Z</time>
      </trkpt>
      <trkpt lat="51.51005" lon="7.46424">
        <ele>144.058024</ele>
        <time>2023-04-27T14:03:49.800Z</time>
      </trkpt>
      <trkpt lat="51.51005" lon="7.46407">
        <ele>143.970885</ele>
        <time>2023-04-27T14:03:51.801Z</time>
      </trkpt>
      <trkpt lat="51.51006" lon="7.4639">
        <ele>143.8837</ele>
        <time>2023-04-27T14:03:53.795Z</time>
      </trkpt>
      <trkpt lat="51.51006" lon="7.46373">
        <ele>143.796326</ele>
        <time>2023-04-27T14:03:55.798Z</time>
      </trkpt>
      <trkpt lat="51.51007" lon="7.46357">
        <ele>143.712611</ele>
        <time>2023-04-27T14:03:57.794Z</time>
      </trkpt>
      <trkpt lat="51.51008" lon="7.46342">
        <ele>143.632871</ele>
        <time>2023-04-27T14:03:59.793Z</time>
      </trkpt>
      <trkpt lat="51.51009" lon="7.46326">
        <ele>143.552961</ele>
        <time>2023-04-27T14:04:01.798Z</time>
      </trkpt>
      <trkpt lat="51.51011" lon="7.46311">
        <ele>143.471184</ele>
        <time>2023-04-27T14:04:05.795Z</time>
      </trkpt>
      <trkpt lat="51.51013" lon="7.46293">
        <ele>143.379876</ele>
        <time>2023-04-27T14:04:09.792Z</time>
      </trkpt>
      <trkpt lat="51.5102" lon="7.46262">
        <ele>143.532292</ele>
        <time>2023-04-27T14:04:47.795Z</time>
      </trkpt>
      <trkpt lat="51.51024" lon="7.46247">
        <ele>143.611422</ele>
        <time>2023-04-27T14:04:50.804Z</time>
      </trkpt>
      <trkpt lat="51.51029" lon="7.4623">
        <ele>143.701956</ele>
        <time>2023-04-27T14:04:53.793Z</time>
      </trkpt>
      <trkpt lat="51.51033" lon="7.46213">
        <ele>143.78805</ele>
        <time>2023-04-27T14:04:56.802Z</time>
      </trkpt>
      <trkpt lat="51.5104" lon="7.46198">
        <ele>143.879202</ele>
        <time>2023-04-27T14:04:59.795Z</time>
      </trkpt>
      <trkpt lat="51.5105" lon="7.46184">
        <ele>143.980682</ele>
        <time>2023-04-27T14:05:02.780Z</time>
      </trkpt>
      <trkpt lat="51.51058" lon="7.46168">
        <ele>144.078429</ele>
        <time>2023-04-27T14:05:05.791Z</time>
      </trkpt>
      <trkpt lat="51.51063" lon="7.46156">
        <ele>144.148691</ele>
        <time>2023-04-27T14:05:07.801Z</time>
      </trkpt>
      <trkpt lat="51.51069" lon="7.46145">
        <ele>144.21819</ele>
        <time>2023-04-27T14:05:09.796Z</time>
      </trkpt>
      <trkpt lat="51.51076" lon="7.46134">
        <ele>144.289909</ele>
        <time>2023-04-27T14:05:11.808Z</time>
      </trkpt>
      <trkpt lat="51.51083" lon="7.46123">
        <ele>144.367306</ele>
        <time>2023-04-27T14:05:13.793Z</time>
      </trkpt>
      <trkpt lat="51.51089" lon="7.46111">
        <ele>144.442174</ele>
        <time>2023-04-27T14:05:15.787Z</time>
      </trkpt>
      <trkpt lat="51.51097" lon="7.461">
        <ele>144.521464</ele>
        <time>2023-04-27T14:05:17.791Z</time>
      </trkpt>
      <trkpt lat="51.51102" lon="7.46087">
        <ele>144.592177</ele>
        <time>2023-04-27T14:05:19.811Z</time>
      </trkpt>
      <trkpt lat="51.5111" lon="7.46069">
        <ele>144.697781</ele>
        <time>2023-04-27T14:05:22.809Z</time>
      </trkpt>
      <trkpt lat="51.51117" lon="7.46058">
        <ele>144.786972</ele>
        <time>2023-04-27T14:05:24.793Z</time>
      </trkpt>
      <trkpt lat="51.51125" lon="7.46045">
        <ele>144.934837</ele>
        <time>2023-04-27T14:05:26.797Z</time>
      </trkpt>
      <trkpt lat="51.51133" lon="7.46032">
        <ele>145.076137</ele>
        <time>2023-04-27T14:05:28.803Z</time>
      </trkpt>
      <trkpt lat="51.5114" lon="7.4602">
        <ele>145.211821</ele>
        <time>2023-04-27T14:05:30.800Z</time>
      </trkpt>
      <trkpt lat="51.51146" lon="7.46007">
        <ele>145.345436</ele>
        <time>2023-04-27T14:05:32.796Z</time>
      </trkpt>
      <trkpt lat="51.51154" lon="7.45997">
        <ele>145.477675</ele>
        <time>2023-04-27T14:05:34.795Z</time>
      </trkpt>
      <trkpt lat="51.51161" lon="7.45984">
        <ele>145.615748</ele>
        <time>2023-04-27T14:05:36.804Z</time>
      </trkpt>
      <trkpt lat="51.51168" lon="7.45967">
        <ele>145.776526</ele>
        <time>2023-04-27T14:05:39.807Z</time>
      </trkpt>
      <trkpt lat="51.51176" lon="7.45954">
        <ele>145.923157</ele>
        <time>2023-04-27T14:05:42.796Z</time>
      </trkpt>
      <trkpt lat="51.51182" lon="7.45943">
        <ele>146.045539</ele>
        <time>2023-04-27T14:05:45.789Z</time>
      </trkpt>
      <trkpt lat="51.51188" lon="7.45932">
        <ele>146.162841</ele>
        <time>2023-04-27T14:05:48.821Z</time>
      </trkpt>
      <trkpt lat="51.51194" lon="7.45919">
        <ele>146.297727</ele>
        <time>2023-04-27T14:05:51.792Z</time>
      </trkpt>
      <trkpt lat="51.51204" lon="7.45906">
        <ele>146.459641</ele>
        <time>2023-04-27T14:05:54.813Z</time>
      </trkpt>
      <trkpt lat="51.5121" lon="7.45896">
        <ele>146.576588</ele>
        <time>2023-04-27T14:05:56.805Z</time>
      </trkpt>
      <trkpt lat="51.51217" lon="7.45883">
        <ele>146.706257</ele>
        <time>2023-04-27T14:05:58.824Z</time>
      </trkpt>
      <trkpt lat="51.51223" lon="7.45865">
        <ele>146.880831</ele>
        <time>2023-04-27T14:06:01.786Z</time>
      </trkpt>
      <trkpt lat="51.5123" lon="7.45847">
        <ele>147.050442</ele>
        <time>2023-04-27T14:06:04.810Z</time>
      </trkpt>
      <trkpt lat="51.51237" lon="7.45831">
        <ele>147.00716</ele>
        <time>2023-04-27T14:06:07.811Z</time>
      </trkpt>
      <trkpt lat="51.51242" lon="7.45813">
        <ele>146.876199</ele>
        <time>2023-04-27T14:06:10.810Z</time>
      </trkpt>
      <trkpt lat="51.51248" lon="7.45797">
        <ele>146.74653</ele>
        <time>2023-04-27T14:06:13.811Z</time>
      </trkpt>
      <trkpt lat="51.51254" lon="7.45781">
        <ele>146.625337</ele>
        <time>2023-04-27T14:06:16.803Z</time>
      </trkpt>
      <trkpt lat="51.5126" lon="7.45764">
        <ele>146.495129</ele>
        <time>2023-04-27T14:06:19.794Z</time>
      </trkpt>
      <trkpt lat="51.51266" lon="7.45747">
        <ele>146.360906</ele>
        <time>2023-04-27T14:06:22.805Z</time>
      </trkpt>
      <trkpt lat="51.51273" lon="7.45734">
        <ele>146.246394</ele>
        <time>2023-04-27T14:06:25.798Z</time>
      </trkpt>
      <trkpt lat="51.51279" lon="7.45718">
        <ele>146.129021</ele>
        <time>2023-04-27T14:06:29.796Z</time>
      </trkpt>
      <trkpt lat="51.51284" lon="7.45705">
        <ele>146.021026</ele>
        <time>2023-04-27T14:06:35.802Z</time>
      </trkpt>
      <trkpt lat="51.51293" lon="7.45693">
        <ele>145.897334</ele>
        <time>2023-04-27T14:06:39.799Z</time>
      </trkpt>
      <trkpt lat="51.51299" lon="7.4568">
        <ele>145.785735</ele>
        <time>2023-04-27T14:06:42.808Z</time>
      </trkpt>
      <trkpt lat="51.51305" lon="7.45668">
        <ele>145.67994</ele>
        <time>2023-04-27T14:06:44.800Z</time>
      </trkpt>
      <trkpt lat="51.51311" lon="7.45654">
        <ele>145.570238</ele>
        <time>2023-04-27T14:06:47.800Z</time>
      </trkpt>
      <trkpt lat="51.51316" lon="7.45638">
        <ele>145.454552</ele>
        <time>2023-04-27T14:06:50.802Z</time>
      </trkpt>
      <trkpt lat="51.51322" lon="7.45623">
        <ele>145.326609</ele>
        <time>2023-04-27T14:06:53.789Z</time>
      </trkpt>
      <trkpt lat="51.51332" lon="7.45609">
        <ele>145.193132</ele>
        <time>2023-04-27T14:06:56.792Z</time>
      </trkpt>
      <trkpt lat="51.5134" lon="7.45601">
        <ele>145.162942</ele>
        <time>2023-04-27T14:06:58.799Z</time>
      </trkpt>
      <trkpt lat="51.51349" lon="7.45593">
        <ele>145.162942</ele>
        <time>2023-04-27T14:07:00.780Z</time>
      </trkpt>
      <trkpt lat="51.51358" lon="7.45585">
        <ele>145.162942</ele>
        <time>2023-04-27T14:07:02.780Z</time>
      </trkpt>
      <trkpt lat="51.51368" lon="7.45585">
        <ele>145.162942</ele>
        <time>2023-04-27T14:07:04.777Z</time>
      </trkpt>
      <trkpt lat="51.51379" lon="7.45581">
        <ele>145.162942</ele>
        <time>2023-04-27T14:07:06.790Z</time>
      </trkpt>
      <trkpt lat="51.51391" lon="7.45578">
        <ele>145.162942</ele>
        <time>2023-04-27T14:07:08.772Z</time>
      </trkpt>
      <trkpt lat="51.51402" lon="7.45575">
        <ele>145.162942</ele>
        <time>2023-04-27T14:07:10.785Z</time>
      </trkpt>
      <trkpt lat="51.51414" lon="7.45578">
        <ele>145.162942</ele>
        <time>2023-04-27T14:07:12.821Z</time>
      </trkpt>
      <trkpt lat="51.51425" lon="7.45581">
        <ele>145.162942</ele>
        <time>2023-04-27T14:07:15.782Z</time>
      </trkpt>
      <trkpt lat="51.51434" lon="7.45578">
        <ele>145.162942</ele>
        <time>2023-04-27T14:07:20.778Z</time>
      </trkpt>
      <trkpt lat="51.51425" lon="7.45577">
        <ele>145.162942</ele>
        <time>2023-04-27T14:08:24.795Z</time>
      </trkpt>
    </trkseg>
  </trk>
</gpx>